<?xml version='1.0' encoding='UTF-8'?><gpx version="1.1" creator="JPX - https://github.com/jenetics/jpx" xmlns="http://www.topografix.com/GPX/1/1"><trk><trkseg><trkpt lat="45.3202062" lon="9.4879073"><ele>67.8</ele><time>2026-03-29T08:07:03.345Z</time></trkpt><trkpt lat="45.3202681" lon="9.4879371"><ele>67.6</ele><time>2026-03-29T08:07:06.345Z</time></trkpt><trkpt lat="45.3203855" lon="9.4879796"><ele>67.4</ele><time>2026-03-29T08:07:23.352Z</time></trkpt><trkpt lat="45.3204456" lon="9.4880458"><ele>67.2</ele><time>2026-03-29T08:07:25.345Z</time></trkpt><trkpt lat="45.3204662" lon="9.4882619"><ele>67.0</ele><time>2026-03-29T08:07:28.351Z</time></trkpt><trkpt lat="45.3204277" lon="9.4884663"><ele>67.0</ele><time>2026-03-29T08:07:30.35Z</time></trkpt><trkpt lat="45.3204032" lon="9.4885855"><ele>67.0</ele><time>2026-03-29T08:07:31.359Z</time></trkpt><trkpt lat="45.3203591" lon="9.4888278"><ele>67.0</ele><time>2026-03-29T08:07:33.345Z</time></trkpt><trkpt lat="45.3203394" lon="9.4889368"><ele>67.0</ele><time>2026-03-29T08:07:34.362Z</time></trkpt><trkpt lat="45.320297" lon="9.4891304"><ele>67.2</ele><time>2026-03-29T08:07:36.355Z</time></trkpt><trkpt lat="45.3202605" lon="9.4893223"><ele>67.4</ele><time>2026-03-29T08:07:38.329Z</time></trkpt><trkpt lat="45.3202391" lon="9.4894166"><ele>67.6</ele><time>2026-03-29T08:07:39.336Z</time></trkpt><trkpt lat="45.3202191" lon="9.4895106"><ele>67.8</ele><time>2026-03-29T08:07:40.356Z</time></trkpt><trkpt lat="45.3202007" lon="9.4895998"><ele>68.0</ele><time>2026-03-29T08:07:41.357Z</time></trkpt><trkpt lat="45.3201702" lon="9.4897549"><ele>68.0</ele><time>2026-03-29T08:07:43.375Z</time></trkpt><trkpt lat="45.3201405" lon="9.4899413"><ele>68.0</ele><time>2026-03-29T08:07:46.364Z</time></trkpt><trkpt lat="45.3201057" lon="9.4900729"><ele>68.0</ele><time>2026-03-29T08:07:48.354Z</time></trkpt><trkpt lat="45.3200769" lon="9.4901784"><ele>68.0</ele><time>2026-03-29T08:07:50.356Z</time></trkpt><trkpt lat="45.3200556" lon="9.4902664"><ele>68.0</ele><time>2026-03-29T08:07:52.347Z</time></trkpt><trkpt lat="45.3200132" lon="9.4904199"><ele>68.0</ele><time>2026-03-29T08:07:56.349Z</time></trkpt><trkpt lat="45.3199886" lon="9.4905409"><ele>68.0</ele><time>2026-03-29T08:08:04.348Z</time></trkpt><trkpt lat="45.3199681" lon="9.490638"><ele>68.0</ele><time>2026-03-29T08:08:05.348Z</time></trkpt><trkpt lat="45.3199136" lon="9.4908584"><ele>68.0</ele><time>2026-03-29T08:08:07.344Z</time></trkpt><trkpt lat="45.3198601" lon="9.4909369"><ele>68.0</ele><time>2026-03-29T08:08:08.349Z</time></trkpt><trkpt lat="45.3197172" lon="9.4910144"><ele>68.0</ele><time>2026-03-29T08:08:10.361Z</time></trkpt><trkpt lat="45.3195394" lon="9.4909981"><ele>68.0</ele><time>2026-03-29T08:08:12.343Z</time></trkpt><trkpt lat="45.3194427" lon="9.4909836"><ele>68.0</ele><time>2026-03-29T08:08:13.344Z</time></trkpt><trkpt lat="45.3193492" lon="9.4909711"><ele>68.0</ele><time>2026-03-29T08:08:14.349Z</time></trkpt><trkpt lat="45.3191639" lon="9.4909433"><ele>68.0</ele><time>2026-03-29T08:08:16.354Z</time></trkpt><trkpt lat="45.3189874" lon="9.4909138"><ele>68.0</ele><time>2026-03-29T08:08:18.343Z</time></trkpt><trkpt lat="45.3189126" lon="9.4909009"><ele>68.0</ele><time>2026-03-29T08:08:19.358Z</time></trkpt><trkpt lat="45.3187876" lon="9.4908865"><ele>68.0</ele><time>2026-03-29T08:08:21.386Z</time></trkpt><trkpt lat="45.3186746" lon="9.4908691"><ele>68.0</ele><time>2026-03-29T08:08:23.354Z</time></trkpt><trkpt lat="45.3184944" lon="9.4908301"><ele>68.0</ele><time>2026-03-29T08:08:25.34Z</time></trkpt><trkpt lat="45.3183807" lon="9.490811"><ele>68.0</ele><time>2026-03-29T08:08:26.343Z</time></trkpt><trkpt lat="45.3181831" lon="9.4907818"><ele>67.75</ele><time>2026-03-29T08:08:28.341Z</time></trkpt><trkpt lat="45.3180052" lon="9.4907554"><ele>67.5</ele><time>2026-03-29T08:08:30.342Z</time></trkpt><trkpt lat="45.3178297" lon="9.4907281"><ele>67.25</ele><time>2026-03-29T08:08:32.343Z</time></trkpt><trkpt lat="45.317751" lon="9.4907156"><ele>67.0</ele><time>2026-03-29T08:08:33.351Z</time></trkpt><trkpt lat="45.3176031" lon="9.4906895"><ele>67.0</ele><time>2026-03-29T08:08:35.344Z</time></trkpt><trkpt lat="45.3175324" lon="9.4906759"><ele>67.0</ele><time>2026-03-29T08:08:36.353Z</time></trkpt><trkpt lat="45.3174097" lon="9.4906561"><ele>67.0</ele><time>2026-03-29T08:08:38.339Z</time></trkpt><trkpt lat="45.3172906" lon="9.4906365"><ele>67.0</ele><time>2026-03-29T08:08:40.343Z</time></trkpt><trkpt lat="45.3171709" lon="9.4906191"><ele>67.0</ele><time>2026-03-29T08:08:42.349Z</time></trkpt><trkpt lat="45.3170644" lon="9.4905941"><ele>67.25</ele><time>2026-03-29T08:08:44.349Z</time></trkpt><trkpt lat="45.3169717" lon="9.4905669"><ele>67.5</ele><time>2026-03-29T08:08:46.344Z</time></trkpt><trkpt lat="45.316811" lon="9.490441"><ele>67.75</ele><time>2026-03-29T08:08:49.356Z</time></trkpt><trkpt lat="45.3166869" lon="9.4903981"><ele>68.0</ele><time>2026-03-29T08:08:51.349Z</time></trkpt><trkpt lat="45.3166047" lon="9.490437"><ele>68.0</ele><time>2026-03-29T08:08:52.353Z</time></trkpt><trkpt lat="45.3164936" lon="9.4904731"><ele>68.0</ele><time>2026-03-29T08:08:53.355Z</time></trkpt><trkpt lat="45.3163546" lon="9.4904908"><ele>68.0</ele><time>2026-03-29T08:08:54.365Z</time></trkpt><trkpt lat="45.3160692" lon="9.4904816"><ele>68.33333333333334</ele><time>2026-03-29T08:08:56.349Z</time></trkpt><trkpt lat="45.3159386" lon="9.4904524"><ele>68.66666666666667</ele><time>2026-03-29T08:08:57.35Z</time></trkpt><trkpt lat="45.3156892" lon="9.4903814"><ele>69.0</ele><time>2026-03-29T08:08:59.352Z</time></trkpt><trkpt lat="45.3154704" lon="9.4903436"><ele>69.25</ele><time>2026-03-29T08:09:01.335Z</time></trkpt><trkpt lat="45.3153712" lon="9.4903246"><ele>69.5</ele><time>2026-03-29T08:09:02.342Z</time></trkpt><trkpt lat="45.3152714" lon="9.4903028"><ele>69.75</ele><time>2026-03-29T08:09:03.345Z</time></trkpt><trkpt lat="45.3150734" lon="9.4902583"><ele>70.0</ele><time>2026-03-29T08:09:05.338Z</time></trkpt><trkpt lat="45.314976" lon="9.4902438"><ele>70.0</ele><time>2026-03-29T08:09:06.349Z</time></trkpt><trkpt lat="45.3148712" lon="9.490242"><ele>70.0</ele><time>2026-03-29T08:09:07.349Z</time></trkpt><trkpt lat="45.3147617" lon="9.4902541"><ele>70.0</ele><time>2026-03-29T08:09:08.348Z</time></trkpt><trkpt lat="45.3145327" lon="9.4902998"><ele>70.0</ele><time>2026-03-29T08:09:10.352Z</time></trkpt><trkpt lat="45.3143015" lon="9.4903663"><ele>70.0</ele><time>2026-03-29T08:09:12.35Z</time></trkpt><trkpt lat="45.3141784" lon="9.4904036"><ele>70.0</ele><time>2026-03-29T08:09:13.35Z</time></trkpt><trkpt lat="45.3139226" lon="9.4904676"><ele>70.0</ele><time>2026-03-29T08:09:15.351Z</time></trkpt><trkpt lat="45.3136619" lon="9.4905015"><ele>69.66666666666666</ele><time>2026-03-29T08:09:17.344Z</time></trkpt><trkpt lat="45.3135336" lon="9.4905159"><ele>69.33333333333333</ele><time>2026-03-29T08:09:18.343Z</time></trkpt><trkpt lat="45.3134107" lon="9.4905288"><ele>69.0</ele><time>2026-03-29T08:09:19.347Z</time></trkpt><trkpt lat="45.3131734" lon="9.4905596"><ele>70.5</ele><time>2026-03-29T08:09:21.355Z</time></trkpt><trkpt lat="45.3129147" lon="9.4905799"><ele>72.0</ele><time>2026-03-29T08:09:23.356Z</time></trkpt><trkpt lat="45.3126271" lon="9.4906023"><ele>72.0</ele><time>2026-03-29T08:09:25.345Z</time></trkpt><trkpt lat="45.312306" lon="9.4906366"><ele>72.0</ele><time>2026-03-29T08:09:27.347Z</time></trkpt><trkpt lat="45.3121387" lon="9.4906554"><ele>73.33333333333333</ele><time>2026-03-29T08:09:28.35Z</time></trkpt><trkpt lat="45.3119712" lon="9.4906738"><ele>74.66666666666666</ele><time>2026-03-29T08:09:29.352Z</time></trkpt><trkpt lat="45.3117897" lon="9.4907031"><ele>76.0</ele><time>2026-03-29T08:09:30.362Z</time></trkpt><trkpt lat="45.3114299" lon="9.4907459"><ele>76.5</ele><time>2026-03-29T08:09:32.325Z</time></trkpt><trkpt lat="45.3111036" lon="9.4907839"><ele>77.0</ele><time>2026-03-29T08:09:34.321Z</time></trkpt><trkpt lat="45.3109524" lon="9.4907976"><ele>77.0</ele><time>2026-03-29T08:09:35.33Z</time></trkpt><trkpt lat="45.3106601" lon="9.4908303"><ele>77.0</ele><time>2026-03-29T08:09:37.326Z</time></trkpt><trkpt lat="45.3105115" lon="9.4908439"><ele>77.0</ele><time>2026-03-29T08:09:38.335Z</time></trkpt><trkpt lat="45.3103657" lon="9.4908599"><ele>77.0</ele><time>2026-03-29T08:09:39.336Z</time></trkpt><trkpt lat="45.3102264" lon="9.4908743"><ele>77.0</ele><time>2026-03-29T08:09:40.341Z</time></trkpt><trkpt lat="45.3099706" lon="9.4908933"><ele>77.0</ele><time>2026-03-29T08:09:42.337Z</time></trkpt><trkpt lat="45.3098642" lon="9.4909079"><ele>77.0</ele><time>2026-03-29T08:09:43.337Z</time></trkpt><trkpt lat="45.3097627" lon="9.4909264"><ele>77.0</ele><time>2026-03-29T08:09:44.341Z</time></trkpt><trkpt lat="45.3095497" lon="9.4909586"><ele>77.0</ele><time>2026-03-29T08:09:46.344Z</time></trkpt><trkpt lat="45.3093192" lon="9.4909834"><ele>77.0</ele><time>2026-03-29T08:09:48.343Z</time></trkpt><trkpt lat="45.3092022" lon="9.4909914"><ele>77.0</ele><time>2026-03-29T08:09:49.35Z</time></trkpt><trkpt lat="45.3089572" lon="9.4910043"><ele>77.0</ele><time>2026-03-29T08:09:51.339Z</time></trkpt><trkpt lat="45.3086855" lon="9.4910243"><ele>77.0</ele><time>2026-03-29T08:09:53.327Z</time></trkpt><trkpt lat="45.3085347" lon="9.4910433"><ele>77.0</ele><time>2026-03-29T08:09:54.343Z</time></trkpt><trkpt lat="45.3083801" lon="9.4910629"><ele>77.0</ele><time>2026-03-29T08:09:55.36Z</time></trkpt><trkpt lat="45.3080752" lon="9.4910898"><ele>76.66666666666667</ele><time>2026-03-29T08:09:57.334Z</time></trkpt><trkpt lat="45.3077977" lon="9.4911226"><ele>76.33333333333333</ele><time>2026-03-29T08:09:59.34Z</time></trkpt><trkpt lat="45.3076687" lon="9.4911443"><ele>76.0</ele><time>2026-03-29T08:10:00.341Z</time></trkpt><trkpt lat="45.3075465" lon="9.4911696"><ele>76.0</ele><time>2026-03-29T08:10:01.341Z</time></trkpt><trkpt lat="45.3073286" lon="9.4912166"><ele>76.0</ele><time>2026-03-29T08:10:03.349Z</time></trkpt><trkpt lat="45.3071369" lon="9.4912628"><ele>76.0</ele><time>2026-03-29T08:10:05.347Z</time></trkpt><trkpt lat="45.3070544" lon="9.4912874"><ele>76.6</ele><time>2026-03-29T08:10:06.351Z</time></trkpt><trkpt lat="45.3069792" lon="9.491307"><ele>77.19999999999999</ele><time>2026-03-29T08:10:07.355Z</time></trkpt><trkpt lat="45.3068599" lon="9.4913436"><ele>77.80000000000001</ele><time>2026-03-29T08:10:09.349Z</time></trkpt><trkpt lat="45.3067449" lon="9.4913883"><ele>78.4</ele><time>2026-03-29T08:10:12.349Z</time></trkpt><trkpt lat="45.3066447" lon="9.4914291"><ele>79.0</ele><time>2026-03-29T08:10:16.34Z</time></trkpt><trkpt lat="45.3064802" lon="9.4914943"><ele>78.75</ele><time>2026-03-29T08:10:22.353Z</time></trkpt><trkpt lat="45.3063264" lon="9.4915683"><ele>78.5</ele><time>2026-03-29T08:10:24.348Z</time></trkpt><trkpt lat="45.3062354" lon="9.4916151"><ele>78.25</ele><time>2026-03-29T08:10:25.349Z</time></trkpt><trkpt lat="45.3061381" lon="9.4916646"><ele>78.0</ele><time>2026-03-29T08:10:26.356Z</time></trkpt><trkpt lat="45.3060379" lon="9.4917149"><ele>78.0</ele><time>2026-03-29T08:10:27.359Z</time></trkpt><trkpt lat="45.3058515" lon="9.4918175"><ele>78.0</ele><time>2026-03-29T08:10:29.351Z</time></trkpt><trkpt lat="45.3056997" lon="9.4919075"><ele>78.0</ele><time>2026-03-29T08:10:31.35Z</time></trkpt><trkpt lat="45.3056336" lon="9.4919451"><ele>78.0</ele><time>2026-03-29T08:10:32.372Z</time></trkpt><trkpt lat="45.3055027" lon="9.4920253"><ele>78.0</ele><time>2026-03-29T08:10:34.344Z</time></trkpt><trkpt lat="45.3054277" lon="9.4920578"><ele>78.0</ele><time>2026-03-29T08:10:35.351Z</time></trkpt><trkpt lat="45.3052516" lon="9.4921273"><ele>78.0</ele><time>2026-03-29T08:10:37.352Z</time></trkpt><trkpt lat="45.3051584" lon="9.4921664"><ele>78.0</ele><time>2026-03-29T08:10:38.366Z</time></trkpt><trkpt lat="45.3049842" lon="9.4922403"><ele>78.0</ele><time>2026-03-29T08:10:40.346Z</time></trkpt><trkpt lat="45.3048061" lon="9.4923095"><ele>78.0</ele><time>2026-03-29T08:10:42.351Z</time></trkpt><trkpt lat="45.3047096" lon="9.4923456"><ele>78.0</ele><time>2026-03-29T08:10:43.367Z</time></trkpt><trkpt lat="45.3044977" lon="9.4924278"><ele>78.2</ele><time>2026-03-29T08:10:45.357Z</time></trkpt><trkpt lat="45.3043934" lon="9.4924746"><ele>78.4</ele><time>2026-03-29T08:10:46.358Z</time></trkpt><trkpt lat="45.3042329" lon="9.4925468"><ele>78.60000000000001</ele><time>2026-03-29T08:10:48.349Z</time></trkpt><trkpt lat="45.3041362" lon="9.4925848"><ele>78.8</ele><time>2026-03-29T08:10:50.346Z</time></trkpt><trkpt lat="45.3040732" lon="9.4925976"><ele>79.0</ele><time>2026-03-29T08:10:52.336Z</time></trkpt><trkpt lat="45.3039924" lon="9.4926178"><ele>79.0</ele><time>2026-03-29T08:10:55.342Z</time></trkpt><trkpt lat="45.303922" lon="9.4926248"><ele>79.0</ele><time>2026-03-29T08:10:59.339Z</time></trkpt><trkpt lat="45.3038572" lon="9.4926136"><ele>79.0</ele><time>2026-03-29T08:11:04.351Z</time></trkpt><trkpt lat="45.3037199" lon="9.4925458"><ele>79.0</ele><time>2026-03-29T08:11:06.371Z</time></trkpt><trkpt lat="45.3035559" lon="9.4923858"><ele>78.33333333333333</ele><time>2026-03-29T08:11:08.363Z</time></trkpt><trkpt lat="45.3034285" lon="9.4921728"><ele>77.66666666666667</ele><time>2026-03-29T08:11:10.369Z</time></trkpt><trkpt lat="45.3033781" lon="9.492068"><ele>77.0</ele><time>2026-03-29T08:11:11.373Z</time></trkpt><trkpt lat="45.3032839" lon="9.4918171"><ele>77.0</ele><time>2026-03-29T08:11:13.355Z</time></trkpt><trkpt lat="45.3032352" lon="9.4916744"><ele>77.0</ele><time>2026-03-29T08:11:14.367Z</time></trkpt><trkpt lat="45.3031282" lon="9.4913516"><ele>77.0</ele><time>2026-03-29T08:11:16.355Z</time></trkpt><trkpt lat="45.3030287" lon="9.4910241"><ele>76.8</ele><time>2026-03-29T08:11:18.342Z</time></trkpt><trkpt lat="45.3029929" lon="9.4908931"><ele>76.6</ele><time>2026-03-29T08:11:19.358Z</time></trkpt><trkpt lat="45.3029494" lon="9.4907231"><ele>76.39999999999999</ele><time>2026-03-29T08:11:21.346Z</time></trkpt><trkpt lat="45.3029121" lon="9.4905976"><ele>76.2</ele><time>2026-03-29T08:11:24.346Z</time></trkpt><trkpt lat="45.3028852" lon="9.4905033"><ele>76.0</ele><time>2026-03-29T08:11:27.347Z</time></trkpt><trkpt lat="45.3028532" lon="9.4904071"><ele>75.75</ele><time>2026-03-29T08:11:46.339Z</time></trkpt><trkpt lat="45.3028142" lon="9.4902816"><ele>75.5</ele><time>2026-03-29T08:11:48.354Z</time></trkpt><trkpt lat="45.3027579" lon="9.4900906"><ele>75.25</ele><time>2026-03-29T08:11:50.338Z</time></trkpt><trkpt lat="45.3027019" lon="9.4898848"><ele>75.0</ele><time>2026-03-29T08:11:52.34Z</time></trkpt><trkpt lat="45.3026441" lon="9.4896654"><ele>74.66666666666667</ele><time>2026-03-29T08:11:54.332Z</time></trkpt><trkpt lat="45.3026127" lon="9.4895368"><ele>74.33333333333334</ele><time>2026-03-29T08:11:55.348Z</time></trkpt><trkpt lat="45.302553" lon="9.4892358"><ele>74.0</ele><time>2026-03-29T08:11:57.347Z</time></trkpt><trkpt lat="45.3025081" lon="9.4889019"><ele>74.66666666666667</ele><time>2026-03-29T08:11:59.344Z</time></trkpt><trkpt lat="45.3024716" lon="9.4885549"><ele>75.33333333333333</ele><time>2026-03-29T08:12:01.337Z</time></trkpt><trkpt lat="45.3024534" lon="9.4883799"><ele>76.0</ele><time>2026-03-29T08:12:02.357Z</time></trkpt><trkpt lat="45.3024201" lon="9.4880458"><ele>76.0</ele><time>2026-03-29T08:12:04.347Z</time></trkpt><trkpt lat="45.3023901" lon="9.4877309"><ele>76.0</ele><time>2026-03-29T08:12:06.341Z</time></trkpt><trkpt lat="45.3023736" lon="9.4875756"><ele>76.0</ele><time>2026-03-29T08:12:07.345Z</time></trkpt><trkpt lat="45.3023579" lon="9.4874218"><ele>76.0</ele><time>2026-03-29T08:12:08.347Z</time></trkpt><trkpt lat="45.3023364" lon="9.4872709"><ele>76.0</ele><time>2026-03-29T08:12:09.353Z</time></trkpt><trkpt lat="45.3023012" lon="9.4871254"><ele>76.0</ele><time>2026-03-29T08:12:10.355Z</time></trkpt><trkpt lat="45.302194" lon="9.4868583"><ele>76.0</ele><time>2026-03-29T08:12:12.341Z</time></trkpt><trkpt lat="45.3021317" lon="9.4867489"><ele>76.0</ele><time>2026-03-29T08:12:13.343Z</time></trkpt><trkpt lat="45.3020737" lon="9.4866508"><ele>76.16666666666666</ele><time>2026-03-29T08:12:14.343Z</time></trkpt><trkpt lat="45.3020219" lon="9.4865574"><ele>76.33333333333333</ele><time>2026-03-29T08:12:15.351Z</time></trkpt><trkpt lat="45.3019765" lon="9.4864625"><ele>76.5</ele><time>2026-03-29T08:12:16.353Z</time></trkpt><trkpt lat="45.3019424" lon="9.4863674"><ele>76.66666666666667</ele><time>2026-03-29T08:12:17.37Z</time></trkpt><trkpt lat="45.3018932" lon="9.4862096"><ele>76.83333333333334</ele><time>2026-03-29T08:12:19.341Z</time></trkpt><trkpt lat="45.3018692" lon="9.4861238"><ele>77.0</ele><time>2026-03-29T08:12:20.346Z</time></trkpt><trkpt lat="45.3018427" lon="9.4860268"><ele>77.0</ele><time>2026-03-29T08:12:21.349Z</time></trkpt><trkpt lat="45.3018112" lon="9.4859193"><ele>77.0</ele><time>2026-03-29T08:12:22.355Z</time></trkpt><trkpt lat="45.3017739" lon="9.485803"><ele>77.0</ele><time>2026-03-29T08:12:23.358Z</time></trkpt><trkpt lat="45.3016642" lon="9.4855651"><ele>77.0</ele><time>2026-03-29T08:12:25.356Z</time></trkpt><trkpt lat="45.301505" lon="9.4853795"><ele>76.66666666666667</ele><time>2026-03-29T08:12:27.337Z</time></trkpt><trkpt lat="45.3013995" lon="9.4853275"><ele>76.33333333333333</ele><time>2026-03-29T08:12:28.348Z</time></trkpt><trkpt lat="45.3011339" lon="9.4852734"><ele>76.0</ele><time>2026-03-29T08:12:30.344Z</time></trkpt><trkpt lat="45.3008415" lon="9.4851521"><ele>76.0</ele><time>2026-03-29T08:12:32.341Z</time></trkpt><trkpt lat="45.300696" lon="9.4850599"><ele>76.0</ele><time>2026-03-29T08:12:33.346Z</time></trkpt><trkpt lat="45.3005566" lon="9.4849456"><ele>76.0</ele><time>2026-03-29T08:12:34.363Z</time></trkpt><trkpt lat="45.3002601" lon="9.4846536"><ele>76.0</ele><time>2026-03-29T08:12:36.355Z</time></trkpt><trkpt lat="45.2999164" lon="9.4842981"><ele>76.0</ele><time>2026-03-29T08:12:38.35Z</time></trkpt><trkpt lat="45.2997459" lon="9.4841148"><ele>75.0</ele><time>2026-03-29T08:12:39.361Z</time></trkpt><trkpt lat="45.2994062" lon="9.4837451"><ele>74.0</ele><time>2026-03-29T08:12:41.347Z</time></trkpt><trkpt lat="45.2990707" lon="9.4833713"><ele>74.0</ele><time>2026-03-29T08:12:43.373Z</time></trkpt><trkpt lat="45.2987397" lon="9.4829779"><ele>74.0</ele><time>2026-03-29T08:12:45.339Z</time></trkpt><trkpt lat="45.2985727" lon="9.4827731"><ele>74.0</ele><time>2026-03-29T08:12:46.343Z</time></trkpt><trkpt lat="45.2984004" lon="9.4825603"><ele>74.0</ele><time>2026-03-29T08:12:47.343Z</time></trkpt><trkpt lat="45.2982212" lon="9.4823378"><ele>75.0</ele><time>2026-03-29T08:12:48.347Z</time></trkpt><trkpt lat="45.2978584" lon="9.4818834"><ele>75.0</ele><time>2026-03-29T08:12:50.35Z</time></trkpt><trkpt lat="45.2976846" lon="9.4816634"><ele>75.0</ele><time>2026-03-29T08:12:51.352Z</time></trkpt><trkpt lat="45.2975199" lon="9.4814511"><ele>76.0</ele><time>2026-03-29T08:12:52.353Z</time></trkpt><trkpt lat="45.2972124" lon="9.4810574"><ele>77.0</ele><time>2026-03-29T08:12:54.359Z</time></trkpt><trkpt lat="45.296928" lon="9.4807014"><ele>77.0</ele><time>2026-03-29T08:12:56.345Z</time></trkpt><trkpt lat="45.2967972" lon="9.4805386"><ele>77.0</ele><time>2026-03-29T08:12:57.348Z</time></trkpt><trkpt lat="45.2966747" lon="9.4803856"><ele>77.0</ele><time>2026-03-29T08:12:58.349Z</time></trkpt><trkpt lat="45.2965581" lon="9.4802389"><ele>77.0</ele><time>2026-03-29T08:12:59.351Z</time></trkpt><trkpt lat="45.2963504" lon="9.4799843"><ele>77.0</ele><time>2026-03-29T08:13:01.353Z</time></trkpt><trkpt lat="45.2961749" lon="9.4797764"><ele>77.0</ele><time>2026-03-29T08:13:03.349Z</time></trkpt><trkpt lat="45.2959911" lon="9.4795701"><ele>77.0</ele><time>2026-03-29T08:13:05.343Z</time></trkpt><trkpt lat="45.2958929" lon="9.4794619"><ele>77.0</ele><time>2026-03-29T08:13:06.347Z</time></trkpt><trkpt lat="45.295782" lon="9.4793418"><ele>77.0</ele><time>2026-03-29T08:13:07.347Z</time></trkpt><trkpt lat="45.2956534" lon="9.479205"><ele>77.0</ele><time>2026-03-29T08:13:08.349Z</time></trkpt><trkpt lat="45.2955254" lon="9.4790734"><ele>77.0</ele><time>2026-03-29T08:13:09.348Z</time></trkpt><trkpt lat="45.2952847" lon="9.4788321"><ele>77.0</ele><time>2026-03-29T08:13:11.344Z</time></trkpt><trkpt lat="45.2951599" lon="9.4787079"><ele>77.0</ele><time>2026-03-29T08:13:12.347Z</time></trkpt><trkpt lat="45.2948964" lon="9.4784469"><ele>77.0</ele><time>2026-03-29T08:13:14.342Z</time></trkpt><trkpt lat="45.2947589" lon="9.4783098"><ele>77.0</ele><time>2026-03-29T08:13:15.343Z</time></trkpt><trkpt lat="45.2946179" lon="9.4781713"><ele>77.0</ele><time>2026-03-29T08:13:16.343Z</time></trkpt><trkpt lat="45.2944749" lon="9.4780323"><ele>76.5</ele><time>2026-03-29T08:13:17.348Z</time></trkpt><trkpt lat="45.2941856" lon="9.4777511"><ele>76.0</ele><time>2026-03-29T08:13:19.347Z</time></trkpt><trkpt lat="45.2938944" lon="9.4774649"><ele>76.0</ele><time>2026-03-29T08:13:21.346Z</time></trkpt><trkpt lat="45.2935965" lon="9.4771736"><ele>76.0</ele><time>2026-03-29T08:13:23.348Z</time></trkpt><trkpt lat="45.2932929" lon="9.4768731"><ele>76.0</ele><time>2026-03-29T08:13:25.341Z</time></trkpt><trkpt lat="45.2931387" lon="9.4767191"><ele>76.0</ele><time>2026-03-29T08:13:26.341Z</time></trkpt><trkpt lat="45.2929834" lon="9.4765621"><ele>76.0</ele><time>2026-03-29T08:13:27.343Z</time></trkpt><trkpt lat="45.2926717" lon="9.4762386"><ele>76.33333333333333</ele><time>2026-03-29T08:13:29.341Z</time></trkpt><trkpt lat="45.2925147" lon="9.4760741"><ele>76.66666666666667</ele><time>2026-03-29T08:13:30.354Z</time></trkpt><trkpt lat="45.2923644" lon="9.4759153"><ele>77.0</ele><time>2026-03-29T08:13:31.359Z</time></trkpt><trkpt lat="45.2920812" lon="9.4756088"><ele>77.0</ele><time>2026-03-29T08:13:33.342Z</time></trkpt><trkpt lat="45.2919426" lon="9.4754563"><ele>77.0</ele><time>2026-03-29T08:13:34.348Z</time></trkpt><trkpt lat="45.2918057" lon="9.4753036"><ele>77.0</ele><time>2026-03-29T08:13:35.348Z</time></trkpt><trkpt lat="45.2916702" lon="9.4751518"><ele>76.5</ele><time>2026-03-29T08:13:36.35Z</time></trkpt><trkpt lat="45.2915357" lon="9.4750001"><ele>76.0</ele><time>2026-03-29T08:13:37.351Z</time></trkpt><trkpt lat="45.2912691" lon="9.4746953"><ele>75.5</ele><time>2026-03-29T08:13:39.348Z</time></trkpt><trkpt lat="45.2910044" lon="9.4743845"><ele>75.0</ele><time>2026-03-29T08:13:41.348Z</time></trkpt><trkpt lat="45.2908709" lon="9.4742276"><ele>75.0</ele><time>2026-03-29T08:13:42.353Z</time></trkpt><trkpt lat="45.2906017" lon="9.4739093"><ele>75.0</ele><time>2026-03-29T08:13:44.351Z</time></trkpt><trkpt lat="45.2903277" lon="9.4735854"><ele>75.5</ele><time>2026-03-29T08:13:46.351Z</time></trkpt><trkpt lat="45.2900401" lon="9.4732513"><ele>76.0</ele><time>2026-03-29T08:13:48.348Z</time></trkpt><trkpt lat="45.2897371" lon="9.4728973"><ele>76.0</ele><time>2026-03-29T08:13:50.347Z</time></trkpt><trkpt lat="45.2894282" lon="9.4725313"><ele>76.0</ele><time>2026-03-29T08:13:52.346Z</time></trkpt><trkpt lat="45.2892719" lon="9.4723474"><ele>76.0</ele><time>2026-03-29T08:13:53.346Z</time></trkpt><trkpt lat="45.2891167" lon="9.4721646"><ele>76.0</ele><time>2026-03-29T08:13:54.349Z</time></trkpt><trkpt lat="45.2889632" lon="9.4719826"><ele>76.0</ele><time>2026-03-29T08:13:55.352Z</time></trkpt><trkpt lat="45.2886567" lon="9.4716194"><ele>75.5</ele><time>2026-03-29T08:13:57.352Z</time></trkpt><trkpt lat="45.2883439" lon="9.4712569"><ele>75.0</ele><time>2026-03-29T08:13:59.35Z</time></trkpt><trkpt lat="45.2881889" lon="9.4710761"><ele>76.0</ele><time>2026-03-29T08:14:00.357Z</time></trkpt><trkpt lat="45.2880401" lon="9.4709033"><ele>77.0</ele><time>2026-03-29T08:14:01.359Z</time></trkpt><trkpt lat="45.2877656" lon="9.4705801"><ele>76.5</ele><time>2026-03-29T08:14:03.354Z</time></trkpt><trkpt lat="45.28749" lon="9.4702628"><ele>76.0</ele><time>2026-03-29T08:14:05.349Z</time></trkpt><trkpt lat="45.2873491" lon="9.4700981"><ele>75.5</ele><time>2026-03-29T08:14:06.35Z</time></trkpt><trkpt lat="45.2872092" lon="9.4699304"><ele>75.0</ele><time>2026-03-29T08:14:07.35Z</time></trkpt><trkpt lat="45.2869194" lon="9.4695861"><ele>75.0</ele><time>2026-03-29T08:14:09.361Z</time></trkpt><trkpt lat="45.2866124" lon="9.4692249"><ele>75.0</ele><time>2026-03-29T08:14:11.35Z</time></trkpt><trkpt lat="45.286307" lon="9.4688661"><ele>74.0</ele><time>2026-03-29T08:14:13.351Z</time></trkpt><trkpt lat="45.2860089" lon="9.4685119"><ele>73.0</ele><time>2026-03-29T08:14:15.344Z</time></trkpt><trkpt lat="45.2858471" lon="9.4683211"><ele>74.5</ele><time>2026-03-29T08:14:16.358Z</time></trkpt><trkpt lat="45.2855284" lon="9.4679459"><ele>76.0</ele><time>2026-03-29T08:14:18.344Z</time></trkpt><trkpt lat="45.2853742" lon="9.4677641"><ele>76.0</ele><time>2026-03-29T08:14:19.352Z</time></trkpt><trkpt lat="45.2852226" lon="9.4675836"><ele>76.0</ele><time>2026-03-29T08:14:20.358Z</time></trkpt><trkpt lat="45.2849235" lon="9.4672243"><ele>76.0</ele><time>2026-03-29T08:14:22.344Z</time></trkpt><trkpt lat="45.2847756" lon="9.4670489"><ele>76.0</ele><time>2026-03-29T08:14:23.346Z</time></trkpt><trkpt lat="45.2844764" lon="9.4666998"><ele>76.0</ele><time>2026-03-29T08:14:25.351Z</time></trkpt><trkpt lat="45.2841712" lon="9.4663429"><ele>76.0</ele><time>2026-03-29T08:14:27.348Z</time></trkpt><trkpt lat="45.2840154" lon="9.4661623"><ele>76.5</ele><time>2026-03-29T08:14:28.35Z</time></trkpt><trkpt lat="45.2837046" lon="9.4657965"><ele>77.0</ele><time>2026-03-29T08:14:30.342Z</time></trkpt><trkpt lat="45.2835517" lon="9.4656149"><ele>75.5</ele><time>2026-03-29T08:14:31.355Z</time></trkpt><trkpt lat="45.2832539" lon="9.465262"><ele>74.0</ele><time>2026-03-29T08:14:33.355Z</time></trkpt><trkpt lat="45.2831102" lon="9.4650945"><ele>75.5</ele><time>2026-03-29T08:14:34.354Z</time></trkpt><trkpt lat="45.2828241" lon="9.4647598"><ele>77.0</ele><time>2026-03-29T08:14:36.353Z</time></trkpt><trkpt lat="45.2825412" lon="9.4644288"><ele>77.0</ele><time>2026-03-29T08:14:38.343Z</time></trkpt><trkpt lat="45.2824022" lon="9.4642631"><ele>77.0</ele><time>2026-03-29T08:14:39.357Z</time></trkpt><trkpt lat="45.2821297" lon="9.4639216"><ele>76.0</ele><time>2026-03-29T08:14:41.351Z</time></trkpt><trkpt lat="45.2818582" lon="9.4635608"><ele>75.0</ele><time>2026-03-29T08:14:43.356Z</time></trkpt><trkpt lat="45.2815794" lon="9.4631828"><ele>74.5</ele><time>2026-03-29T08:14:45.357Z</time></trkpt><trkpt lat="45.2813064" lon="9.4628049"><ele>74.0</ele><time>2026-03-29T08:14:47.354Z</time></trkpt><trkpt lat="45.2810292" lon="9.4624186"><ele>73.5</ele><time>2026-03-29T08:14:49.362Z</time></trkpt><trkpt lat="45.2807464" lon="9.4620259"><ele>73.0</ele><time>2026-03-29T08:14:51.353Z</time></trkpt><trkpt lat="45.2806012" lon="9.4618221"><ele>74.5</ele><time>2026-03-29T08:14:52.355Z</time></trkpt><trkpt lat="45.2804549" lon="9.4616153"><ele>76.0</ele><time>2026-03-29T08:14:53.354Z</time></trkpt><trkpt lat="45.2801584" lon="9.461203"><ele>76.0</ele><time>2026-03-29T08:14:55.344Z</time></trkpt><trkpt lat="45.2800089" lon="9.4609953"><ele>76.0</ele><time>2026-03-29T08:14:56.356Z</time></trkpt><trkpt lat="45.2797076" lon="9.4605803"><ele>75.5</ele><time>2026-03-29T08:14:58.35Z</time></trkpt><trkpt lat="45.2795545" lon="9.4603659"><ele>75.0</ele><time>2026-03-29T08:14:59.355Z</time></trkpt><trkpt lat="45.2792481" lon="9.4599308"><ele>75.0</ele><time>2026-03-29T08:15:01.354Z</time></trkpt><trkpt lat="45.2791021" lon="9.4597188"><ele>75.0</ele><time>2026-03-29T08:15:02.354Z</time></trkpt><trkpt lat="45.2788196" lon="9.4592948"><ele>75.0</ele><time>2026-03-29T08:15:04.347Z</time></trkpt><trkpt lat="45.2785526" lon="9.4588593"><ele>75.0</ele><time>2026-03-29T08:15:06.346Z</time></trkpt><trkpt lat="45.2783112" lon="9.4584366"><ele>75.0</ele><time>2026-03-29T08:15:08.347Z</time></trkpt><trkpt lat="45.2781997" lon="9.4582273"><ele>75.0</ele><time>2026-03-29T08:15:09.349Z</time></trkpt><trkpt lat="45.2779961" lon="9.4578006"><ele>75.5</ele><time>2026-03-29T08:15:11.346Z</time></trkpt><trkpt lat="45.2778095" lon="9.4573683"><ele>76.0</ele><time>2026-03-29T08:15:13.342Z</time></trkpt><trkpt lat="45.2777209" lon="9.4571524"><ele>75.5</ele><time>2026-03-29T08:15:14.343Z</time></trkpt><trkpt lat="45.2775546" lon="9.4567151"><ele>75.0</ele><time>2026-03-29T08:15:16.348Z</time></trkpt><trkpt lat="45.2774779" lon="9.4564964"><ele>75.0</ele><time>2026-03-29T08:15:17.351Z</time></trkpt><trkpt lat="45.2773316" lon="9.4560599"><ele>75.0</ele><time>2026-03-29T08:15:19.35Z</time></trkpt><trkpt lat="45.2772605" lon="9.4558414"><ele>75.5</ele><time>2026-03-29T08:15:20.353Z</time></trkpt><trkpt lat="45.2771926" lon="9.4556268"><ele>76.0</ele><time>2026-03-29T08:15:21.352Z</time></trkpt><trkpt lat="45.2770579" lon="9.4552024"><ele>74.5</ele><time>2026-03-29T08:15:23.353Z</time></trkpt><trkpt lat="45.2769914" lon="9.4549863"><ele>73.0</ele><time>2026-03-29T08:15:24.353Z</time></trkpt><trkpt lat="45.2768502" lon="9.4545333"><ele>73.0</ele><time>2026-03-29T08:15:26.353Z</time></trkpt><trkpt lat="45.2766997" lon="9.4540553"><ele>73.0</ele><time>2026-03-29T08:15:28.349Z</time></trkpt><trkpt lat="45.2766214" lon="9.4538094"><ele>73.66666666666666</ele><time>2026-03-29T08:15:29.351Z</time></trkpt><trkpt lat="45.2765417" lon="9.4535611"><ele>74.33333333333333</ele><time>2026-03-29T08:15:30.352Z</time></trkpt><trkpt lat="45.2764587" lon="9.4533083"><ele>75.0</ele><time>2026-03-29T08:15:31.352Z</time></trkpt><trkpt lat="45.2762626" lon="9.4528056"><ele>75.0</ele><time>2026-03-29T08:15:33.352Z</time></trkpt><trkpt lat="45.2761455" lon="9.4525666"><ele>75.0</ele><time>2026-03-29T08:15:34.359Z</time></trkpt><trkpt lat="45.2758782" lon="9.4521091"><ele>75.5</ele><time>2026-03-29T08:15:36.358Z</time></trkpt><trkpt lat="45.2755859" lon="9.4516683"><ele>76.0</ele><time>2026-03-29T08:15:38.356Z</time></trkpt><trkpt lat="45.2753019" lon="9.4512473"><ele>76.0</ele><time>2026-03-29T08:15:40.356Z</time></trkpt><trkpt lat="45.2751615" lon="9.4510423"><ele>76.0</ele><time>2026-03-29T08:15:41.367Z</time></trkpt><trkpt lat="45.2748886" lon="9.4506466"><ele>76.0</ele><time>2026-03-29T08:15:43.358Z</time></trkpt><trkpt lat="45.2746294" lon="9.450256"><ele>76.0</ele><time>2026-03-29T08:15:45.348Z</time></trkpt><trkpt lat="45.2744997" lon="9.4500498"><ele>76.5</ele><time>2026-03-29T08:15:46.357Z</time></trkpt><trkpt lat="45.2742362" lon="9.4496126"><ele>77.0</ele><time>2026-03-29T08:15:48.357Z</time></trkpt><trkpt lat="45.2741029" lon="9.4493824"><ele>76.0</ele><time>2026-03-29T08:15:49.358Z</time></trkpt><trkpt lat="45.2738404" lon="9.4489251"><ele>75.0</ele><time>2026-03-29T08:15:51.354Z</time></trkpt><trkpt lat="45.2735942" lon="9.4484855"><ele>75.0</ele><time>2026-03-29T08:15:53.355Z</time></trkpt><trkpt lat="45.2733611" lon="9.4480708"><ele>75.0</ele><time>2026-03-29T08:15:55.352Z</time></trkpt><trkpt lat="45.2731294" lon="9.4476851"><ele>75.0</ele><time>2026-03-29T08:15:57.353Z</time></trkpt><trkpt lat="45.2728887" lon="9.4472996"><ele>75.0</ele><time>2026-03-29T08:15:59.359Z</time></trkpt><trkpt lat="45.2726644" lon="9.4469584"><ele>75.0</ele><time>2026-03-29T08:16:01.355Z</time></trkpt><trkpt lat="45.2725737" lon="9.4468223"><ele>75.0</ele><time>2026-03-29T08:16:02.353Z</time></trkpt><trkpt lat="45.2724959" lon="9.4467063"><ele>75.0</ele><time>2026-03-29T08:16:03.367Z</time></trkpt><trkpt lat="45.2723637" lon="9.4465063"><ele>75.0</ele><time>2026-03-29T08:16:05.361Z</time></trkpt><trkpt lat="45.2722564" lon="9.4463335"><ele>74.5</ele><time>2026-03-29T08:16:07.356Z</time></trkpt><trkpt lat="45.2721875" lon="9.4461848"><ele>74.0</ele><time>2026-03-29T08:16:09.351Z</time></trkpt><trkpt lat="45.2721382" lon="9.4460039"><ele>73.5</ele><time>2026-03-29T08:16:11.37Z</time></trkpt><trkpt lat="45.2721074" lon="9.4458718"><ele>73.0</ele><time>2026-03-29T08:16:12.372Z</time></trkpt><trkpt lat="45.2719897" lon="9.4456341"><ele>73.0</ele><time>2026-03-29T08:16:14.362Z</time></trkpt><trkpt lat="45.2718807" lon="9.4455558"><ele>73.0</ele><time>2026-03-29T08:16:15.372Z</time></trkpt><trkpt lat="45.2715929" lon="9.4453243"><ele>72.0</ele><time>2026-03-29T08:16:17.356Z</time></trkpt><trkpt lat="45.2714334" lon="9.4451288"><ele>71.0</ele><time>2026-03-29T08:16:18.371Z</time></trkpt><trkpt lat="45.2711004" lon="9.4446428"><ele>70.5</ele><time>2026-03-29T08:16:20.357Z</time></trkpt><trkpt lat="45.2709361" lon="9.4443966"><ele>70.0</ele><time>2026-03-29T08:16:21.358Z</time></trkpt><trkpt lat="45.2705981" lon="9.4438949"><ele>72.0</ele><time>2026-03-29T08:16:23.354Z</time></trkpt><trkpt lat="45.2702477" lon="9.4433758"><ele>72.0</ele><time>2026-03-29T08:16:25.355Z</time></trkpt><trkpt lat="45.2699074" lon="9.4428756"><ele>71.5</ele><time>2026-03-29T08:16:27.351Z</time></trkpt><trkpt lat="45.2697421" lon="9.4426309"><ele>71.0</ele><time>2026-03-29T08:16:28.349Z</time></trkpt><trkpt lat="45.2694212" lon="9.4421589"><ele>71.5</ele><time>2026-03-29T08:16:30.35Z</time></trkpt><trkpt lat="45.2691251" lon="9.4417421"><ele>72.0</ele><time>2026-03-29T08:16:32.351Z</time></trkpt><trkpt lat="45.2689884" lon="9.4415524"><ele>72.0</ele><time>2026-03-29T08:16:33.361Z</time></trkpt><trkpt lat="45.2687249" lon="9.4411819"><ele>72.0</ele><time>2026-03-29T08:16:35.353Z</time></trkpt><trkpt lat="45.2684466" lon="9.440791"><ele>72.5</ele><time>2026-03-29T08:16:37.345Z</time></trkpt><trkpt lat="45.2681564" lon="9.4403826"><ele>73.0</ele><time>2026-03-29T08:16:39.347Z</time></trkpt><trkpt lat="45.2678621" lon="9.4399721"><ele>73.0</ele><time>2026-03-29T08:16:41.353Z</time></trkpt><trkpt lat="45.2675882" lon="9.4395941"><ele>73.0</ele><time>2026-03-29T08:16:43.34Z</time></trkpt><trkpt lat="45.2674627" lon="9.4394186"><ele>72.5</ele><time>2026-03-29T08:16:44.343Z</time></trkpt><trkpt lat="45.2672042" lon="9.4390894"><ele>72.0</ele><time>2026-03-29T08:16:46.343Z</time></trkpt><trkpt lat="45.2669192" lon="9.4387928"><ele>72.0</ele><time>2026-03-29T08:16:48.344Z</time></trkpt><trkpt lat="45.2667697" lon="9.4386515"><ele>72.0</ele><time>2026-03-29T08:16:49.345Z</time></trkpt><trkpt lat="45.2664396" lon="9.4383804"><ele>72.33333333333333</ele><time>2026-03-29T08:16:51.342Z</time></trkpt><trkpt lat="45.2662559" lon="9.4382533"><ele>72.66666666666666</ele><time>2026-03-29T08:16:52.351Z</time></trkpt><trkpt lat="45.2660599" lon="9.4381324"><ele>73.0</ele><time>2026-03-29T08:16:53.356Z</time></trkpt><trkpt lat="45.2656402" lon="9.4378953"><ele>73.0</ele><time>2026-03-29T08:16:55.355Z</time></trkpt><trkpt lat="45.2651967" lon="9.4376593"><ele>73.0</ele><time>2026-03-29T08:16:57.343Z</time></trkpt><trkpt lat="45.2649721" lon="9.4375399"><ele>73.0</ele><time>2026-03-29T08:16:58.348Z</time></trkpt><trkpt lat="45.2647471" lon="9.4374204"><ele>72.5</ele><time>2026-03-29T08:16:59.351Z</time></trkpt><trkpt lat="45.2645284" lon="9.4372934"><ele>72.0</ele><time>2026-03-29T08:17:00.395Z</time></trkpt><trkpt lat="45.2641191" lon="9.4369785"><ele>73.0</ele><time>2026-03-29T08:17:02.351Z</time></trkpt><trkpt lat="45.2637284" lon="9.4366085"><ele>73.0</ele><time>2026-03-29T08:17:04.336Z</time></trkpt><trkpt lat="45.2635397" lon="9.4364176"><ele>73.0</ele><time>2026-03-29T08:17:05.348Z</time></trkpt><trkpt lat="45.2631682" lon="9.4360671"><ele>73.0</ele><time>2026-03-29T08:17:07.338Z</time></trkpt><trkpt lat="45.2629752" lon="9.4359191"><ele>73.0</ele><time>2026-03-29T08:17:08.339Z</time></trkpt><trkpt lat="45.2625751" lon="9.4356478"><ele>72.0</ele><time>2026-03-29T08:17:10.341Z</time></trkpt><trkpt lat="45.2621624" lon="9.4353756"><ele>72.0</ele><time>2026-03-29T08:17:12.346Z</time></trkpt><trkpt lat="45.2619541" lon="9.4352393"><ele>72.0</ele><time>2026-03-29T08:17:13.347Z</time></trkpt><trkpt lat="45.2617421" lon="9.4351003"><ele>72.0</ele><time>2026-03-29T08:17:14.35Z</time></trkpt><trkpt lat="45.2613139" lon="9.4348195"><ele>73.0</ele><time>2026-03-29T08:17:16.352Z</time></trkpt><trkpt lat="45.2608954" lon="9.4345544"><ele>73.0</ele><time>2026-03-29T08:17:18.345Z</time></trkpt><trkpt lat="45.2606892" lon="9.4344215"><ele>73.0</ele><time>2026-03-29T08:17:19.356Z</time></trkpt><trkpt lat="45.2602944" lon="9.4341679"><ele>72.0</ele><time>2026-03-29T08:17:21.345Z</time></trkpt><trkpt lat="45.2601047" lon="9.4340466"><ele>71.0</ele><time>2026-03-29T08:17:22.347Z</time></trkpt><trkpt lat="45.2597277" lon="9.4338066"><ele>72.5</ele><time>2026-03-29T08:17:24.349Z</time></trkpt><trkpt lat="45.2593535" lon="9.4335673"><ele>74.0</ele><time>2026-03-29T08:17:26.347Z</time></trkpt><trkpt lat="45.2589824" lon="9.4333314"><ele>74.0</ele><time>2026-03-29T08:17:28.346Z</time></trkpt><trkpt lat="45.2588052" lon="9.4332148"><ele>74.0</ele><time>2026-03-29T08:17:29.356Z</time></trkpt><trkpt lat="45.2584664" lon="9.4329954"><ele>73.66666666666667</ele><time>2026-03-29T08:17:31.349Z</time></trkpt><trkpt lat="45.2583052" lon="9.4328929"><ele>73.33333333333333</ele><time>2026-03-29T08:17:32.354Z</time></trkpt><trkpt lat="45.2581557" lon="9.4327961"><ele>73.0</ele><time>2026-03-29T08:17:33.36Z</time></trkpt><trkpt lat="45.2578766" lon="9.4326183"><ele>73.0</ele><time>2026-03-29T08:17:35.35Z</time></trkpt><trkpt lat="45.2576072" lon="9.4324276"><ele>73.0</ele><time>2026-03-29T08:17:37.345Z</time></trkpt><trkpt lat="45.2574836" lon="9.4323156"><ele>73.0</ele><time>2026-03-29T08:17:38.352Z</time></trkpt><trkpt lat="45.2572656" lon="9.4320568"><ele>73.0</ele><time>2026-03-29T08:17:40.357Z</time></trkpt><trkpt lat="45.2570711" lon="9.4318288"><ele>73.0</ele><time>2026-03-29T08:17:42.359Z</time></trkpt><trkpt lat="45.256808" lon="9.4317331"><ele>73.0</ele><time>2026-03-29T08:17:44.347Z</time></trkpt><trkpt lat="45.2566531" lon="9.4316956"><ele>73.0</ele><time>2026-03-29T08:17:45.351Z</time></trkpt><trkpt lat="45.2563182" lon="9.4315725"><ele>72.0</ele><time>2026-03-29T08:17:47.347Z</time></trkpt><trkpt lat="45.2561416" lon="9.4314884"><ele>71.0</ele><time>2026-03-29T08:17:48.36Z</time></trkpt><trkpt lat="45.2557727" lon="9.4313053"><ele>71.0</ele><time>2026-03-29T08:17:50.348Z</time></trkpt><trkpt lat="45.2555816" lon="9.4312104"><ele>71.0</ele><time>2026-03-29T08:17:51.351Z</time></trkpt><trkpt lat="45.2551884" lon="9.4310174"><ele>71.0</ele><time>2026-03-29T08:17:53.349Z</time></trkpt><trkpt lat="45.2549852" lon="9.4309179"><ele>71.0</ele><time>2026-03-29T08:17:54.358Z</time></trkpt><trkpt lat="45.2545899" lon="9.4307294"><ele>72.5</ele><time>2026-03-29T08:17:56.358Z</time></trkpt><trkpt lat="45.2544072" lon="9.4306413"><ele>74.0</ele><time>2026-03-29T08:17:57.36Z</time></trkpt><trkpt lat="45.2540747" lon="9.4304754"><ele>72.0</ele><time>2026-03-29T08:17:59.356Z</time></trkpt><trkpt lat="45.2537594" lon="9.4302791"><ele>70.0</ele><time>2026-03-29T08:18:01.351Z</time></trkpt><trkpt lat="45.2536041" lon="9.430165"><ele>70.0</ele><time>2026-03-29T08:18:02.357Z</time></trkpt><trkpt lat="45.2532964" lon="9.4299361"><ele>70.0</ele><time>2026-03-29T08:18:04.356Z</time></trkpt><trkpt lat="45.2531491" lon="9.4298244"><ele>70.5</ele><time>2026-03-29T08:18:05.357Z</time></trkpt><trkpt lat="45.2528526" lon="9.4295936"><ele>71.0</ele><time>2026-03-29T08:18:07.356Z</time></trkpt><trkpt lat="45.2525467" lon="9.4293403"><ele>71.0</ele><time>2026-03-29T08:18:09.35Z</time></trkpt><trkpt lat="45.2523999" lon="9.4291858"><ele>71.0</ele><time>2026-03-29T08:18:10.373Z</time></trkpt><trkpt lat="45.2521307" lon="9.428809"><ele>69.5</ele><time>2026-03-29T08:18:12.357Z</time></trkpt><trkpt lat="45.2520066" lon="9.4285878"><ele>68.0</ele><time>2026-03-29T08:18:13.365Z</time></trkpt><trkpt lat="45.2517536" lon="9.4280643"><ele>69.0</ele><time>2026-03-29T08:18:15.372Z</time></trkpt><trkpt lat="45.2514741" lon="9.4274653"><ele>69.0</ele><time>2026-03-29T08:18:17.35Z</time></trkpt><trkpt lat="45.2513397" lon="9.427171"><ele>69.0</ele><time>2026-03-29T08:18:18.351Z</time></trkpt><trkpt lat="45.2510566" lon="9.4265601"><ele>69.0</ele><time>2026-03-29T08:18:20.358Z</time></trkpt><trkpt lat="45.2509316" lon="9.4262801"><ele>69.0</ele><time>2026-03-29T08:18:21.362Z</time></trkpt><trkpt lat="45.2508166" lon="9.4260251"><ele>69.0</ele><time>2026-03-29T08:18:22.376Z</time></trkpt><trkpt lat="45.2505826" lon="9.4255074"><ele>70.5</ele><time>2026-03-29T08:18:24.351Z</time></trkpt><trkpt lat="45.2504822" lon="9.4252481"><ele>72.0</ele><time>2026-03-29T08:18:25.355Z</time></trkpt><trkpt lat="45.2503332" lon="9.4247003"><ele>72.5</ele><time>2026-03-29T08:18:27.358Z</time></trkpt><trkpt lat="45.2502051" lon="9.4241493"><ele>73.0</ele><time>2026-03-29T08:18:29.364Z</time></trkpt><trkpt lat="45.2500607" lon="9.4235535"><ele>71.66666666666666</ele><time>2026-03-29T08:18:31.364Z</time></trkpt><trkpt lat="45.2499905" lon="9.4232729"><ele>70.33333333333333</ele><time>2026-03-29T08:18:32.366Z</time></trkpt><trkpt lat="45.2499286" lon="9.4230221"><ele>69.0</ele><time>2026-03-29T08:18:33.377Z</time></trkpt><trkpt lat="45.2498377" lon="9.422566"><ele>68.66666666666667</ele><time>2026-03-29T08:18:35.361Z</time></trkpt><trkpt lat="45.2498142" lon="9.4223626"><ele>68.33333333333334</ele><time>2026-03-29T08:18:36.378Z</time></trkpt><trkpt lat="45.2498071" lon="9.4220303"><ele>68.0</ele><time>2026-03-29T08:18:38.376Z</time></trkpt><trkpt lat="45.2498331" lon="9.4217401"><ele>68.0</ele><time>2026-03-29T08:18:40.359Z</time></trkpt><trkpt lat="45.2498079" lon="9.421608"><ele>68.0</ele><time>2026-03-29T08:18:41.365Z</time></trkpt><trkpt lat="45.2497469" lon="9.4214669"><ele>68.0</ele><time>2026-03-29T08:18:42.368Z</time></trkpt><trkpt lat="45.2496069" lon="9.4210574"><ele>68.0</ele><time>2026-03-29T08:18:44.361Z</time></trkpt><trkpt lat="45.2495527" lon="9.4207718"><ele>68.0</ele><time>2026-03-29T08:18:45.376Z</time></trkpt><trkpt lat="45.2494687" lon="9.4200884"><ele>64.0</ele><time>2026-03-29T08:18:47.371Z</time></trkpt><trkpt lat="45.2494076" lon="9.4194053"><ele>65.0</ele><time>2026-03-29T08:18:49.372Z</time></trkpt><trkpt lat="45.2493571" lon="9.4187659"><ele>65.0</ele><time>2026-03-29T08:18:51.374Z</time></trkpt><trkpt lat="45.2493099" lon="9.4181845"><ele>65.0</ele><time>2026-03-29T08:18:53.359Z</time></trkpt><trkpt lat="45.2492879" lon="9.4178958"><ele>64.5</ele><time>2026-03-29T08:18:54.37Z</time></trkpt><trkpt lat="45.2492422" lon="9.4173579"><ele>64.0</ele><time>2026-03-29T08:18:56.347Z</time></trkpt><trkpt lat="45.2492196" lon="9.4170846"><ele>64.0</ele><time>2026-03-29T08:18:57.349Z</time></trkpt><trkpt lat="45.2491941" lon="9.4167993"><ele>64.0</ele><time>2026-03-29T08:18:58.354Z</time></trkpt><trkpt lat="45.2491687" lon="9.416508"><ele>64.0</ele><time>2026-03-29T08:18:59.36Z</time></trkpt><trkpt lat="45.2491431" lon="9.4162151"><ele>63.5</ele><time>2026-03-29T08:19:00.362Z</time></trkpt><trkpt lat="45.2491177" lon="9.4159221"><ele>63.0</ele><time>2026-03-29T08:19:01.368Z</time></trkpt><trkpt lat="45.2490719" lon="9.4153655"><ele>62.0</ele><time>2026-03-29T08:19:03.366Z</time></trkpt><trkpt lat="45.2490281" lon="9.4148658"><ele>61.0</ele><time>2026-03-29T08:19:05.365Z</time></trkpt><trkpt lat="45.2490069" lon="9.4146176"><ele>60.0</ele><time>2026-03-29T08:19:06.367Z</time></trkpt><trkpt lat="45.2489682" lon="9.4141138"><ele>59.0</ele><time>2026-03-29T08:19:08.359Z</time></trkpt><trkpt lat="45.2489489" lon="9.4138643"><ele>59.0</ele><time>2026-03-29T08:19:09.363Z</time></trkpt><trkpt lat="45.2489284" lon="9.4136269"><ele>59.0</ele><time>2026-03-29T08:19:10.363Z</time></trkpt><trkpt lat="45.2489107" lon="9.4133999"><ele>59.0</ele><time>2026-03-29T08:19:11.424Z</time></trkpt><trkpt lat="45.2488752" lon="9.4129791"><ele>60.0</ele><time>2026-03-29T08:19:13.363Z</time></trkpt><trkpt lat="45.24886" lon="9.4127856"><ele>61.0</ele><time>2026-03-29T08:19:14.371Z</time></trkpt><trkpt lat="45.2488311" lon="9.4124234"><ele>62.0</ele><time>2026-03-29T08:19:16.374Z</time></trkpt><trkpt lat="45.2488047" lon="9.4120941"><ele>62.0</ele><time>2026-03-29T08:19:18.356Z</time></trkpt><trkpt lat="45.2487894" lon="9.4119248"><ele>62.0</ele><time>2026-03-29T08:19:19.358Z</time></trkpt><trkpt lat="45.2487732" lon="9.4117351"><ele>62.0</ele><time>2026-03-29T08:19:20.362Z</time></trkpt><trkpt lat="45.2487359" lon="9.411284"><ele>62.0</ele><time>2026-03-29T08:19:22.366Z</time></trkpt><trkpt lat="45.2486926" lon="9.4106756"><ele>62.0</ele><time>2026-03-29T08:19:24.369Z</time></trkpt><trkpt lat="45.2486339" lon="9.4099494"><ele>71.0</ele><time>2026-03-29T08:19:26.368Z</time></trkpt><trkpt lat="45.2485629" lon="9.4091859"><ele>70.5</ele><time>2026-03-29T08:19:28.355Z</time></trkpt><trkpt lat="45.2485182" lon="9.4088226"><ele>70.0</ele><time>2026-03-29T08:19:29.356Z</time></trkpt><trkpt lat="45.2484067" lon="9.4081331"><ele>72.0</ele><time>2026-03-29T08:19:31.357Z</time></trkpt><trkpt lat="45.2482837" lon="9.4075094"><ele>72.0</ele><time>2026-03-29T08:19:33.355Z</time></trkpt><trkpt lat="45.2482176" lon="9.4072109"><ele>72.0</ele><time>2026-03-29T08:19:34.357Z</time></trkpt><trkpt lat="45.2480711" lon="9.4066241"><ele>73.0</ele><time>2026-03-29T08:19:36.357Z</time></trkpt><trkpt lat="45.2478994" lon="9.4060365"><ele>74.0</ele><time>2026-03-29T08:19:38.353Z</time></trkpt><trkpt lat="45.2478022" lon="9.4057433"><ele>73.0</ele><time>2026-03-29T08:19:39.354Z</time></trkpt><trkpt lat="45.2475869" lon="9.4051604"><ele>70.0</ele><time>2026-03-29T08:19:41.361Z</time></trkpt><trkpt lat="45.2473559" lon="9.4045843"><ele>69.33333333333333</ele><time>2026-03-29T08:19:43.349Z</time></trkpt><trkpt lat="45.2472419" lon="9.4043048"><ele>68.66666666666667</ele><time>2026-03-29T08:19:44.358Z</time></trkpt><trkpt lat="45.2471331" lon="9.4040361"><ele>68.0</ele><time>2026-03-29T08:19:45.358Z</time></trkpt><trkpt lat="45.2469202" lon="9.4035096"><ele>67.0</ele><time>2026-03-29T08:19:47.361Z</time></trkpt><trkpt lat="45.2468154" lon="9.4032499"><ele>66.0</ele><time>2026-03-29T08:19:48.366Z</time></trkpt><trkpt lat="45.2466101" lon="9.4027443"><ele>67.5</ele><time>2026-03-29T08:19:50.361Z</time></trkpt><trkpt lat="45.2464012" lon="9.402224"><ele>69.0</ele><time>2026-03-29T08:19:52.354Z</time></trkpt><trkpt lat="45.2462939" lon="9.4019619"><ele>69.0</ele><time>2026-03-29T08:19:53.359Z</time></trkpt><trkpt lat="45.2461884" lon="9.4016994"><ele>69.0</ele><time>2026-03-29T08:19:54.358Z</time></trkpt><trkpt lat="45.2460824" lon="9.4014368"><ele>69.0</ele><time>2026-03-29T08:19:55.359Z</time></trkpt><trkpt lat="45.2458654" lon="9.4009041"><ele>69.0</ele><time>2026-03-29T08:19:57.354Z</time></trkpt><trkpt lat="45.2457571" lon="9.4006363"><ele>69.0</ele><time>2026-03-29T08:19:58.355Z</time></trkpt><trkpt lat="45.2455419" lon="9.4001015"><ele>69.0</ele><time>2026-03-29T08:20:00.358Z</time></trkpt><trkpt lat="45.2453399" lon="9.3995496"><ele>69.0</ele><time>2026-03-29T08:20:02.356Z</time></trkpt><trkpt lat="45.2451544" lon="9.3989753"><ele>70.0</ele><time>2026-03-29T08:20:04.358Z</time></trkpt><trkpt lat="45.2450672" lon="9.3986803"><ele>71.0</ele><time>2026-03-29T08:20:05.362Z</time></trkpt><trkpt lat="45.2449009" lon="9.3980794"><ele>71.0</ele><time>2026-03-29T08:20:07.352Z</time></trkpt><trkpt lat="45.2448186" lon="9.3977764"><ele>71.0</ele><time>2026-03-29T08:20:08.363Z</time></trkpt><trkpt lat="45.2446566" lon="9.3971758"><ele>71.0</ele><time>2026-03-29T08:20:10.352Z</time></trkpt><trkpt lat="45.2445762" lon="9.3968754"><ele>71.0</ele><time>2026-03-29T08:20:11.355Z</time></trkpt><trkpt lat="45.2444139" lon="9.3962615"><ele>71.0</ele><time>2026-03-29T08:20:13.355Z</time></trkpt><trkpt lat="45.2443306" lon="9.3959465"><ele>71.0</ele><time>2026-03-29T08:20:14.355Z</time></trkpt><trkpt lat="45.2441612" lon="9.3953059"><ele>71.0</ele><time>2026-03-29T08:20:16.354Z</time></trkpt><trkpt lat="45.2439892" lon="9.3946258"><ele>72.0</ele><time>2026-03-29T08:20:18.362Z</time></trkpt><trkpt lat="45.2438269" lon="9.3940013"><ele>72.33333333333333</ele><time>2026-03-29T08:20:20.356Z</time></trkpt><trkpt lat="45.2437512" lon="9.3937136"><ele>72.66666666666666</ele><time>2026-03-29T08:20:21.365Z</time></trkpt><trkpt lat="45.2436792" lon="9.3934436"><ele>73.0</ele><time>2026-03-29T08:20:22.367Z</time></trkpt><trkpt lat="45.2436132" lon="9.3931896"><ele>73.0</ele><time>2026-03-29T08:20:23.366Z</time></trkpt><trkpt lat="45.2435489" lon="9.3929481"><ele>73.0</ele><time>2026-03-29T08:20:24.367Z</time></trkpt><trkpt lat="45.2434897" lon="9.3927196"><ele>73.0</ele><time>2026-03-29T08:20:25.368Z</time></trkpt><trkpt lat="45.2433764" lon="9.3922856"><ele>72.5</ele><time>2026-03-29T08:20:27.36Z</time></trkpt><trkpt lat="45.2433195" lon="9.392068"><ele>72.0</ele><time>2026-03-29T08:20:28.36Z</time></trkpt><trkpt lat="45.2432142" lon="9.3916149"><ele>72.0</ele><time>2026-03-29T08:20:30.359Z</time></trkpt><trkpt lat="45.2431681" lon="9.3913823"><ele>72.0</ele><time>2026-03-29T08:20:31.36Z</time></trkpt><trkpt lat="45.2431266" lon="9.3911498"><ele>72.0</ele><time>2026-03-29T08:20:32.361Z</time></trkpt><trkpt lat="45.2430524" lon="9.3906971"><ele>72.0</ele><time>2026-03-29T08:20:34.379Z</time></trkpt><trkpt lat="45.2429812" lon="9.3902948"><ele>72.0</ele><time>2026-03-29T08:20:36.361Z</time></trkpt><trkpt lat="45.2429389" lon="9.3901196"><ele>72.0</ele><time>2026-03-29T08:20:37.363Z</time></trkpt><trkpt lat="45.2428909" lon="9.3899606"><ele>71.66666666666667</ele><time>2026-03-29T08:20:38.362Z</time></trkpt><trkpt lat="45.2427759" lon="9.3896643"><ele>71.33333333333334</ele><time>2026-03-29T08:20:40.359Z</time></trkpt><trkpt lat="45.2427072" lon="9.3895195"><ele>71.0</ele><time>2026-03-29T08:20:41.364Z</time></trkpt><trkpt lat="45.2425362" lon="9.3892318"><ele>71.0</ele><time>2026-03-29T08:20:43.366Z</time></trkpt><trkpt lat="45.2424292" lon="9.3890851"><ele>71.0</ele><time>2026-03-29T08:20:44.372Z</time></trkpt><trkpt lat="45.2423081" lon="9.3889433"><ele>71.0</ele><time>2026-03-29T08:20:45.381Z</time></trkpt><trkpt lat="45.2420111" lon="9.3886778"><ele>71.0</ele><time>2026-03-29T08:20:47.371Z</time></trkpt><trkpt lat="45.2416931" lon="9.3884589"><ele>71.0</ele><time>2026-03-29T08:20:49.362Z</time></trkpt><trkpt lat="45.2415322" lon="9.388359"><ele>70.66666666666667</ele><time>2026-03-29T08:20:50.364Z</time></trkpt><trkpt lat="45.2413696" lon="9.3882583"><ele>70.33333333333333</ele><time>2026-03-29T08:20:51.367Z</time></trkpt><trkpt lat="45.2412017" lon="9.3881604"><ele>70.0</ele><time>2026-03-29T08:20:52.378Z</time></trkpt><trkpt lat="45.2408484" lon="9.3879914"><ele>71.5</ele><time>2026-03-29T08:20:54.368Z</time></trkpt><trkpt lat="45.2404701" lon="9.3878809"><ele>73.0</ele><time>2026-03-29T08:20:56.367Z</time></trkpt><trkpt lat="45.2402731" lon="9.3878499"><ele>73.0</ele><time>2026-03-29T08:20:57.369Z</time></trkpt><trkpt lat="45.2398696" lon="9.3878373"><ele>73.0</ele><time>2026-03-29T08:20:59.361Z</time></trkpt><trkpt lat="45.2396701" lon="9.3878531"><ele>73.0</ele><time>2026-03-29T08:21:00.374Z</time></trkpt><trkpt lat="45.2392817" lon="9.3879031"><ele>73.0</ele><time>2026-03-29T08:21:02.356Z</time></trkpt><trkpt lat="45.2390901" lon="9.3879261"><ele>72.0</ele><time>2026-03-29T08:21:03.361Z</time></trkpt><trkpt lat="45.2387036" lon="9.3879744"><ele>71.0</ele><time>2026-03-29T08:21:05.353Z</time></trkpt><trkpt lat="45.2385052" lon="9.3879983"><ele>70.5</ele><time>2026-03-29T08:21:06.358Z</time></trkpt><trkpt lat="45.2380937" lon="9.3880449"><ele>70.0</ele><time>2026-03-29T08:21:08.356Z</time></trkpt><trkpt lat="45.2376557" lon="9.3880978"><ele>70.0</ele><time>2026-03-29T08:21:10.352Z</time></trkpt><trkpt lat="45.2374262" lon="9.3881265"><ele>70.0</ele><time>2026-03-29T08:21:11.351Z</time></trkpt><trkpt lat="45.2371914" lon="9.3881574"><ele>70.0</ele><time>2026-03-29T08:21:12.385Z</time></trkpt><trkpt lat="45.2367059" lon="9.3882181"><ele>69.0</ele><time>2026-03-29T08:21:14.358Z</time></trkpt><trkpt lat="45.2362131" lon="9.3882775"><ele>69.0</ele><time>2026-03-29T08:21:16.349Z</time></trkpt><trkpt lat="45.2359691" lon="9.3883049"><ele>69.0</ele><time>2026-03-29T08:21:17.35Z</time></trkpt><trkpt lat="45.2357307" lon="9.388333"><ele>69.5</ele><time>2026-03-29T08:21:18.353Z</time></trkpt><trkpt lat="45.2355004" lon="9.3883626"><ele>70.0</ele><time>2026-03-29T08:21:19.356Z</time></trkpt><trkpt lat="45.2352759" lon="9.3883921"><ele>70.0</ele><time>2026-03-29T08:21:20.361Z</time></trkpt><trkpt lat="45.2348314" lon="9.3884466"><ele>70.0</ele><time>2026-03-29T08:21:22.345Z</time></trkpt><trkpt lat="45.2346079" lon="9.3884759"><ele>67.0</ele><time>2026-03-29T08:21:23.355Z</time></trkpt><trkpt lat="45.2341561" lon="9.3885343"><ele>67.0</ele><time>2026-03-29T08:21:25.349Z</time></trkpt><trkpt lat="45.2337147" lon="9.3885864"><ele>67.0</ele><time>2026-03-29T08:21:27.356Z</time></trkpt><trkpt lat="45.2332739" lon="9.3886399"><ele>67.0</ele><time>2026-03-29T08:21:29.353Z</time></trkpt><trkpt lat="45.2330554" lon="9.3886653"><ele>67.0</ele><time>2026-03-29T08:21:30.357Z</time></trkpt><trkpt lat="45.2328499" lon="9.3886893"><ele>67.0</ele><time>2026-03-29T08:21:31.358Z</time></trkpt><trkpt lat="45.2326669" lon="9.3887113"><ele>67.0</ele><time>2026-03-29T08:21:32.358Z</time></trkpt><trkpt lat="45.2325106" lon="9.3887326"><ele>67.0</ele><time>2026-03-29T08:21:33.364Z</time></trkpt><trkpt lat="45.2323806" lon="9.3887591"><ele>67.0</ele><time>2026-03-29T08:21:34.375Z</time></trkpt><trkpt lat="45.2321731" lon="9.3888013"><ele>67.66666666666666</ele><time>2026-03-29T08:21:36.349Z</time></trkpt><trkpt lat="45.2320777" lon="9.3887939"><ele>68.33333333333333</ele><time>2026-03-29T08:21:37.352Z</time></trkpt><trkpt lat="45.2318591" lon="9.3887246"><ele>69.0</ele><time>2026-03-29T08:21:39.355Z</time></trkpt><trkpt lat="45.2315962" lon="9.3886398"><ele>69.5</ele><time>2026-03-29T08:21:41.372Z</time></trkpt><trkpt lat="45.2312707" lon="9.3883771"><ele>70.0</ele><time>2026-03-29T08:21:43.367Z</time></trkpt><trkpt lat="45.2309092" lon="9.3879943"><ele>70.0</ele><time>2026-03-29T08:21:45.352Z</time></trkpt><trkpt lat="45.2305814" lon="9.3876074"><ele>70.0</ele><time>2026-03-29T08:21:47.35Z</time></trkpt><trkpt lat="45.2304279" lon="9.3874166"><ele>70.0</ele><time>2026-03-29T08:21:48.356Z</time></trkpt><trkpt lat="45.2302836" lon="9.3872336"><ele>70.0</ele><time>2026-03-29T08:21:49.365Z</time></trkpt><trkpt lat="45.230006" lon="9.3868839"><ele>70.0</ele><time>2026-03-29T08:21:51.365Z</time></trkpt><trkpt lat="45.2297344" lon="9.3865448"><ele>70.0</ele><time>2026-03-29T08:21:53.363Z</time></trkpt><trkpt lat="45.2294689" lon="9.3862063"><ele>70.0</ele><time>2026-03-29T08:21:55.357Z</time></trkpt><trkpt lat="45.2293357" lon="9.3860348"><ele>70.0</ele><time>2026-03-29T08:21:56.365Z</time></trkpt><trkpt lat="45.2290631" lon="9.3856864"><ele>70.5</ele><time>2026-03-29T08:21:58.361Z</time></trkpt><trkpt lat="45.2287856" lon="9.3853326"><ele>71.0</ele><time>2026-03-29T08:22:00.358Z</time></trkpt><trkpt lat="45.2286484" lon="9.3851576"><ele>71.0</ele><time>2026-03-29T08:22:01.363Z</time></trkpt><trkpt lat="45.2283747" lon="9.3848094"><ele>71.0</ele><time>2026-03-29T08:22:03.363Z</time></trkpt><trkpt lat="45.2281049" lon="9.3844673"><ele>70.5</ele><time>2026-03-29T08:22:05.371Z</time></trkpt><trkpt lat="45.2278539" lon="9.3841476"><ele>70.0</ele><time>2026-03-29T08:22:07.36Z</time></trkpt><trkpt lat="45.2277292" lon="9.3839893"><ele>70.5</ele><time>2026-03-29T08:22:08.362Z</time></trkpt><trkpt lat="45.2276029" lon="9.3838263"><ele>71.0</ele><time>2026-03-29T08:22:09.37Z</time></trkpt><trkpt lat="45.2273421" lon="9.3834891"><ele>70.5</ele><time>2026-03-29T08:22:11.37Z</time></trkpt><trkpt lat="45.2270887" lon="9.3831139"><ele>70.0</ele><time>2026-03-29T08:22:13.374Z</time></trkpt><trkpt lat="45.2268717" lon="9.3826859"><ele>70.0</ele><time>2026-03-29T08:22:15.368Z</time></trkpt><trkpt lat="45.2267661" lon="9.3824598"><ele>70.0</ele><time>2026-03-29T08:22:16.372Z</time></trkpt><trkpt lat="45.2265622" lon="9.3820153"><ele>70.5</ele><time>2026-03-29T08:22:18.374Z</time></trkpt><trkpt lat="45.2263697" lon="9.3816001"><ele>71.0</ele><time>2026-03-29T08:22:20.366Z</time></trkpt><trkpt lat="45.2261902" lon="9.3812119"><ele>71.0</ele><time>2026-03-29T08:22:22.364Z</time></trkpt><trkpt lat="45.2261022" lon="9.3810244"><ele>71.0</ele><time>2026-03-29T08:22:23.365Z</time></trkpt><trkpt lat="45.2259351" lon="9.3806671"><ele>71.0</ele><time>2026-03-29T08:22:25.365Z</time></trkpt><trkpt lat="45.2257756" lon="9.3803246"><ele>71.0</ele><time>2026-03-29T08:22:27.371Z</time></trkpt><trkpt lat="45.2256086" lon="9.3799626"><ele>71.33333333333334</ele><time>2026-03-29T08:22:29.375Z</time></trkpt><trkpt lat="45.2254454" lon="9.3796101"><ele>71.66666666666667</ele><time>2026-03-29T08:22:31.361Z</time></trkpt><trkpt lat="45.2253652" lon="9.3794373"><ele>72.0</ele><time>2026-03-29T08:22:32.37Z</time></trkpt><trkpt lat="45.2252832" lon="9.3792604"><ele>72.0</ele><time>2026-03-29T08:22:33.377Z</time></trkpt><trkpt lat="45.2251119" lon="9.3788889"><ele>72.0</ele><time>2026-03-29T08:22:35.369Z</time></trkpt><trkpt lat="45.2249282" lon="9.3784928"><ele>72.0</ele><time>2026-03-29T08:22:37.367Z</time></trkpt><trkpt lat="45.2247327" lon="9.3780849"><ele>72.0</ele><time>2026-03-29T08:22:39.368Z</time></trkpt><trkpt lat="45.2246357" lon="9.377902"><ele>72.0</ele><time>2026-03-29T08:22:40.369Z</time></trkpt><trkpt lat="45.2244517" lon="9.3775811"><ele>72.0</ele><time>2026-03-29T08:22:42.368Z</time></trkpt><trkpt lat="45.2243597" lon="9.3774268"><ele>72.0</ele><time>2026-03-29T08:22:43.368Z</time></trkpt><trkpt lat="45.2241711" lon="9.3771151"><ele>71.66666666666667</ele><time>2026-03-29T08:22:45.362Z</time></trkpt><trkpt lat="45.2240754" lon="9.3769553"><ele>71.33333333333334</ele><time>2026-03-29T08:22:46.362Z</time></trkpt><trkpt lat="45.2239799" lon="9.3767939"><ele>71.0</ele><time>2026-03-29T08:22:47.371Z</time></trkpt><trkpt lat="45.2237751" lon="9.3764691"><ele>71.0</ele><time>2026-03-29T08:22:49.366Z</time></trkpt><trkpt lat="45.2235577" lon="9.3761543"><ele>71.0</ele><time>2026-03-29T08:22:51.37Z</time></trkpt><trkpt lat="45.2234536" lon="9.3760066"><ele>71.0</ele><time>2026-03-29T08:22:52.37Z</time></trkpt><trkpt lat="45.2232606" lon="9.3757328"><ele>71.0</ele><time>2026-03-29T08:22:54.359Z</time></trkpt><trkpt lat="45.2231699" lon="9.3756036"><ele>71.0</ele><time>2026-03-29T08:22:55.365Z</time></trkpt><trkpt lat="45.2229884" lon="9.3753523"><ele>71.0</ele><time>2026-03-29T08:22:57.355Z</time></trkpt><trkpt lat="45.2229074" lon="9.3752433"><ele>71.0</ele><time>2026-03-29T08:22:58.357Z</time></trkpt><trkpt lat="45.2228337" lon="9.3751431"><ele>71.0</ele><time>2026-03-29T08:22:59.368Z</time></trkpt><trkpt lat="45.2226806" lon="9.3749351"><ele>71.0</ele><time>2026-03-29T08:23:01.36Z</time></trkpt><trkpt lat="45.2225006" lon="9.3746951"><ele>71.0</ele><time>2026-03-29T08:23:03.359Z</time></trkpt><trkpt lat="45.2224024" lon="9.3745676"><ele>71.0</ele><time>2026-03-29T08:23:04.363Z</time></trkpt><trkpt lat="45.2222999" lon="9.3744373"><ele>71.0</ele><time>2026-03-29T08:23:05.362Z</time></trkpt><trkpt lat="45.2221089" lon="9.3741993"><ele>71.33333333333334</ele><time>2026-03-29T08:23:07.364Z</time></trkpt><trkpt lat="45.2219336" lon="9.3739841"><ele>71.66666666666667</ele><time>2026-03-29T08:23:09.371Z</time></trkpt><trkpt lat="45.2217899" lon="9.3738033"><ele>72.0</ele><time>2026-03-29T08:23:11.365Z</time></trkpt><trkpt lat="45.2217381" lon="9.3737346"><ele>72.0</ele><time>2026-03-29T08:23:12.365Z</time></trkpt><trkpt lat="45.2216281" lon="9.3735793"><ele>72.0</ele><time>2026-03-29T08:23:15.36Z</time></trkpt><trkpt lat="45.2215687" lon="9.3734683"><ele>72.0</ele><time>2026-03-29T08:23:17.364Z</time></trkpt><trkpt lat="45.2214849" lon="9.3732578"><ele>72.0</ele><time>2026-03-29T08:23:20.376Z</time></trkpt><trkpt lat="45.2214667" lon="9.3731639"><ele>71.66666666666667</ele><time>2026-03-29T08:23:21.379Z</time></trkpt><trkpt lat="45.2214074" lon="9.3729349"><ele>71.33333333333334</ele><time>2026-03-29T08:23:23.38Z</time></trkpt><trkpt lat="45.2212447" lon="9.3728136"><ele>71.0</ele><time>2026-03-29T08:23:25.375Z</time></trkpt><trkpt lat="45.2210221" lon="9.3727329"><ele>71.0</ele><time>2026-03-29T08:23:27.382Z</time></trkpt><trkpt lat="45.2207836" lon="9.3725234"><ele>71.0</ele><time>2026-03-29T08:23:29.377Z</time></trkpt><trkpt lat="45.2205442" lon="9.3722715"><ele>71.33333333333334</ele><time>2026-03-29T08:23:31.365Z</time></trkpt><trkpt lat="45.2203416" lon="9.3720434"><ele>71.66666666666667</ele><time>2026-03-29T08:23:33.355Z</time></trkpt><trkpt lat="45.2202392" lon="9.3719274"><ele>72.0</ele><time>2026-03-29T08:23:34.362Z</time></trkpt><trkpt lat="45.2200327" lon="9.3717139"><ele>72.0</ele><time>2026-03-29T08:23:36.362Z</time></trkpt><trkpt lat="45.2198382" lon="9.371529"><ele>72.0</ele><time>2026-03-29T08:23:38.359Z</time></trkpt><trkpt lat="45.2197517" lon="9.3714506"><ele>72.0</ele><time>2026-03-29T08:23:39.359Z</time></trkpt><trkpt lat="45.2195786" lon="9.3712981"><ele>72.33333333333333</ele><time>2026-03-29T08:23:41.357Z</time></trkpt><trkpt lat="45.2194846" lon="9.3712163"><ele>72.66666666666666</ele><time>2026-03-29T08:23:42.359Z</time></trkpt><trkpt lat="45.2193861" lon="9.3711279"><ele>73.0</ele><time>2026-03-29T08:23:43.366Z</time></trkpt><trkpt lat="45.2191734" lon="9.3709466"><ele>72.5</ele><time>2026-03-29T08:23:45.355Z</time></trkpt><trkpt lat="45.2189376" lon="9.3707724"><ele>72.0</ele><time>2026-03-29T08:23:47.36Z</time></trkpt><trkpt lat="45.2186824" lon="9.3706001"><ele>72.0</ele><time>2026-03-29T08:23:49.362Z</time></trkpt><trkpt lat="45.2184039" lon="9.3704288"><ele>72.0</ele><time>2026-03-29T08:23:51.356Z</time></trkpt><trkpt lat="45.2181347" lon="9.3702656"><ele>72.0</ele><time>2026-03-29T08:23:53.357Z</time></trkpt><trkpt lat="45.2180042" lon="9.3701839"><ele>72.0</ele><time>2026-03-29T08:23:54.359Z</time></trkpt><trkpt lat="45.2177339" lon="9.3700154"><ele>72.0</ele><time>2026-03-29T08:23:56.358Z</time></trkpt><trkpt lat="45.2176022" lon="9.3699348"><ele>72.0</ele><time>2026-03-29T08:23:57.36Z</time></trkpt><trkpt lat="45.2173501" lon="9.3697808"><ele>72.0</ele><time>2026-03-29T08:23:59.36Z</time></trkpt><trkpt lat="45.2171041" lon="9.3696323"><ele>73.0</ele><time>2026-03-29T08:24:01.358Z</time></trkpt><trkpt lat="45.2168514" lon="9.3694749"><ele>74.0</ele><time>2026-03-29T08:24:03.356Z</time></trkpt><trkpt lat="45.2167272" lon="9.369399"><ele>75.0</ele><time>2026-03-29T08:24:04.364Z</time></trkpt><trkpt lat="45.2166056" lon="9.3693243"><ele>75.0</ele><time>2026-03-29T08:24:05.365Z</time></trkpt><trkpt lat="45.2163531" lon="9.3691671"><ele>75.0</ele><time>2026-03-29T08:24:07.36Z</time></trkpt><trkpt lat="45.2162184" lon="9.3690829"><ele>75.0</ele><time>2026-03-29T08:24:08.363Z</time></trkpt><trkpt lat="45.2160801" lon="9.3689953"><ele>75.0</ele><time>2026-03-29T08:24:09.365Z</time></trkpt><trkpt lat="45.2159362" lon="9.3689064"><ele>75.0</ele><time>2026-03-29T08:24:10.368Z</time></trkpt><trkpt lat="45.2156395" lon="9.3687208"><ele>74.0</ele><time>2026-03-29T08:24:12.363Z</time></trkpt><trkpt lat="45.2154887" lon="9.3686244"><ele>73.0</ele><time>2026-03-29T08:24:13.37Z</time></trkpt><trkpt lat="45.2151997" lon="9.3684269"><ele>73.0</ele><time>2026-03-29T08:24:15.359Z</time></trkpt><trkpt lat="45.2149444" lon="9.3682294"><ele>73.0</ele><time>2026-03-29T08:24:17.358Z</time></trkpt><trkpt lat="45.2148259" lon="9.3681281"><ele>73.0</ele><time>2026-03-29T08:24:18.368Z</time></trkpt><trkpt lat="45.2145994" lon="9.36791"><ele>73.5</ele><time>2026-03-29T08:24:20.357Z</time></trkpt><trkpt lat="45.2144922" lon="9.3677941"><ele>74.0</ele><time>2026-03-29T08:24:21.358Z</time></trkpt><trkpt lat="45.2143865" lon="9.3676744"><ele>74.5</ele><time>2026-03-29T08:24:22.361Z</time></trkpt><trkpt lat="45.2142812" lon="9.367549"><ele>75.0</ele><time>2026-03-29T08:24:23.373Z</time></trkpt><trkpt lat="45.2140752" lon="9.3672731"><ele>75.0</ele><time>2026-03-29T08:24:25.357Z</time></trkpt><trkpt lat="45.2139837" lon="9.3671391"><ele>75.0</ele><time>2026-03-29T08:24:26.361Z</time></trkpt><trkpt lat="45.2139104" lon="9.3670261"><ele>75.0</ele><time>2026-03-29T08:24:27.374Z</time></trkpt><trkpt lat="45.213854" lon="9.3669348"><ele>75.0</ele><time>2026-03-29T08:24:28.377Z</time></trkpt><trkpt lat="45.2138117" lon="9.3668596"><ele>75.0</ele><time>2026-03-29T08:24:29.38Z</time></trkpt><trkpt lat="45.2137589" lon="9.3667471"><ele>75.0</ele><time>2026-03-29T08:24:31.361Z</time></trkpt><trkpt lat="45.2137231" lon="9.3666621"><ele>75.0</ele><time>2026-03-29T08:24:33.361Z</time></trkpt><trkpt lat="45.2136927" lon="9.3665771"><ele>75.0</ele><time>2026-03-29T08:24:35.362Z</time></trkpt><trkpt lat="45.2136622" lon="9.3664598"><ele>75.0</ele><time>2026-03-29T08:24:37.366Z</time></trkpt><trkpt lat="45.2136472" lon="9.3662588"><ele>75.0</ele><time>2026-03-29T08:24:39.403Z</time></trkpt><trkpt lat="45.2136134" lon="9.3660103"><ele>74.66666666666667</ele><time>2026-03-29T08:24:41.385Z</time></trkpt><trkpt lat="45.2135522" lon="9.3659138"><ele>74.33333333333334</ele><time>2026-03-29T08:24:42.386Z</time></trkpt><trkpt lat="45.2133794" lon="9.3657453"><ele>74.0</ele><time>2026-03-29T08:24:44.377Z</time></trkpt><trkpt lat="45.2132066" lon="9.3654738"><ele>73.5</ele><time>2026-03-29T08:24:46.373Z</time></trkpt><trkpt lat="45.2130412" lon="9.3651031"><ele>73.0</ele><time>2026-03-29T08:24:48.372Z</time></trkpt><trkpt lat="45.2129585" lon="9.3649068"><ele>73.0</ele><time>2026-03-29T08:24:49.379Z</time></trkpt><trkpt lat="45.2128806" lon="9.3647154"><ele>73.0</ele><time>2026-03-29T08:24:50.379Z</time></trkpt><trkpt lat="45.2127281" lon="9.3643465"><ele>72.5</ele><time>2026-03-29T08:24:52.371Z</time></trkpt><trkpt lat="45.2125715" lon="9.3639673"><ele>72.0</ele><time>2026-03-29T08:24:54.373Z</time></trkpt><trkpt lat="45.2124139" lon="9.363582"><ele>72.0</ele><time>2026-03-29T08:24:56.363Z</time></trkpt><trkpt lat="45.2122584" lon="9.3632001"><ele>72.0</ele><time>2026-03-29T08:24:58.359Z</time></trkpt><trkpt lat="45.212179" lon="9.3630058"><ele>72.5</ele><time>2026-03-29T08:24:59.36Z</time></trkpt><trkpt lat="45.2121014" lon="9.3628109"><ele>73.0</ele><time>2026-03-29T08:25:00.361Z</time></trkpt><trkpt lat="45.2119402" lon="9.3624049"><ele>73.0</ele><time>2026-03-29T08:25:02.36Z</time></trkpt><trkpt lat="45.2118581" lon="9.3621913"><ele>73.0</ele><time>2026-03-29T08:25:03.363Z</time></trkpt><trkpt lat="45.2117027" lon="9.3617621"><ele>73.0</ele><time>2026-03-29T08:25:05.36Z</time></trkpt><trkpt lat="45.2116334" lon="9.3615478"><ele>73.0</ele><time>2026-03-29T08:25:06.37Z</time></trkpt><trkpt lat="45.2115074" lon="9.3611201"><ele>73.0</ele><time>2026-03-29T08:25:08.36Z</time></trkpt><trkpt lat="45.2114497" lon="9.3609001"><ele>73.0</ele><time>2026-03-29T08:25:09.36Z</time></trkpt><trkpt lat="45.2113946" lon="9.3606753"><ele>73.0</ele><time>2026-03-29T08:25:10.365Z</time></trkpt><trkpt lat="45.2112904" lon="9.3602031"><ele>73.0</ele><time>2026-03-29T08:25:12.365Z</time></trkpt><trkpt lat="45.2111969" lon="9.3597063"><ele>73.0</ele><time>2026-03-29T08:25:14.374Z</time></trkpt><trkpt lat="45.2111176" lon="9.3591914"><ele>72.66666666666666</ele><time>2026-03-29T08:25:16.361Z</time></trkpt><trkpt lat="45.2110839" lon="9.3589296"><ele>72.33333333333333</ele><time>2026-03-29T08:25:17.361Z</time></trkpt><trkpt lat="45.2110521" lon="9.3586626"><ele>72.0</ele><time>2026-03-29T08:25:18.367Z</time></trkpt><trkpt lat="45.2110197" lon="9.3583918"><ele>70.5</ele><time>2026-03-29T08:25:19.39Z</time></trkpt><trkpt lat="45.2109554" lon="9.3578511"><ele>69.0</ele><time>2026-03-29T08:25:21.367Z</time></trkpt><trkpt lat="45.2108951" lon="9.3573501"><ele>69.0</ele><time>2026-03-29T08:25:23.367Z</time></trkpt><trkpt lat="45.210868" lon="9.3571161"><ele>69.0</ele><time>2026-03-29T08:25:24.374Z</time></trkpt><trkpt lat="45.2108444" lon="9.3569091"><ele>69.0</ele><time>2026-03-29T08:25:25.378Z</time></trkpt><trkpt lat="45.2108102" lon="9.3566191"><ele>69.0</ele><time>2026-03-29T08:25:27.37Z</time></trkpt><trkpt lat="45.2107977" lon="9.3565138"><ele>69.0</ele><time>2026-03-29T08:25:28.375Z</time></trkpt><trkpt lat="45.2107801" lon="9.3563456"><ele>69.0</ele><time>2026-03-29T08:25:30.361Z</time></trkpt><trkpt lat="45.2107644" lon="9.3562095"><ele>69.0</ele><time>2026-03-29T08:25:32.372Z</time></trkpt><trkpt lat="45.2107446" lon="9.3560656"><ele>69.0</ele><time>2026-03-29T08:25:34.37Z</time></trkpt><trkpt lat="45.2107376" lon="9.3558988"><ele>69.33333333333333</ele><time>2026-03-29T08:25:36.38Z</time></trkpt><trkpt lat="45.2107454" lon="9.3557964"><ele>69.66666666666666</ele><time>2026-03-29T08:25:37.38Z</time></trkpt><trkpt lat="45.2107374" lon="9.3555483"><ele>70.0</ele><time>2026-03-29T08:25:39.38Z</time></trkpt><trkpt lat="45.2106662" lon="9.3552353"><ele>70.0</ele><time>2026-03-29T08:25:41.367Z</time></trkpt><trkpt lat="45.2106307" lon="9.3550538"><ele>70.0</ele><time>2026-03-29T08:25:42.378Z</time></trkpt><trkpt lat="45.2105751" lon="9.3546299"><ele>70.0</ele><time>2026-03-29T08:25:44.374Z</time></trkpt><trkpt lat="45.2105484" lon="9.3543994"><ele>70.0</ele><time>2026-03-29T08:25:45.378Z</time></trkpt><trkpt lat="45.2104924" lon="9.3539254"><ele>70.0</ele><time>2026-03-29T08:25:47.365Z</time></trkpt><trkpt lat="45.2104387" lon="9.3534554"><ele>69.66666666666666</ele><time>2026-03-29T08:25:49.353Z</time></trkpt><trkpt lat="45.2104119" lon="9.3532311"><ele>69.33333333333333</ele><time>2026-03-29T08:25:50.367Z</time></trkpt><trkpt lat="45.2103864" lon="9.3530214"><ele>69.0</ele><time>2026-03-29T08:25:51.372Z</time></trkpt><trkpt lat="45.2103392" lon="9.3526258"><ele>70.0</ele><time>2026-03-29T08:25:53.378Z</time></trkpt><trkpt lat="45.2102937" lon="9.3522206"><ele>71.0</ele><time>2026-03-29T08:25:55.365Z</time></trkpt><trkpt lat="45.2102467" lon="9.3518026"><ele>71.5</ele><time>2026-03-29T08:25:57.36Z</time></trkpt><trkpt lat="45.2102204" lon="9.3515878"><ele>72.0</ele><time>2026-03-29T08:25:58.367Z</time></trkpt><trkpt lat="45.2101649" lon="9.3511446"><ele>72.5</ele><time>2026-03-29T08:26:00.364Z</time></trkpt><trkpt lat="45.2100914" lon="9.3506869"><ele>73.0</ele><time>2026-03-29T08:26:02.375Z</time></trkpt><trkpt lat="45.2099817" lon="9.3502196"><ele>72.0</ele><time>2026-03-29T08:26:04.353Z</time></trkpt><trkpt lat="45.2099177" lon="9.3499774"><ele>71.0</ele><time>2026-03-29T08:26:05.368Z</time></trkpt><trkpt lat="45.2097779" lon="9.3494888"><ele>71.0</ele><time>2026-03-29T08:26:07.365Z</time></trkpt><trkpt lat="45.2096971" lon="9.3492548"><ele>71.0</ele><time>2026-03-29T08:26:08.376Z</time></trkpt><trkpt lat="45.2094897" lon="9.3488439"><ele>70.5</ele><time>2026-03-29T08:26:10.378Z</time></trkpt><trkpt lat="45.2092514" lon="9.3484678"><ele>70.0</ele><time>2026-03-29T08:26:12.373Z</time></trkpt><trkpt lat="45.2090172" lon="9.3481061"><ele>69.5</ele><time>2026-03-29T08:26:14.358Z</time></trkpt><trkpt lat="45.208902" lon="9.3479211"><ele>69.0</ele><time>2026-03-29T08:26:15.361Z</time></trkpt><trkpt lat="45.2086642" lon="9.3475413"><ele>69.0</ele><time>2026-03-29T08:26:17.368Z</time></trkpt><trkpt lat="45.2085417" lon="9.3473506"><ele>69.0</ele><time>2026-03-29T08:26:18.369Z</time></trkpt><trkpt lat="45.2082889" lon="9.3469596"><ele>68.5</ele><time>2026-03-29T08:26:20.361Z</time></trkpt><trkpt lat="45.2080269" lon="9.3465556"><ele>68.0</ele><time>2026-03-29T08:26:22.358Z</time></trkpt><trkpt lat="45.2078924" lon="9.3463538"><ele>69.0</ele><time>2026-03-29T08:26:23.36Z</time></trkpt><trkpt lat="45.2076081" lon="9.3459506"><ele>70.0</ele><time>2026-03-29T08:26:25.354Z</time></trkpt><trkpt lat="45.2074575" lon="9.3457523"><ele>70.0</ele><time>2026-03-29T08:26:26.357Z</time></trkpt><trkpt lat="45.2073022" lon="9.3455574"><ele>70.0</ele><time>2026-03-29T08:26:27.357Z</time></trkpt><trkpt lat="45.2071421" lon="9.3453661"><ele>70.0</ele><time>2026-03-29T08:26:28.365Z</time></trkpt><trkpt lat="45.206809" lon="9.3449973"><ele>69.0</ele><time>2026-03-29T08:26:30.361Z</time></trkpt><trkpt lat="45.2064874" lon="9.3446458"><ele>68.0</ele><time>2026-03-29T08:26:32.369Z</time></trkpt><trkpt lat="45.2062074" lon="9.3442609"><ele>68.5</ele><time>2026-03-29T08:26:34.363Z</time></trkpt><trkpt lat="45.2059779" lon="9.3438031"><ele>69.0</ele><time>2026-03-29T08:26:36.366Z</time></trkpt><trkpt lat="45.2057997" lon="9.3432754"><ele>68.0</ele><time>2026-03-29T08:26:38.359Z</time></trkpt><trkpt lat="45.2056492" lon="9.342674"><ele>69.0</ele><time>2026-03-29T08:26:40.366Z</time></trkpt><trkpt lat="45.2054941" lon="9.3420168"><ele>70.0</ele><time>2026-03-29T08:26:42.359Z</time></trkpt><trkpt lat="45.2053287" lon="9.3413368"><ele>70.0</ele><time>2026-03-29T08:26:44.356Z</time></trkpt><trkpt lat="45.2052454" lon="9.3410006"><ele>70.0</ele><time>2026-03-29T08:26:45.358Z</time></trkpt><trkpt lat="45.2051644" lon="9.3406715"><ele>70.0</ele><time>2026-03-29T08:26:46.357Z</time></trkpt><trkpt lat="45.2050827" lon="9.3403409"><ele>70.0</ele><time>2026-03-29T08:26:47.36Z</time></trkpt><trkpt lat="45.2050021" lon="9.3400083"><ele>69.0</ele><time>2026-03-29T08:26:48.36Z</time></trkpt><trkpt lat="45.2048496" lon="9.3393743"><ele>69.5</ele><time>2026-03-29T08:26:50.363Z</time></trkpt><trkpt lat="45.2047777" lon="9.3390803"><ele>70.0</ele><time>2026-03-29T08:26:51.368Z</time></trkpt><trkpt lat="45.2046407" lon="9.3385249"><ele>69.5</ele><time>2026-03-29T08:26:53.358Z</time></trkpt><trkpt lat="45.2045097" lon="9.3379885"><ele>69.0</ele><time>2026-03-29T08:26:55.358Z</time></trkpt><trkpt lat="45.2043934" lon="9.3375091"><ele>69.0</ele><time>2026-03-29T08:26:57.358Z</time></trkpt><trkpt lat="45.2043409" lon="9.3372906"><ele>69.0</ele><time>2026-03-29T08:26:58.36Z</time></trkpt><trkpt lat="45.2042909" lon="9.3370804"><ele>69.0</ele><time>2026-03-29T08:26:59.362Z</time></trkpt><trkpt lat="45.2042406" lon="9.3368713"><ele>69.5</ele><time>2026-03-29T08:27:00.363Z</time></trkpt><trkpt lat="45.2041902" lon="9.3366661"><ele>70.0</ele><time>2026-03-29T08:27:01.363Z</time></trkpt><trkpt lat="45.2040909" lon="9.3362624"><ele>70.0</ele><time>2026-03-29T08:27:03.355Z</time></trkpt><trkpt lat="45.2040421" lon="9.3360601"><ele>70.0</ele><time>2026-03-29T08:27:04.355Z</time></trkpt><trkpt lat="45.2039921" lon="9.3358568"><ele>70.0</ele><time>2026-03-29T08:27:05.358Z</time></trkpt><trkpt lat="45.2039421" lon="9.3356498"><ele>69.5</ele><time>2026-03-29T08:27:06.362Z</time></trkpt><trkpt lat="45.2038394" lon="9.3352304"><ele>69.0</ele><time>2026-03-29T08:27:08.365Z</time></trkpt><trkpt lat="45.2037292" lon="9.3347813"><ele>69.5</ele><time>2026-03-29T08:27:10.358Z</time></trkpt><trkpt lat="45.2036039" lon="9.3342809"><ele>70.0</ele><time>2026-03-29T08:27:12.359Z</time></trkpt><trkpt lat="45.2035392" lon="9.3340178"><ele>69.5</ele><time>2026-03-29T08:27:13.36Z</time></trkpt><trkpt lat="45.2034059" lon="9.3334816"><ele>69.0</ele><time>2026-03-29T08:27:15.365Z</time></trkpt><trkpt lat="45.2032802" lon="9.3329661"><ele>69.0</ele><time>2026-03-29T08:27:17.363Z</time></trkpt><trkpt lat="45.2031662" lon="9.3324999"><ele>69.0</ele><time>2026-03-29T08:27:19.369Z</time></trkpt><trkpt lat="45.2031165" lon="9.3322961"><ele>69.66666666666667</ele><time>2026-03-29T08:27:20.38Z</time></trkpt><trkpt lat="45.2030314" lon="9.3319411"><ele>70.33333333333334</ele><time>2026-03-29T08:27:22.36Z</time></trkpt><trkpt lat="45.2029984" lon="9.3317961"><ele>71.0</ele><time>2026-03-29T08:27:23.372Z</time></trkpt><trkpt lat="45.2029442" lon="9.3315566"><ele>71.0</ele><time>2026-03-29T08:27:25.365Z</time></trkpt><trkpt lat="45.2029011" lon="9.3313456"><ele>71.0</ele><time>2026-03-29T08:27:27.357Z</time></trkpt><trkpt lat="45.2028904" lon="9.3312328"><ele>71.0</ele><time>2026-03-29T08:27:28.365Z</time></trkpt><trkpt lat="45.2028919" lon="9.3311089"><ele>71.0</ele><time>2026-03-29T08:27:29.365Z</time></trkpt><trkpt lat="45.2029064" lon="9.3308629"><ele>71.0</ele><time>2026-03-29T08:27:31.361Z</time></trkpt><trkpt lat="45.2028884" lon="9.3307435"><ele>71.0</ele><time>2026-03-29T08:27:32.372Z</time></trkpt><trkpt lat="45.2027744" lon="9.3305226"><ele>71.0</ele><time>2026-03-29T08:27:34.362Z</time></trkpt><trkpt lat="45.2027065" lon="9.3304014"><ele>71.0</ele><time>2026-03-29T08:27:35.364Z</time></trkpt><trkpt lat="45.2026451" lon="9.3302524"><ele>71.0</ele><time>2026-03-29T08:27:36.369Z</time></trkpt><trkpt lat="45.2025352" lon="9.3298874"><ele>71.0</ele><time>2026-03-29T08:27:38.356Z</time></trkpt><trkpt lat="45.2024176" lon="9.3294411"><ele>70.5</ele><time>2026-03-29T08:27:40.364Z</time></trkpt><trkpt lat="45.2023541" lon="9.3291934"><ele>70.0</ele><time>2026-03-29T08:27:41.364Z</time></trkpt><trkpt lat="45.2022241" lon="9.3286654"><ele>70.0</ele><time>2026-03-29T08:27:43.361Z</time></trkpt><trkpt lat="45.2021586" lon="9.3283908"><ele>70.0</ele><time>2026-03-29T08:27:44.362Z</time></trkpt><trkpt lat="45.2020247" lon="9.3278281"><ele>70.0</ele><time>2026-03-29T08:27:46.368Z</time></trkpt><trkpt lat="45.2018857" lon="9.3272576"><ele>70.0</ele><time>2026-03-29T08:27:48.354Z</time></trkpt><trkpt lat="45.2018171" lon="9.3269768"><ele>70.0</ele><time>2026-03-29T08:27:49.378Z</time></trkpt><trkpt lat="45.2017517" lon="9.3267079"><ele>70.0</ele><time>2026-03-29T08:27:50.382Z</time></trkpt><trkpt lat="45.2016259" lon="9.3262049"><ele>70.5</ele><time>2026-03-29T08:27:52.355Z</time></trkpt><trkpt lat="45.2015627" lon="9.3259701"><ele>71.0</ele><time>2026-03-29T08:27:53.369Z</time></trkpt><trkpt lat="45.2014272" lon="9.3255216"><ele>71.0</ele><time>2026-03-29T08:27:55.36Z</time></trkpt><trkpt lat="45.2012752" lon="9.3250906"><ele>71.0</ele><time>2026-03-29T08:27:57.359Z</time></trkpt><trkpt lat="45.2011127" lon="9.3246691"><ele>71.0</ele><time>2026-03-29T08:27:59.358Z</time></trkpt><trkpt lat="45.2009412" lon="9.3242578"><ele>71.0</ele><time>2026-03-29T08:28:01.364Z</time></trkpt><trkpt lat="45.2008544" lon="9.3240653"><ele>71.0</ele><time>2026-03-29T08:28:02.373Z</time></trkpt><trkpt lat="45.2006724" lon="9.3236953"><ele>71.0</ele><time>2026-03-29T08:28:04.362Z</time></trkpt><trkpt lat="45.2005767" lon="9.3235113"><ele>71.0</ele><time>2026-03-29T08:28:05.368Z</time></trkpt><trkpt lat="45.2003832" lon="9.3231486"><ele>71.0</ele><time>2026-03-29T08:28:07.355Z</time></trkpt><trkpt lat="45.2002879" lon="9.3229733"><ele>71.0</ele><time>2026-03-29T08:28:08.365Z</time></trkpt><trkpt lat="45.2001124" lon="9.3226518"><ele>71.0</ele><time>2026-03-29T08:28:10.384Z</time></trkpt><trkpt lat="45.1999604" lon="9.3223788"><ele>71.0</ele><time>2026-03-29T08:28:12.361Z</time></trkpt><trkpt lat="45.199891" lon="9.3222513"><ele>71.0</ele><time>2026-03-29T08:28:13.365Z</time></trkpt><trkpt lat="45.1997619" lon="9.3220048"><ele>71.0</ele><time>2026-03-29T08:28:15.371Z</time></trkpt><trkpt lat="45.1996326" lon="9.3217654"><ele>71.0</ele><time>2026-03-29T08:28:17.369Z</time></trkpt><trkpt lat="45.1995059" lon="9.3215258"><ele>71.0</ele><time>2026-03-29T08:28:19.365Z</time></trkpt><trkpt lat="45.1993797" lon="9.3212821"><ele>71.0</ele><time>2026-03-29T08:28:21.368Z</time></trkpt><trkpt lat="45.1993115" lon="9.3211558"><ele>70.66666666666667</ele><time>2026-03-29T08:28:22.368Z</time></trkpt><trkpt lat="45.1992392" lon="9.3210236"><ele>70.33333333333333</ele><time>2026-03-29T08:28:23.374Z</time></trkpt><trkpt lat="45.1991649" lon="9.3208911"><ele>70.0</ele><time>2026-03-29T08:28:24.375Z</time></trkpt><trkpt lat="45.1990266" lon="9.3206343"><ele>68.66666666666666</ele><time>2026-03-29T08:28:26.371Z</time></trkpt><trkpt lat="45.1988881" lon="9.3203739"><ele>67.33333333333333</ele><time>2026-03-29T08:28:28.352Z</time></trkpt><trkpt lat="45.1988157" lon="9.3202318"><ele>66.0</ele><time>2026-03-29T08:28:29.358Z</time></trkpt><trkpt lat="45.1986565" lon="9.3199403"><ele>66.0</ele><time>2026-03-29T08:28:31.359Z</time></trkpt><trkpt lat="45.1985724" lon="9.3197888"><ele>66.0</ele><time>2026-03-29T08:28:32.362Z</time></trkpt><trkpt lat="45.1984034" lon="9.3194809"><ele>66.0</ele><time>2026-03-29T08:28:34.36Z</time></trkpt><trkpt lat="45.1982312" lon="9.3191624"><ele>65.5</ele><time>2026-03-29T08:28:36.36Z</time></trkpt><trkpt lat="45.1980501" lon="9.3188261"><ele>65.0</ele><time>2026-03-29T08:28:38.362Z</time></trkpt><trkpt lat="45.1978604" lon="9.3184756"><ele>65.0</ele><time>2026-03-29T08:28:40.355Z</time></trkpt><trkpt lat="45.1977632" lon="9.3182979"><ele>65.0</ele><time>2026-03-29T08:28:41.357Z</time></trkpt><trkpt lat="45.1975629" lon="9.3179278"><ele>65.0</ele><time>2026-03-29T08:28:43.356Z</time></trkpt><trkpt lat="45.1974591" lon="9.317733"><ele>65.0</ele><time>2026-03-29T08:28:44.359Z</time></trkpt><trkpt lat="45.197245" lon="9.317337"><ele>65.0</ele><time>2026-03-29T08:28:46.358Z</time></trkpt><trkpt lat="45.1971414" lon="9.3171471"><ele>65.0</ele><time>2026-03-29T08:28:47.367Z</time></trkpt><trkpt lat="45.1969519" lon="9.3167929"><ele>65.0</ele><time>2026-03-29T08:28:49.37Z</time></trkpt><trkpt lat="45.1967792" lon="9.3164711"><ele>65.0</ele><time>2026-03-29T08:28:51.362Z</time></trkpt><trkpt lat="45.196695" lon="9.3163141"><ele>65.0</ele><time>2026-03-29T08:28:52.372Z</time></trkpt><trkpt lat="45.1965382" lon="9.3159931"><ele>65.0</ele><time>2026-03-29T08:28:54.357Z</time></trkpt><trkpt lat="45.1964691" lon="9.3158288"><ele>65.0</ele><time>2026-03-29T08:28:55.362Z</time></trkpt><trkpt lat="45.1964107" lon="9.3156626"><ele>65.0</ele><time>2026-03-29T08:28:56.369Z</time></trkpt><trkpt lat="45.1963782" lon="9.3154963"><ele>65.0</ele><time>2026-03-29T08:28:57.375Z</time></trkpt><trkpt lat="45.1963972" lon="9.3151374"><ele>65.5</ele><time>2026-03-29T08:28:59.37Z</time></trkpt><trkpt lat="45.1964367" lon="9.3149406"><ele>66.0</ele><time>2026-03-29T08:29:00.37Z</time></trkpt><trkpt lat="45.1965372" lon="9.3145219"><ele>67.5</ele><time>2026-03-29T08:29:02.37Z</time></trkpt><trkpt lat="45.1966507" lon="9.3140714"><ele>69.0</ele><time>2026-03-29T08:29:04.366Z</time></trkpt><trkpt lat="45.1967159" lon="9.3138173"><ele>69.0</ele><time>2026-03-29T08:29:05.366Z</time></trkpt><trkpt lat="45.1967822" lon="9.3135514"><ele>69.0</ele><time>2026-03-29T08:29:06.37Z</time></trkpt><trkpt lat="45.1968462" lon="9.3132966"><ele>69.0</ele><time>2026-03-29T08:29:07.382Z</time></trkpt><trkpt lat="45.1969087" lon="9.3130646"><ele>69.0</ele><time>2026-03-29T08:29:08.383Z</time></trkpt><trkpt lat="45.1970012" lon="9.3126433"><ele>69.0</ele><time>2026-03-29T08:29:10.375Z</time></trkpt><trkpt lat="45.1970192" lon="9.3124233"><ele>69.0</ele><time>2026-03-29T08:29:11.378Z</time></trkpt><trkpt lat="45.1970074" lon="9.3119304"><ele>69.0</ele><time>2026-03-29T08:29:13.36Z</time></trkpt><trkpt lat="45.1969837" lon="9.3116538"><ele>69.0</ele><time>2026-03-29T08:29:14.37Z</time></trkpt><trkpt lat="45.1969259" lon="9.3110706"><ele>69.0</ele><time>2026-03-29T08:29:16.363Z</time></trkpt><trkpt lat="45.1968961" lon="9.3107764"><ele>69.5</ele><time>2026-03-29T08:29:17.37Z</time></trkpt><trkpt lat="45.1968662" lon="9.3104819"><ele>70.0</ele><time>2026-03-29T08:29:18.372Z</time></trkpt><trkpt lat="45.1968067" lon="9.3099136"><ele>70.5</ele><time>2026-03-29T08:29:20.377Z</time></trkpt><trkpt lat="45.1967789" lon="9.3096496"><ele>71.0</ele><time>2026-03-29T08:29:21.386Z</time></trkpt><trkpt lat="45.1967266" lon="9.3091478"><ele>71.0</ele><time>2026-03-29T08:29:23.363Z</time></trkpt><trkpt lat="45.1967024" lon="9.3088966"><ele>71.0</ele><time>2026-03-29T08:29:24.367Z</time></trkpt><trkpt lat="45.1966504" lon="9.3083918"><ele>71.0</ele><time>2026-03-29T08:29:26.414Z</time></trkpt><trkpt lat="45.1965957" lon="9.3078861"><ele>71.0</ele><time>2026-03-29T08:29:28.358Z</time></trkpt><trkpt lat="45.1965452" lon="9.3073801"><ele>71.5</ele><time>2026-03-29T08:29:30.361Z</time></trkpt><trkpt lat="45.1965209" lon="9.3071299"><ele>72.0</ele><time>2026-03-29T08:29:31.362Z</time></trkpt><trkpt lat="45.1964696" lon="9.3066336"><ele>72.0</ele><time>2026-03-29T08:29:33.365Z</time></trkpt><trkpt lat="45.1964439" lon="9.3063865"><ele>72.0</ele><time>2026-03-29T08:29:34.365Z</time></trkpt><trkpt lat="45.1963907" lon="9.305891"><ele>72.0</ele><time>2026-03-29T08:29:36.36Z</time></trkpt><trkpt lat="45.1963637" lon="9.3056418"><ele>72.0</ele><time>2026-03-29T08:29:37.362Z</time></trkpt><trkpt lat="45.1963107" lon="9.3051363"><ele>71.5</ele><time>2026-03-29T08:29:39.36Z</time></trkpt><trkpt lat="45.1962859" lon="9.3048789"><ele>71.0</ele><time>2026-03-29T08:29:40.365Z</time></trkpt><trkpt lat="45.1962349" lon="9.3043436"><ele>71.0</ele><time>2026-03-29T08:29:42.359Z</time></trkpt><trkpt lat="45.1962092" lon="9.3040706"><ele>71.0</ele><time>2026-03-29T08:29:43.363Z</time></trkpt><trkpt lat="45.1961862" lon="9.3037981"><ele>71.0</ele><time>2026-03-29T08:29:44.37Z</time></trkpt><trkpt lat="45.1961599" lon="9.3032674"><ele>70.0</ele><time>2026-03-29T08:29:46.359Z</time></trkpt><trkpt lat="45.1961634" lon="9.3030024"><ele>69.0</ele><time>2026-03-29T08:29:47.366Z</time></trkpt><trkpt lat="45.1962022" lon="9.3024631"><ele>69.5</ele><time>2026-03-29T08:29:49.37Z</time></trkpt><trkpt lat="45.1962769" lon="9.301922"><ele>70.0</ele><time>2026-03-29T08:29:51.361Z</time></trkpt><trkpt lat="45.1963275" lon="9.3016561"><ele>70.0</ele><time>2026-03-29T08:29:52.365Z</time></trkpt><trkpt lat="45.1964604" lon="9.3011363"><ele>70.0</ele><time>2026-03-29T08:29:54.36Z</time></trkpt><trkpt lat="45.1965372" lon="9.3008821"><ele>70.5</ele><time>2026-03-29T08:29:55.367Z</time></trkpt><trkpt lat="45.1966924" lon="9.300378"><ele>71.0</ele><time>2026-03-29T08:29:57.363Z</time></trkpt><trkpt lat="45.1968216" lon="9.2998609"><ele>71.0</ele><time>2026-03-29T08:29:59.361Z</time></trkpt><trkpt lat="45.1968912" lon="9.2993178"><ele>71.0</ele><time>2026-03-29T08:30:01.367Z</time></trkpt><trkpt lat="45.1968917" lon="9.2987638"><ele>71.0</ele><time>2026-03-29T08:30:03.371Z</time></trkpt><trkpt lat="45.1968341" lon="9.2982138"><ele>71.0</ele><time>2026-03-29T08:30:05.363Z</time></trkpt><trkpt lat="45.1967871" lon="9.2979404"><ele>71.5</ele><time>2026-03-29T08:30:06.365Z</time></trkpt><trkpt lat="45.1966684" lon="9.2973918"><ele>72.0</ele><time>2026-03-29T08:30:08.359Z</time></trkpt><trkpt lat="45.1966075" lon="9.2971228"><ele>72.0</ele><time>2026-03-29T08:30:09.361Z</time></trkpt><trkpt lat="45.1965467" lon="9.2968619"><ele>72.0</ele><time>2026-03-29T08:30:10.41Z</time></trkpt><trkpt lat="45.1964292" lon="9.2963579"><ele>71.5</ele><time>2026-03-29T08:30:12.363Z</time></trkpt><trkpt lat="45.1963116" lon="9.2958553"><ele>71.0</ele><time>2026-03-29T08:30:14.36Z</time></trkpt><trkpt lat="45.196191" lon="9.2953488"><ele>71.0</ele><time>2026-03-29T08:30:16.359Z</time></trkpt><trkpt lat="45.1961314" lon="9.29509"><ele>71.0</ele><time>2026-03-29T08:30:17.362Z</time></trkpt><trkpt lat="45.1960729" lon="9.2948338"><ele>71.0</ele><time>2026-03-29T08:30:18.368Z</time></trkpt><trkpt lat="45.1959637" lon="9.2943459"><ele>71.0</ele><time>2026-03-29T08:30:20.378Z</time></trkpt><trkpt lat="45.1958692" lon="9.2939178"><ele>71.0</ele><time>2026-03-29T08:30:22.369Z</time></trkpt><trkpt lat="45.1957882" lon="9.2935259"><ele>71.0</ele><time>2026-03-29T08:30:24.366Z</time></trkpt><trkpt lat="45.1957065" lon="9.2931153"><ele>71.0</ele><time>2026-03-29T08:30:26.36Z</time></trkpt><trkpt lat="45.1956654" lon="9.2928978"><ele>71.0</ele><time>2026-03-29T08:30:27.364Z</time></trkpt><trkpt lat="45.1956267" lon="9.2926716"><ele>71.0</ele><time>2026-03-29T08:30:28.369Z</time></trkpt><trkpt lat="45.1955909" lon="9.2924388"><ele>71.0</ele><time>2026-03-29T08:30:29.371Z</time></trkpt><trkpt lat="45.1955227" lon="9.2919504"><ele>71.0</ele><time>2026-03-29T08:30:31.366Z</time></trkpt><trkpt lat="45.1954627" lon="9.2914376"><ele>71.0</ele><time>2026-03-29T08:30:33.362Z</time></trkpt><trkpt lat="45.1954144" lon="9.2909066"><ele>71.0</ele><time>2026-03-29T08:30:35.36Z</time></trkpt><trkpt lat="45.1953932" lon="9.2906431"><ele>71.0</ele><time>2026-03-29T08:30:36.363Z</time></trkpt><trkpt lat="45.1953649" lon="9.2901216"><ele>72.0</ele><time>2026-03-29T08:30:38.359Z</time></trkpt><trkpt lat="45.1953561" lon="9.2896001"><ele>73.0</ele><time>2026-03-29T08:30:40.363Z</time></trkpt><trkpt lat="45.1953657" lon="9.2890796"><ele>73.5</ele><time>2026-03-29T08:30:42.363Z</time></trkpt><trkpt lat="45.1953902" lon="9.2885488"><ele>74.0</ele><time>2026-03-29T08:30:44.355Z</time></trkpt><trkpt lat="45.1954035" lon="9.2882799"><ele>73.33333333333334</ele><time>2026-03-29T08:30:45.357Z</time></trkpt><trkpt lat="45.1954172" lon="9.2880106"><ele>72.66666666666667</ele><time>2026-03-29T08:30:46.359Z</time></trkpt><trkpt lat="45.1954306" lon="9.2877381"><ele>72.0</ele><time>2026-03-29T08:30:47.359Z</time></trkpt><trkpt lat="45.1954607" lon="9.2871946"><ele>72.0</ele><time>2026-03-29T08:30:49.362Z</time></trkpt><trkpt lat="45.1954799" lon="9.2869328"><ele>72.0</ele><time>2026-03-29T08:30:50.383Z</time></trkpt><trkpt lat="45.1955527" lon="9.2864571"><ele>72.5</ele><time>2026-03-29T08:30:52.366Z</time></trkpt><trkpt lat="45.1956599" lon="9.2860606"><ele>73.0</ele><time>2026-03-29T08:30:54.365Z</time></trkpt><trkpt lat="45.1957636" lon="9.2857654"><ele>73.25</ele><time>2026-03-29T08:30:56.358Z</time></trkpt><trkpt lat="45.1958064" lon="9.2856408"><ele>73.5</ele><time>2026-03-29T08:30:57.362Z</time></trkpt><trkpt lat="45.1958402" lon="9.2855268"><ele>73.75</ele><time>2026-03-29T08:30:58.38Z</time></trkpt><trkpt lat="45.1958916" lon="9.2853133"><ele>74.0</ele><time>2026-03-29T08:31:00.379Z</time></trkpt><trkpt lat="45.1959295" lon="9.2851193"><ele>74.25</ele><time>2026-03-29T08:31:02.386Z</time></trkpt><trkpt lat="45.1959587" lon="9.2849394"><ele>74.5</ele><time>2026-03-29T08:31:04.365Z</time></trkpt><trkpt lat="45.1959832" lon="9.2847676"><ele>74.75</ele><time>2026-03-29T08:31:06.358Z</time></trkpt><trkpt lat="45.196018" lon="9.2845351"><ele>75.0</ele><time>2026-03-29T08:31:09.366Z</time></trkpt><trkpt lat="45.1960319" lon="9.2844464"><ele>75.0</ele><time>2026-03-29T08:31:10.383Z</time></trkpt><trkpt lat="45.1960695" lon="9.2842254"><ele>75.0</ele><time>2026-03-29T08:31:12.365Z</time></trkpt><trkpt lat="45.1961099" lon="9.2839631"><ele>75.0</ele><time>2026-03-29T08:31:14.373Z</time></trkpt><trkpt lat="45.1961302" lon="9.2838384"><ele>75.0</ele><time>2026-03-29T08:31:15.379Z</time></trkpt><trkpt lat="45.1961712" lon="9.2835841"><ele>75.0</ele><time>2026-03-29T08:31:17.373Z</time></trkpt><trkpt lat="45.1961937" lon="9.2834511"><ele>75.0</ele><time>2026-03-29T08:31:18.376Z</time></trkpt><trkpt lat="45.1962192" lon="9.2833059"><ele>75.0</ele><time>2026-03-29T08:31:19.376Z</time></trkpt><trkpt lat="45.1962487" lon="9.2831491"><ele>75.0</ele><time>2026-03-29T08:31:20.382Z</time></trkpt><trkpt lat="45.1962957" lon="9.2828304"><ele>75.25</ele><time>2026-03-29T08:31:22.373Z</time></trkpt><trkpt lat="45.1963177" lon="9.2826803"><ele>75.5</ele><time>2026-03-29T08:31:23.378Z</time></trkpt><trkpt lat="45.1963629" lon="9.2823826"><ele>75.75</ele><time>2026-03-29T08:31:25.358Z</time></trkpt><trkpt lat="45.1963837" lon="9.2822305"><ele>76.0</ele><time>2026-03-29T08:31:26.381Z</time></trkpt><trkpt lat="45.1964172" lon="9.2819083"><ele>76.0</ele><time>2026-03-29T08:31:28.352Z</time></trkpt><trkpt lat="45.1964315" lon="9.2817393"><ele>76.0</ele><time>2026-03-29T08:31:29.355Z</time></trkpt><trkpt lat="45.1964431" lon="9.2815629"><ele>76.0</ele><time>2026-03-29T08:31:30.368Z</time></trkpt><trkpt lat="45.1964519" lon="9.2813771"><ele>76.0</ele><time>2026-03-29T08:31:31.368Z</time></trkpt><trkpt lat="45.1964572" lon="9.2811849"><ele>76.0</ele><time>2026-03-29T08:31:32.374Z</time></trkpt><trkpt lat="45.1964586" lon="9.2809876"><ele>76.0</ele><time>2026-03-29T08:31:33.381Z</time></trkpt><trkpt lat="45.1964462" lon="9.2806184"><ele>76.0</ele><time>2026-03-29T08:31:35.381Z</time></trkpt><trkpt lat="45.1964222" lon="9.2802943"><ele>76.0</ele><time>2026-03-29T08:31:37.391Z</time></trkpt><trkpt lat="45.1963972" lon="9.2800069"><ele>76.0</ele><time>2026-03-29T08:31:39.359Z</time></trkpt><trkpt lat="45.1963864" lon="9.2798746"><ele>76.0</ele><time>2026-03-29T08:31:40.367Z</time></trkpt><trkpt lat="45.1963711" lon="9.2796348"><ele>75.5</ele><time>2026-03-29T08:31:42.368Z</time></trkpt><trkpt lat="45.1963666" lon="9.2795203"><ele>75.0</ele><time>2026-03-29T08:31:43.374Z</time></trkpt><trkpt lat="45.1963677" lon="9.279288"><ele>74.5</ele><time>2026-03-29T08:31:45.359Z</time></trkpt><trkpt lat="45.1963812" lon="9.2791689"><ele>74.0</ele><time>2026-03-29T08:31:46.374Z</time></trkpt><trkpt lat="45.1964335" lon="9.2789291"><ele>73.75</ele><time>2026-03-29T08:31:48.378Z</time></trkpt><trkpt lat="45.1964389" lon="9.2787943"><ele>73.5</ele><time>2026-03-29T08:31:49.379Z</time></trkpt><trkpt lat="45.1964404" lon="9.2784771"><ele>73.25</ele><time>2026-03-29T08:31:51.394Z</time></trkpt><trkpt lat="45.1964642" lon="9.2782979"><ele>73.0</ele><time>2026-03-29T08:31:52.393Z</time></trkpt><trkpt lat="45.1965577" lon="9.2778999"><ele>73.0</ele><time>2026-03-29T08:31:54.374Z</time></trkpt><trkpt lat="45.1966862" lon="9.2774421"><ele>73.0</ele><time>2026-03-29T08:31:56.358Z</time></trkpt><trkpt lat="45.1967587" lon="9.2771998"><ele>72.66666666666666</ele><time>2026-03-29T08:31:57.358Z</time></trkpt><trkpt lat="45.1968326" lon="9.2769556"><ele>72.33333333333333</ele><time>2026-03-29T08:31:58.36Z</time></trkpt><trkpt lat="45.1969029" lon="9.2767153"><ele>72.0</ele><time>2026-03-29T08:31:59.362Z</time></trkpt><trkpt lat="45.1969642" lon="9.2764851"><ele>72.5</ele><time>2026-03-29T08:32:00.366Z</time></trkpt><trkpt lat="45.1970676" lon="9.2760341"><ele>73.0</ele><time>2026-03-29T08:32:02.357Z</time></trkpt><trkpt lat="45.1971122" lon="9.2758064"><ele>72.5</ele><time>2026-03-29T08:32:03.364Z</time></trkpt><trkpt lat="45.1971512" lon="9.275579"><ele>72.0</ele><time>2026-03-29T08:32:04.372Z</time></trkpt><trkpt lat="45.1972147" lon="9.2751113"><ele>72.0</ele><time>2026-03-29T08:32:06.368Z</time></trkpt><trkpt lat="45.1972547" lon="9.2746485"><ele>72.0</ele><time>2026-03-29T08:32:08.358Z</time></trkpt><trkpt lat="45.1972692" lon="9.2744138"><ele>72.0</ele><time>2026-03-29T08:32:09.374Z</time></trkpt><trkpt lat="45.1972816" lon="9.2741751"><ele>72.0</ele><time>2026-03-29T08:32:10.381Z</time></trkpt><trkpt lat="45.1972997" lon="9.2736866"><ele>72.0</ele><time>2026-03-29T08:32:12.37Z</time></trkpt><trkpt lat="45.1973134" lon="9.2732026"><ele>72.0</ele><time>2026-03-29T08:32:14.363Z</time></trkpt><trkpt lat="45.1973187" lon="9.2729641"><ele>72.5</ele><time>2026-03-29T08:32:15.366Z</time></trkpt><trkpt lat="45.1973325" lon="9.2724894"><ele>73.0</ele><time>2026-03-29T08:32:17.361Z</time></trkpt><trkpt lat="45.1973397" lon="9.2722503"><ele>73.5</ele><time>2026-03-29T08:32:18.362Z</time></trkpt><trkpt lat="45.1973534" lon="9.2717738"><ele>74.0</ele><time>2026-03-29T08:32:20.365Z</time></trkpt><trkpt lat="45.1973596" lon="9.2715349"><ele>73.5</ele><time>2026-03-29T08:32:21.369Z</time></trkpt><trkpt lat="45.1973729" lon="9.2710768"><ele>73.0</ele><time>2026-03-29T08:32:23.365Z</time></trkpt><trkpt lat="45.1973802" lon="9.2708478"><ele>73.5</ele><time>2026-03-29T08:32:24.368Z</time></trkpt><trkpt lat="45.1973939" lon="9.2703801"><ele>74.0</ele><time>2026-03-29T08:32:26.369Z</time></trkpt><trkpt lat="45.1974067" lon="9.2699063"><ele>74.0</ele><time>2026-03-29T08:32:28.368Z</time></trkpt><trkpt lat="45.1974214" lon="9.2694421"><ele>74.0</ele><time>2026-03-29T08:32:30.36Z</time></trkpt><trkpt lat="45.1974292" lon="9.2692145"><ele>74.0</ele><time>2026-03-29T08:32:31.368Z</time></trkpt><trkpt lat="45.1974367" lon="9.2689856"><ele>74.0</ele><time>2026-03-29T08:32:32.369Z</time></trkpt><trkpt lat="45.1974504" lon="9.2685204"><ele>74.0</ele><time>2026-03-29T08:32:34.369Z</time></trkpt><trkpt lat="45.1974589" lon="9.2680488"><ele>74.0</ele><time>2026-03-29T08:32:36.366Z</time></trkpt><trkpt lat="45.1974574" lon="9.2678056"><ele>74.0</ele><time>2026-03-29T08:32:37.366Z</time></trkpt><trkpt lat="45.1974471" lon="9.2673013"><ele>74.0</ele><time>2026-03-29T08:32:39.365Z</time></trkpt><trkpt lat="45.1974275" lon="9.2667686"><ele>73.0</ele><time>2026-03-29T08:32:41.371Z</time></trkpt><trkpt lat="45.1973961" lon="9.2662264"><ele>72.0</ele><time>2026-03-29T08:32:43.382Z</time></trkpt><trkpt lat="45.1973506" lon="9.2656906"><ele>73.0</ele><time>2026-03-29T08:32:45.363Z</time></trkpt><trkpt lat="45.1973205" lon="9.2654306"><ele>74.0</ele><time>2026-03-29T08:32:46.382Z</time></trkpt><trkpt lat="45.1972524" lon="9.2649421"><ele>74.5</ele><time>2026-03-29T08:32:48.36Z</time></trkpt><trkpt lat="45.1972151" lon="9.2646999"><ele>75.0</ele><time>2026-03-29T08:32:49.372Z</time></trkpt><trkpt lat="45.1971345" lon="9.2642034"><ele>75.0</ele><time>2026-03-29T08:32:51.358Z</time></trkpt><trkpt lat="45.1970904" lon="9.2639489"><ele>75.0</ele><time>2026-03-29T08:32:52.361Z</time></trkpt><trkpt lat="45.1970426" lon="9.2636854"><ele>75.0</ele><time>2026-03-29T08:32:53.363Z</time></trkpt><trkpt lat="45.1969397" lon="9.2631253"><ele>75.0</ele><time>2026-03-29T08:32:55.377Z</time></trkpt><trkpt lat="45.1968272" lon="9.2625293"><ele>75.0</ele><time>2026-03-29T08:32:57.358Z</time></trkpt><trkpt lat="45.1967707" lon="9.2622204"><ele>75.0</ele><time>2026-03-29T08:32:58.362Z</time></trkpt><trkpt lat="45.1967134" lon="9.2619033"><ele>75.0</ele><time>2026-03-29T08:32:59.362Z</time></trkpt><trkpt lat="45.1966554" lon="9.2615824"><ele>76.0</ele><time>2026-03-29T08:33:00.367Z</time></trkpt><trkpt lat="45.1965404" lon="9.2609364"><ele>75.5</ele><time>2026-03-29T08:33:02.362Z</time></trkpt><trkpt lat="45.1964854" lon="9.2606248"><ele>75.0</ele><time>2026-03-29T08:33:03.371Z</time></trkpt><trkpt lat="45.1963781" lon="9.2600363"><ele>75.0</ele><time>2026-03-29T08:33:05.374Z</time></trkpt><trkpt lat="45.1963087" lon="9.2597578"><ele>75.0</ele><time>2026-03-29T08:33:06.377Z</time></trkpt><trkpt lat="45.1961062" lon="9.2592421"><ele>75.0</ele><time>2026-03-29T08:33:08.377Z</time></trkpt><trkpt lat="45.1958351" lon="9.2587756"><ele>75.0</ele><time>2026-03-29T08:33:10.376Z</time></trkpt><trkpt lat="45.1955254" lon="9.2583274"><ele>75.0</ele><time>2026-03-29T08:33:12.381Z</time></trkpt><trkpt lat="45.1951999" lon="9.2578616"><ele>75.0</ele><time>2026-03-29T08:33:14.383Z</time></trkpt><trkpt lat="45.1950402" lon="9.2576318"><ele>75.0</ele><time>2026-03-29T08:33:15.387Z</time></trkpt><trkpt lat="45.1948911" lon="9.2574121"><ele>75.0</ele><time>2026-03-29T08:33:16.388Z</time></trkpt><trkpt lat="45.1946099" lon="9.2569789"><ele>75.33333333333333</ele><time>2026-03-29T08:33:18.373Z</time></trkpt><trkpt lat="45.1944774" lon="9.2567571"><ele>75.66666666666666</ele><time>2026-03-29T08:33:19.377Z</time></trkpt><trkpt lat="45.1943494" lon="9.2565293"><ele>76.0</ele><time>2026-03-29T08:33:20.393Z</time></trkpt><trkpt lat="45.1941082" lon="9.2560484"><ele>75.5</ele><time>2026-03-29T08:33:22.38Z</time></trkpt><trkpt lat="45.1939956" lon="9.2557954"><ele>75.0</ele><time>2026-03-29T08:33:23.38Z</time></trkpt><trkpt lat="45.1937865" lon="9.2552664"><ele>75.0</ele><time>2026-03-29T08:33:25.374Z</time></trkpt><trkpt lat="45.1936876" lon="9.2549909"><ele>75.0</ele><time>2026-03-29T08:33:26.383Z</time></trkpt><trkpt lat="45.1934876" lon="9.2544231"><ele>75.0</ele><time>2026-03-29T08:33:28.386Z</time></trkpt><trkpt lat="45.1932812" lon="9.2538368"><ele>75.0</ele><time>2026-03-29T08:33:30.372Z</time></trkpt><trkpt lat="45.1930734" lon="9.2532519"><ele>75.0</ele><time>2026-03-29T08:33:32.368Z</time></trkpt><trkpt lat="45.1929685" lon="9.2529636"><ele>75.0</ele><time>2026-03-29T08:33:33.379Z</time></trkpt><trkpt lat="45.1927629" lon="9.2524303"><ele>75.5</ele><time>2026-03-29T08:33:35.348Z</time></trkpt><trkpt lat="45.1926632" lon="9.2521839"><ele>76.0</ele><time>2026-03-29T08:33:36.35Z</time></trkpt><trkpt lat="45.1924804" lon="9.2517198"><ele>76.0</ele><time>2026-03-29T08:33:38.346Z</time></trkpt><trkpt lat="45.1923979" lon="9.2514901"><ele>76.0</ele><time>2026-03-29T08:33:39.348Z</time></trkpt><trkpt lat="45.1922511" lon="9.2510266"><ele>76.0</ele><time>2026-03-29T08:33:41.352Z</time></trkpt><trkpt lat="45.1921169" lon="9.2505551"><ele>76.0</ele><time>2026-03-29T08:33:43.349Z</time></trkpt><trkpt lat="45.1920507" lon="9.2503148"><ele>76.0</ele><time>2026-03-29T08:33:44.353Z</time></trkpt><trkpt lat="45.1919186" lon="9.2498196"><ele>76.0</ele><time>2026-03-29T08:33:46.343Z</time></trkpt><trkpt lat="45.191851" lon="9.2495638"><ele>75.5</ele><time>2026-03-29T08:33:47.346Z</time></trkpt><trkpt lat="45.1917144" lon="9.2490396"><ele>75.0</ele><time>2026-03-29T08:33:49.346Z</time></trkpt><trkpt lat="45.1916496" lon="9.2487864"><ele>74.66666666666667</ele><time>2026-03-29T08:33:50.351Z</time></trkpt><trkpt lat="45.1915867" lon="9.2485386"><ele>74.33333333333334</ele><time>2026-03-29T08:33:51.351Z</time></trkpt><trkpt lat="45.1915249" lon="9.2482903"><ele>74.0</ele><time>2026-03-29T08:33:52.352Z</time></trkpt><trkpt lat="45.1914042" lon="9.2478118"><ele>74.5</ele><time>2026-03-29T08:33:54.352Z</time></trkpt><trkpt lat="45.1912846" lon="9.2473466"><ele>75.0</ele><time>2026-03-29T08:33:56.344Z</time></trkpt><trkpt lat="45.1912245" lon="9.2471108"><ele>75.0</ele><time>2026-03-29T08:33:57.347Z</time></trkpt><trkpt lat="45.1911652" lon="9.2468696"><ele>75.0</ele><time>2026-03-29T08:33:58.348Z</time></trkpt><trkpt lat="45.1911047" lon="9.2466198"><ele>75.0</ele><time>2026-03-29T08:33:59.347Z</time></trkpt><trkpt lat="45.1910499" lon="9.2463566"><ele>74.5</ele><time>2026-03-29T08:34:00.347Z</time></trkpt><trkpt lat="45.1909981" lon="9.2460818"><ele>74.0</ele><time>2026-03-29T08:34:01.35Z</time></trkpt><trkpt lat="45.1909014" lon="9.2455003"><ele>74.0</ele><time>2026-03-29T08:34:03.356Z</time></trkpt><trkpt lat="45.1908291" lon="9.2448853"><ele>74.0</ele><time>2026-03-29T08:34:05.348Z</time></trkpt><trkpt lat="45.1908099" lon="9.2445728"><ele>74.5</ele><time>2026-03-29T08:34:06.349Z</time></trkpt><trkpt lat="45.1907969" lon="9.2442559"><ele>75.0</ele><time>2026-03-29T08:34:07.353Z</time></trkpt><trkpt lat="45.1907901" lon="9.2436141"><ele>75.0</ele><time>2026-03-29T08:34:09.351Z</time></trkpt><trkpt lat="45.1907962" lon="9.2432918"><ele>75.0</ele><time>2026-03-29T08:34:10.355Z</time></trkpt><trkpt lat="45.1908329" lon="9.2426681"><ele>75.0</ele><time>2026-03-29T08:34:12.355Z</time></trkpt><trkpt lat="45.1908604" lon="9.2423699"><ele>75.0</ele><time>2026-03-29T08:34:13.359Z</time></trkpt><trkpt lat="45.1909297" lon="9.2417831"><ele>75.5</ele><time>2026-03-29T08:34:15.352Z</time></trkpt><trkpt lat="45.1910066" lon="9.2412004"><ele>76.0</ele><time>2026-03-29T08:34:17.341Z</time></trkpt><trkpt lat="45.1910466" lon="9.2409078"><ele>75.5</ele><time>2026-03-29T08:34:18.358Z</time></trkpt><trkpt lat="45.1911264" lon="9.2403238"><ele>75.0</ele><time>2026-03-29T08:34:20.35Z</time></trkpt><trkpt lat="45.1912032" lon="9.2397368"><ele>75.0</ele><time>2026-03-29T08:34:22.351Z</time></trkpt><trkpt lat="45.1912355" lon="9.2394418"><ele>75.0</ele><time>2026-03-29T08:34:23.353Z</time></trkpt><trkpt lat="45.1912676" lon="9.2388404"><ele>75.5</ele><time>2026-03-29T08:34:25.344Z</time></trkpt><trkpt lat="45.1912656" lon="9.2385344"><ele>76.0</ele><time>2026-03-29T08:34:26.351Z</time></trkpt><trkpt lat="45.1912297" lon="9.2379143"><ele>75.5</ele><time>2026-03-29T08:34:28.349Z</time></trkpt><trkpt lat="45.1911767" lon="9.2372896"><ele>75.0</ele><time>2026-03-29T08:34:30.348Z</time></trkpt><trkpt lat="45.191148" lon="9.2369764"><ele>75.5</ele><time>2026-03-29T08:34:31.35Z</time></trkpt><trkpt lat="45.1910882" lon="9.2363518"><ele>76.0</ele><time>2026-03-29T08:34:33.339Z</time></trkpt><trkpt lat="45.1910595" lon="9.2360416"><ele>76.0</ele><time>2026-03-29T08:34:34.344Z</time></trkpt><trkpt lat="45.1910304" lon="9.2357334"><ele>76.0</ele><time>2026-03-29T08:34:35.348Z</time></trkpt><trkpt lat="45.190971" lon="9.2351196"><ele>76.0</ele><time>2026-03-29T08:34:37.347Z</time></trkpt><trkpt lat="45.1909459" lon="9.2348141"><ele>76.0</ele><time>2026-03-29T08:34:38.352Z</time></trkpt><trkpt lat="45.1909266" lon="9.2345111"><ele>76.0</ele><time>2026-03-29T08:34:39.354Z</time></trkpt><trkpt lat="45.1909007" lon="9.2339371"><ele>75.5</ele><time>2026-03-29T08:34:41.346Z</time></trkpt><trkpt lat="45.1908949" lon="9.2336571"><ele>75.0</ele><time>2026-03-29T08:34:42.35Z</time></trkpt><trkpt lat="45.1908994" lon="9.2330839"><ele>75.0</ele><time>2026-03-29T08:34:44.345Z</time></trkpt><trkpt lat="45.1909082" lon="9.2327914"><ele>75.0</ele><time>2026-03-29T08:34:45.346Z</time></trkpt><trkpt lat="45.1909222" lon="9.2324968"><ele>75.0</ele><time>2026-03-29T08:34:46.349Z</time></trkpt><trkpt lat="45.1909669" lon="9.2319003"><ele>75.0</ele><time>2026-03-29T08:34:48.354Z</time></trkpt><trkpt lat="45.1909969" lon="9.2316021"><ele>75.0</ele><time>2026-03-29T08:34:49.356Z</time></trkpt><trkpt lat="45.1910646" lon="9.2310429"><ele>75.5</ele><time>2026-03-29T08:34:51.35Z</time></trkpt><trkpt lat="45.1911044" lon="9.2307774"><ele>76.0</ele><time>2026-03-29T08:34:52.359Z</time></trkpt><trkpt lat="45.1911901" lon="9.2302508"><ele>76.0</ele><time>2026-03-29T08:34:54.35Z</time></trkpt><trkpt lat="45.1912334" lon="9.2299851"><ele>76.0</ele><time>2026-03-29T08:34:55.355Z</time></trkpt><trkpt lat="45.191276" lon="9.2297163"><ele>76.0</ele><time>2026-03-29T08:34:56.357Z</time></trkpt><trkpt lat="45.1913624" lon="9.2291606"><ele>77.0</ele><time>2026-03-29T08:34:58.358Z</time></trkpt><trkpt lat="45.1914507" lon="9.2286013"><ele>78.0</ele><time>2026-03-29T08:35:00.354Z</time></trkpt><trkpt lat="45.1915366" lon="9.2280889"><ele>78.0</ele><time>2026-03-29T08:35:02.355Z</time></trkpt><trkpt lat="45.1916166" lon="9.2276044"><ele>78.0</ele><time>2026-03-29T08:35:04.35Z</time></trkpt><trkpt lat="45.1916574" lon="9.2273608"><ele>78.0</ele><time>2026-03-29T08:35:05.354Z</time></trkpt><trkpt lat="45.1917377" lon="9.2268709"><ele>78.0</ele><time>2026-03-29T08:35:07.354Z</time></trkpt><trkpt lat="45.1917786" lon="9.2266271"><ele>77.0</ele><time>2026-03-29T08:35:08.357Z</time></trkpt><trkpt lat="45.1918586" lon="9.2261273"><ele>76.0</ele><time>2026-03-29T08:35:10.355Z</time></trkpt><trkpt lat="45.1919414" lon="9.2256051"><ele>76.0</ele><time>2026-03-29T08:35:12.349Z</time></trkpt><trkpt lat="45.1919811" lon="9.2253379"><ele>76.0</ele><time>2026-03-29T08:35:13.351Z</time></trkpt><trkpt lat="45.1920425" lon="9.2247969"><ele>76.5</ele><time>2026-03-29T08:35:15.351Z</time></trkpt><trkpt lat="45.1920782" lon="9.2242468"><ele>77.0</ele><time>2026-03-29T08:35:17.365Z</time></trkpt><trkpt lat="45.1920905" lon="9.2237009"><ele>78.0</ele><time>2026-03-29T08:35:19.35Z</time></trkpt><trkpt lat="45.1920901" lon="9.2234401"><ele>79.0</ele><time>2026-03-29T08:35:20.355Z</time></trkpt><trkpt lat="45.1920784" lon="9.2229501"><ele>79.0</ele><time>2026-03-29T08:35:22.344Z</time></trkpt><trkpt lat="45.1920707" lon="9.2227133"><ele>79.0</ele><time>2026-03-29T08:35:23.353Z</time></trkpt><trkpt lat="45.1920637" lon="9.2224864"><ele>79.0</ele><time>2026-03-29T08:35:24.357Z</time></trkpt><trkpt lat="45.1920522" lon="9.2220781"><ele>78.5</ele><time>2026-03-29T08:35:26.344Z</time></trkpt><trkpt lat="45.1920466" lon="9.2218828"><ele>78.0</ele><time>2026-03-29T08:35:27.347Z</time></trkpt><trkpt lat="45.1920434" lon="9.2216916"><ele>77.5</ele><time>2026-03-29T08:35:28.347Z</time></trkpt><trkpt lat="45.1920437" lon="9.2215078"><ele>77.0</ele><time>2026-03-29T08:35:29.366Z</time></trkpt><trkpt lat="45.1920537" lon="9.2211558"><ele>77.0</ele><time>2026-03-29T08:35:31.345Z</time></trkpt><trkpt lat="45.1920634" lon="9.2209903"><ele>77.0</ele><time>2026-03-29T08:35:32.344Z</time></trkpt><trkpt lat="45.1920882" lon="9.2206826"><ele>77.0</ele><time>2026-03-29T08:35:34.347Z</time></trkpt><trkpt lat="45.1921052" lon="9.2205269"><ele>77.0</ele><time>2026-03-29T08:35:35.348Z</time></trkpt><trkpt lat="45.1921236" lon="9.2203643"><ele>77.0</ele><time>2026-03-29T08:35:36.35Z</time></trkpt><trkpt lat="45.1921614" lon="9.2200139"><ele>77.0</ele><time>2026-03-29T08:35:38.347Z</time></trkpt><trkpt lat="45.1921849" lon="9.2196334"><ele>77.5</ele><time>2026-03-29T08:35:40.357Z</time></trkpt><trkpt lat="45.1921617" lon="9.2192264"><ele>78.0</ele><time>2026-03-29T08:35:42.354Z</time></trkpt><trkpt lat="45.1921079" lon="9.2187893"><ele>78.0</ele><time>2026-03-29T08:35:44.349Z</time></trkpt><trkpt lat="45.1920756" lon="9.2185613"><ele>78.0</ele><time>2026-03-29T08:35:45.353Z</time></trkpt><trkpt lat="45.1920067" lon="9.2180911"><ele>78.0</ele><time>2026-03-29T08:35:47.34Z</time></trkpt><trkpt lat="45.1919741" lon="9.2178528"><ele>78.0</ele><time>2026-03-29T08:35:48.342Z</time></trkpt><trkpt lat="45.1919035" lon="9.2173769"><ele>77.5</ele><time>2026-03-29T08:35:50.35Z</time></trkpt><trkpt lat="45.1918386" lon="9.2169276"><ele>77.0</ele><time>2026-03-29T08:35:52.347Z</time></trkpt><trkpt lat="45.1918077" lon="9.2167136"><ele>77.0</ele><time>2026-03-29T08:35:53.348Z</time></trkpt><trkpt lat="45.1917757" lon="9.2164943"><ele>77.0</ele><time>2026-03-29T08:35:54.35Z</time></trkpt><trkpt lat="45.1917109" lon="9.2160294"><ele>77.0</ele><time>2026-03-29T08:35:56.346Z</time></trkpt><trkpt lat="45.1916766" lon="9.2157818"><ele>77.0</ele><time>2026-03-29T08:35:57.352Z</time></trkpt><trkpt lat="45.1915999" lon="9.2152721"><ele>76.5</ele><time>2026-03-29T08:35:59.342Z</time></trkpt><trkpt lat="45.1914976" lon="9.2147603"><ele>76.0</ele><time>2026-03-29T08:36:01.351Z</time></trkpt><trkpt lat="45.1914339" lon="9.2145019"><ele>76.0</ele><time>2026-03-29T08:36:02.353Z</time></trkpt><trkpt lat="45.1912922" lon="9.2140233"><ele>76.0</ele><time>2026-03-29T08:36:04.346Z</time></trkpt><trkpt lat="45.1911311" lon="9.2135871"><ele>76.0</ele><time>2026-03-29T08:36:06.345Z</time></trkpt><trkpt lat="45.1910519" lon="9.2133794"><ele>76.0</ele><time>2026-03-29T08:36:07.349Z</time></trkpt><trkpt lat="45.1909019" lon="9.2129563"><ele>76.5</ele><time>2026-03-29T08:36:09.35Z</time></trkpt><trkpt lat="45.1908385" lon="9.2127359"><ele>77.0</ele><time>2026-03-29T08:36:10.352Z</time></trkpt><trkpt lat="45.1907434" lon="9.2122736"><ele>77.0</ele><time>2026-03-29T08:36:12.351Z</time></trkpt><trkpt lat="45.1906884" lon="9.2117828"><ele>77.0</ele><time>2026-03-29T08:36:14.345Z</time></trkpt><trkpt lat="45.190669" lon="9.2115218"><ele>77.0</ele><time>2026-03-29T08:36:15.352Z</time></trkpt><trkpt lat="45.1906519" lon="9.2112669"><ele>77.0</ele><time>2026-03-29T08:36:16.355Z</time></trkpt><trkpt lat="45.1906114" lon="9.2107904"><ele>77.0</ele><time>2026-03-29T08:36:18.359Z</time></trkpt><trkpt lat="45.1905622" lon="9.2103431"><ele>77.0</ele><time>2026-03-29T08:36:20.353Z</time></trkpt><trkpt lat="45.1904882" lon="9.2098996"><ele>77.0</ele><time>2026-03-29T08:36:22.345Z</time></trkpt><trkpt lat="45.1904492" lon="9.2096909"><ele>77.0</ele><time>2026-03-29T08:36:23.349Z</time></trkpt><trkpt lat="45.1904142" lon="9.2094919"><ele>77.0</ele><time>2026-03-29T08:36:24.355Z</time></trkpt><trkpt lat="45.1903465" lon="9.2091081"><ele>77.66666666666667</ele><time>2026-03-29T08:36:26.355Z</time></trkpt><trkpt lat="45.1902747" lon="9.2087019"><ele>78.33333333333333</ele><time>2026-03-29T08:36:28.349Z</time></trkpt><trkpt lat="45.1902369" lon="9.2084991"><ele>79.0</ele><time>2026-03-29T08:36:29.355Z</time></trkpt><trkpt lat="45.190201" lon="9.2083006"><ele>79.0</ele><time>2026-03-29T08:36:30.37Z</time></trkpt><trkpt lat="45.1901547" lon="9.2079518"><ele>79.0</ele><time>2026-03-29T08:36:32.351Z</time></trkpt><trkpt lat="45.1901444" lon="9.2078034"><ele>79.0</ele><time>2026-03-29T08:36:33.357Z</time></trkpt><trkpt lat="45.1901402" lon="9.2076769"><ele>79.0</ele><time>2026-03-29T08:36:34.357Z</time></trkpt><trkpt lat="45.1901409" lon="9.2074531"><ele>79.0</ele><time>2026-03-29T08:36:36.346Z</time></trkpt><trkpt lat="45.1901464" lon="9.2073323"><ele>79.0</ele><time>2026-03-29T08:36:37.366Z</time></trkpt><trkpt lat="45.1901937" lon="9.2070559"><ele>79.0</ele><time>2026-03-29T08:36:39.359Z</time></trkpt><trkpt lat="45.1902522" lon="9.2069154"><ele>79.0</ele><time>2026-03-29T08:36:40.364Z</time></trkpt><trkpt lat="45.1904332" lon="9.2066444"><ele>79.0</ele><time>2026-03-29T08:36:42.353Z</time></trkpt><trkpt lat="45.1905559" lon="9.2065236"><ele>79.0</ele><time>2026-03-29T08:36:43.366Z</time></trkpt><trkpt lat="45.1907014" lon="9.2064126"><ele>79.0</ele><time>2026-03-29T08:36:44.37Z</time></trkpt><trkpt lat="45.1910409" lon="9.2062004"><ele>78.66666666666666</ele><time>2026-03-29T08:36:46.353Z</time></trkpt><trkpt lat="45.1912177" lon="9.2060924"><ele>78.33333333333333</ele><time>2026-03-29T08:36:47.353Z</time></trkpt><trkpt lat="45.1913906" lon="9.2059763"><ele>78.0</ele><time>2026-03-29T08:36:48.366Z</time></trkpt><trkpt lat="45.1917287" lon="9.2056931"><ele>78.5</ele><time>2026-03-29T08:36:50.364Z</time></trkpt><trkpt lat="45.1918964" lon="9.2055349"><ele>79.0</ele><time>2026-03-29T08:36:51.366Z</time></trkpt><trkpt lat="45.1922344" lon="9.2052054"><ele>78.5</ele><time>2026-03-29T08:36:53.351Z</time></trkpt><trkpt lat="45.1923977" lon="9.2050358"><ele>78.0</ele><time>2026-03-29T08:36:54.354Z</time></trkpt><trkpt lat="45.1927157" lon="9.2046934"><ele>77.5</ele><time>2026-03-29T08:36:56.355Z</time></trkpt><trkpt lat="45.1930287" lon="9.2043338"><ele>77.0</ele><time>2026-03-29T08:36:58.351Z</time></trkpt><trkpt lat="45.1933149" lon="9.2039894"><ele>77.0</ele><time>2026-03-29T08:37:00.35Z</time></trkpt><trkpt lat="45.1934467" lon="9.2038301"><ele>77.0</ele><time>2026-03-29T08:37:01.351Z</time></trkpt><trkpt lat="45.1937041" lon="9.2035181"><ele>77.0</ele><time>2026-03-29T08:37:03.346Z</time></trkpt><trkpt lat="45.1938352" lon="9.2033601"><ele>77.0</ele><time>2026-03-29T08:37:04.349Z</time></trkpt><trkpt lat="45.1940986" lon="9.2030393"><ele>77.5</ele><time>2026-03-29T08:37:06.355Z</time></trkpt><trkpt lat="45.1943436" lon="9.2027411"><ele>78.0</ele><time>2026-03-29T08:37:08.346Z</time></trkpt><trkpt lat="45.1944526" lon="9.2026114"><ele>78.0</ele><time>2026-03-29T08:37:09.349Z</time></trkpt><trkpt lat="45.1945566" lon="9.2024856"><ele>78.0</ele><time>2026-03-29T08:37:10.352Z</time></trkpt><trkpt lat="45.1947754" lon="9.2022218"><ele>78.0</ele><time>2026-03-29T08:37:12.347Z</time></trkpt><trkpt lat="45.1950104" lon="9.2019404"><ele>78.0</ele><time>2026-03-29T08:37:14.353Z</time></trkpt><trkpt lat="45.1952397" lon="9.2016624"><ele>78.0</ele><time>2026-03-29T08:37:16.347Z</time></trkpt><trkpt lat="45.1953469" lon="9.2015336"><ele>78.0</ele><time>2026-03-29T08:37:17.349Z</time></trkpt><trkpt lat="45.1954516" lon="9.2014096"><ele>78.0</ele><time>2026-03-29T08:37:18.351Z</time></trkpt><trkpt lat="45.1955534" lon="9.2012863"><ele>78.0</ele><time>2026-03-29T08:37:19.349Z</time></trkpt><trkpt lat="45.1956514" lon="9.2011664"><ele>78.0</ele><time>2026-03-29T08:37:20.351Z</time></trkpt><trkpt lat="45.1957496" lon="9.2010468"><ele>78.0</ele><time>2026-03-29T08:37:21.352Z</time></trkpt><trkpt lat="45.1959496" lon="9.2007996"><ele>78.33333333333333</ele><time>2026-03-29T08:37:23.346Z</time></trkpt><trkpt lat="45.1960551" lon="9.2006736"><ele>78.66666666666666</ele><time>2026-03-29T08:37:24.348Z</time></trkpt><trkpt lat="45.1962707" lon="9.2004143"><ele>79.0</ele><time>2026-03-29T08:37:26.355Z</time></trkpt><trkpt lat="45.1964912" lon="9.2001449"><ele>79.0</ele><time>2026-03-29T08:37:28.351Z</time></trkpt><trkpt lat="45.1967011" lon="9.1998926"><ele>79.0</ele><time>2026-03-29T08:37:30.348Z</time></trkpt><trkpt lat="45.1968964" lon="9.1996593"><ele>79.25</ele><time>2026-03-29T08:37:32.346Z</time></trkpt><trkpt lat="45.1969892" lon="9.1995493"><ele>79.5</ele><time>2026-03-29T08:37:33.349Z</time></trkpt><trkpt lat="45.1970772" lon="9.1994446"><ele>79.75</ele><time>2026-03-29T08:37:34.359Z</time></trkpt><trkpt lat="45.1971621" lon="9.1993428"><ele>80.0</ele><time>2026-03-29T08:37:35.385Z</time></trkpt><trkpt lat="45.1973194" lon="9.1991543"><ele>80.0</ele><time>2026-03-29T08:37:37.357Z</time></trkpt><trkpt lat="45.1974554" lon="9.1989894"><ele>80.0</ele><time>2026-03-29T08:37:39.349Z</time></trkpt><trkpt lat="45.1975172" lon="9.1989139"><ele>80.0</ele><time>2026-03-29T08:37:40.352Z</time></trkpt><trkpt lat="45.1975754" lon="9.1988424"><ele>80.0</ele><time>2026-03-29T08:37:41.353Z</time></trkpt><trkpt lat="45.1976892" lon="9.1987104"><ele>80.0</ele><time>2026-03-29T08:37:43.349Z</time></trkpt><trkpt lat="45.1977609" lon="9.1986571"><ele>80.0</ele><time>2026-03-29T08:37:44.357Z</time></trkpt><trkpt lat="45.1979439" lon="9.1986076"><ele>80.0</ele><time>2026-03-29T08:37:46.355Z</time></trkpt><trkpt lat="45.1981394" lon="9.1985514"><ele>80.0</ele><time>2026-03-29T08:37:48.359Z</time></trkpt><trkpt lat="45.1982772" lon="9.1983394"><ele>80.0</ele><time>2026-03-29T08:37:50.352Z</time></trkpt><trkpt lat="45.1983781" lon="9.1980276"><ele>80.0</ele><time>2026-03-29T08:37:52.356Z</time></trkpt><trkpt lat="45.1984611" lon="9.1978739"><ele>80.0</ele><time>2026-03-29T08:37:53.37Z</time></trkpt><trkpt lat="45.1986817" lon="9.1975669"><ele>80.0</ele><time>2026-03-29T08:37:55.355Z</time></trkpt><trkpt lat="45.1988044" lon="9.1974081"><ele>80.0</ele><time>2026-03-29T08:37:56.357Z</time></trkpt><trkpt lat="45.198919" lon="9.1972579"><ele>80.0</ele><time>2026-03-29T08:37:57.364Z</time></trkpt><trkpt lat="45.1991352" lon="9.1969901"><ele>80.0</ele><time>2026-03-29T08:37:59.354Z</time></trkpt><trkpt lat="45.1993366" lon="9.1967441"><ele>79.66666666666667</ele><time>2026-03-29T08:38:01.35Z</time></trkpt><trkpt lat="45.1994392" lon="9.1966183"><ele>79.33333333333333</ele><time>2026-03-29T08:38:02.349Z</time></trkpt><trkpt lat="45.1995471" lon="9.1964901"><ele>79.0</ele><time>2026-03-29T08:38:03.348Z</time></trkpt><trkpt lat="45.1997742" lon="9.1962164"><ele>80.0</ele><time>2026-03-29T08:38:05.354Z</time></trkpt><trkpt lat="45.2000044" lon="9.1959359"><ele>81.0</ele><time>2026-03-29T08:38:07.347Z</time></trkpt><trkpt lat="45.2001174" lon="9.1957999"><ele>80.33333333333333</ele><time>2026-03-29T08:38:08.349Z</time></trkpt><trkpt lat="45.200229" lon="9.1956669"><ele>79.66666666666666</ele><time>2026-03-29T08:38:09.35Z</time></trkpt><trkpt lat="45.2003391" lon="9.1955336"><ele>79.0</ele><time>2026-03-29T08:38:10.356Z</time></trkpt><trkpt lat="45.2005562" lon="9.1952679"><ele>78.66666666666666</ele><time>2026-03-29T08:38:12.361Z</time></trkpt><trkpt lat="45.2007687" lon="9.1950193"><ele>78.33333333333333</ele><time>2026-03-29T08:38:14.353Z</time></trkpt><trkpt lat="45.2008754" lon="9.1948944"><ele>78.0</ele><time>2026-03-29T08:38:15.358Z</time></trkpt><trkpt lat="45.2010817" lon="9.1946453"><ele>78.0</ele><time>2026-03-29T08:38:17.349Z</time></trkpt><trkpt lat="45.2011867" lon="9.1945193"><ele>78.0</ele><time>2026-03-29T08:38:18.353Z</time></trkpt><trkpt lat="45.2014049" lon="9.1942539"><ele>78.0</ele><time>2026-03-29T08:38:20.351Z</time></trkpt><trkpt lat="45.2015174" lon="9.1941191"><ele>79.33333333333333</ele><time>2026-03-29T08:38:21.353Z</time></trkpt><trkpt lat="45.2016294" lon="9.1939843"><ele>80.66666666666666</ele><time>2026-03-29T08:38:22.354Z</time></trkpt><trkpt lat="45.2018507" lon="9.1937183"><ele>82.0</ele><time>2026-03-29T08:38:24.35Z</time></trkpt><trkpt lat="45.2020672" lon="9.1934609"><ele>82.0</ele><time>2026-03-29T08:38:26.353Z</time></trkpt><trkpt lat="45.2021747" lon="9.1933333"><ele>82.0</ele><time>2026-03-29T08:38:27.369Z</time></trkpt><trkpt lat="45.2023852" lon="9.1930783"><ele>82.0</ele><time>2026-03-29T08:38:29.351Z</time></trkpt><trkpt lat="45.2024892" lon="9.1929499"><ele>81.5</ele><time>2026-03-29T08:38:30.362Z</time></trkpt><trkpt lat="45.202699" lon="9.1927003"><ele>81.0</ele><time>2026-03-29T08:38:32.354Z</time></trkpt><trkpt lat="45.2029139" lon="9.1924458"><ele>81.0</ele><time>2026-03-29T08:38:34.354Z</time></trkpt><trkpt lat="45.2030269" lon="9.1923123"><ele>81.0</ele><time>2026-03-29T08:38:35.353Z</time></trkpt><trkpt lat="45.2031411" lon="9.1921748"><ele>81.0</ele><time>2026-03-29T08:38:36.357Z</time></trkpt><trkpt lat="45.2033889" lon="9.1918783"><ele>80.5</ele><time>2026-03-29T08:38:38.355Z</time></trkpt><trkpt lat="45.2036681" lon="9.1915494"><ele>80.0</ele><time>2026-03-29T08:38:40.36Z</time></trkpt><trkpt lat="45.2039659" lon="9.1911943"><ele>80.0</ele><time>2026-03-29T08:38:42.357Z</time></trkpt><trkpt lat="45.204267" lon="9.1908343"><ele>80.0</ele><time>2026-03-29T08:38:44.354Z</time></trkpt><trkpt lat="45.2044181" lon="9.1906561"><ele>80.5</ele><time>2026-03-29T08:38:45.357Z</time></trkpt><trkpt lat="45.2047174" lon="9.1902974"><ele>81.0</ele><time>2026-03-29T08:38:47.353Z</time></trkpt><trkpt lat="45.2050017" lon="9.1899573"><ele>80.0</ele><time>2026-03-29T08:38:49.356Z</time></trkpt><trkpt lat="45.2052877" lon="9.1896106"><ele>79.0</ele><time>2026-03-29T08:38:51.35Z</time></trkpt><trkpt lat="45.205579" lon="9.1892586"><ele>78.5</ele><time>2026-03-29T08:38:53.353Z</time></trkpt><trkpt lat="45.2058772" lon="9.1889013"><ele>78.0</ele><time>2026-03-29T08:38:55.351Z</time></trkpt><trkpt lat="45.206023" lon="9.1887249"><ele>78.0</ele><time>2026-03-29T08:38:56.358Z</time></trkpt><trkpt lat="45.2063092" lon="9.1883781"><ele>78.0</ele><time>2026-03-29T08:38:58.347Z</time></trkpt><trkpt lat="45.2064537" lon="9.1882056"><ele>79.5</ele><time>2026-03-29T08:38:59.37Z</time></trkpt><trkpt lat="45.2067407" lon="9.1878714"><ele>81.0</ele><time>2026-03-29T08:39:01.354Z</time></trkpt><trkpt lat="45.2070062" lon="9.1875518"><ele>80.5</ele><time>2026-03-29T08:39:03.347Z</time></trkpt><trkpt lat="45.2072487" lon="9.1872376"><ele>80.0</ele><time>2026-03-29T08:39:05.343Z</time></trkpt><trkpt lat="45.2074744" lon="9.1869068"><ele>79.5</ele><time>2026-03-29T08:39:07.344Z</time></trkpt><trkpt lat="45.2075839" lon="9.1867303"><ele>79.0</ele><time>2026-03-29T08:39:08.35Z</time></trkpt><trkpt lat="45.2078059" lon="9.1863589"><ele>79.0</ele><time>2026-03-29T08:39:10.351Z</time></trkpt><trkpt lat="45.2079167" lon="9.1861573"><ele>79.0</ele><time>2026-03-29T08:39:11.352Z</time></trkpt><trkpt lat="45.2081231" lon="9.1857224"><ele>79.0</ele><time>2026-03-29T08:39:13.35Z</time></trkpt><trkpt lat="45.2082181" lon="9.1854913"><ele>79.0</ele><time>2026-03-29T08:39:14.358Z</time></trkpt><trkpt lat="45.2083854" lon="9.1850223"><ele>79.5</ele><time>2026-03-29T08:39:16.357Z</time></trkpt><trkpt lat="45.2085249" lon="9.1845656"><ele>80.0</ele><time>2026-03-29T08:39:18.346Z</time></trkpt><trkpt lat="45.2086449" lon="9.1841016"><ele>79.5</ele><time>2026-03-29T08:39:20.35Z</time></trkpt><trkpt lat="45.2087437" lon="9.1836261"><ele>79.0</ele><time>2026-03-29T08:39:22.354Z</time></trkpt><trkpt lat="45.2088272" lon="9.1831603"><ele>79.0</ele><time>2026-03-29T08:39:24.353Z</time></trkpt><trkpt lat="45.2089034" lon="9.1826933"><ele>79.0</ele><time>2026-03-29T08:39:26.351Z</time></trkpt><trkpt lat="45.2089396" lon="9.1824509"><ele>79.5</ele><time>2026-03-29T08:39:27.359Z</time></trkpt><trkpt lat="45.2089771" lon="9.1821973"><ele>80.0</ele><time>2026-03-29T08:39:28.359Z</time></trkpt><trkpt lat="45.2090587" lon="9.1816611"><ele>79.5</ele><time>2026-03-29T08:39:30.346Z</time></trkpt><trkpt lat="45.209101" lon="9.1813798"><ele>79.0</ele><time>2026-03-29T08:39:31.354Z</time></trkpt><trkpt lat="45.2091887" lon="9.1807869"><ele>79.5</ele><time>2026-03-29T08:39:33.351Z</time></trkpt><trkpt lat="45.2092334" lon="9.1804819"><ele>80.0</ele><time>2026-03-29T08:39:34.356Z</time></trkpt><trkpt lat="45.2093197" lon="9.1798744"><ele>80.0</ele><time>2026-03-29T08:39:36.362Z</time></trkpt><trkpt lat="45.2094021" lon="9.1792878"><ele>80.0</ele><time>2026-03-29T08:39:38.357Z</time></trkpt><trkpt lat="45.2094852" lon="9.1787013"><ele>80.0</ele><time>2026-03-29T08:39:40.35Z</time></trkpt><trkpt lat="45.2095274" lon="9.1784036"><ele>80.0</ele><time>2026-03-29T08:39:41.389Z</time></trkpt><trkpt lat="45.2096132" lon="9.1778059"><ele>80.33333333333334</ele><time>2026-03-29T08:39:43.35Z</time></trkpt><trkpt lat="45.2096536" lon="9.1775159"><ele>80.66666666666667</ele><time>2026-03-29T08:39:44.353Z</time></trkpt><trkpt lat="45.2096914" lon="9.1772408"><ele>81.0</ele><time>2026-03-29T08:39:45.364Z</time></trkpt><trkpt lat="45.2097654" lon="9.1767201"><ele>81.5</ele><time>2026-03-29T08:39:47.356Z</time></trkpt><trkpt lat="45.2098006" lon="9.1764594"><ele>82.0</ele><time>2026-03-29T08:39:48.356Z</time></trkpt><trkpt lat="45.2098767" lon="9.1759271"><ele>81.5</ele><time>2026-03-29T08:39:50.355Z</time></trkpt><trkpt lat="45.2099559" lon="9.1754083"><ele>81.0</ele><time>2026-03-29T08:39:52.35Z</time></trkpt><trkpt lat="45.2100342" lon="9.1749004"><ele>80.0</ele><time>2026-03-29T08:39:54.346Z</time></trkpt><trkpt lat="45.2100724" lon="9.1746369"><ele>79.0</ele><time>2026-03-29T08:39:55.356Z</time></trkpt><trkpt lat="45.2101532" lon="9.1740983"><ele>79.5</ele><time>2026-03-29T08:39:57.353Z</time></trkpt><trkpt lat="45.2101916" lon="9.1738201"><ele>80.0</ele><time>2026-03-29T08:39:58.354Z</time></trkpt><trkpt lat="45.2102759" lon="9.1731914"><ele>80.0</ele><time>2026-03-29T08:40:00.297Z</time></trkpt><trkpt lat="45.2103544" lon="9.1725918"><ele>80.0</ele><time>2026-03-29T08:40:02.335Z</time></trkpt><trkpt lat="45.2103929" lon="9.1723274"><ele>79.5</ele><time>2026-03-29T08:40:03.356Z</time></trkpt><trkpt lat="45.2104539" lon="9.1718064"><ele>79.0</ele><time>2026-03-29T08:40:05.347Z</time></trkpt><trkpt lat="45.2104684" lon="9.1715414"><ele>78.5</ele><time>2026-03-29T08:40:06.347Z</time></trkpt><trkpt lat="45.2104726" lon="9.1709971"><ele>78.0</ele><time>2026-03-29T08:40:08.351Z</time></trkpt><trkpt lat="45.2104509" lon="9.1704454"><ele>78.0</ele><time>2026-03-29T08:40:10.366Z</time></trkpt><trkpt lat="45.2104097" lon="9.1699096"><ele>78.0</ele><time>2026-03-29T08:40:12.362Z</time></trkpt><trkpt lat="45.2103621" lon="9.1694259"><ele>77.0</ele><time>2026-03-29T08:40:14.351Z</time></trkpt><trkpt lat="45.2103111" lon="9.1689433"><ele>76.0</ele><time>2026-03-29T08:40:16.34Z</time></trkpt><trkpt lat="45.2102537" lon="9.1684503"><ele>77.0</ele><time>2026-03-29T08:40:18.358Z</time></trkpt><trkpt lat="45.2102049" lon="9.1679478"><ele>78.0</ele><time>2026-03-29T08:40:20.332Z</time></trkpt><trkpt lat="45.2101607" lon="9.1676893"><ele>78.0</ele><time>2026-03-29T08:40:21.337Z</time></trkpt><trkpt lat="45.2101054" lon="9.1674278"><ele>78.0</ele><time>2026-03-29T08:40:22.348Z</time></trkpt><trkpt lat="45.2099684" lon="9.1668984"><ele>78.33333333333333</ele><time>2026-03-29T08:40:24.334Z</time></trkpt><trkpt lat="45.2098864" lon="9.1666324"><ele>78.66666666666666</ele><time>2026-03-29T08:40:25.334Z</time></trkpt><trkpt lat="45.2098009" lon="9.1663628"><ele>79.0</ele><time>2026-03-29T08:40:26.341Z</time></trkpt><trkpt lat="45.2096187" lon="9.1658106"><ele>79.66666666666666</ele><time>2026-03-29T08:40:28.34Z</time></trkpt><trkpt lat="45.2095252" lon="9.1655288"><ele>80.33333333333333</ele><time>2026-03-29T08:40:29.34Z</time></trkpt><trkpt lat="45.2094324" lon="9.1652456"><ele>81.0</ele><time>2026-03-29T08:40:30.341Z</time></trkpt><trkpt lat="45.2092509" lon="9.1646883"><ele>81.0</ele><time>2026-03-29T08:40:32.334Z</time></trkpt><trkpt lat="45.2091616" lon="9.1644108"><ele>81.0</ele><time>2026-03-29T08:40:33.336Z</time></trkpt><trkpt lat="45.2090776" lon="9.1641403"><ele>81.0</ele><time>2026-03-29T08:40:34.34Z</time></trkpt><trkpt lat="45.2089095" lon="9.1636184"><ele>80.5</ele><time>2026-03-29T08:40:36.343Z</time></trkpt><trkpt lat="45.2087449" lon="9.1631001"><ele>80.0</ele><time>2026-03-29T08:40:38.343Z</time></trkpt><trkpt lat="45.2085777" lon="9.1625824"><ele>79.5</ele><time>2026-03-29T08:40:40.348Z</time></trkpt><trkpt lat="45.2084969" lon="9.1623349"><ele>79.0</ele><time>2026-03-29T08:40:41.35Z</time></trkpt><trkpt lat="45.2083537" lon="9.1618963"><ele>79.0</ele><time>2026-03-29T08:40:43.346Z</time></trkpt><trkpt lat="45.2082422" lon="9.1615516"><ele>79.0</ele><time>2026-03-29T08:40:45.333Z</time></trkpt><trkpt lat="45.2081917" lon="9.1613956"><ele>79.0</ele><time>2026-03-29T08:40:46.333Z</time></trkpt><trkpt lat="45.2081401" lon="9.1612358"><ele>79.33333333333333</ele><time>2026-03-29T08:40:47.336Z</time></trkpt><trkpt lat="45.208036" lon="9.1609004"><ele>79.66666666666667</ele><time>2026-03-29T08:40:49.326Z</time></trkpt><trkpt lat="45.2079834" lon="9.1607219"><ele>80.0</ele><time>2026-03-29T08:40:50.338Z</time></trkpt><trkpt lat="45.207932" lon="9.1605298"><ele>80.0</ele><time>2026-03-29T08:40:51.338Z</time></trkpt><trkpt lat="45.2078396" lon="9.1601133"><ele>80.0</ele><time>2026-03-29T08:40:53.346Z</time></trkpt><trkpt lat="45.2077641" lon="9.1596616"><ele>80.0</ele><time>2026-03-29T08:40:55.34Z</time></trkpt><trkpt lat="45.2077327" lon="9.1594263"><ele>80.0</ele><time>2026-03-29T08:40:56.345Z</time></trkpt><trkpt lat="45.2077049" lon="9.1591891"><ele>80.0</ele><time>2026-03-29T08:40:57.352Z</time></trkpt><trkpt lat="45.2076646" lon="9.1587223"><ele>80.0</ele><time>2026-03-29T08:40:59.313Z</time></trkpt><trkpt lat="45.2076429" lon="9.1582614"><ele>80.0</ele><time>2026-03-29T08:41:01.291Z</time></trkpt><trkpt lat="45.2076462" lon="9.1580186"><ele>80.0</ele><time>2026-03-29T08:41:02.329Z</time></trkpt><trkpt lat="45.2076602" lon="9.1577683"><ele>80.0</ele><time>2026-03-29T08:41:03.355Z</time></trkpt><trkpt lat="45.2077116" lon="9.1572556"><ele>80.5</ele><time>2026-03-29T08:41:05.346Z</time></trkpt><trkpt lat="45.2077467" lon="9.1569983"><ele>81.0</ele><time>2026-03-29T08:41:06.349Z</time></trkpt><trkpt lat="45.2078329" lon="9.1565123"><ele>80.0</ele><time>2026-03-29T08:41:08.34Z</time></trkpt><trkpt lat="45.2079372" lon="9.1560551"><ele>79.0</ele><time>2026-03-29T08:41:10.334Z</time></trkpt><trkpt lat="45.2079906" lon="9.1558266"><ele>79.33333333333333</ele><time>2026-03-29T08:41:11.336Z</time></trkpt><trkpt lat="45.2080421" lon="9.1555963"><ele>79.66666666666667</ele><time>2026-03-29T08:41:12.341Z</time></trkpt><trkpt lat="45.2080939" lon="9.1553658"><ele>80.0</ele><time>2026-03-29T08:41:13.346Z</time></trkpt><trkpt lat="45.2081971" lon="9.1549101"><ele>81.5</ele><time>2026-03-29T08:41:15.346Z</time></trkpt><trkpt lat="45.2082907" lon="9.1544893"><ele>83.0</ele><time>2026-03-29T08:41:17.348Z</time></trkpt><trkpt lat="45.2083354" lon="9.1542919"><ele>83.0</ele><time>2026-03-29T08:41:18.351Z</time></trkpt><trkpt lat="45.2083794" lon="9.1540978"><ele>83.0</ele><time>2026-03-29T08:41:19.35Z</time></trkpt><trkpt lat="45.2084207" lon="9.1539046"><ele>83.0</ele><time>2026-03-29T08:41:20.351Z</time></trkpt><trkpt lat="45.2084631" lon="9.1537081"><ele>83.0</ele><time>2026-03-29T08:41:21.36Z</time></trkpt><trkpt lat="45.2085517" lon="9.1533051"><ele>82.0</ele><time>2026-03-29T08:41:23.348Z</time></trkpt><trkpt lat="45.2085986" lon="9.1531008"><ele>81.0</ele><time>2026-03-29T08:41:24.351Z</time></trkpt><trkpt lat="45.2086954" lon="9.1526883"><ele>81.0</ele><time>2026-03-29T08:41:26.351Z</time></trkpt><trkpt lat="45.2087441" lon="9.1524771"><ele>81.0</ele><time>2026-03-29T08:41:27.352Z</time></trkpt><trkpt lat="45.2087929" lon="9.1522654"><ele>81.0</ele><time>2026-03-29T08:41:28.35Z</time></trkpt><trkpt lat="45.2088834" lon="9.1518264"><ele>81.5</ele><time>2026-03-29T08:41:30.348Z</time></trkpt><trkpt lat="45.2089209" lon="9.1516004"><ele>82.0</ele><time>2026-03-29T08:41:31.357Z</time></trkpt><trkpt lat="45.2089792" lon="9.1511608"><ele>81.66666666666666</ele><time>2026-03-29T08:41:33.356Z</time></trkpt><trkpt lat="45.2090224" lon="9.1507713"><ele>81.33333333333333</ele><time>2026-03-29T08:41:35.351Z</time></trkpt><trkpt lat="45.2090379" lon="9.1505918"><ele>81.0</ele><time>2026-03-29T08:41:36.355Z</time></trkpt><trkpt lat="45.2090501" lon="9.1504214"><ele>81.0</ele><time>2026-03-29T08:41:37.356Z</time></trkpt><trkpt lat="45.2090607" lon="9.1502584"><ele>81.0</ele><time>2026-03-29T08:41:38.355Z</time></trkpt><trkpt lat="45.2090725" lon="9.1500996"><ele>81.0</ele><time>2026-03-29T08:41:39.357Z</time></trkpt><trkpt lat="45.2091267" lon="9.1497934"><ele>81.33333333333333</ele><time>2026-03-29T08:41:41.355Z</time></trkpt><trkpt lat="45.2091854" lon="9.1496563"><ele>81.66666666666666</ele><time>2026-03-29T08:41:42.388Z</time></trkpt><trkpt lat="45.2092705" lon="9.1495371"><ele>82.0</ele><time>2026-03-29T08:41:43.397Z</time></trkpt><trkpt lat="45.2095012" lon="9.1493554"><ele>82.0</ele><time>2026-03-29T08:41:45.359Z</time></trkpt><trkpt lat="45.2096357" lon="9.1492793"><ele>82.0</ele><time>2026-03-29T08:41:46.365Z</time></trkpt><trkpt lat="45.2097792" lon="9.1492046"><ele>82.0</ele><time>2026-03-29T08:41:47.39Z</time></trkpt><trkpt lat="45.2101114" lon="9.1490283"><ele>82.0</ele><time>2026-03-29T08:41:49.364Z</time></trkpt><trkpt lat="45.2103021" lon="9.1489129"><ele>82.0</ele><time>2026-03-29T08:41:50.371Z</time></trkpt><trkpt lat="45.2106832" lon="9.1486249"><ele>81.5</ele><time>2026-03-29T08:41:52.363Z</time></trkpt><trkpt lat="45.2108507" lon="9.1484691"><ele>81.0</ele><time>2026-03-29T08:41:53.372Z</time></trkpt><trkpt lat="45.2111214" lon="9.1481933"><ele>80.5</ele><time>2026-03-29T08:41:55.367Z</time></trkpt><trkpt lat="45.2113337" lon="9.1479909"><ele>80.0</ele><time>2026-03-29T08:41:57.371Z</time></trkpt><trkpt lat="45.2115262" lon="9.1477968"><ele>80.0</ele><time>2026-03-29T08:41:59.366Z</time></trkpt><trkpt lat="45.2117609" lon="9.1475338"><ele>80.0</ele><time>2026-03-29T08:42:01.361Z</time></trkpt><trkpt lat="45.2120907" lon="9.1472171"><ele>81.0</ele><time>2026-03-29T08:42:03.37Z</time></trkpt><trkpt lat="45.2124249" lon="9.1469269"><ele>82.0</ele><time>2026-03-29T08:42:05.356Z</time></trkpt><trkpt lat="45.212579" lon="9.1467859"><ele>81.0</ele><time>2026-03-29T08:42:06.356Z</time></trkpt><trkpt lat="45.2128721" lon="9.1465063"><ele>80.0</ele><time>2026-03-29T08:42:08.363Z</time></trkpt><trkpt lat="45.2129989" lon="9.1463828"><ele>80.66666666666667</ele><time>2026-03-29T08:42:09.369Z</time></trkpt><trkpt lat="45.2132352" lon="9.1461658"><ele>81.33333333333333</ele><time>2026-03-29T08:42:11.35Z</time></trkpt><trkpt lat="45.2133616" lon="9.1460508"><ele>82.0</ele><time>2026-03-29T08:42:12.356Z</time></trkpt><trkpt lat="45.2136276" lon="9.1458201"><ele>81.66666666666666</ele><time>2026-03-29T08:42:14.344Z</time></trkpt><trkpt lat="45.2137756" lon="9.1456961"><ele>81.33333333333333</ele><time>2026-03-29T08:42:15.354Z</time></trkpt><trkpt lat="45.2139425" lon="9.1455644"><ele>81.0</ele><time>2026-03-29T08:42:16.382Z</time></trkpt><trkpt lat="45.2143314" lon="9.1453029"><ele>81.0</ele><time>2026-03-29T08:42:18.365Z</time></trkpt><trkpt lat="45.2147361" lon="9.1450831"><ele>81.0</ele><time>2026-03-29T08:42:20.372Z</time></trkpt><trkpt lat="45.2150961" lon="9.1449211"><ele>81.5</ele><time>2026-03-29T08:42:22.368Z</time></trkpt><trkpt lat="45.2154389" lon="9.1447718"><ele>82.0</ele><time>2026-03-29T08:42:24.349Z</time></trkpt><trkpt lat="45.2156379" lon="9.1446863"><ele>80.0</ele><time>2026-03-29T08:42:25.358Z</time></trkpt><trkpt lat="45.2160859" lon="9.1445193"><ele>79.0</ele><time>2026-03-29T08:42:27.355Z</time></trkpt><trkpt lat="45.2165321" lon="9.1443418"><ele>79.0</ele><time>2026-03-29T08:42:29.351Z</time></trkpt><trkpt lat="45.2167652" lon="9.1442511"><ele>79.0</ele><time>2026-03-29T08:42:30.356Z</time></trkpt><trkpt lat="45.2172684" lon="9.1440536"><ele>79.0</ele><time>2026-03-29T08:42:32.35Z</time></trkpt><trkpt lat="45.2175225" lon="9.1439531"><ele>79.0</ele><time>2026-03-29T08:42:33.361Z</time></trkpt><trkpt lat="45.2180241" lon="9.1437549"><ele>83.0</ele><time>2026-03-29T08:42:35.363Z</time></trkpt><trkpt lat="45.2185221" lon="9.1435579"><ele>83.0</ele><time>2026-03-29T08:42:37.359Z</time></trkpt><trkpt lat="45.2187632" lon="9.1434616"><ele>83.0</ele><time>2026-03-29T08:42:38.366Z</time></trkpt><trkpt lat="45.2191941" lon="9.1433014"><ele>83.5</ele><time>2026-03-29T08:42:40.361Z</time></trkpt><trkpt lat="45.2193907" lon="9.1432304"><ele>84.0</ele><time>2026-03-29T08:42:41.362Z</time></trkpt><trkpt lat="45.2197717" lon="9.1430831"><ele>82.5</ele><time>2026-03-29T08:42:43.355Z</time></trkpt><trkpt lat="45.2201421" lon="9.1429306"><ele>81.0</ele><time>2026-03-29T08:42:45.352Z</time></trkpt><trkpt lat="45.2204952" lon="9.1427894"><ele>81.66666666666667</ele><time>2026-03-29T08:42:47.35Z</time></trkpt><trkpt lat="45.2206616" lon="9.1427258"><ele>82.33333333333334</ele><time>2026-03-29T08:42:48.349Z</time></trkpt><trkpt lat="45.2208216" lon="9.1426626"><ele>83.0</ele><time>2026-03-29T08:42:49.368Z</time></trkpt><trkpt lat="45.2211372" lon="9.1425359"><ele>83.0</ele><time>2026-03-29T08:42:51.349Z</time></trkpt><trkpt lat="45.2214489" lon="9.1424151"><ele>83.0</ele><time>2026-03-29T08:42:53.356Z</time></trkpt><trkpt lat="45.2217549" lon="9.1422954"><ele>81.5</ele><time>2026-03-29T08:42:55.349Z</time></trkpt><trkpt lat="45.2219046" lon="9.1422363"><ele>80.0</ele><time>2026-03-29T08:42:56.355Z</time></trkpt><trkpt lat="45.2221989" lon="9.1421211"><ele>80.0</ele><time>2026-03-29T08:42:58.356Z</time></trkpt><trkpt lat="45.2224917" lon="9.1420029"><ele>80.0</ele><time>2026-03-29T08:43:00.346Z</time></trkpt><trkpt lat="45.2226369" lon="9.1419419"><ele>80.0</ele><time>2026-03-29T08:43:01.379Z</time></trkpt><trkpt lat="45.2227814" lon="9.1418808"><ele>80.0</ele><time>2026-03-29T08:43:02.385Z</time></trkpt><trkpt lat="45.2230661" lon="9.1417548"><ele>80.0</ele><time>2026-03-29T08:43:04.352Z</time></trkpt><trkpt lat="45.2233492" lon="9.1416349"><ele>80.33333333333334</ele><time>2026-03-29T08:43:06.352Z</time></trkpt><trkpt lat="45.2234917" lon="9.1415793"><ele>80.66666666666667</ele><time>2026-03-29T08:43:07.351Z</time></trkpt><trkpt lat="45.2236357" lon="9.1415223"><ele>81.0</ele><time>2026-03-29T08:43:08.359Z</time></trkpt><trkpt lat="45.2239276" lon="9.1414061"><ele>81.0</ele><time>2026-03-29T08:43:10.355Z</time></trkpt><trkpt lat="45.2242251" lon="9.1412896"><ele>81.0</ele><time>2026-03-29T08:43:12.347Z</time></trkpt><trkpt lat="45.2243744" lon="9.1412313"><ele>81.0</ele><time>2026-03-29T08:43:13.354Z</time></trkpt><trkpt lat="45.2245237" lon="9.1411724"><ele>81.0</ele><time>2026-03-29T08:43:14.356Z</time></trkpt><trkpt lat="45.2248272" lon="9.1410546"><ele>81.0</ele><time>2026-03-29T08:43:16.348Z</time></trkpt><trkpt lat="45.2249817" lon="9.1409959"><ele>81.0</ele><time>2026-03-29T08:43:17.353Z</time></trkpt><trkpt lat="45.2251374" lon="9.1409353"><ele>81.0</ele><time>2026-03-29T08:43:18.355Z</time></trkpt><trkpt lat="45.2254609" lon="9.1408104"><ele>81.0</ele><time>2026-03-29T08:43:20.355Z</time></trkpt><trkpt lat="45.2256277" lon="9.1407446"><ele>81.0</ele><time>2026-03-29T08:43:21.363Z</time></trkpt><trkpt lat="45.2258076" lon="9.1406769"><ele>81.0</ele><time>2026-03-29T08:43:22.366Z</time></trkpt><trkpt lat="45.2261986" lon="9.1405326"><ele>80.5</ele><time>2026-03-29T08:43:24.356Z</time></trkpt><trkpt lat="45.2266109" lon="9.1403793"><ele>80.0</ele><time>2026-03-29T08:43:26.355Z</time></trkpt><trkpt lat="45.2268169" lon="9.1402996"><ele>80.0</ele><time>2026-03-29T08:43:27.359Z</time></trkpt><trkpt lat="45.2270184" lon="9.1402179"><ele>80.0</ele><time>2026-03-29T08:43:28.357Z</time></trkpt><trkpt lat="45.2274184" lon="9.1400626"><ele>80.5</ele><time>2026-03-29T08:43:30.349Z</time></trkpt><trkpt lat="45.2276191" lon="9.1399891"><ele>81.0</ele><time>2026-03-29T08:43:31.352Z</time></trkpt><trkpt lat="45.2280232" lon="9.1398409"><ele>82.5</ele><time>2026-03-29T08:43:33.355Z</time></trkpt><trkpt lat="45.2284269" lon="9.1396878"><ele>84.0</ele><time>2026-03-29T08:43:35.348Z</time></trkpt><trkpt lat="45.2286299" lon="9.1396129"><ele>84.5</ele><time>2026-03-29T08:43:36.36Z</time></trkpt><trkpt lat="45.2290344" lon="9.1394624"><ele>85.0</ele><time>2026-03-29T08:43:38.357Z</time></trkpt><trkpt lat="45.2294334" lon="9.1393126"><ele>85.0</ele><time>2026-03-29T08:43:40.351Z</time></trkpt><trkpt lat="45.2296259" lon="9.1392418"><ele>85.0</ele><time>2026-03-29T08:43:41.353Z</time></trkpt><trkpt lat="45.2300007" lon="9.1390969"><ele>84.0</ele><time>2026-03-29T08:43:43.359Z</time></trkpt><trkpt lat="45.2303731" lon="9.1389566"><ele>83.0</ele><time>2026-03-29T08:43:45.356Z</time></trkpt><trkpt lat="45.2307481" lon="9.1388219"><ele>81.5</ele><time>2026-03-29T08:43:47.355Z</time></trkpt><trkpt lat="45.2309374" lon="9.1387523"><ele>80.0</ele><time>2026-03-29T08:43:48.378Z</time></trkpt><trkpt lat="45.2313151" lon="9.1386121"><ele>81.0</ele><time>2026-03-29T08:43:50.354Z</time></trkpt><trkpt lat="45.2316917" lon="9.1384706"><ele>82.0</ele><time>2026-03-29T08:43:52.351Z</time></trkpt><trkpt lat="45.2318817" lon="9.1383996"><ele>82.0</ele><time>2026-03-29T08:43:53.357Z</time></trkpt><trkpt lat="45.2322626" lon="9.1382569"><ele>82.0</ele><time>2026-03-29T08:43:55.352Z</time></trkpt><trkpt lat="45.2324526" lon="9.1381889"><ele>82.0</ele><time>2026-03-29T08:43:56.352Z</time></trkpt><trkpt lat="45.2326421" lon="9.1381198"><ele>82.0</ele><time>2026-03-29T08:43:57.353Z</time></trkpt><trkpt lat="45.2328299" lon="9.1380491"><ele>82.0</ele><time>2026-03-29T08:43:58.359Z</time></trkpt><trkpt lat="45.2332052" lon="9.1379058"><ele>81.5</ele><time>2026-03-29T08:44:00.351Z</time></trkpt><trkpt lat="45.2335772" lon="9.1377674"><ele>81.0</ele><time>2026-03-29T08:44:02.347Z</time></trkpt><trkpt lat="45.2339482" lon="9.1376298"><ele>82.5</ele><time>2026-03-29T08:44:04.347Z</time></trkpt><trkpt lat="45.2343274" lon="9.1374911"><ele>84.0</ele><time>2026-03-29T08:44:06.348Z</time></trkpt><trkpt lat="45.2345216" lon="9.1374186"><ele>84.5</ele><time>2026-03-29T08:44:07.348Z</time></trkpt><trkpt lat="45.2347194" lon="9.1373436"><ele>85.0</ele><time>2026-03-29T08:44:08.35Z</time></trkpt><trkpt lat="45.2351212" lon="9.1371849"><ele>85.33333333333333</ele><time>2026-03-29T08:44:10.348Z</time></trkpt><trkpt lat="45.2353184" lon="9.1371088"><ele>85.66666666666667</ele><time>2026-03-29T08:44:11.353Z</time></trkpt><trkpt lat="45.2355067" lon="9.1370386"><ele>86.0</ele><time>2026-03-29T08:44:12.355Z</time></trkpt><trkpt lat="45.2358632" lon="9.1369121"><ele>85.66666666666667</ele><time>2026-03-29T08:44:14.351Z</time></trkpt><trkpt lat="45.2360367" lon="9.1368494"><ele>85.33333333333333</ele><time>2026-03-29T08:44:15.351Z</time></trkpt><trkpt lat="45.2362106" lon="9.1367873"><ele>85.0</ele><time>2026-03-29T08:44:16.351Z</time></trkpt><trkpt lat="45.2365562" lon="9.1366608"><ele>85.5</ele><time>2026-03-29T08:44:18.352Z</time></trkpt><trkpt lat="45.2369079" lon="9.1365266"><ele>86.0</ele><time>2026-03-29T08:44:20.347Z</time></trkpt><trkpt lat="45.2370859" lon="9.1364546"><ele>84.0</ele><time>2026-03-29T08:44:21.35Z</time></trkpt><trkpt lat="45.2374476" lon="9.1363043"><ele>82.0</ele><time>2026-03-29T08:44:23.349Z</time></trkpt><trkpt lat="45.2376286" lon="9.1362294"><ele>82.0</ele><time>2026-03-29T08:44:24.355Z</time></trkpt><trkpt lat="45.2379931" lon="9.1360774"><ele>82.0</ele><time>2026-03-29T08:44:26.353Z</time></trkpt><trkpt lat="45.2383589" lon="9.1359279"><ele>82.33333333333333</ele><time>2026-03-29T08:44:28.349Z</time></trkpt><trkpt lat="45.2385377" lon="9.1358601"><ele>82.66666666666667</ele><time>2026-03-29T08:44:29.354Z</time></trkpt><trkpt lat="45.2387069" lon="9.1357981"><ele>83.0</ele><time>2026-03-29T08:44:30.362Z</time></trkpt><trkpt lat="45.2390081" lon="9.1357033"><ele>83.25</ele><time>2026-03-29T08:44:32.359Z</time></trkpt><trkpt lat="45.2391362" lon="9.1356676"><ele>83.5</ele><time>2026-03-29T08:44:33.36Z</time></trkpt><trkpt lat="45.2393496" lon="9.1355901"><ele>83.75</ele><time>2026-03-29T08:44:35.347Z</time></trkpt><trkpt lat="45.2394371" lon="9.1355556"><ele>84.0</ele><time>2026-03-29T08:44:36.367Z</time></trkpt><trkpt lat="45.2395112" lon="9.1355469"><ele>84.0</ele><time>2026-03-29T08:44:37.37Z</time></trkpt><trkpt lat="45.2396014" lon="9.1356353"><ele>84.0</ele><time>2026-03-29T08:44:39.362Z</time></trkpt><trkpt lat="45.2396937" lon="9.1357574"><ele>84.0</ele><time>2026-03-29T08:44:42.369Z</time></trkpt><trkpt lat="45.2397567" lon="9.1356919"><ele>84.0</ele><time>2026-03-29T08:44:44.383Z</time></trkpt><trkpt lat="45.2397427" lon="9.1355911"><ele>84.0</ele><time>2026-03-29T08:44:47.368Z</time></trkpt><trkpt lat="45.2396976" lon="9.1354648"><ele>84.0</ele><time>2026-03-29T08:45:38.359Z</time></trkpt><trkpt lat="45.2396112" lon="9.1354091"><ele>84.0</ele><time>2026-03-29T08:45:40.374Z</time></trkpt><trkpt lat="45.2395387" lon="9.1354216"><ele>84.0</ele><time>2026-03-29T08:45:41.378Z</time></trkpt><trkpt lat="45.2393159" lon="9.1355079"><ele>84.0</ele><time>2026-03-29T08:45:43.375Z</time></trkpt><trkpt lat="45.2390409" lon="9.1356038"><ele>84.0</ele><time>2026-03-29T08:45:45.35Z</time></trkpt><trkpt lat="45.2388987" lon="9.1356479"><ele>84.0</ele><time>2026-03-29T08:45:46.361Z</time></trkpt><trkpt lat="45.2386347" lon="9.1357408"><ele>84.0</ele><time>2026-03-29T08:45:48.357Z</time></trkpt><trkpt lat="45.2385079" lon="9.1357894"><ele>83.66666666666667</ele><time>2026-03-29T08:45:49.373Z</time></trkpt><trkpt lat="45.2382641" lon="9.1358861"><ele>83.33333333333334</ele><time>2026-03-29T08:45:51.35Z</time></trkpt><trkpt lat="45.2381424" lon="9.1359346"><ele>83.0</ele><time>2026-03-29T08:45:52.354Z</time></trkpt><trkpt lat="45.2378896" lon="9.1360316"><ele>82.66666666666667</ele><time>2026-03-29T08:45:54.347Z</time></trkpt><trkpt lat="45.2376362" lon="9.1361364"><ele>82.33333333333333</ele><time>2026-03-29T08:45:56.361Z</time></trkpt><trkpt lat="45.2375189" lon="9.1361864"><ele>82.0</ele><time>2026-03-29T08:45:57.365Z</time></trkpt><trkpt lat="45.2373121" lon="9.1362829"><ele>83.0</ele><time>2026-03-29T08:45:59.361Z</time></trkpt><trkpt lat="45.2371625" lon="9.1363463"><ele>84.0</ele><time>2026-03-29T08:46:01.361Z</time></trkpt><trkpt lat="45.2370711" lon="9.1363851"><ele>85.0</ele><time>2026-03-29T08:46:03.352Z</time></trkpt><trkpt lat="45.2369831" lon="9.1364193"><ele>86.0</ele><time>2026-03-29T08:46:18.343Z</time></trkpt><trkpt lat="45.2367809" lon="9.1364959"><ele>86.0</ele><time>2026-03-29T08:46:21.35Z</time></trkpt><trkpt lat="45.2366817" lon="9.1365374"><ele>86.0</ele><time>2026-03-29T08:46:22.36Z</time></trkpt><trkpt lat="45.2365631" lon="9.1365856"><ele>86.0</ele><time>2026-03-29T08:46:23.364Z</time></trkpt><trkpt lat="45.2362832" lon="9.1366966"><ele>85.0</ele><time>2026-03-29T08:46:25.357Z</time></trkpt><trkpt lat="45.2359646" lon="9.1368044"><ele>84.0</ele><time>2026-03-29T08:46:27.354Z</time></trkpt><trkpt lat="45.2356574" lon="9.1369144"><ele>85.0</ele><time>2026-03-29T08:46:29.358Z</time></trkpt><trkpt lat="45.235353" lon="9.1370316"><ele>86.0</ele><time>2026-03-29T08:46:31.368Z</time></trkpt><trkpt lat="45.2350555" lon="9.1371511"><ele>86.0</ele><time>2026-03-29T08:46:33.35Z</time></trkpt><trkpt lat="45.2349066" lon="9.1372098"><ele>86.0</ele><time>2026-03-29T08:46:34.35Z</time></trkpt><trkpt lat="45.2346102" lon="9.1373243"><ele>85.0</ele><time>2026-03-29T08:46:36.348Z</time></trkpt><trkpt lat="45.2343137" lon="9.1374348"><ele>84.0</ele><time>2026-03-29T08:46:38.351Z</time></trkpt><trkpt lat="45.2340159" lon="9.1375519"><ele>82.5</ele><time>2026-03-29T08:46:40.349Z</time></trkpt><trkpt lat="45.2337184" lon="9.1376659"><ele>81.0</ele><time>2026-03-29T08:46:42.348Z</time></trkpt><trkpt lat="45.2335704" lon="9.1377219"><ele>81.0</ele><time>2026-03-29T08:46:43.348Z</time></trkpt><trkpt lat="45.2334227" lon="9.1377774"><ele>81.0</ele><time>2026-03-29T08:46:44.348Z</time></trkpt><trkpt lat="45.2332737" lon="9.1378333"><ele>81.0</ele><time>2026-03-29T08:46:45.354Z</time></trkpt><trkpt lat="45.2331241" lon="9.1378883"><ele>81.5</ele><time>2026-03-29T08:46:46.358Z</time></trkpt><trkpt lat="45.2329742" lon="9.1379443"><ele>82.0</ele><time>2026-03-29T08:46:47.363Z</time></trkpt><trkpt lat="45.232674" lon="9.1380589"><ele>82.0</ele><time>2026-03-29T08:46:49.358Z</time></trkpt><trkpt lat="45.2325231" lon="9.1381151"><ele>82.0</ele><time>2026-03-29T08:46:50.36Z</time></trkpt><trkpt lat="45.2323716" lon="9.1381723"><ele>82.0</ele><time>2026-03-29T08:46:51.363Z</time></trkpt><trkpt lat="45.2322186" lon="9.1382291"><ele>82.0</ele><time>2026-03-29T08:46:52.362Z</time></trkpt><trkpt lat="45.2319132" lon="9.1383443"><ele>82.0</ele><time>2026-03-29T08:46:54.359Z</time></trkpt><trkpt lat="45.2317596" lon="9.1383998"><ele>81.0</ele><time>2026-03-29T08:46:55.365Z</time></trkpt><trkpt lat="45.2314491" lon="9.1385114"><ele>80.0</ele><time>2026-03-29T08:46:57.363Z</time></trkpt><trkpt lat="45.2311326" lon="9.1386226"><ele>80.0</ele><time>2026-03-29T08:46:59.371Z</time></trkpt><trkpt lat="45.2308132" lon="9.1387423"><ele>80.0</ele><time>2026-03-29T08:47:01.357Z</time></trkpt><trkpt lat="45.2306537" lon="9.1387956"><ele>81.0</ele><time>2026-03-29T08:47:02.358Z</time></trkpt><trkpt lat="45.2304942" lon="9.1388441"><ele>82.0</ele><time>2026-03-29T08:47:03.359Z</time></trkpt><trkpt lat="45.2303346" lon="9.1388931"><ele>83.0</ele><time>2026-03-29T08:47:04.36Z</time></trkpt><trkpt lat="45.2301829" lon="9.1389478"><ele>83.5</ele><time>2026-03-29T08:47:05.362Z</time></trkpt><trkpt lat="45.2299" lon="9.1390573"><ele>84.0</ele><time>2026-03-29T08:47:07.348Z</time></trkpt><trkpt lat="45.2296231" lon="9.1391604"><ele>84.0</ele><time>2026-03-29T08:47:09.345Z</time></trkpt><trkpt lat="45.2294876" lon="9.1392103"><ele>84.0</ele><time>2026-03-29T08:47:10.352Z</time></trkpt><trkpt lat="45.2292199" lon="9.1393101"><ele>84.0</ele><time>2026-03-29T08:47:12.34Z</time></trkpt><trkpt lat="45.2289522" lon="9.1394071"><ele>84.0</ele><time>2026-03-29T08:47:14.349Z</time></trkpt><trkpt lat="45.2286849" lon="9.1395048"><ele>84.0</ele><time>2026-03-29T08:47:16.346Z</time></trkpt><trkpt lat="45.2285519" lon="9.1395538"><ele>84.0</ele><time>2026-03-29T08:47:17.355Z</time></trkpt><trkpt lat="45.2282887" lon="9.1396531"><ele>83.33333333333333</ele><time>2026-03-29T08:47:19.35Z</time></trkpt><trkpt lat="45.2280277" lon="9.1397543"><ele>82.66666666666666</ele><time>2026-03-29T08:47:21.344Z</time></trkpt><trkpt lat="45.2278994" lon="9.1398023"><ele>82.0</ele><time>2026-03-29T08:47:22.349Z</time></trkpt><trkpt lat="45.2276492" lon="9.1398964"><ele>82.0</ele><time>2026-03-29T08:47:24.346Z</time></trkpt><trkpt lat="45.2275254" lon="9.1399418"><ele>82.0</ele><time>2026-03-29T08:47:25.348Z</time></trkpt><trkpt lat="45.2274031" lon="9.1399874"><ele>82.0</ele><time>2026-03-29T08:47:26.348Z</time></trkpt><trkpt lat="45.2271586" lon="9.1400751"><ele>81.33333333333333</ele><time>2026-03-29T08:47:28.342Z</time></trkpt><trkpt lat="45.2270347" lon="9.1401208"><ele>80.66666666666667</ele><time>2026-03-29T08:47:29.352Z</time></trkpt><trkpt lat="45.2267879" lon="9.1402111"><ele>80.0</ele><time>2026-03-29T08:47:31.346Z</time></trkpt><trkpt lat="45.226541" lon="9.1403031"><ele>80.33333333333334</ele><time>2026-03-29T08:47:33.345Z</time></trkpt><trkpt lat="45.2262964" lon="9.1404006"><ele>80.66666666666667</ele><time>2026-03-29T08:47:35.339Z</time></trkpt><trkpt lat="45.2261756" lon="9.1404498"><ele>81.0</ele><time>2026-03-29T08:47:36.351Z</time></trkpt><trkpt lat="45.2259291" lon="9.1405479"><ele>81.0</ele><time>2026-03-29T08:47:38.345Z</time></trkpt><trkpt lat="45.2258076" lon="9.1405963"><ele>81.0</ele><time>2026-03-29T08:47:39.346Z</time></trkpt><trkpt lat="45.2255649" lon="9.1406916"><ele>81.0</ele><time>2026-03-29T08:47:41.338Z</time></trkpt><trkpt lat="45.2254389" lon="9.1407401"><ele>81.0</ele><time>2026-03-29T08:47:42.336Z</time></trkpt><trkpt lat="45.2253097" lon="9.1407904"><ele>81.0</ele><time>2026-03-29T08:47:43.341Z</time></trkpt><trkpt lat="45.2251807" lon="9.1408428"><ele>81.0</ele><time>2026-03-29T08:47:44.345Z</time></trkpt><trkpt lat="45.2250506" lon="9.1408951"><ele>81.0</ele><time>2026-03-29T08:47:45.348Z</time></trkpt><trkpt lat="45.2249194" lon="9.1409471"><ele>81.0</ele><time>2026-03-29T08:47:46.348Z</time></trkpt><trkpt lat="45.2246552" lon="9.1410533"><ele>81.0</ele><time>2026-03-29T08:47:48.342Z</time></trkpt><trkpt lat="45.2245211" lon="9.1411071"><ele>81.0</ele><time>2026-03-29T08:47:49.342Z</time></trkpt><trkpt lat="45.2243931" lon="9.1411646"><ele>81.0</ele><time>2026-03-29T08:47:50.358Z</time></trkpt><trkpt lat="45.2241294" lon="9.1412741"><ele>81.0</ele><time>2026-03-29T08:47:52.351Z</time></trkpt><trkpt lat="45.2238624" lon="9.1413769"><ele>81.0</ele><time>2026-03-29T08:47:54.343Z</time></trkpt><trkpt lat="45.2237329" lon="9.1414273"><ele>81.0</ele><time>2026-03-29T08:47:55.37Z</time></trkpt><trkpt lat="45.2234925" lon="9.1415213"><ele>81.0</ele><time>2026-03-29T08:47:57.35Z</time></trkpt><trkpt lat="45.2232694" lon="9.1416071"><ele>80.66666666666667</ele><time>2026-03-29T08:47:59.343Z</time></trkpt><trkpt lat="45.2230584" lon="9.1416946"><ele>80.33333333333334</ele><time>2026-03-29T08:48:01.341Z</time></trkpt><trkpt lat="45.2229482" lon="9.1417376"><ele>80.0</ele><time>2026-03-29T08:48:02.345Z</time></trkpt><trkpt lat="45.2227192" lon="9.1418281"><ele>80.0</ele><time>2026-03-29T08:48:04.344Z</time></trkpt><trkpt lat="45.2226114" lon="9.1418733"><ele>80.0</ele><time>2026-03-29T08:48:05.346Z</time></trkpt><trkpt lat="45.2225104" lon="9.1419148"><ele>80.0</ele><time>2026-03-29T08:48:06.347Z</time></trkpt><trkpt lat="45.2224117" lon="9.1419516"><ele>80.0</ele><time>2026-03-29T08:48:07.352Z</time></trkpt><trkpt lat="45.2223154" lon="9.1419884"><ele>80.0</ele><time>2026-03-29T08:48:08.351Z</time></trkpt><trkpt lat="45.2221276" lon="9.1420616"><ele>80.0</ele><time>2026-03-29T08:48:10.363Z</time></trkpt><trkpt lat="45.2219402" lon="9.1421329"><ele>80.0</ele><time>2026-03-29T08:48:12.35Z</time></trkpt><trkpt lat="45.221824" lon="9.1421809"><ele>80.0</ele><time>2026-03-29T08:48:13.352Z</time></trkpt><trkpt lat="45.2215491" lon="9.1422936"><ele>80.0</ele><time>2026-03-29T08:48:15.349Z</time></trkpt><trkpt lat="45.2214001" lon="9.1423516"><ele>80.0</ele><time>2026-03-29T08:48:16.355Z</time></trkpt><trkpt lat="45.2212476" lon="9.1424106"><ele>80.0</ele><time>2026-03-29T08:48:17.357Z</time></trkpt><trkpt lat="45.2209309" lon="9.1425398"><ele>80.5</ele><time>2026-03-29T08:48:19.347Z</time></trkpt><trkpt lat="45.2206029" lon="9.1426678"><ele>81.0</ele><time>2026-03-29T08:48:21.344Z</time></trkpt><trkpt lat="45.2204369" lon="9.1427319"><ele>81.0</ele><time>2026-03-29T08:48:22.349Z</time></trkpt><trkpt lat="45.2200994" lon="9.1428636"><ele>81.0</ele><time>2026-03-29T08:48:24.344Z</time></trkpt><trkpt lat="45.2199279" lon="9.1429318"><ele>81.5</ele><time>2026-03-29T08:48:25.352Z</time></trkpt><trkpt lat="45.2195804" lon="9.1430659"><ele>82.0</ele><time>2026-03-29T08:48:27.342Z</time></trkpt><trkpt lat="45.2194059" lon="9.1431361"><ele>82.5</ele><time>2026-03-29T08:48:28.346Z</time></trkpt><trkpt lat="45.2190559" lon="9.1432746"><ele>83.0</ele><time>2026-03-29T08:48:30.346Z</time></trkpt><trkpt lat="45.2187004" lon="9.1434093"><ele>83.0</ele><time>2026-03-29T08:48:32.343Z</time></trkpt><trkpt lat="45.2183412" lon="9.1435548"><ele>83.0</ele><time>2026-03-29T08:48:34.348Z</time></trkpt><trkpt lat="45.2179777" lon="9.1436983"><ele>81.0</ele><time>2026-03-29T08:48:36.348Z</time></trkpt><trkpt lat="45.2176084" lon="9.1438446"><ele>79.0</ele><time>2026-03-29T08:48:38.345Z</time></trkpt><trkpt lat="45.2174221" lon="9.1439191"><ele>79.0</ele><time>2026-03-29T08:48:39.346Z</time></trkpt><trkpt lat="45.2172349" lon="9.1439928"><ele>79.0</ele><time>2026-03-29T08:48:40.35Z</time></trkpt><trkpt lat="45.2168587" lon="9.1441446"><ele>79.0</ele><time>2026-03-29T08:48:42.348Z</time></trkpt><trkpt lat="45.2166689" lon="9.1442203"><ele>79.0</ele><time>2026-03-29T08:48:43.348Z</time></trkpt><trkpt lat="45.2164756" lon="9.1442958"><ele>79.0</ele><time>2026-03-29T08:48:44.348Z</time></trkpt><trkpt lat="45.2162801" lon="9.1443721"><ele>79.5</ele><time>2026-03-29T08:48:45.347Z</time></trkpt><trkpt lat="45.2160802" lon="9.1444538"><ele>80.0</ele><time>2026-03-29T08:48:46.351Z</time></trkpt><trkpt lat="45.2156731" lon="9.1446203"><ele>80.0</ele><time>2026-03-29T08:48:48.35Z</time></trkpt><trkpt lat="45.2154702" lon="9.1447029"><ele>80.0</ele><time>2026-03-29T08:48:49.352Z</time></trkpt><trkpt lat="45.2152686" lon="9.1447861"><ele>80.0</ele><time>2026-03-29T08:48:50.352Z</time></trkpt><trkpt lat="45.2148719" lon="9.1449639"><ele>80.33333333333334</ele><time>2026-03-29T08:48:52.349Z</time></trkpt><trkpt lat="45.2146757" lon="9.1450613"><ele>80.66666666666667</ele><time>2026-03-29T08:48:53.35Z</time></trkpt><trkpt lat="45.2144794" lon="9.1451641"><ele>81.0</ele><time>2026-03-29T08:48:54.354Z</time></trkpt><trkpt lat="45.2140901" lon="9.1454064"><ele>81.5</ele><time>2026-03-29T08:48:56.349Z</time></trkpt><trkpt lat="45.2137081" lon="9.1456969"><ele>82.0</ele><time>2026-03-29T08:48:58.37Z</time></trkpt><trkpt lat="45.2133555" lon="9.1460041"><ele>82.0</ele><time>2026-03-29T08:49:00.358Z</time></trkpt><trkpt lat="45.2131915" lon="9.1461518"><ele>82.0</ele><time>2026-03-29T08:49:01.376Z</time></trkpt><trkpt lat="45.2128702" lon="9.1464371"><ele>82.0</ele><time>2026-03-29T08:49:03.358Z</time></trkpt><trkpt lat="45.212707" lon="9.1465763"><ele>82.0</ele><time>2026-03-29T08:49:04.363Z</time></trkpt><trkpt lat="45.2123707" lon="9.1468561"><ele>80.5</ele><time>2026-03-29T08:49:06.354Z</time></trkpt><trkpt lat="45.2120304" lon="9.1471508"><ele>79.0</ele><time>2026-03-29T08:49:08.35Z</time></trkpt><trkpt lat="45.2118621" lon="9.1473016"><ele>79.0</ele><time>2026-03-29T08:49:09.35Z</time></trkpt><trkpt lat="45.211699" lon="9.1474506"><ele>79.0</ele><time>2026-03-29T08:49:10.365Z</time></trkpt><trkpt lat="45.2113714" lon="9.1477468"><ele>79.0</ele><time>2026-03-29T08:49:12.365Z</time></trkpt><trkpt lat="45.2110191" lon="9.1480371"><ele>79.0</ele><time>2026-03-29T08:49:14.352Z</time></trkpt><trkpt lat="45.2106414" lon="9.1482841"><ele>80.5</ele><time>2026-03-29T08:49:16.357Z</time></trkpt><trkpt lat="45.2102806" lon="9.1484974"><ele>82.0</ele><time>2026-03-29T08:49:18.376Z</time></trkpt><trkpt lat="45.2099424" lon="9.1486611"><ele>81.5</ele><time>2026-03-29T08:49:20.363Z</time></trkpt><trkpt lat="45.2096345" lon="9.1487728"><ele>81.0</ele><time>2026-03-29T08:49:22.361Z</time></trkpt><trkpt lat="45.2093379" lon="9.1488644"><ele>81.0</ele><time>2026-03-29T08:49:24.357Z</time></trkpt><trkpt lat="45.2090437" lon="9.1489334"><ele>81.0</ele><time>2026-03-29T08:49:26.349Z</time></trkpt><trkpt lat="45.2088957" lon="9.1489614"><ele>81.0</ele><time>2026-03-29T08:49:27.348Z</time></trkpt><trkpt lat="45.2087472" lon="9.1489848"><ele>81.0</ele><time>2026-03-29T08:49:28.349Z</time></trkpt><trkpt lat="45.2085967" lon="9.1489986"><ele>81.0</ele><time>2026-03-29T08:49:29.355Z</time></trkpt><trkpt lat="45.2082836" lon="9.1489929"><ele>81.0</ele><time>2026-03-29T08:49:31.346Z</time></trkpt><trkpt lat="45.2081221" lon="9.1489808"><ele>81.0</ele><time>2026-03-29T08:49:32.35Z</time></trkpt><trkpt lat="45.2079612" lon="9.1489646"><ele>81.0</ele><time>2026-03-29T08:49:33.358Z</time></trkpt><trkpt lat="45.2076439" lon="9.1489191"><ele>81.0</ele><time>2026-03-29T08:49:35.353Z</time></trkpt><trkpt lat="45.2074864" lon="9.1488836"><ele>81.0</ele><time>2026-03-29T08:49:36.357Z</time></trkpt><trkpt lat="45.2071734" lon="9.1487854"><ele>80.0</ele><time>2026-03-29T08:49:38.355Z</time></trkpt><trkpt lat="45.2068679" lon="9.1486663"><ele>79.0</ele><time>2026-03-29T08:49:40.351Z</time></trkpt><trkpt lat="45.2067214" lon="9.1485976"><ele>79.0</ele><time>2026-03-29T08:49:41.353Z</time></trkpt><trkpt lat="45.2065776" lon="9.1485243"><ele>79.0</ele><time>2026-03-29T08:49:42.355Z</time></trkpt><trkpt lat="45.2062961" lon="9.1483648"><ele>79.5</ele><time>2026-03-29T08:49:44.36Z</time></trkpt><trkpt lat="45.2060167" lon="9.1481824"><ele>80.0</ele><time>2026-03-29T08:49:46.348Z</time></trkpt><trkpt lat="45.2058827" lon="9.1480826"><ele>80.0</ele><time>2026-03-29T08:49:47.347Z</time></trkpt><trkpt lat="45.2057474" lon="9.1479764"><ele>80.0</ele><time>2026-03-29T08:49:48.357Z</time></trkpt><trkpt lat="45.2054807" lon="9.1477454"><ele>80.0</ele><time>2026-03-29T08:49:50.356Z</time></trkpt><trkpt lat="45.2052154" lon="9.1474828"><ele>80.0</ele><time>2026-03-29T08:49:52.35Z</time></trkpt><trkpt lat="45.2049457" lon="9.1471853"><ele>80.0</ele><time>2026-03-29T08:49:54.35Z</time></trkpt><trkpt lat="45.2048135" lon="9.1470224"><ele>80.0</ele><time>2026-03-29T08:49:55.351Z</time></trkpt><trkpt lat="45.2046832" lon="9.1468516"><ele>80.0</ele><time>2026-03-29T08:49:56.355Z</time></trkpt><trkpt lat="45.2044244" lon="9.1464851"><ele>80.0</ele><time>2026-03-29T08:49:58.388Z</time></trkpt><trkpt lat="45.2041642" lon="9.1460901"><ele>80.0</ele><time>2026-03-29T08:50:00.358Z</time></trkpt><trkpt lat="45.2040381" lon="9.1458814"><ele>80.5</ele><time>2026-03-29T08:50:01.378Z</time></trkpt><trkpt lat="45.2037929" lon="9.1454404"><ele>81.0</ele><time>2026-03-29T08:50:03.351Z</time></trkpt><trkpt lat="45.2036716" lon="9.1452103"><ele>81.0</ele><time>2026-03-29T08:50:04.35Z</time></trkpt><trkpt lat="45.2035472" lon="9.1449764"><ele>81.0</ele><time>2026-03-29T08:50:05.352Z</time></trkpt><trkpt lat="45.2034207" lon="9.1447409"><ele>81.0</ele><time>2026-03-29T08:50:06.358Z</time></trkpt><trkpt lat="45.2031661" lon="9.1442696"><ele>81.5</ele><time>2026-03-29T08:50:08.361Z</time></trkpt><trkpt lat="45.2029137" lon="9.1437963"><ele>82.0</ele><time>2026-03-29T08:50:10.355Z</time></trkpt><trkpt lat="45.2026646" lon="9.1433286"><ele>81.5</ele><time>2026-03-29T08:50:12.354Z</time></trkpt><trkpt lat="45.2025412" lon="9.1430989"><ele>81.0</ele><time>2026-03-29T08:50:13.354Z</time></trkpt><trkpt lat="45.2023016" lon="9.1426409"><ele>80.5</ele><time>2026-03-29T08:50:15.346Z</time></trkpt><trkpt lat="45.2021801" lon="9.1424116"><ele>80.0</ele><time>2026-03-29T08:50:16.357Z</time></trkpt><trkpt lat="45.2019309" lon="9.1419623"><ele>79.5</ele><time>2026-03-29T08:50:18.346Z</time></trkpt><trkpt lat="45.2016755" lon="9.1415253"><ele>79.0</ele><time>2026-03-29T08:50:20.348Z</time></trkpt><trkpt lat="45.2015419" lon="9.1413096"><ele>79.0</ele><time>2026-03-29T08:50:21.361Z</time></trkpt><trkpt lat="45.2012714" lon="9.1408823"><ele>79.0</ele><time>2026-03-29T08:50:23.347Z</time></trkpt><trkpt lat="45.2011331" lon="9.1406686"><ele>79.33333333333333</ele><time>2026-03-29T08:50:24.347Z</time></trkpt><trkpt lat="45.2009896" lon="9.1404578"><ele>79.66666666666667</ele><time>2026-03-29T08:50:25.348Z</time></trkpt><trkpt lat="45.2008429" lon="9.1402483"><ele>80.0</ele><time>2026-03-29T08:50:26.362Z</time></trkpt><trkpt lat="45.2005342" lon="9.1398446"><ele>80.5</ele><time>2026-03-29T08:50:28.351Z</time></trkpt><trkpt lat="45.2003727" lon="9.1396516"><ele>81.0</ele><time>2026-03-29T08:50:29.356Z</time></trkpt><trkpt lat="45.2000392" lon="9.1392821"><ele>81.0</ele><time>2026-03-29T08:50:31.349Z</time></trkpt><trkpt lat="45.1998669" lon="9.1391059"><ele>81.0</ele><time>2026-03-29T08:50:32.362Z</time></trkpt><trkpt lat="45.1995124" lon="9.1387666"><ele>82.0</ele><time>2026-03-29T08:50:34.357Z</time></trkpt><trkpt lat="45.1993345" lon="9.1386023"><ele>83.0</ele><time>2026-03-29T08:50:35.379Z</time></trkpt><trkpt lat="45.1989914" lon="9.1382941"><ele>81.33333333333334</ele><time>2026-03-29T08:50:37.353Z</time></trkpt><trkpt lat="45.1988195" lon="9.1381489"><ele>79.66666666666667</ele><time>2026-03-29T08:50:38.359Z</time></trkpt><trkpt lat="45.1986444" lon="9.1380061"><ele>78.0</ele><time>2026-03-29T08:50:39.361Z</time></trkpt><trkpt lat="45.1984651" lon="9.1378621"><ele>77.5</ele><time>2026-03-29T08:50:40.36Z</time></trkpt><trkpt lat="45.1980981" lon="9.1375598"><ele>77.0</ele><time>2026-03-29T08:50:42.353Z</time></trkpt><trkpt lat="45.1977184" lon="9.1372434"><ele>76.5</ele><time>2026-03-29T08:50:44.349Z</time></trkpt><trkpt lat="45.1975207" lon="9.1370794"><ele>76.0</ele><time>2026-03-29T08:50:45.36Z</time></trkpt><trkpt lat="45.1971186" lon="9.1367476"><ele>75.5</ele><time>2026-03-29T08:50:47.345Z</time></trkpt><trkpt lat="45.1969159" lon="9.1365791"><ele>75.0</ele><time>2026-03-29T08:50:48.349Z</time></trkpt><trkpt lat="45.1967114" lon="9.1364088"><ele>76.0</ele><time>2026-03-29T08:50:49.349Z</time></trkpt><trkpt lat="45.1965066" lon="9.1362384"><ele>77.0</ele><time>2026-03-29T08:50:50.358Z</time></trkpt><trkpt lat="45.1960922" lon="9.1358923"><ele>77.0</ele><time>2026-03-29T08:50:52.336Z</time></trkpt><trkpt lat="45.1958825" lon="9.1357186"><ele>77.0</ele><time>2026-03-29T08:50:53.345Z</time></trkpt><trkpt lat="45.1954587" lon="9.1353664"><ele>75.0</ele><time>2026-03-29T08:50:55.349Z</time></trkpt><trkpt lat="45.1952492" lon="9.1351918"><ele>73.0</ele><time>2026-03-29T08:50:56.348Z</time></trkpt><trkpt lat="45.1950439" lon="9.1350161"><ele>73.0</ele><time>2026-03-29T08:50:57.366Z</time></trkpt><trkpt lat="45.1946454" lon="9.1346606"><ele>73.0</ele><time>2026-03-29T08:50:59.349Z</time></trkpt><trkpt lat="45.1944501" lon="9.1344783"><ele>73.0</ele><time>2026-03-29T08:51:00.358Z</time></trkpt><trkpt lat="45.1940697" lon="9.1340919"><ele>72.0</ele><time>2026-03-29T08:51:02.344Z</time></trkpt><trkpt lat="45.1938824" lon="9.1338871"><ele>71.0</ele><time>2026-03-29T08:51:03.349Z</time></trkpt><trkpt lat="45.1935164" lon="9.1334538"><ele>71.0</ele><time>2026-03-29T08:51:05.348Z</time></trkpt><trkpt lat="45.1933382" lon="9.1332258"><ele>71.0</ele><time>2026-03-29T08:51:06.349Z</time></trkpt><trkpt lat="45.1929934" lon="9.1327478"><ele>70.0</ele><time>2026-03-29T08:51:08.351Z</time></trkpt><trkpt lat="45.1928269" lon="9.1324958"><ele>69.0</ele><time>2026-03-29T08:51:09.352Z</time></trkpt><trkpt lat="45.1926639" lon="9.1322376"><ele>67.0</ele><time>2026-03-29T08:51:10.352Z</time></trkpt><trkpt lat="45.1923564" lon="9.1317011"><ele>66.5</ele><time>2026-03-29T08:51:12.345Z</time></trkpt><trkpt lat="45.1922094" lon="9.1314243"><ele>66.0</ele><time>2026-03-29T08:51:13.352Z</time></trkpt><trkpt lat="45.1920675" lon="9.1311443"><ele>66.0</ele><time>2026-03-29T08:51:14.352Z</time></trkpt><trkpt lat="45.1919309" lon="9.1308599"><ele>66.0</ele><time>2026-03-29T08:51:15.355Z</time></trkpt><trkpt lat="45.1916701" lon="9.1302856"><ele>65.5</ele><time>2026-03-29T08:51:17.351Z</time></trkpt><trkpt lat="45.1915427" lon="9.1299979"><ele>65.0</ele><time>2026-03-29T08:51:18.352Z</time></trkpt><trkpt lat="45.1912954" lon="9.1294264"><ele>63.0</ele><time>2026-03-29T08:51:20.353Z</time></trkpt><trkpt lat="45.1910437" lon="9.1288558"><ele>63.0</ele><time>2026-03-29T08:51:22.348Z</time></trkpt><trkpt lat="45.1909102" lon="9.1285761"><ele>63.0</ele><time>2026-03-29T08:51:23.349Z</time></trkpt><trkpt lat="45.1907702" lon="9.1283049"><ele>64.5</ele><time>2026-03-29T08:51:24.349Z</time></trkpt><trkpt lat="45.1906231" lon="9.1280398"><ele>66.0</ele><time>2026-03-29T08:51:25.351Z</time></trkpt><trkpt lat="45.1904697" lon="9.1277776"><ele>66.0</ele><time>2026-03-29T08:51:26.35Z</time></trkpt><trkpt lat="45.1903112" lon="9.1275236"><ele>66.0</ele><time>2026-03-29T08:51:27.353Z</time></trkpt><trkpt lat="45.1899822" lon="9.1270361"><ele>65.0</ele><time>2026-03-29T08:51:29.348Z</time></trkpt><trkpt lat="45.1898109" lon="9.1268059"><ele>64.0</ele><time>2026-03-29T08:51:30.35Z</time></trkpt><trkpt lat="45.1896354" lon="9.1265843"><ele>65.0</ele><time>2026-03-29T08:51:31.35Z</time></trkpt><trkpt lat="45.1892629" lon="9.1261561"><ele>64.0</ele><time>2026-03-29T08:51:33.353Z</time></trkpt><trkpt lat="45.1888646" lon="9.1257484"><ele>64.5</ele><time>2026-03-29T08:51:35.35Z</time></trkpt><trkpt lat="45.1886586" lon="9.1255574"><ele>65.0</ele><time>2026-03-29T08:51:36.35Z</time></trkpt><trkpt lat="45.1884481" lon="9.1253738"><ele>65.0</ele><time>2026-03-29T08:51:37.35Z</time></trkpt><trkpt lat="45.1882337" lon="9.1251974"><ele>65.0</ele><time>2026-03-29T08:51:38.351Z</time></trkpt><trkpt lat="45.1877961" lon="9.1248691"><ele>61.0</ele><time>2026-03-29T08:51:40.351Z</time></trkpt><trkpt lat="45.1873449" lon="9.1246038"><ele>60.5</ele><time>2026-03-29T08:51:42.348Z</time></trkpt><trkpt lat="45.1871134" lon="9.1244931"><ele>60.0</ele><time>2026-03-29T08:51:43.35Z</time></trkpt><trkpt lat="45.1868787" lon="9.1243919"><ele>60.0</ele><time>2026-03-29T08:51:44.351Z</time></trkpt><trkpt lat="45.1866399" lon="9.1242974"><ele>60.0</ele><time>2026-03-29T08:51:45.353Z</time></trkpt><trkpt lat="45.1861565" lon="9.1241339"><ele>60.0</ele><time>2026-03-29T08:51:47.35Z</time></trkpt><trkpt lat="45.1859136" lon="9.1240663"><ele>60.0</ele><time>2026-03-29T08:51:48.352Z</time></trkpt><trkpt lat="45.1856681" lon="9.1240081"><ele>59.5</ele><time>2026-03-29T08:51:49.352Z</time></trkpt><trkpt lat="45.1854209" lon="9.1239601"><ele>59.0</ele><time>2026-03-29T08:51:50.354Z</time></trkpt><trkpt lat="45.184921" lon="9.1238998"><ele>58.5</ele><time>2026-03-29T08:51:52.349Z</time></trkpt><trkpt lat="45.1846712" lon="9.1238886"><ele>58.0</ele><time>2026-03-29T08:51:53.355Z</time></trkpt><trkpt lat="45.1841701" lon="9.1239058"><ele>58.0</ele><time>2026-03-29T08:51:55.349Z</time></trkpt><trkpt lat="45.1839181" lon="9.1239301"><ele>58.0</ele><time>2026-03-29T08:51:56.351Z</time></trkpt><trkpt lat="45.1834192" lon="9.1240006"><ele>58.5</ele><time>2026-03-29T08:51:58.349Z</time></trkpt><trkpt lat="45.1831705" lon="9.1240464"><ele>59.0</ele><time>2026-03-29T08:51:59.348Z</time></trkpt><trkpt lat="45.1829226" lon="9.1240939"><ele>61.0</ele><time>2026-03-29T08:52:00.35Z</time></trkpt><trkpt lat="45.1826771" lon="9.1241383"><ele>63.0</ele><time>2026-03-29T08:52:01.353Z</time></trkpt><trkpt lat="45.1824329" lon="9.1241821"><ele>62.0</ele><time>2026-03-29T08:52:02.367Z</time></trkpt><trkpt lat="45.1819564" lon="9.1242798"><ele>62.0</ele><time>2026-03-29T08:52:04.352Z</time></trkpt><trkpt lat="45.1817237" lon="9.1243386"><ele>62.0</ele><time>2026-03-29T08:52:05.352Z</time></trkpt><trkpt lat="45.1812662" lon="9.1244821"><ele>60.0</ele><time>2026-03-29T08:52:07.376Z</time></trkpt><trkpt lat="45.1808199" lon="9.1246619"><ele>60.5</ele><time>2026-03-29T08:52:09.348Z</time></trkpt><trkpt lat="45.1806027" lon="9.1247673"><ele>61.0</ele><time>2026-03-29T08:52:10.349Z</time></trkpt><trkpt lat="45.1803899" lon="9.1248809"><ele>61.0</ele><time>2026-03-29T08:52:11.352Z</time></trkpt><trkpt lat="45.1801786" lon="9.1250008"><ele>61.0</ele><time>2026-03-29T08:52:12.357Z</time></trkpt><trkpt lat="45.1797627" lon="9.1252568"><ele>63.0</ele><time>2026-03-29T08:52:14.352Z</time></trkpt><trkpt lat="45.1793417" lon="9.1255098"><ele>60.0</ele><time>2026-03-29T08:52:16.357Z</time></trkpt><trkpt lat="45.1789221" lon="9.1257811"><ele>60.0</ele><time>2026-03-29T08:52:18.355Z</time></trkpt><trkpt lat="45.1785031" lon="9.1260641"><ele>58.0</ele><time>2026-03-29T08:52:20.354Z</time></trkpt><trkpt lat="45.1780791" lon="9.1263546"><ele>57.0</ele><time>2026-03-29T08:52:22.353Z</time></trkpt><trkpt lat="45.177652" lon="9.1266443"><ele>58.0</ele><time>2026-03-29T08:52:24.348Z</time></trkpt><trkpt lat="45.1772264" lon="9.1269348"><ele>58.0</ele><time>2026-03-29T08:52:26.343Z</time></trkpt><trkpt lat="45.1770137" lon="9.1270788"><ele>58.0</ele><time>2026-03-29T08:52:27.35Z</time></trkpt><trkpt lat="45.1765899" lon="9.1273703"><ele>60.0</ele><time>2026-03-29T08:52:29.352Z</time></trkpt><trkpt lat="45.1763824" lon="9.1275088"><ele>62.0</ele><time>2026-03-29T08:52:30.352Z</time></trkpt><trkpt lat="45.1759631" lon="9.1277486"><ele>62.0</ele><time>2026-03-29T08:52:32.34Z</time></trkpt><trkpt lat="45.1757491" lon="9.1278491"><ele>62.0</ele><time>2026-03-29T08:52:33.344Z</time></trkpt><trkpt lat="45.1753159" lon="9.1279743"><ele>61.0</ele><time>2026-03-29T08:52:35.346Z</time></trkpt><trkpt lat="45.1750944" lon="9.1280003"><ele>60.0</ele><time>2026-03-29T08:52:36.352Z</time></trkpt><trkpt lat="45.1746479" lon="9.1280013"><ele>59.0</ele><time>2026-03-29T08:52:38.35Z</time></trkpt><trkpt lat="45.1744246" lon="9.1279694"><ele>58.0</ele><time>2026-03-29T08:52:39.355Z</time></trkpt><trkpt lat="45.1739881" lon="9.1278156"><ele>58.0</ele><time>2026-03-29T08:52:41.343Z</time></trkpt><trkpt lat="45.1737764" lon="9.1277016"><ele>58.0</ele><time>2026-03-29T08:52:42.35Z</time></trkpt><trkpt lat="45.1735687" lon="9.1275678"><ele>58.0</ele><time>2026-03-29T08:52:43.358Z</time></trkpt><trkpt lat="45.173368" lon="9.1274163"><ele>58.0</ele><time>2026-03-29T08:52:44.365Z</time></trkpt><trkpt lat="45.1729904" lon="9.1270574"><ele>58.0</ele><time>2026-03-29T08:52:46.346Z</time></trkpt><trkpt lat="45.1728117" lon="9.1268528"><ele>58.0</ele><time>2026-03-29T08:52:47.351Z</time></trkpt><trkpt lat="45.1726377" lon="9.1266379"><ele>58.5</ele><time>2026-03-29T08:52:48.354Z</time></trkpt><trkpt lat="45.1724656" lon="9.1264181"><ele>59.0</ele><time>2026-03-29T08:52:49.355Z</time></trkpt><trkpt lat="45.1721207" lon="9.1259749"><ele>59.0</ele><time>2026-03-29T08:52:51.35Z</time></trkpt><trkpt lat="45.1719487" lon="9.1257499"><ele>59.0</ele><time>2026-03-29T08:52:52.351Z</time></trkpt><trkpt lat="45.1716014" lon="9.1252998"><ele>60.0</ele><time>2026-03-29T08:52:54.34Z</time></trkpt><trkpt lat="45.1714221" lon="9.1250783"><ele>61.0</ele><time>2026-03-29T08:52:55.35Z</time></trkpt><trkpt lat="45.1710467" lon="9.1246581"><ele>61.0</ele><time>2026-03-29T08:52:57.343Z</time></trkpt><trkpt lat="45.1708509" lon="9.1244576"><ele>61.0</ele><time>2026-03-29T08:52:58.354Z</time></trkpt><trkpt lat="45.1704427" lon="9.1240833"><ele>61.0</ele><time>2026-03-29T08:53:00.352Z</time></trkpt><trkpt lat="45.1700136" lon="9.1237503"><ele>60.5</ele><time>2026-03-29T08:53:02.34Z</time></trkpt><trkpt lat="45.1697925" lon="9.1236013"><ele>60.0</ele><time>2026-03-29T08:53:03.35Z</time></trkpt><trkpt lat="45.1693419" lon="9.1233296"><ele>60.0</ele><time>2026-03-29T08:53:05.335Z</time></trkpt><trkpt lat="45.1691151" lon="9.1232006"><ele>60.0</ele><time>2026-03-29T08:53:06.341Z</time></trkpt><trkpt lat="45.1686577" lon="9.1229519"><ele>60.0</ele><time>2026-03-29T08:53:08.341Z</time></trkpt><trkpt lat="45.1684272" lon="9.1228321"><ele>60.0</ele><time>2026-03-29T08:53:09.345Z</time></trkpt><trkpt lat="45.1681952" lon="9.1227164"><ele>61.0</ele><time>2026-03-29T08:53:10.349Z</time></trkpt><trkpt lat="45.1677325" lon="9.1225011"><ele>61.0</ele><time>2026-03-29T08:53:12.349Z</time></trkpt><trkpt lat="45.1675005" lon="9.1223984"><ele>61.0</ele><time>2026-03-29T08:53:13.349Z</time></trkpt><trkpt lat="45.1670301" lon="9.1222071"><ele>61.5</ele><time>2026-03-29T08:53:15.351Z</time></trkpt><trkpt lat="45.1667912" lon="9.1221221"><ele>62.0</ele><time>2026-03-29T08:53:16.35Z</time></trkpt><trkpt lat="45.1665504" lon="9.1220426"><ele>62.0</ele><time>2026-03-29T08:53:17.358Z</time></trkpt><trkpt lat="45.1660562" lon="9.1219048"><ele>62.0</ele><time>2026-03-29T08:53:19.351Z</time></trkpt><trkpt lat="45.1658054" lon="9.1218446"><ele>62.0</ele><time>2026-03-29T08:53:20.352Z</time></trkpt><trkpt lat="45.1655531" lon="9.1217909"><ele>61.0</ele><time>2026-03-29T08:53:21.355Z</time></trkpt><trkpt lat="45.1652985" lon="9.1217433"><ele>60.0</ele><time>2026-03-29T08:53:22.353Z</time></trkpt><trkpt lat="45.1650435" lon="9.1217023"><ele>59.5</ele><time>2026-03-29T08:53:23.354Z</time></trkpt><trkpt lat="45.1647889" lon="9.1216691"><ele>59.0</ele><time>2026-03-29T08:53:24.358Z</time></trkpt><trkpt lat="45.1642804" lon="9.1216333"><ele>59.0</ele><time>2026-03-29T08:53:26.349Z</time></trkpt><trkpt lat="45.1640307" lon="9.1216303"><ele>59.0</ele><time>2026-03-29T08:53:27.352Z</time></trkpt><trkpt lat="45.1635389" lon="9.1216488"><ele>59.0</ele><time>2026-03-29T08:53:29.352Z</time></trkpt><trkpt lat="45.1632957" lon="9.1216703"><ele>59.0</ele><time>2026-03-29T08:53:30.363Z</time></trkpt><trkpt lat="45.1628162" lon="9.1217319"><ele>61.0</ele><time>2026-03-29T08:53:32.367Z</time></trkpt><trkpt lat="45.1623484" lon="9.1218249"><ele>61.0</ele><time>2026-03-29T08:53:34.358Z</time></trkpt><trkpt lat="45.1618892" lon="9.1219514"><ele>61.0</ele><time>2026-03-29T08:53:36.354Z</time></trkpt><trkpt lat="45.1614354" lon="9.1221014"><ele>61.0</ele><time>2026-03-29T08:53:38.349Z</time></trkpt><trkpt lat="45.1612102" lon="9.1221874"><ele>61.0</ele><time>2026-03-29T08:53:39.353Z</time></trkpt><trkpt lat="45.1609841" lon="9.1222776"><ele>61.0</ele><time>2026-03-29T08:53:40.353Z</time></trkpt><trkpt lat="45.1607562" lon="9.1223684"><ele>61.0</ele><time>2026-03-29T08:53:41.354Z</time></trkpt><trkpt lat="45.1603012" lon="9.1225451"><ele>60.0</ele><time>2026-03-29T08:53:43.348Z</time></trkpt><trkpt lat="45.1600761" lon="9.1226308"><ele>59.0</ele><time>2026-03-29T08:53:44.353Z</time></trkpt><trkpt lat="45.1598514" lon="9.1227164"><ele>58.0</ele><time>2026-03-29T08:53:45.364Z</time></trkpt><trkpt lat="45.1594062" lon="9.1228841"><ele>59.0</ele><time>2026-03-29T08:53:47.35Z</time></trkpt><trkpt lat="45.1589602" lon="9.1230436"><ele>59.0</ele><time>2026-03-29T08:53:49.351Z</time></trkpt><trkpt lat="45.1587409" lon="9.1231214"><ele>59.0</ele><time>2026-03-29T08:53:50.356Z</time></trkpt><trkpt lat="45.1585294" lon="9.1231948"><ele>59.0</ele><time>2026-03-29T08:53:51.363Z</time></trkpt><trkpt lat="45.1583296" lon="9.1232646"><ele>61.0</ele><time>2026-03-29T08:53:52.363Z</time></trkpt><trkpt lat="45.1581416" lon="9.1233336"><ele>63.0</ele><time>2026-03-29T08:53:53.364Z</time></trkpt><trkpt lat="45.1577991" lon="9.1234581"><ele>63.0</ele><time>2026-03-29T08:53:55.364Z</time></trkpt><trkpt lat="45.1574776" lon="9.1235719"><ele>63.0</ele><time>2026-03-29T08:53:57.35Z</time></trkpt><trkpt lat="45.1571421" lon="9.1236923"><ele>61.5</ele><time>2026-03-29T08:53:59.371Z</time></trkpt><trkpt lat="45.1567737" lon="9.1237793"><ele>60.0</ele><time>2026-03-29T08:54:01.364Z</time></trkpt><trkpt lat="45.1563549" lon="9.1238264"><ele>60.0</ele><time>2026-03-29T08:54:03.353Z</time></trkpt><trkpt lat="45.1561379" lon="9.1238336"><ele>60.0</ele><time>2026-03-29T08:54:04.354Z</time></trkpt><trkpt lat="45.1556977" lon="9.1238048"><ele>60.5</ele><time>2026-03-29T08:54:06.358Z</time></trkpt><trkpt lat="45.1552541" lon="9.1237251"><ele>61.0</ele><time>2026-03-29T08:54:08.354Z</time></trkpt><trkpt lat="45.1550337" lon="9.1236661"><ele>61.5</ele><time>2026-03-29T08:54:09.357Z</time></trkpt><trkpt lat="45.1546199" lon="9.1235208"><ele>62.0</ele><time>2026-03-29T08:54:11.354Z</time></trkpt><trkpt lat="45.1542199" lon="9.1233323"><ele>61.0</ele><time>2026-03-29T08:54:13.357Z</time></trkpt><trkpt lat="45.1538339" lon="9.1230986"><ele>60.0</ele><time>2026-03-29T08:54:15.353Z</time></trkpt><trkpt lat="45.1536484" lon="9.1229651"><ele>60.0</ele><time>2026-03-29T08:54:16.36Z</time></trkpt><trkpt lat="45.1533004" lon="9.1226763"><ele>60.0</ele><time>2026-03-29T08:54:18.362Z</time></trkpt><trkpt lat="45.1529809" lon="9.1223683"><ele>62.0</ele><time>2026-03-29T08:54:20.353Z</time></trkpt><trkpt lat="45.1528321" lon="9.1222086"><ele>64.0</ele><time>2026-03-29T08:54:21.354Z</time></trkpt><trkpt lat="45.1525405" lon="9.1218804"><ele>63.5</ele><time>2026-03-29T08:54:23.353Z</time></trkpt><trkpt lat="45.1522404" lon="9.1215426"><ele>63.0</ele><time>2026-03-29T08:54:25.369Z</time></trkpt><trkpt lat="45.1519201" lon="9.1212216"><ele>63.0</ele><time>2026-03-29T08:54:27.355Z</time></trkpt><trkpt lat="45.1517501" lon="9.1210748"><ele>63.0</ele><time>2026-03-29T08:54:28.364Z</time></trkpt><trkpt lat="45.1513937" lon="9.1208149"><ele>62.0</ele><time>2026-03-29T08:54:30.352Z</time></trkpt><trkpt lat="45.1512112" lon="9.1207064"><ele>61.0</ele><time>2026-03-29T08:54:31.361Z</time></trkpt><trkpt lat="45.1508529" lon="9.1205334"><ele>61.33333333333333</ele><time>2026-03-29T08:54:33.347Z</time></trkpt><trkpt lat="45.1506717" lon="9.1204614"><ele>61.66666666666667</ele><time>2026-03-29T08:54:34.349Z</time></trkpt><trkpt lat="45.1504917" lon="9.1203986"><ele>62.0</ele><time>2026-03-29T08:54:35.353Z</time></trkpt><trkpt lat="45.1503171" lon="9.1203463"><ele>62.0</ele><time>2026-03-29T08:54:36.354Z</time></trkpt><trkpt lat="45.1499895" lon="9.1202758"><ele>62.0</ele><time>2026-03-29T08:54:38.349Z</time></trkpt><trkpt lat="45.1496859" lon="9.1202433"><ele>61.0</ele><time>2026-03-29T08:54:40.352Z</time></trkpt><trkpt lat="45.1493844" lon="9.1202241"><ele>60.0</ele><time>2026-03-29T08:54:42.354Z</time></trkpt><trkpt lat="45.1490649" lon="9.1202084"><ele>60.0</ele><time>2026-03-29T08:54:44.355Z</time></trkpt><trkpt lat="45.1487605" lon="9.1201983"><ele>60.0</ele><time>2026-03-29T08:54:46.349Z</time></trkpt><trkpt lat="45.1484554" lon="9.1201888"><ele>60.0</ele><time>2026-03-29T08:54:48.35Z</time></trkpt><trkpt lat="45.1483076" lon="9.1201849"><ele>60.0</ele><time>2026-03-29T08:54:49.361Z</time></trkpt><trkpt lat="45.1480229" lon="9.1201776"><ele>60.0</ele><time>2026-03-29T08:54:51.371Z</time></trkpt><trkpt lat="45.1477552" lon="9.1201696"><ele>59.75</ele><time>2026-03-29T08:54:53.357Z</time></trkpt><trkpt lat="45.1476459" lon="9.1201658"><ele>59.5</ele><time>2026-03-29T08:54:54.381Z</time></trkpt><trkpt lat="45.1474722" lon="9.1201564"><ele>59.25</ele><time>2026-03-29T08:54:56.366Z</time></trkpt><trkpt lat="45.1473251" lon="9.1201478"><ele>59.0</ele><time>2026-03-29T08:54:58.361Z</time></trkpt><trkpt lat="45.1471724" lon="9.1201348"><ele>59.5</ele><time>2026-03-29T08:55:00.354Z</time></trkpt><trkpt lat="45.1470211" lon="9.1200903"><ele>60.0</ele><time>2026-03-29T08:55:02.354Z</time></trkpt><trkpt lat="45.1469446" lon="9.1200449"><ele>60.5</ele><time>2026-03-29T08:55:03.359Z</time></trkpt><trkpt lat="45.1467921" lon="9.1200113"><ele>61.0</ele><time>2026-03-29T08:55:05.355Z</time></trkpt><trkpt lat="45.1467147" lon="9.1200398"><ele>61.33333333333333</ele><time>2026-03-29T08:55:06.356Z</time></trkpt><trkpt lat="45.1465412" lon="9.1200944"><ele>61.66666666666667</ele><time>2026-03-29T08:55:08.353Z</time></trkpt><trkpt lat="45.1464337" lon="9.1201044"><ele>62.0</ele><time>2026-03-29T08:55:09.368Z</time></trkpt><trkpt lat="45.1461942" lon="9.1201009"><ele>62.0</ele><time>2026-03-29T08:55:11.362Z</time></trkpt><trkpt lat="45.1459537" lon="9.1200893"><ele>62.0</ele><time>2026-03-29T08:55:13.342Z</time></trkpt><trkpt lat="45.1458329" lon="9.1200863"><ele>62.0</ele><time>2026-03-29T08:55:14.352Z</time></trkpt><trkpt lat="45.1457171" lon="9.1200844"><ele>62.5</ele><time>2026-03-29T08:55:15.353Z</time></trkpt><trkpt lat="45.1454981" lon="9.1200784"><ele>63.0</ele><time>2026-03-29T08:55:17.349Z</time></trkpt><trkpt lat="45.1452632" lon="9.1200734"><ele>63.0</ele><time>2026-03-29T08:55:19.343Z</time></trkpt><trkpt lat="45.1450119" lon="9.1200641"><ele>63.0</ele><time>2026-03-29T08:55:21.346Z</time></trkpt><trkpt lat="45.1448816" lon="9.1200588"><ele>63.0</ele><time>2026-03-29T08:55:22.351Z</time></trkpt><trkpt lat="45.1446192" lon="9.1200468"><ele>63.0</ele><time>2026-03-29T08:55:24.353Z</time></trkpt><trkpt lat="45.1444889" lon="9.1200423"><ele>63.0</ele><time>2026-03-29T08:55:25.356Z</time></trkpt><trkpt lat="45.1443586" lon="9.1200384"><ele>63.0</ele><time>2026-03-29T08:55:26.36Z</time></trkpt><trkpt lat="45.1442319" lon="9.1200334"><ele>63.0</ele><time>2026-03-29T08:55:27.366Z</time></trkpt><trkpt lat="45.1440016" lon="9.1200243"><ele>63.0</ele><time>2026-03-29T08:55:29.348Z</time></trkpt><trkpt lat="45.1437914" lon="9.1200189"><ele>63.0</ele><time>2026-03-29T08:55:31.342Z</time></trkpt><trkpt lat="45.1435902" lon="9.1200209"><ele>63.0</ele><time>2026-03-29T08:55:33.34Z</time></trkpt><trkpt lat="45.1433629" lon="9.1200334"><ele>63.0</ele><time>2026-03-29T08:55:35.341Z</time></trkpt><trkpt lat="45.1432424" lon="9.1200369"><ele>63.0</ele><time>2026-03-29T08:55:36.344Z</time></trkpt><trkpt lat="45.1430141" lon="9.1200474"><ele>63.0</ele><time>2026-03-29T08:55:38.339Z</time></trkpt><trkpt lat="45.1429104" lon="9.1200499"><ele>63.25</ele><time>2026-03-29T08:55:39.343Z</time></trkpt><trkpt lat="45.1427367" lon="9.1200413"><ele>63.5</ele><time>2026-03-29T08:55:41.351Z</time></trkpt><trkpt lat="45.1426036" lon="9.1200134"><ele>63.75</ele><time>2026-03-29T08:55:43.346Z</time></trkpt><trkpt lat="45.1425365" lon="9.1199801"><ele>64.0</ele><time>2026-03-29T08:55:44.36Z</time></trkpt><trkpt lat="45.1423767" lon="9.1198846"><ele>63.666666666666664</ele><time>2026-03-29T08:55:46.35Z</time></trkpt><trkpt lat="45.1420909" lon="9.1199891"><ele>63.33333333333333</ele><time>2026-03-29T08:55:49.34Z</time></trkpt><trkpt lat="45.1419814" lon="9.1200154"><ele>63.0</ele><time>2026-03-29T08:55:50.342Z</time></trkpt><trkpt lat="45.1418632" lon="9.1200206"><ele>63.0</ele><time>2026-03-29T08:55:51.343Z</time></trkpt><trkpt lat="45.1417407" lon="9.1200146"><ele>63.0</ele><time>2026-03-29T08:55:52.344Z</time></trkpt><trkpt lat="45.1414842" lon="9.1199788"><ele>63.0</ele><time>2026-03-29T08:55:54.356Z</time></trkpt><trkpt lat="45.1412125" lon="9.1199361"><ele>63.0</ele><time>2026-03-29T08:55:56.348Z</time></trkpt><trkpt lat="45.1409341" lon="9.1198994"><ele>63.0</ele><time>2026-03-29T08:55:58.337Z</time></trkpt><trkpt lat="45.1407925" lon="9.1198839"><ele>63.0</ele><time>2026-03-29T08:55:59.339Z</time></trkpt><trkpt lat="45.1406464" lon="9.1198709"><ele>62.33333333333333</ele><time>2026-03-29T08:56:00.344Z</time></trkpt><trkpt lat="45.1404999" lon="9.1198616"><ele>61.666666666666664</ele><time>2026-03-29T08:56:01.355Z</time></trkpt><trkpt lat="45.140352" lon="9.1198534"><ele>61.0</ele><time>2026-03-29T08:56:02.354Z</time></trkpt><trkpt lat="45.1400537" lon="9.1198416"><ele>61.5</ele><time>2026-03-29T08:56:04.348Z</time></trkpt><trkpt lat="45.1397557" lon="9.1198306"><ele>62.0</ele><time>2026-03-29T08:56:06.345Z</time></trkpt><trkpt lat="45.1394557" lon="9.1198243"><ele>62.0</ele><time>2026-03-29T08:56:08.34Z</time></trkpt><trkpt lat="45.1393065" lon="9.1198189"><ele>62.0</ele><time>2026-03-29T08:56:09.351Z</time></trkpt><trkpt lat="45.1390146" lon="9.1198163"><ele>62.0</ele><time>2026-03-29T08:56:11.34Z</time></trkpt><trkpt lat="45.1387236" lon="9.1198131"><ele>62.0</ele><time>2026-03-29T08:56:13.354Z</time></trkpt><trkpt lat="45.1384212" lon="9.1197963"><ele>62.0</ele><time>2026-03-29T08:56:15.346Z</time></trkpt><trkpt lat="45.1382704" lon="9.1197879"><ele>61.0</ele><time>2026-03-29T08:56:16.349Z</time></trkpt><trkpt lat="45.1379697" lon="9.1197674"><ele>60.0</ele><time>2026-03-29T08:56:18.342Z</time></trkpt><trkpt lat="45.1378185" lon="9.1197556"><ele>60.0</ele><time>2026-03-29T08:56:19.369Z</time></trkpt><trkpt lat="45.1375174" lon="9.1197351"><ele>60.0</ele><time>2026-03-29T08:56:21.363Z</time></trkpt><trkpt lat="45.1372084" lon="9.1197198"><ele>60.5</ele><time>2026-03-29T08:56:23.338Z</time></trkpt><trkpt lat="45.1370549" lon="9.1197111"><ele>61.0</ele><time>2026-03-29T08:56:24.378Z</time></trkpt><trkpt lat="45.1367489" lon="9.1197063"><ele>61.0</ele><time>2026-03-29T08:56:26.334Z</time></trkpt><trkpt lat="45.136597" lon="9.1197088"><ele>61.0</ele><time>2026-03-29T08:56:27.351Z</time></trkpt><trkpt lat="45.1362929" lon="9.1197059"><ele>62.0</ele><time>2026-03-29T08:56:29.342Z</time></trkpt><trkpt lat="45.1361417" lon="9.1197019"><ele>63.0</ele><time>2026-03-29T08:56:30.345Z</time></trkpt><trkpt lat="45.1358422" lon="9.1196929"><ele>62.5</ele><time>2026-03-29T08:56:32.341Z</time></trkpt><trkpt lat="45.1355444" lon="9.1196836"><ele>62.0</ele><time>2026-03-29T08:56:34.347Z</time></trkpt><trkpt lat="45.1352512" lon="9.1196636"><ele>62.0</ele><time>2026-03-29T08:56:36.343Z</time></trkpt><trkpt lat="45.1351047" lon="9.1196546"><ele>62.0</ele><time>2026-03-29T08:56:37.35Z</time></trkpt><trkpt lat="45.134817" lon="9.1196421"><ele>62.0</ele><time>2026-03-29T08:56:39.353Z</time></trkpt><trkpt lat="45.1345379" lon="9.1196288"><ele>61.5</ele><time>2026-03-29T08:56:41.345Z</time></trkpt><trkpt lat="45.1342557" lon="9.1196174"><ele>61.0</ele><time>2026-03-29T08:56:43.342Z</time></trkpt><trkpt lat="45.1339706" lon="9.1196019"><ele>61.666666666666664</ele><time>2026-03-29T08:56:45.338Z</time></trkpt><trkpt lat="45.1338249" lon="9.1195968"><ele>62.33333333333333</ele><time>2026-03-29T08:56:46.349Z</time></trkpt><trkpt lat="45.1336774" lon="9.1195898"><ele>63.0</ele><time>2026-03-29T08:56:47.349Z</time></trkpt><trkpt lat="45.1333796" lon="9.1195774"><ele>63.0</ele><time>2026-03-29T08:56:49.351Z</time></trkpt><trkpt lat="45.1332262" lon="9.1195681"><ele>63.0</ele><time>2026-03-29T08:56:50.362Z</time></trkpt><trkpt lat="45.1329099" lon="9.1195484"><ele>62.5</ele><time>2026-03-29T08:56:52.346Z</time></trkpt><trkpt lat="45.1325836" lon="9.1195309"><ele>62.0</ele><time>2026-03-29T08:56:54.35Z</time></trkpt><trkpt lat="45.1324185" lon="9.1195256"><ele>61.0</ele><time>2026-03-29T08:56:55.352Z</time></trkpt><trkpt lat="45.1320856" lon="9.1195198"><ele>60.0</ele><time>2026-03-29T08:56:57.341Z</time></trkpt><trkpt lat="45.1319184" lon="9.1195166"><ele>60.0</ele><time>2026-03-29T08:56:58.35Z</time></trkpt><trkpt lat="45.1315822" lon="9.1195023"><ele>60.0</ele><time>2026-03-29T08:57:00.341Z</time></trkpt><trkpt lat="45.1314136" lon="9.1194923"><ele>60.66666666666667</ele><time>2026-03-29T08:57:01.345Z</time></trkpt><trkpt lat="45.1312436" lon="9.1194819"><ele>61.333333333333336</ele><time>2026-03-29T08:57:02.346Z</time></trkpt><trkpt lat="45.1310717" lon="9.1194724"><ele>62.0</ele><time>2026-03-29T08:57:03.349Z</time></trkpt><trkpt lat="45.1307277" lon="9.1194573"><ele>62.0</ele><time>2026-03-29T08:57:05.346Z</time></trkpt><trkpt lat="45.1305556" lon="9.1194504"><ele>62.0</ele><time>2026-03-29T08:57:06.348Z</time></trkpt><trkpt lat="45.1302134" lon="9.1194391"><ele>62.5</ele><time>2026-03-29T08:57:08.346Z</time></trkpt><trkpt lat="45.1298707" lon="9.1194261"><ele>63.0</ele><time>2026-03-29T08:57:10.341Z</time></trkpt><trkpt lat="45.1296987" lon="9.1194199"><ele>63.0</ele><time>2026-03-29T08:57:11.345Z</time></trkpt><trkpt lat="45.1293531" lon="9.1194056"><ele>63.0</ele><time>2026-03-29T08:57:13.34Z</time></trkpt><trkpt lat="45.1291792" lon="9.1193993"><ele>63.33333333333333</ele><time>2026-03-29T08:57:14.349Z</time></trkpt><trkpt lat="45.1290061" lon="9.1193961"><ele>63.666666666666664</ele><time>2026-03-29T08:57:15.351Z</time></trkpt><trkpt lat="45.1288322" lon="9.1193893"><ele>64.0</ele><time>2026-03-29T08:57:16.353Z</time></trkpt><trkpt lat="45.1284812" lon="9.1193708"><ele>64.0</ele><time>2026-03-29T08:57:18.362Z</time></trkpt><trkpt lat="45.1283056" lon="9.1193628"><ele>64.0</ele><time>2026-03-29T08:57:19.441Z</time></trkpt><trkpt lat="45.1279601" lon="9.1193483"><ele>63.0</ele><time>2026-03-29T08:57:21.353Z</time></trkpt><trkpt lat="45.1276406" lon="9.1193344"><ele>62.0</ele><time>2026-03-29T08:57:23.353Z</time></trkpt><trkpt lat="45.1274871" lon="9.1193261"><ele>62.333333333333336</ele><time>2026-03-29T08:57:24.354Z</time></trkpt><trkpt lat="45.1271886" lon="9.1193114"><ele>62.66666666666667</ele><time>2026-03-29T08:57:26.335Z</time></trkpt><trkpt lat="45.1270524" lon="9.1193064"><ele>63.0</ele><time>2026-03-29T08:57:27.357Z</time></trkpt><trkpt lat="45.1269299" lon="9.1193024"><ele>63.0</ele><time>2026-03-29T08:57:28.359Z</time></trkpt><trkpt lat="45.1268244" lon="9.1192999"><ele>63.0</ele><time>2026-03-29T08:57:29.359Z</time></trkpt><trkpt lat="45.1266384" lon="9.1192928"><ele>63.0</ele><time>2026-03-29T08:57:31.338Z</time></trkpt><trkpt lat="45.1265537" lon="9.1192876"><ele>63.0</ele><time>2026-03-29T08:57:32.36Z</time></trkpt><trkpt lat="45.1263879" lon="9.1192838"><ele>63.33333333333333</ele><time>2026-03-29T08:57:34.355Z</time></trkpt><trkpt lat="45.1262116" lon="9.1192788"><ele>63.666666666666664</ele><time>2026-03-29T08:57:36.365Z</time></trkpt><trkpt lat="45.1260137" lon="9.1192663"><ele>64.0</ele><time>2026-03-29T08:57:38.364Z</time></trkpt><trkpt lat="45.1257847" lon="9.1192558"><ele>64.0</ele><time>2026-03-29T08:57:40.364Z</time></trkpt><trkpt lat="45.1255371" lon="9.1192314"><ele>64.0</ele><time>2026-03-29T08:57:42.364Z</time></trkpt><trkpt lat="45.1252802" lon="9.1191881"><ele>64.0</ele><time>2026-03-29T08:57:44.384Z</time></trkpt><trkpt lat="45.1250264" lon="9.1191256"><ele>64.0</ele><time>2026-03-29T08:57:46.359Z</time></trkpt><trkpt lat="45.1249044" lon="9.1190904"><ele>64.0</ele><time>2026-03-29T08:57:47.366Z</time></trkpt><trkpt lat="45.1247839" lon="9.1190516"><ele>64.0</ele><time>2026-03-29T08:57:48.371Z</time></trkpt><trkpt lat="45.1245362" lon="9.1189624"><ele>64.0</ele><time>2026-03-29T08:57:50.358Z</time></trkpt><trkpt lat="45.1244096" lon="9.1189088"><ele>64.0</ele><time>2026-03-29T08:57:51.361Z</time></trkpt><trkpt lat="45.1242806" lon="9.1188486"><ele>63.5</ele><time>2026-03-29T08:57:52.367Z</time></trkpt><trkpt lat="45.1240199" lon="9.1186979"><ele>63.0</ele><time>2026-03-29T08:57:54.356Z</time></trkpt><trkpt lat="45.1237604" lon="9.1185191"><ele>63.0</ele><time>2026-03-29T08:57:56.354Z</time></trkpt><trkpt lat="45.1236345" lon="9.1184219"><ele>63.0</ele><time>2026-03-29T08:57:57.358Z</time></trkpt><trkpt lat="45.1235096" lon="9.1183186"><ele>63.0</ele><time>2026-03-29T08:57:58.373Z</time></trkpt><trkpt lat="45.1232614" lon="9.1180833"><ele>62.5</ele><time>2026-03-29T08:58:00.369Z</time></trkpt><trkpt lat="45.1230144" lon="9.1178223"><ele>62.0</ele><time>2026-03-29T08:58:02.354Z</time></trkpt><trkpt lat="45.1228914" lon="9.1176908"><ele>62.0</ele><time>2026-03-29T08:58:03.357Z</time></trkpt><trkpt lat="45.1227732" lon="9.1175641"><ele>62.0</ele><time>2026-03-29T08:58:04.357Z</time></trkpt><trkpt lat="45.1226609" lon="9.1174436"><ele>62.0</ele><time>2026-03-29T08:58:05.358Z</time></trkpt><trkpt lat="45.1224417" lon="9.1172151"><ele>61.75</ele><time>2026-03-29T08:58:07.348Z</time></trkpt><trkpt lat="45.1223312" lon="9.1171023"><ele>61.5</ele><time>2026-03-29T08:58:08.355Z</time></trkpt><trkpt lat="45.1222211" lon="9.1169901"><ele>61.25</ele><time>2026-03-29T08:58:09.357Z</time></trkpt><trkpt lat="45.1221086" lon="9.1168781"><ele>61.0</ele><time>2026-03-29T08:58:10.363Z</time></trkpt><trkpt lat="45.1218782" lon="9.1166486"><ele>61.5</ele><time>2026-03-29T08:58:12.349Z</time></trkpt><trkpt lat="45.1216481" lon="9.1164226"><ele>62.0</ele><time>2026-03-29T08:58:14.367Z</time></trkpt><trkpt lat="45.1214151" lon="9.1161958"><ele>62.0</ele><time>2026-03-29T08:58:16.342Z</time></trkpt><trkpt lat="45.1211861" lon="9.1159651"><ele>62.0</ele><time>2026-03-29T08:58:18.346Z</time></trkpt><trkpt lat="45.1210714" lon="9.1158479"><ele>62.0</ele><time>2026-03-29T08:58:19.347Z</time></trkpt><trkpt lat="45.1209569" lon="9.1157293"><ele>62.5</ele><time>2026-03-29T08:58:20.346Z</time></trkpt><trkpt lat="45.1207236" lon="9.1154908"><ele>63.0</ele><time>2026-03-29T08:58:22.357Z</time></trkpt><trkpt lat="45.1205184" lon="9.1152781"><ele>63.0</ele><time>2026-03-29T08:58:24.353Z</time></trkpt><trkpt lat="45.1204307" lon="9.1151868"><ele>63.0</ele><time>2026-03-29T08:58:25.354Z</time></trkpt><trkpt lat="45.1203397" lon="9.1150946"><ele>63.0</ele><time>2026-03-29T08:58:26.356Z</time></trkpt><trkpt lat="45.1202444" lon="9.1149958"><ele>63.0</ele><time>2026-03-29T08:58:27.359Z</time></trkpt><trkpt lat="45.1200429" lon="9.1147853"><ele>63.33333333333333</ele><time>2026-03-29T08:58:29.356Z</time></trkpt><trkpt lat="45.1199376" lon="9.1146761"><ele>63.666666666666664</ele><time>2026-03-29T08:58:30.361Z</time></trkpt><trkpt lat="45.1197197" lon="9.1144573"><ele>64.0</ele><time>2026-03-29T08:58:32.343Z</time></trkpt><trkpt lat="45.1196056" lon="9.1143508"><ele>63.0</ele><time>2026-03-29T08:58:33.348Z</time></trkpt><trkpt lat="45.1193674" lon="9.1141571"><ele>62.0</ele><time>2026-03-29T08:58:35.389Z</time></trkpt><trkpt lat="45.1191106" lon="9.1139918"><ele>62.333333333333336</ele><time>2026-03-29T08:58:37.361Z</time></trkpt><trkpt lat="45.1189752" lon="9.1139216"><ele>62.66666666666667</ele><time>2026-03-29T08:58:38.362Z</time></trkpt><trkpt lat="45.1186986" lon="9.1138044"><ele>63.0</ele><time>2026-03-29T08:58:40.352Z</time></trkpt><trkpt lat="45.1184286" lon="9.1137196"><ele>63.5</ele><time>2026-03-29T08:58:42.358Z</time></trkpt><trkpt lat="45.1181786" lon="9.1136679"><ele>64.0</ele><time>2026-03-29T08:58:44.359Z</time></trkpt><trkpt lat="45.1179427" lon="9.1136408"><ele>64.0</ele><time>2026-03-29T08:58:46.343Z</time></trkpt><trkpt lat="45.1178254" lon="9.1136348"><ele>64.0</ele><time>2026-03-29T08:58:47.355Z</time></trkpt><trkpt lat="45.1175924" lon="9.1136404"><ele>64.0</ele><time>2026-03-29T08:58:49.346Z</time></trkpt><trkpt lat="45.1173596" lon="9.1136608"><ele>63.33333333333333</ele><time>2026-03-29T08:58:51.354Z</time></trkpt><trkpt lat="45.1172426" lon="9.1136744"><ele>62.66666666666667</ele><time>2026-03-29T08:58:52.354Z</time></trkpt><trkpt lat="45.1170142" lon="9.1137048"><ele>62.0</ele><time>2026-03-29T08:58:54.349Z</time></trkpt><trkpt lat="45.1167834" lon="9.1137416"><ele>61.5</ele><time>2026-03-29T08:58:56.349Z</time></trkpt><trkpt lat="45.1165454" lon="9.1138094"><ele>61.0</ele><time>2026-03-29T08:58:58.35Z</time></trkpt><trkpt lat="45.1162907" lon="9.1138573"><ele>61.0</ele><time>2026-03-29T08:59:00.344Z</time></trkpt><trkpt lat="45.1161612" lon="9.1138734"><ele>61.0</ele><time>2026-03-29T08:59:01.343Z</time></trkpt><trkpt lat="45.1158994" lon="9.1139116"><ele>61.0</ele><time>2026-03-29T08:59:03.354Z</time></trkpt><trkpt lat="45.1156257" lon="9.1139509"><ele>61.5</ele><time>2026-03-29T08:59:05.345Z</time></trkpt><trkpt lat="45.1153412" lon="9.1139928"><ele>62.0</ele><time>2026-03-29T08:59:07.353Z</time></trkpt><trkpt lat="45.1150511" lon="9.1140369"><ele>62.0</ele><time>2026-03-29T08:59:09.341Z</time></trkpt><trkpt lat="45.1149074" lon="9.1140596"><ele>62.0</ele><time>2026-03-29T08:59:10.342Z</time></trkpt><trkpt lat="45.1147629" lon="9.1140794"><ele>62.0</ele><time>2026-03-29T08:59:11.358Z</time></trkpt><trkpt lat="45.1144705" lon="9.1141171"><ele>61.75</ele><time>2026-03-29T08:59:13.343Z</time></trkpt><trkpt lat="45.1143247" lon="9.1141368"><ele>61.5</ele><time>2026-03-29T08:59:14.344Z</time></trkpt><trkpt lat="45.1141807" lon="9.1141579"><ele>61.25</ele><time>2026-03-29T08:59:15.347Z</time></trkpt><trkpt lat="45.1140369" lon="9.1141791"><ele>61.0</ele><time>2026-03-29T08:59:16.348Z</time></trkpt><trkpt lat="45.1137504" lon="9.1142198"><ele>61.666666666666664</ele><time>2026-03-29T08:59:18.344Z</time></trkpt><trkpt lat="45.1136059" lon="9.1142371"><ele>62.33333333333333</ele><time>2026-03-29T08:59:19.343Z</time></trkpt><trkpt lat="45.1134579" lon="9.1142556"><ele>63.0</ele><time>2026-03-29T08:59:20.347Z</time></trkpt><trkpt lat="45.1131566" lon="9.1142941"><ele>63.66666666666667</ele><time>2026-03-29T08:59:22.352Z</time></trkpt><trkpt lat="45.1128602" lon="9.1143351"><ele>64.33333333333334</ele><time>2026-03-29T08:59:24.341Z</time></trkpt><trkpt lat="45.1127162" lon="9.1143553"><ele>65.0</ele><time>2026-03-29T08:59:25.359Z</time></trkpt><trkpt lat="45.1124335" lon="9.1144026"><ele>64.33333333333334</ele><time>2026-03-29T08:59:27.342Z</time></trkpt><trkpt lat="45.1122946" lon="9.1144253"><ele>63.66666666666667</ele><time>2026-03-29T08:59:28.345Z</time></trkpt><trkpt lat="45.1120156" lon="9.1144643"><ele>63.0</ele><time>2026-03-29T08:59:30.352Z</time></trkpt><trkpt lat="45.1117375" lon="9.1145054"><ele>63.0</ele><time>2026-03-29T08:59:32.345Z</time></trkpt><trkpt lat="45.1116009" lon="9.1145231"><ele>63.0</ele><time>2026-03-29T08:59:33.354Z</time></trkpt><trkpt lat="45.1114721" lon="9.1145389"><ele>63.0</ele><time>2026-03-29T08:59:34.36Z</time></trkpt><trkpt lat="45.1113507" lon="9.1145469"><ele>63.0</ele><time>2026-03-29T08:59:35.36Z</time></trkpt><trkpt lat="45.1111152" lon="9.1145273"><ele>63.33333333333333</ele><time>2026-03-29T08:59:37.362Z</time></trkpt><trkpt lat="45.1108885" lon="9.1144621"><ele>63.666666666666664</ele><time>2026-03-29T08:59:39.359Z</time></trkpt><trkpt lat="45.1107747" lon="9.1144314"><ele>64.0</ele><time>2026-03-29T08:59:40.363Z</time></trkpt><trkpt lat="45.1105444" lon="9.1143926"><ele>64.0</ele><time>2026-03-29T08:59:42.362Z</time></trkpt><trkpt lat="45.1104286" lon="9.1143944"><ele>64.0</ele><time>2026-03-29T08:59:43.363Z</time></trkpt><trkpt lat="45.1101919" lon="9.1144253"><ele>64.0</ele><time>2026-03-29T08:59:45.349Z</time></trkpt><trkpt lat="45.1099556" lon="9.1144593"><ele>63.0</ele><time>2026-03-29T08:59:47.357Z</time></trkpt><trkpt lat="45.1097157" lon="9.1144981"><ele>62.0</ele><time>2026-03-29T08:59:49.344Z</time></trkpt><trkpt lat="45.1095927" lon="9.1145164"><ele>61.0</ele><time>2026-03-29T08:59:50.346Z</time></trkpt><trkpt lat="45.1094687" lon="9.1145331"><ele>61.0</ele><time>2026-03-29T08:59:51.349Z</time></trkpt><trkpt lat="45.1093424" lon="9.1145498"><ele>61.0</ele><time>2026-03-29T08:59:52.353Z</time></trkpt><trkpt lat="45.1092147" lon="9.1145664"><ele>61.0</ele><time>2026-03-29T08:59:53.354Z</time></trkpt><trkpt lat="45.1089577" lon="9.1146036"><ele>61.0</ele><time>2026-03-29T08:59:55.357Z</time></trkpt><trkpt lat="45.1087031" lon="9.1146391"><ele>61.0</ele><time>2026-03-29T08:59:57.352Z</time></trkpt><trkpt lat="45.1084416" lon="9.1146764"><ele>61.0</ele><time>2026-03-29T08:59:59.35Z</time></trkpt><trkpt lat="45.1083119" lon="9.1146951"><ele>61.0</ele><time>2026-03-29T09:00:00.351Z</time></trkpt><trkpt lat="45.1080536" lon="9.1147313"><ele>61.0</ele><time>2026-03-29T09:00:02.344Z</time></trkpt><trkpt lat="45.1079234" lon="9.1147493"><ele>60.5</ele><time>2026-03-29T09:00:03.346Z</time></trkpt><trkpt lat="45.1076659" lon="9.1147846"><ele>60.0</ele><time>2026-03-29T09:00:05.345Z</time></trkpt><trkpt lat="45.1074059" lon="9.1148216"><ele>59.5</ele><time>2026-03-29T09:00:07.356Z</time></trkpt><trkpt lat="45.1071374" lon="9.1148594"><ele>59.0</ele><time>2026-03-29T09:00:09.346Z</time></trkpt><trkpt lat="45.1068671" lon="9.1148949"><ele>57.66666666666667</ele><time>2026-03-29T09:00:11.344Z</time></trkpt><trkpt lat="45.1067312" lon="9.1149144"><ele>56.33333333333333</ele><time>2026-03-29T09:00:12.351Z</time></trkpt><trkpt lat="45.1064567" lon="9.1149508"><ele>55.0</ele><time>2026-03-29T09:00:14.345Z</time></trkpt><trkpt lat="45.1063192" lon="9.1149693"><ele>53.666666666666664</ele><time>2026-03-29T09:00:15.348Z</time></trkpt><trkpt lat="45.1060426" lon="9.1150108"><ele>52.33333333333333</ele><time>2026-03-29T09:00:17.344Z</time></trkpt><trkpt lat="45.1059036" lon="9.1150301"><ele>51.0</ele><time>2026-03-29T09:00:18.343Z</time></trkpt><trkpt lat="45.1057637" lon="9.1150501"><ele>51.66666666666667</ele><time>2026-03-29T09:00:19.345Z</time></trkpt><trkpt lat="45.1056254" lon="9.1150691"><ele>52.333333333333336</ele><time>2026-03-29T09:00:20.349Z</time></trkpt><trkpt lat="45.1053481" lon="9.1151114"><ele>53.0</ele><time>2026-03-29T09:00:22.344Z</time></trkpt><trkpt lat="45.1052086" lon="9.1151321"><ele>53.0</ele><time>2026-03-29T09:00:23.345Z</time></trkpt><trkpt lat="45.1049254" lon="9.1151718"><ele>53.0</ele><time>2026-03-29T09:00:25.345Z</time></trkpt><trkpt lat="45.1046371" lon="9.1152088"><ele>53.0</ele><time>2026-03-29T09:00:27.362Z</time></trkpt><trkpt lat="45.1043519" lon="9.1152508"><ele>53.0</ele><time>2026-03-29T09:00:29.343Z</time></trkpt><trkpt lat="45.1042099" lon="9.1152739"><ele>53.0</ele><time>2026-03-29T09:00:30.346Z</time></trkpt><trkpt lat="45.1039259" lon="9.1153124"><ele>56.0</ele><time>2026-03-29T09:00:32.343Z</time></trkpt><trkpt lat="45.1037827" lon="9.1153319"><ele>59.0</ele><time>2026-03-29T09:00:33.35Z</time></trkpt><trkpt lat="45.1036411" lon="9.1153516"><ele>62.0</ele><time>2026-03-29T09:00:34.353Z</time></trkpt><trkpt lat="45.1033719" lon="9.1153986"><ele>62.0</ele><time>2026-03-29T09:00:36.342Z</time></trkpt><trkpt lat="45.1032479" lon="9.1154328"><ele>62.0</ele><time>2026-03-29T09:00:37.35Z</time></trkpt><trkpt lat="45.1030031" lon="9.1155419"><ele>62.0</ele><time>2026-03-29T09:00:39.346Z</time></trkpt><trkpt lat="45.1028762" lon="9.1156158"><ele>63.333333333333336</ele><time>2026-03-29T09:00:40.369Z</time></trkpt><trkpt lat="45.1026036" lon="9.1157489"><ele>64.66666666666667</ele><time>2026-03-29T09:00:42.351Z</time></trkpt><trkpt lat="45.1024582" lon="9.1157954"><ele>66.0</ele><time>2026-03-29T09:00:43.371Z</time></trkpt><trkpt lat="45.1021624" lon="9.1158599"><ele>66.0</ele><time>2026-03-29T09:00:45.342Z</time></trkpt><trkpt lat="45.1020107" lon="9.1158848"><ele>66.0</ele><time>2026-03-29T09:00:46.394Z</time></trkpt><trkpt lat="45.1017051" lon="9.1159343"><ele>65.5</ele><time>2026-03-29T09:00:48.348Z</time></trkpt><trkpt lat="45.1013984" lon="9.1159793"><ele>65.0</ele><time>2026-03-29T09:00:50.362Z</time></trkpt><trkpt lat="45.1010872" lon="9.1160198"><ele>65.0</ele><time>2026-03-29T09:00:52.363Z</time></trkpt><trkpt lat="45.1007756" lon="9.1160638"><ele>65.0</ele><time>2026-03-29T09:00:54.366Z</time></trkpt><trkpt lat="45.1004792" lon="9.1161046"><ele>65.0</ele><time>2026-03-29T09:00:56.345Z</time></trkpt><trkpt lat="45.1003404" lon="9.1161244"><ele>65.0</ele><time>2026-03-29T09:00:57.355Z</time></trkpt><trkpt lat="45.1000654" lon="9.1161306"><ele>65.0</ele><time>2026-03-29T09:00:59.343Z</time></trkpt><trkpt lat="45.0997977" lon="9.1161513"><ele>64.5</ele><time>2026-03-29T09:01:01.344Z</time></trkpt><trkpt lat="45.0996604" lon="9.1161711"><ele>64.0</ele><time>2026-03-29T09:01:02.344Z</time></trkpt><trkpt lat="45.0995204" lon="9.1161901"><ele>63.5</ele><time>2026-03-29T09:01:03.347Z</time></trkpt><trkpt lat="45.0993797" lon="9.1162106"><ele>63.0</ele><time>2026-03-29T09:01:04.349Z</time></trkpt><trkpt lat="45.0992372" lon="9.1162323"><ele>63.0</ele><time>2026-03-29T09:01:05.35Z</time></trkpt><trkpt lat="45.0990931" lon="9.1162531"><ele>63.0</ele><time>2026-03-29T09:01:06.352Z</time></trkpt><trkpt lat="45.098804" lon="9.1162916"><ele>63.0</ele><time>2026-03-29T09:01:08.364Z</time></trkpt><trkpt lat="45.0985107" lon="9.1163316"><ele>63.0</ele><time>2026-03-29T09:01:10.356Z</time></trkpt><trkpt lat="45.0982135" lon="9.1163723"><ele>63.0</ele><time>2026-03-29T09:01:12.349Z</time></trkpt><trkpt lat="45.0980649" lon="9.1163934"><ele>63.0</ele><time>2026-03-29T09:01:13.35Z</time></trkpt><trkpt lat="45.0979167" lon="9.1164139"><ele>63.0</ele><time>2026-03-29T09:01:14.349Z</time></trkpt><trkpt lat="45.0977679" lon="9.1164344"><ele>63.0</ele><time>2026-03-29T09:01:15.351Z</time></trkpt><trkpt lat="45.0974705" lon="9.1164771"><ele>63.0</ele><time>2026-03-29T09:01:17.343Z</time></trkpt><trkpt lat="45.0973226" lon="9.1164993"><ele>63.0</ele><time>2026-03-29T09:01:18.348Z</time></trkpt><trkpt lat="45.0970272" lon="9.1165478"><ele>63.0</ele><time>2026-03-29T09:01:20.35Z</time></trkpt><trkpt lat="45.0968787" lon="9.1165751"><ele>63.0</ele><time>2026-03-29T09:01:21.35Z</time></trkpt><trkpt lat="45.0965776" lon="9.1166361"><ele>63.5</ele><time>2026-03-29T09:01:23.351Z</time></trkpt><trkpt lat="45.0962737" lon="9.1167054"><ele>64.0</ele><time>2026-03-29T09:01:25.352Z</time></trkpt><trkpt lat="45.0959652" lon="9.1167928"><ele>64.0</ele><time>2026-03-29T09:01:27.346Z</time></trkpt><trkpt lat="45.0958099" lon="9.1168418"><ele>64.0</ele><time>2026-03-29T09:01:28.351Z</time></trkpt><trkpt lat="45.0954984" lon="9.1169556"><ele>64.0</ele><time>2026-03-29T09:01:30.352Z</time></trkpt><trkpt lat="45.0951861" lon="9.1170859"><ele>64.0</ele><time>2026-03-29T09:01:32.348Z</time></trkpt><trkpt lat="45.0948704" lon="9.1172246"><ele>64.0</ele><time>2026-03-29T09:01:34.343Z</time></trkpt><trkpt lat="45.0947131" lon="9.1172926"><ele>64.0</ele><time>2026-03-29T09:01:35.346Z</time></trkpt><trkpt lat="45.0943972" lon="9.1174368"><ele>62.5</ele><time>2026-03-29T09:01:37.345Z</time></trkpt><trkpt lat="45.0940806" lon="9.1175904"><ele>61.0</ele><time>2026-03-29T09:01:39.347Z</time></trkpt><trkpt lat="45.0937649" lon="9.1177389"><ele>61.0</ele><time>2026-03-29T09:01:41.343Z</time></trkpt><trkpt lat="45.0934474" lon="9.1178951"><ele>61.0</ele><time>2026-03-29T09:01:43.34Z</time></trkpt><trkpt lat="45.0932896" lon="9.1179748"><ele>60.5</ele><time>2026-03-29T09:01:44.353Z</time></trkpt><trkpt lat="45.0929771" lon="9.1181343"><ele>60.0</ele><time>2026-03-29T09:01:46.354Z</time></trkpt><trkpt lat="45.092671" lon="9.1182881"><ele>61.0</ele><time>2026-03-29T09:01:48.343Z</time></trkpt><trkpt lat="45.0923674" lon="9.1184516"><ele>62.0</ele><time>2026-03-29T09:01:50.346Z</time></trkpt><trkpt lat="45.0922162" lon="9.1185309"><ele>62.0</ele><time>2026-03-29T09:01:51.352Z</time></trkpt><trkpt lat="45.0919304" lon="9.1186736"><ele>62.0</ele><time>2026-03-29T09:01:53.346Z</time></trkpt><trkpt lat="45.0917986" lon="9.1187314"><ele>62.0</ele><time>2026-03-29T09:01:54.347Z</time></trkpt><trkpt lat="45.0915501" lon="9.1188006"><ele>62.0</ele><time>2026-03-29T09:01:56.353Z</time></trkpt><trkpt lat="45.0913207" lon="9.1187896"><ele>62.0</ele><time>2026-03-29T09:01:58.345Z</time></trkpt><trkpt lat="45.0911359" lon="9.1186463"><ele>62.0</ele><time>2026-03-29T09:02:00.349Z</time></trkpt><trkpt lat="45.0910656" lon="9.1185494"><ele>62.0</ele><time>2026-03-29T09:02:01.349Z</time></trkpt><trkpt lat="45.0909872" lon="9.1184791"><ele>62.0</ele><time>2026-03-29T09:02:02.358Z</time></trkpt><trkpt lat="45.0908049" lon="9.1184621"><ele>62.0</ele><time>2026-03-29T09:02:04.346Z</time></trkpt><trkpt lat="45.090717" lon="9.1185149"><ele>62.0</ele><time>2026-03-29T09:02:05.357Z</time></trkpt><trkpt lat="45.0905642" lon="9.1186866"><ele>61.66666666666667</ele><time>2026-03-29T09:02:07.349Z</time></trkpt><trkpt lat="45.0904721" lon="9.1187343"><ele>61.33333333333333</ele><time>2026-03-29T09:02:08.366Z</time></trkpt><trkpt lat="45.0902476" lon="9.1187371"><ele>61.0</ele><time>2026-03-29T09:02:10.35Z</time></trkpt><trkpt lat="45.0901184" lon="9.1187314"><ele>60.5</ele><time>2026-03-29T09:02:11.362Z</time></trkpt><trkpt lat="45.089863" lon="9.1187213"><ele>60.0</ele><time>2026-03-29T09:02:13.346Z</time></trkpt><trkpt lat="45.0896132" lon="9.1187064"><ele>60.0</ele><time>2026-03-29T09:02:15.343Z</time></trkpt><trkpt lat="45.0894849" lon="9.1186958"><ele>60.0</ele><time>2026-03-29T09:02:16.341Z</time></trkpt><trkpt lat="45.0893539" lon="9.1186854"><ele>60.0</ele><time>2026-03-29T09:02:17.345Z</time></trkpt><trkpt lat="45.0892209" lon="9.1186743"><ele>60.0</ele><time>2026-03-29T09:02:18.346Z</time></trkpt><trkpt lat="45.0889471" lon="9.1186443"><ele>59.5</ele><time>2026-03-29T09:02:20.351Z</time></trkpt><trkpt lat="45.0888035" lon="9.1186183"><ele>59.0</ele><time>2026-03-29T09:02:21.353Z</time></trkpt><trkpt lat="45.0885016" lon="9.1185459"><ele>59.0</ele><time>2026-03-29T09:02:23.346Z</time></trkpt><trkpt lat="45.0883547" lon="9.1185073"><ele>59.0</ele><time>2026-03-29T09:02:24.364Z</time></trkpt><trkpt lat="45.0880987" lon="9.1183893"><ele>59.0</ele><time>2026-03-29T09:02:26.349Z</time></trkpt><trkpt lat="45.0879986" lon="9.1182953"><ele>60.0</ele><time>2026-03-29T09:02:27.348Z</time></trkpt><trkpt lat="45.0878965" lon="9.1182184"><ele>61.0</ele><time>2026-03-29T09:02:28.371Z</time></trkpt><trkpt lat="45.0876594" lon="9.1182019"><ele>62.0</ele><time>2026-03-29T09:02:30.345Z</time></trkpt><trkpt lat="45.0875246" lon="9.1181913"><ele>61.5</ele><time>2026-03-29T09:02:31.361Z</time></trkpt><trkpt lat="45.0872414" lon="9.1180699"><ele>61.0</ele><time>2026-03-29T09:02:33.354Z</time></trkpt><trkpt lat="45.0869496" lon="9.1178551"><ele>61.0</ele><time>2026-03-29T09:02:35.355Z</time></trkpt><trkpt lat="45.0866669" lon="9.1175876"><ele>61.0</ele><time>2026-03-29T09:02:37.35Z</time></trkpt><trkpt lat="45.0864077" lon="9.1172781"><ele>61.0</ele><time>2026-03-29T09:02:39.344Z</time></trkpt><trkpt lat="45.0861496" lon="9.1169251"><ele>61.0</ele><time>2026-03-29T09:02:41.343Z</time></trkpt><trkpt lat="45.0858882" lon="9.1165533"><ele>61.0</ele><time>2026-03-29T09:02:43.338Z</time></trkpt><trkpt lat="45.0857581" lon="9.1163659"><ele>61.0</ele><time>2026-03-29T09:02:44.345Z</time></trkpt><trkpt lat="45.0854934" lon="9.1159904"><ele>61.0</ele><time>2026-03-29T09:02:46.347Z</time></trkpt><trkpt lat="45.0853587" lon="9.1158019"><ele>61.0</ele><time>2026-03-29T09:02:47.347Z</time></trkpt><trkpt lat="45.0852224" lon="9.1156121"><ele>61.0</ele><time>2026-03-29T09:02:48.348Z</time></trkpt><trkpt lat="45.0850836" lon="9.1154188"><ele>61.0</ele><time>2026-03-29T09:02:49.35Z</time></trkpt><trkpt lat="45.0849427" lon="9.1152211"><ele>61.0</ele><time>2026-03-29T09:02:50.354Z</time></trkpt><trkpt lat="45.0846572" lon="9.1148183"><ele>61.0</ele><time>2026-03-29T09:02:52.366Z</time></trkpt><trkpt lat="45.0843654" lon="9.1144076"><ele>61.0</ele><time>2026-03-29T09:02:54.347Z</time></trkpt><trkpt lat="45.0842181" lon="9.1141993"><ele>60.5</ele><time>2026-03-29T09:02:55.351Z</time></trkpt><trkpt lat="45.0839194" lon="9.1137799"><ele>60.0</ele><time>2026-03-29T09:02:57.387Z</time></trkpt><trkpt lat="45.0836197" lon="9.1133589"><ele>60.0</ele><time>2026-03-29T09:02:59.347Z</time></trkpt><trkpt lat="45.0834697" lon="9.1131481"><ele>60.0</ele><time>2026-03-29T09:03:00.348Z</time></trkpt><trkpt lat="45.0831675" lon="9.1127278"><ele>60.0</ele><time>2026-03-29T09:03:02.347Z</time></trkpt><trkpt lat="45.0830171" lon="9.1125158"><ele>60.0</ele><time>2026-03-29T09:03:03.351Z</time></trkpt><trkpt lat="45.0827144" lon="9.1120903"><ele>60.0</ele><time>2026-03-29T09:03:05.351Z</time></trkpt><trkpt lat="45.0825632" lon="9.1118783"><ele>60.0</ele><time>2026-03-29T09:03:06.354Z</time></trkpt><trkpt lat="45.0822607" lon="9.1114519"><ele>59.0</ele><time>2026-03-29T09:03:08.351Z</time></trkpt><trkpt lat="45.0819589" lon="9.1110313"><ele>58.0</ele><time>2026-03-29T09:03:10.342Z</time></trkpt><trkpt lat="45.0818099" lon="9.1108221"><ele>58.0</ele><time>2026-03-29T09:03:11.346Z</time></trkpt><trkpt lat="45.0816597" lon="9.1106126"><ele>58.0</ele><time>2026-03-29T09:03:12.35Z</time></trkpt><trkpt lat="45.0813636" lon="9.1101896"><ele>58.5</ele><time>2026-03-29T09:03:14.345Z</time></trkpt><trkpt lat="45.0810772" lon="9.1097631"><ele>59.0</ele><time>2026-03-29T09:03:16.347Z</time></trkpt><trkpt lat="45.0808009" lon="9.1093339"><ele>59.5</ele><time>2026-03-29T09:03:18.345Z</time></trkpt><trkpt lat="45.0805227" lon="9.1089069"><ele>60.0</ele><time>2026-03-29T09:03:20.333Z</time></trkpt><trkpt lat="45.0802407" lon="9.1084953"><ele>60.0</ele><time>2026-03-29T09:03:22.33Z</time></trkpt><trkpt lat="45.0801009" lon="9.1082934"><ele>60.0</ele><time>2026-03-29T09:03:23.338Z</time></trkpt><trkpt lat="45.07982" lon="9.1078901"><ele>61.0</ele><time>2026-03-29T09:03:25.333Z</time></trkpt><trkpt lat="45.07968" lon="9.1076953"><ele>62.0</ele><time>2026-03-29T09:03:26.346Z</time></trkpt><trkpt lat="45.0793999" lon="9.1073006"><ele>62.0</ele><time>2026-03-29T09:03:28.343Z</time></trkpt><trkpt lat="45.0792574" lon="9.1071051"><ele>62.0</ele><time>2026-03-29T09:03:29.342Z</time></trkpt><trkpt lat="45.0789387" lon="9.1067494"><ele>62.0</ele><time>2026-03-29T09:03:31.348Z</time></trkpt><trkpt lat="45.078761" lon="9.1065908"><ele>62.0</ele><time>2026-03-29T09:03:32.349Z</time></trkpt><trkpt lat="45.0783757" lon="9.1063261"><ele>62.0</ele><time>2026-03-29T09:03:34.35Z</time></trkpt><trkpt lat="45.0779715" lon="9.1061119"><ele>62.0</ele><time>2026-03-29T09:03:36.348Z</time></trkpt><trkpt lat="45.0775596" lon="9.1059064"><ele>64.5</ele><time>2026-03-29T09:03:38.347Z</time></trkpt><trkpt lat="45.0771464" lon="9.1057023"><ele>67.0</ele><time>2026-03-29T09:03:40.344Z</time></trkpt><trkpt lat="45.0769432" lon="9.1056019"><ele>67.0</ele><time>2026-03-29T09:03:41.345Z</time></trkpt><trkpt lat="45.0767399" lon="9.1054968"><ele>67.0</ele><time>2026-03-29T09:03:42.349Z</time></trkpt><trkpt lat="45.0765357" lon="9.1053893"><ele>67.0</ele><time>2026-03-29T09:03:43.353Z</time></trkpt><trkpt lat="45.0763397" lon="9.1052859"><ele>68.0</ele><time>2026-03-29T09:03:44.365Z</time></trkpt><trkpt lat="45.0759689" lon="9.1050886"><ele>69.0</ele><time>2026-03-29T09:03:46.337Z</time></trkpt><trkpt lat="45.0756112" lon="9.1049023"><ele>69.0</ele><time>2026-03-29T09:03:48.339Z</time></trkpt><trkpt lat="45.0752636" lon="9.1047288"><ele>69.0</ele><time>2026-03-29T09:03:50.346Z</time></trkpt><trkpt lat="45.0750925" lon="9.1046423"><ele>69.0</ele><time>2026-03-29T09:03:51.346Z</time></trkpt><trkpt lat="45.0747556" lon="9.1044711"><ele>69.0</ele><time>2026-03-29T09:03:53.338Z</time></trkpt><trkpt lat="45.0745874" lon="9.1043848"><ele>69.0</ele><time>2026-03-29T09:03:54.342Z</time></trkpt><trkpt lat="45.0742507" lon="9.1042126"><ele>69.0</ele><time>2026-03-29T09:03:56.34Z</time></trkpt><trkpt lat="45.0740827" lon="9.1041293"><ele>66.5</ele><time>2026-03-29T09:03:57.346Z</time></trkpt><trkpt lat="45.0739202" lon="9.1040501"><ele>64.0</ele><time>2026-03-29T09:03:58.351Z</time></trkpt><trkpt lat="45.0736114" lon="9.1039061"><ele>64.0</ele><time>2026-03-29T09:04:00.349Z</time></trkpt><trkpt lat="45.0734574" lon="9.1038296"><ele>64.0</ele><time>2026-03-29T09:04:01.348Z</time></trkpt><trkpt lat="45.0733037" lon="9.1037528"><ele>64.0</ele><time>2026-03-29T09:04:02.353Z</time></trkpt><trkpt lat="45.0730127" lon="9.1036056"><ele>63.5</ele><time>2026-03-29T09:04:04.351Z</time></trkpt><trkpt lat="45.0728707" lon="9.1035363"><ele>63.0</ele><time>2026-03-29T09:04:05.351Z</time></trkpt><trkpt lat="45.0725746" lon="9.1033888"><ele>62.5</ele><time>2026-03-29T09:04:07.341Z</time></trkpt><trkpt lat="45.0724169" lon="9.1033034"><ele>62.0</ele><time>2026-03-29T09:04:08.344Z</time></trkpt><trkpt lat="45.0720819" lon="9.1031249"><ele>61.5</ele><time>2026-03-29T09:04:10.347Z</time></trkpt><trkpt lat="45.0717359" lon="9.1029536"><ele>61.0</ele><time>2026-03-29T09:04:12.348Z</time></trkpt><trkpt lat="45.0713974" lon="9.1027874"><ele>63.0</ele><time>2026-03-29T09:04:14.345Z</time></trkpt><trkpt lat="45.0712306" lon="9.1027049"><ele>65.0</ele><time>2026-03-29T09:04:15.351Z</time></trkpt><trkpt lat="45.0709189" lon="9.1025448"><ele>65.0</ele><time>2026-03-29T09:04:17.356Z</time></trkpt><trkpt lat="45.0707891" lon="9.1024741"><ele>65.0</ele><time>2026-03-29T09:04:18.371Z</time></trkpt><trkpt lat="45.0705967" lon="9.1023634"><ele>65.0</ele><time>2026-03-29T09:04:20.355Z</time></trkpt><trkpt lat="45.0704977" lon="9.1022873"><ele>65.0</ele><time>2026-03-29T09:04:22.359Z</time></trkpt><trkpt lat="45.0704259" lon="9.1021826"><ele>65.0</ele><time>2026-03-29T09:04:24.349Z</time></trkpt><trkpt lat="45.0703907" lon="9.1021024"><ele>65.0</ele><time>2026-03-29T09:04:25.371Z</time></trkpt><trkpt lat="45.0702844" lon="9.1019528"><ele>65.0</ele><time>2026-03-29T09:04:27.368Z</time></trkpt><trkpt lat="45.0702094" lon="9.1019201"><ele>65.0</ele><time>2026-03-29T09:04:28.37Z</time></trkpt><trkpt lat="45.0700637" lon="9.1019499"><ele>65.0</ele><time>2026-03-29T09:04:30.357Z</time></trkpt><trkpt lat="45.0699151" lon="9.1019784"><ele>65.0</ele><time>2026-03-29T09:04:32.346Z</time></trkpt><trkpt lat="45.0698315" lon="9.1019669"><ele>65.0</ele><time>2026-03-29T09:04:33.373Z</time></trkpt><trkpt lat="45.0696582" lon="9.1018904"><ele>65.0</ele><time>2026-03-29T09:04:35.342Z</time></trkpt><trkpt lat="45.0695664" lon="9.1018434"><ele>65.0</ele><time>2026-03-29T09:04:36.346Z</time></trkpt><trkpt lat="45.0693575" lon="9.1017526"><ele>65.0</ele><time>2026-03-29T09:04:38.345Z</time></trkpt><trkpt lat="45.0692437" lon="9.1017014"><ele>65.0</ele><time>2026-03-29T09:04:39.369Z</time></trkpt><trkpt lat="45.0689987" lon="9.1015839"><ele>65.66666666666667</ele><time>2026-03-29T09:04:41.356Z</time></trkpt><trkpt lat="45.0687351" lon="9.1014569"><ele>66.33333333333333</ele><time>2026-03-29T09:04:43.352Z</time></trkpt><trkpt lat="45.0685971" lon="9.1013888"><ele>67.0</ele><time>2026-03-29T09:04:44.371Z</time></trkpt><trkpt lat="45.0683119" lon="9.1012459"><ele>67.5</ele><time>2026-03-29T09:04:46.35Z</time></trkpt><trkpt lat="45.0681639" lon="9.1011724"><ele>68.0</ele><time>2026-03-29T09:04:47.357Z</time></trkpt><trkpt lat="45.0678534" lon="9.1010161"><ele>68.0</ele><time>2026-03-29T09:04:49.363Z</time></trkpt><trkpt lat="45.0675192" lon="9.1008398"><ele>68.0</ele><time>2026-03-29T09:04:51.352Z</time></trkpt><trkpt lat="45.0671747" lon="9.1006483"><ele>66.5</ele><time>2026-03-29T09:04:53.349Z</time></trkpt><trkpt lat="45.0670022" lon="9.1005393"><ele>65.0</ele><time>2026-03-29T09:04:54.351Z</time></trkpt><trkpt lat="45.0666586" lon="9.1003013"><ele>64.5</ele><time>2026-03-29T09:04:56.349Z</time></trkpt><trkpt lat="45.0664851" lon="9.1001706"><ele>64.0</ele><time>2026-03-29T09:04:57.35Z</time></trkpt><trkpt lat="45.0661316" lon="9.0998894"><ele>64.5</ele><time>2026-03-29T09:04:59.353Z</time></trkpt><trkpt lat="45.0657676" lon="9.0995979"><ele>65.0</ele><time>2026-03-29T09:05:01.347Z</time></trkpt><trkpt lat="45.0655806" lon="9.0994499"><ele>65.0</ele><time>2026-03-29T09:05:02.35Z</time></trkpt><trkpt lat="45.0653949" lon="9.0992991"><ele>65.0</ele><time>2026-03-29T09:05:03.349Z</time></trkpt><trkpt lat="45.0652094" lon="9.0991469"><ele>65.0</ele><time>2026-03-29T09:05:04.35Z</time></trkpt><trkpt lat="45.0648362" lon="9.0988413"><ele>65.33333333333334</ele><time>2026-03-29T09:05:06.348Z</time></trkpt><trkpt lat="45.0646499" lon="9.0986909"><ele>65.66666666666667</ele><time>2026-03-29T09:05:07.348Z</time></trkpt><trkpt lat="45.0644649" lon="9.0985419"><ele>66.0</ele><time>2026-03-29T09:05:08.375Z</time></trkpt><trkpt lat="45.0640979" lon="9.0982519"><ele>66.5</ele><time>2026-03-29T09:05:10.358Z</time></trkpt><trkpt lat="45.0637216" lon="9.0979843"><ele>67.0</ele><time>2026-03-29T09:05:12.345Z</time></trkpt><trkpt lat="45.0635289" lon="9.0978638"><ele>67.0</ele><time>2026-03-29T09:05:13.355Z</time></trkpt><trkpt lat="45.0633329" lon="9.0977503"><ele>67.0</ele><time>2026-03-29T09:05:14.358Z</time></trkpt><trkpt lat="45.0629362" lon="9.0975393"><ele>67.0</ele><time>2026-03-29T09:05:16.345Z</time></trkpt><trkpt lat="45.0627356" lon="9.0974384"><ele>67.0</ele><time>2026-03-29T09:05:17.345Z</time></trkpt><trkpt lat="45.0623306" lon="9.0972368"><ele>67.0</ele><time>2026-03-29T09:05:19.348Z</time></trkpt><trkpt lat="45.0619222" lon="9.0970346"><ele>67.0</ele><time>2026-03-29T09:05:21.361Z</time></trkpt><trkpt lat="45.0615301" lon="9.0968383"><ele>67.0</ele><time>2026-03-29T09:05:23.347Z</time></trkpt><trkpt lat="45.0611707" lon="9.0966654"><ele>67.0</ele><time>2026-03-29T09:05:25.344Z</time></trkpt><trkpt lat="45.0608217" lon="9.0964989"><ele>67.0</ele><time>2026-03-29T09:05:27.342Z</time></trkpt><trkpt lat="45.0606467" lon="9.0964164"><ele>67.0</ele><time>2026-03-29T09:05:28.344Z</time></trkpt><trkpt lat="45.0602984" lon="9.0962513"><ele>67.0</ele><time>2026-03-29T09:05:30.341Z</time></trkpt><trkpt lat="45.0599542" lon="9.0960869"><ele>67.0</ele><time>2026-03-29T09:05:32.337Z</time></trkpt><trkpt lat="45.0597841" lon="9.0960041"><ele>66.5</ele><time>2026-03-29T09:05:33.341Z</time></trkpt><trkpt lat="45.0594482" lon="9.0958421"><ele>66.0</ele><time>2026-03-29T09:05:35.341Z</time></trkpt><trkpt lat="45.0591182" lon="9.0956843"><ele>66.5</ele><time>2026-03-29T09:05:37.347Z</time></trkpt><trkpt lat="45.0587839" lon="9.0955244"><ele>67.0</ele><time>2026-03-29T09:05:39.343Z</time></trkpt><trkpt lat="45.0586122" lon="9.0954428"><ele>66.5</ele><time>2026-03-29T09:05:40.345Z</time></trkpt><trkpt lat="45.0582711" lon="9.0952794"><ele>66.0</ele><time>2026-03-29T09:05:42.348Z</time></trkpt><trkpt lat="45.0579246" lon="9.0951138"><ele>66.0</ele><time>2026-03-29T09:05:44.342Z</time></trkpt><trkpt lat="45.0577471" lon="9.0950299"><ele>66.0</ele><time>2026-03-29T09:05:45.344Z</time></trkpt><trkpt lat="45.0573861" lon="9.0948556"><ele>66.5</ele><time>2026-03-29T09:05:47.341Z</time></trkpt><trkpt lat="45.0572017" lon="9.0947666"><ele>67.0</ele><time>2026-03-29T09:05:48.342Z</time></trkpt><trkpt lat="45.0568334" lon="9.0945879"><ele>67.0</ele><time>2026-03-29T09:05:50.346Z</time></trkpt><trkpt lat="45.0566487" lon="9.0944993"><ele>67.0</ele><time>2026-03-29T09:05:51.347Z</time></trkpt><trkpt lat="45.0562831" lon="9.0943234"><ele>67.0</ele><time>2026-03-29T09:05:53.343Z</time></trkpt><trkpt lat="45.0559161" lon="9.0941448"><ele>67.0</ele><time>2026-03-29T09:05:55.343Z</time></trkpt><trkpt lat="45.0557306" lon="9.0940536"><ele>67.0</ele><time>2026-03-29T09:05:56.349Z</time></trkpt><trkpt lat="45.0553579" lon="9.0938744"><ele>67.0</ele><time>2026-03-29T09:05:58.344Z</time></trkpt><trkpt lat="45.0551707" lon="9.0937851"><ele>67.0</ele><time>2026-03-29T09:05:59.346Z</time></trkpt><trkpt lat="45.0549829" lon="9.0936956"><ele>67.0</ele><time>2026-03-29T09:06:00.352Z</time></trkpt><trkpt lat="45.0546126" lon="9.0935173"><ele>67.5</ele><time>2026-03-29T09:06:02.345Z</time></trkpt><trkpt lat="45.0544287" lon="9.0934288"><ele>68.0</ele><time>2026-03-29T09:06:03.346Z</time></trkpt><trkpt lat="45.0540649" lon="9.0932504"><ele>68.0</ele><time>2026-03-29T09:06:05.346Z</time></trkpt><trkpt lat="45.0538837" lon="9.0931623"><ele>68.0</ele><time>2026-03-29T09:06:06.346Z</time></trkpt><trkpt lat="45.0535199" lon="9.0929868"><ele>68.0</ele><time>2026-03-29T09:06:08.347Z</time></trkpt><trkpt lat="45.0533391" lon="9.0929011"><ele>68.0</ele><time>2026-03-29T09:06:09.345Z</time></trkpt><trkpt lat="45.0529769" lon="9.0927308"><ele>68.0</ele><time>2026-03-29T09:06:11.34Z</time></trkpt><trkpt lat="45.0527971" lon="9.0926434"><ele>68.0</ele><time>2026-03-29T09:06:12.34Z</time></trkpt><trkpt lat="45.0526199" lon="9.0925556"><ele>68.0</ele><time>2026-03-29T09:06:13.346Z</time></trkpt><trkpt lat="45.0522722" lon="9.0923893"><ele>68.0</ele><time>2026-03-29T09:06:15.342Z</time></trkpt><trkpt lat="45.0521081" lon="9.0923111"><ele>68.0</ele><time>2026-03-29T09:06:16.343Z</time></trkpt><trkpt lat="45.0519472" lon="9.0922354"><ele>68.0</ele><time>2026-03-29T09:06:17.346Z</time></trkpt><trkpt lat="45.0516271" lon="9.0920824"><ele>68.0</ele><time>2026-03-29T09:06:19.343Z</time></trkpt><trkpt lat="45.0514672" lon="9.0920051"><ele>68.0</ele><time>2026-03-29T09:06:20.344Z</time></trkpt><trkpt lat="45.0513056" lon="9.0919286"><ele>68.0</ele><time>2026-03-29T09:06:21.345Z</time></trkpt><trkpt lat="45.0509804" lon="9.0917788"><ele>68.5</ele><time>2026-03-29T09:06:23.344Z</time></trkpt><trkpt lat="45.0506512" lon="9.0916241"><ele>69.0</ele><time>2026-03-29T09:06:25.343Z</time></trkpt><trkpt lat="45.0504856" lon="9.0915453"><ele>69.0</ele><time>2026-03-29T09:06:26.346Z</time></trkpt><trkpt lat="45.0501511" lon="9.0913838"><ele>69.0</ele><time>2026-03-29T09:06:28.343Z</time></trkpt><trkpt lat="45.0498104" lon="9.0912151"><ele>69.0</ele><time>2026-03-29T09:06:30.347Z</time></trkpt><trkpt lat="45.0496364" lon="9.0911309"><ele>69.0</ele><time>2026-03-29T09:06:31.347Z</time></trkpt><trkpt lat="45.0492802" lon="9.0909633"><ele>69.33333333333333</ele><time>2026-03-29T09:06:33.344Z</time></trkpt><trkpt lat="45.0490966" lon="9.0908758"><ele>69.66666666666666</ele><time>2026-03-29T09:06:34.344Z</time></trkpt><trkpt lat="45.0489111" lon="9.0907864"><ele>70.0</ele><time>2026-03-29T09:06:35.353Z</time></trkpt><trkpt lat="45.0485612" lon="9.0906196"><ele>70.5</ele><time>2026-03-29T09:06:37.355Z</time></trkpt><trkpt lat="45.0482417" lon="9.0904718"><ele>71.0</ele><time>2026-03-29T09:06:39.351Z</time></trkpt><trkpt lat="45.0479317" lon="9.0903254"><ele>71.0</ele><time>2026-03-29T09:06:41.345Z</time></trkpt><trkpt lat="45.0476154" lon="9.0901706"><ele>71.0</ele><time>2026-03-29T09:06:43.351Z</time></trkpt><trkpt lat="45.0472976" lon="9.0900189"><ele>70.5</ele><time>2026-03-29T09:06:45.347Z</time></trkpt><trkpt lat="45.0471464" lon="9.0899473"><ele>70.0</ele><time>2026-03-29T09:06:46.36Z</time></trkpt><trkpt lat="45.0468514" lon="9.0898076"><ele>70.0</ele><time>2026-03-29T09:06:48.371Z</time></trkpt><trkpt lat="45.0465511" lon="9.0896646"><ele>70.0</ele><time>2026-03-29T09:06:50.359Z</time></trkpt><trkpt lat="45.0463976" lon="9.0895921"><ele>70.0</ele><time>2026-03-29T09:06:51.364Z</time></trkpt><trkpt lat="45.0460874" lon="9.0894453"><ele>70.0</ele><time>2026-03-29T09:06:53.369Z</time></trkpt><trkpt lat="45.0457799" lon="9.0892971"><ele>70.0</ele><time>2026-03-29T09:06:55.361Z</time></trkpt><trkpt lat="45.0456279" lon="9.0892246"><ele>70.0</ele><time>2026-03-29T09:06:56.362Z</time></trkpt><trkpt lat="45.0453139" lon="9.0890718"><ele>69.66666666666666</ele><time>2026-03-29T09:06:58.361Z</time></trkpt><trkpt lat="45.0451494" lon="9.0889946"><ele>69.33333333333333</ele><time>2026-03-29T09:06:59.361Z</time></trkpt><trkpt lat="45.0449807" lon="9.0889144"><ele>69.0</ele><time>2026-03-29T09:07:00.363Z</time></trkpt><trkpt lat="45.0446377" lon="9.0887464"><ele>69.0</ele><time>2026-03-29T09:07:02.369Z</time></trkpt><trkpt lat="45.0442959" lon="9.0885766"><ele>69.0</ele><time>2026-03-29T09:07:04.352Z</time></trkpt><trkpt lat="45.0441256" lon="9.0884878"><ele>69.33333333333333</ele><time>2026-03-29T09:07:05.356Z</time></trkpt><trkpt lat="45.0439564" lon="9.0883919"><ele>69.66666666666666</ele><time>2026-03-29T09:07:06.358Z</time></trkpt><trkpt lat="45.0437869" lon="9.0882889"><ele>70.0</ele><time>2026-03-29T09:07:07.358Z</time></trkpt><trkpt lat="45.0436177" lon="9.0881776"><ele>70.0</ele><time>2026-03-29T09:07:08.361Z</time></trkpt><trkpt lat="45.0434477" lon="9.0880589"><ele>70.0</ele><time>2026-03-29T09:07:09.369Z</time></trkpt><trkpt lat="45.0431072" lon="9.0878043"><ele>69.5</ele><time>2026-03-29T09:07:11.355Z</time></trkpt><trkpt lat="45.0427664" lon="9.0875204"><ele>69.0</ele><time>2026-03-29T09:07:13.338Z</time></trkpt><trkpt lat="45.0425982" lon="9.0873704"><ele>70.0</ele><time>2026-03-29T09:07:14.346Z</time></trkpt><trkpt lat="45.0424314" lon="9.0872194"><ele>71.0</ele><time>2026-03-29T09:07:15.36Z</time></trkpt><trkpt lat="45.0420967" lon="9.0869141"><ele>71.0</ele><time>2026-03-29T09:07:17.339Z</time></trkpt><trkpt lat="45.0419289" lon="9.0867618"><ele>71.0</ele><time>2026-03-29T09:07:18.338Z</time></trkpt><trkpt lat="45.0417606" lon="9.0866114"><ele>71.0</ele><time>2026-03-29T09:07:19.4Z</time></trkpt><trkpt lat="45.0414199" lon="9.0863078"><ele>71.0</ele><time>2026-03-29T09:07:21.359Z</time></trkpt><trkpt lat="45.0410782" lon="9.0859986"><ele>71.0</ele><time>2026-03-29T09:07:23.351Z</time></trkpt><trkpt lat="45.0407417" lon="9.0856946"><ele>71.0</ele><time>2026-03-29T09:07:25.34Z</time></trkpt><trkpt lat="45.0404109" lon="9.0853981"><ele>71.0</ele><time>2026-03-29T09:07:27.339Z</time></trkpt><trkpt lat="45.0402496" lon="9.0852548"><ele>71.0</ele><time>2026-03-29T09:07:28.341Z</time></trkpt><trkpt lat="45.0399412" lon="9.0849736"><ele>71.0</ele><time>2026-03-29T09:07:30.334Z</time></trkpt><trkpt lat="45.0397866" lon="9.0848338"><ele>71.0</ele><time>2026-03-29T09:07:31.339Z</time></trkpt><trkpt lat="45.0394786" lon="9.0845556"><ele>71.0</ele><time>2026-03-29T09:07:33.338Z</time></trkpt><trkpt lat="45.0393251" lon="9.0844198"><ele>71.0</ele><time>2026-03-29T09:07:34.338Z</time></trkpt><trkpt lat="45.0391706" lon="9.0842901"><ele>71.0</ele><time>2026-03-29T09:07:35.342Z</time></trkpt><trkpt lat="45.0388794" lon="9.0840328"><ele>71.33333333333334</ele><time>2026-03-29T09:07:37.338Z</time></trkpt><trkpt lat="45.0387384" lon="9.0839049"><ele>71.66666666666667</ele><time>2026-03-29T09:07:38.337Z</time></trkpt><trkpt lat="45.0385956" lon="9.0837778"><ele>72.0</ele><time>2026-03-29T09:07:39.343Z</time></trkpt><trkpt lat="45.0383039" lon="9.0835121"><ele>72.0</ele><time>2026-03-29T09:07:41.343Z</time></trkpt><trkpt lat="45.0381481" lon="9.0833708"><ele>72.0</ele><time>2026-03-29T09:07:42.346Z</time></trkpt><trkpt lat="45.0378254" lon="9.0830784"><ele>72.0</ele><time>2026-03-29T09:07:44.339Z</time></trkpt><trkpt lat="45.0374967" lon="9.0827796"><ele>72.0</ele><time>2026-03-29T09:07:46.338Z</time></trkpt><trkpt lat="45.0373325" lon="9.0826311"><ele>72.5</ele><time>2026-03-29T09:07:47.344Z</time></trkpt><trkpt lat="45.0370097" lon="9.0823393"><ele>73.0</ele><time>2026-03-29T09:07:49.34Z</time></trkpt><trkpt lat="45.0368491" lon="9.0821944"><ele>72.5</ele><time>2026-03-29T09:07:50.344Z</time></trkpt><trkpt lat="45.0365207" lon="9.0819196"><ele>72.0</ele><time>2026-03-29T09:07:52.347Z</time></trkpt><trkpt lat="45.0361749" lon="9.0816709"><ele>72.5</ele><time>2026-03-29T09:07:54.344Z</time></trkpt><trkpt lat="45.0359955" lon="9.0815573"><ele>73.0</ele><time>2026-03-29T09:07:55.349Z</time></trkpt><trkpt lat="45.0356306" lon="9.0813403"><ele>73.0</ele><time>2026-03-29T09:07:57.343Z</time></trkpt><trkpt lat="45.0352619" lon="9.0811208"><ele>73.0</ele><time>2026-03-29T09:07:59.338Z</time></trkpt><trkpt lat="45.0348899" lon="9.0808981"><ele>73.5</ele><time>2026-03-29T09:08:01.338Z</time></trkpt><trkpt lat="45.0345212" lon="9.0806789"><ele>74.0</ele><time>2026-03-29T09:08:03.337Z</time></trkpt><trkpt lat="45.0343367" lon="9.0805716"><ele>74.0</ele><time>2026-03-29T09:08:04.34Z</time></trkpt><trkpt lat="45.0339709" lon="9.0803579"><ele>74.0</ele><time>2026-03-29T09:08:06.34Z</time></trkpt><trkpt lat="45.0337972" lon="9.0802531"><ele>74.0</ele><time>2026-03-29T09:08:07.345Z</time></trkpt><trkpt lat="45.0334817" lon="9.0800568"><ele>74.0</ele><time>2026-03-29T09:08:09.339Z</time></trkpt><trkpt lat="45.0333415" lon="9.0799571"><ele>74.0</ele><time>2026-03-29T09:08:10.373Z</time></trkpt><trkpt lat="45.0331154" lon="9.0797696"><ele>74.0</ele><time>2026-03-29T09:08:12.349Z</time></trkpt><trkpt lat="45.0329641" lon="9.0795708"><ele>74.0</ele><time>2026-03-29T09:08:14.344Z</time></trkpt><trkpt lat="45.0329201" lon="9.0794469"><ele>74.0</ele><time>2026-03-29T09:08:15.349Z</time></trkpt><trkpt lat="45.0328134" lon="9.0792098"><ele>74.0</ele><time>2026-03-29T09:08:17.352Z</time></trkpt><trkpt lat="45.0326186" lon="9.0791491"><ele>74.5</ele><time>2026-03-29T09:08:19.35Z</time></trkpt><trkpt lat="45.0323901" lon="9.0792121"><ele>75.0</ele><time>2026-03-29T09:08:21.343Z</time></trkpt><trkpt lat="45.0321177" lon="9.0791676"><ele>74.5</ele><time>2026-03-29T09:08:23.342Z</time></trkpt><trkpt lat="45.0318176" lon="9.0790833"><ele>74.0</ele><time>2026-03-29T09:08:25.338Z</time></trkpt><trkpt lat="45.0316599" lon="9.0790451"><ele>75.0</ele><time>2026-03-29T09:08:26.339Z</time></trkpt><trkpt lat="45.0314982" lon="9.0790039"><ele>76.0</ele><time>2026-03-29T09:08:27.365Z</time></trkpt><trkpt lat="45.0311654" lon="9.0789171"><ele>76.0</ele><time>2026-03-29T09:08:29.346Z</time></trkpt><trkpt lat="45.0309957" lon="9.0788729"><ele>76.0</ele><time>2026-03-29T09:08:30.348Z</time></trkpt><trkpt lat="45.0306489" lon="9.0787836"><ele>77.0</ele><time>2026-03-29T09:08:32.341Z</time></trkpt><trkpt lat="45.0304791" lon="9.0787366"><ele>78.0</ele><time>2026-03-29T09:08:33.343Z</time></trkpt><trkpt lat="45.0301442" lon="9.0786419"><ele>78.5</ele><time>2026-03-29T09:08:35.351Z</time></trkpt><trkpt lat="45.0298144" lon="9.0785373"><ele>79.0</ele><time>2026-03-29T09:08:37.34Z</time></trkpt><trkpt lat="45.0296487" lon="9.0784778"><ele>79.0</ele><time>2026-03-29T09:08:38.343Z</time></trkpt><trkpt lat="45.0294834" lon="9.0784164"><ele>79.0</ele><time>2026-03-29T09:08:39.348Z</time></trkpt><trkpt lat="45.0291517" lon="9.0782946"><ele>77.33333333333333</ele><time>2026-03-29T09:08:41.338Z</time></trkpt><trkpt lat="45.0289839" lon="9.0782339"><ele>75.66666666666667</ele><time>2026-03-29T09:08:42.339Z</time></trkpt><trkpt lat="45.0288157" lon="9.0781729"><ele>74.0</ele><time>2026-03-29T09:08:43.342Z</time></trkpt><trkpt lat="45.0286434" lon="9.0781103"><ele>75.0</ele><time>2026-03-29T09:08:44.342Z</time></trkpt><trkpt lat="45.0282959" lon="9.0779856"><ele>76.0</ele><time>2026-03-29T09:08:46.345Z</time></trkpt><trkpt lat="45.0279386" lon="9.0778666"><ele>76.0</ele><time>2026-03-29T09:08:48.34Z</time></trkpt><trkpt lat="45.0275654" lon="9.0777849"><ele>76.0</ele><time>2026-03-29T09:08:50.345Z</time></trkpt><trkpt lat="45.0271769" lon="9.0777556"><ele>76.0</ele><time>2026-03-29T09:08:52.341Z</time></trkpt><trkpt lat="45.0267839" lon="9.0777529"><ele>76.0</ele><time>2026-03-29T09:08:54.337Z</time></trkpt><trkpt lat="45.0265881" lon="9.0777556"><ele>76.0</ele><time>2026-03-29T09:08:55.342Z</time></trkpt><trkpt lat="45.0263909" lon="9.0777549"><ele>76.0</ele><time>2026-03-29T09:08:56.344Z</time></trkpt><trkpt lat="45.0259912" lon="9.0777266"><ele>76.0</ele><time>2026-03-29T09:08:58.349Z</time></trkpt><trkpt lat="45.0255839" lon="9.0776481"><ele>76.0</ele><time>2026-03-29T09:09:00.337Z</time></trkpt><trkpt lat="45.0253769" lon="9.0775894"><ele>76.0</ele><time>2026-03-29T09:09:01.342Z</time></trkpt><trkpt lat="45.0249602" lon="9.0774434"><ele>76.0</ele><time>2026-03-29T09:09:03.339Z</time></trkpt><trkpt lat="45.0245434" lon="9.0772933"><ele>76.0</ele><time>2026-03-29T09:09:05.336Z</time></trkpt><trkpt lat="45.0243342" lon="9.0772259"><ele>76.0</ele><time>2026-03-29T09:09:06.338Z</time></trkpt><trkpt lat="45.0241236" lon="9.0771706"><ele>76.0</ele><time>2026-03-29T09:09:07.341Z</time></trkpt><trkpt lat="45.0237002" lon="9.0770976"><ele>76.0</ele><time>2026-03-29T09:09:09.341Z</time></trkpt><trkpt lat="45.0234887" lon="9.0770753"><ele>76.0</ele><time>2026-03-29T09:09:10.343Z</time></trkpt><trkpt lat="45.0232786" lon="9.0770559"><ele>76.0</ele><time>2026-03-29T09:09:11.344Z</time></trkpt><trkpt lat="45.0228621" lon="9.0770194"><ele>76.0</ele><time>2026-03-29T09:09:13.337Z</time></trkpt><trkpt lat="45.0226547" lon="9.0770011"><ele>76.0</ele><time>2026-03-29T09:09:14.339Z</time></trkpt><trkpt lat="45.0222401" lon="9.0769588"><ele>76.0</ele><time>2026-03-29T09:09:16.336Z</time></trkpt><trkpt lat="45.0220289" lon="9.0769361"><ele>76.0</ele><time>2026-03-29T09:09:17.341Z</time></trkpt><trkpt lat="45.0215951" lon="9.0768726"><ele>77.0</ele><time>2026-03-29T09:09:19.341Z</time></trkpt><trkpt lat="45.0211602" lon="9.0767694"><ele>78.0</ele><time>2026-03-29T09:09:21.337Z</time></trkpt><trkpt lat="45.0207302" lon="9.0766378"><ele>78.0</ele><time>2026-03-29T09:09:23.332Z</time></trkpt><trkpt lat="45.0205164" lon="9.0765693"><ele>78.0</ele><time>2026-03-29T09:09:24.339Z</time></trkpt><trkpt lat="45.0203032" lon="9.0765021"><ele>78.0</ele><time>2026-03-29T09:09:25.343Z</time></trkpt><trkpt lat="45.0198769" lon="9.0763704"><ele>77.66666666666667</ele><time>2026-03-29T09:09:27.338Z</time></trkpt><trkpt lat="45.0196629" lon="9.0763026"><ele>77.33333333333334</ele><time>2026-03-29T09:09:28.338Z</time></trkpt><trkpt lat="45.0194477" lon="9.0762348"><ele>77.0</ele><time>2026-03-29T09:09:29.341Z</time></trkpt><trkpt lat="45.0192319" lon="9.0761654"><ele>76.5</ele><time>2026-03-29T09:09:30.362Z</time></trkpt><trkpt lat="45.0187984" lon="9.0760241"><ele>76.0</ele><time>2026-03-29T09:09:32.337Z</time></trkpt><trkpt lat="45.0183616" lon="9.0758843"><ele>77.0</ele><time>2026-03-29T09:09:34.335Z</time></trkpt><trkpt lat="45.0181412" lon="9.0758141"><ele>78.0</ele><time>2026-03-29T09:09:35.334Z</time></trkpt><trkpt lat="45.0179214" lon="9.0757444"><ele>78.0</ele><time>2026-03-29T09:09:36.338Z</time></trkpt><trkpt lat="45.0177011" lon="9.0756736"><ele>78.0</ele><time>2026-03-29T09:09:37.339Z</time></trkpt><trkpt lat="45.0172596" lon="9.0755386"><ele>78.0</ele><time>2026-03-29T09:09:39.342Z</time></trkpt><trkpt lat="45.0170376" lon="9.0754739"><ele>78.0</ele><time>2026-03-29T09:09:40.342Z</time></trkpt><trkpt lat="45.0165897" lon="9.0753474"><ele>78.0</ele><time>2026-03-29T09:09:42.339Z</time></trkpt><trkpt lat="45.0163657" lon="9.0752826"><ele>78.0</ele><time>2026-03-29T09:09:43.342Z</time></trkpt><trkpt lat="45.0161407" lon="9.0752174"><ele>78.0</ele><time>2026-03-29T09:09:44.343Z</time></trkpt><trkpt lat="45.0156877" lon="9.0750893"><ele>78.0</ele><time>2026-03-29T09:09:46.339Z</time></trkpt><trkpt lat="45.0154604" lon="9.0750253"><ele>78.0</ele><time>2026-03-29T09:09:47.342Z</time></trkpt><trkpt lat="45.0152294" lon="9.0749626"><ele>79.0</ele><time>2026-03-29T09:09:48.344Z</time></trkpt><trkpt lat="45.0147709" lon="9.0748341"><ele>79.0</ele><time>2026-03-29T09:09:50.344Z</time></trkpt><trkpt lat="45.0145409" lon="9.0747684"><ele>79.0</ele><time>2026-03-29T09:09:51.345Z</time></trkpt><trkpt lat="45.0140809" lon="9.0746383"><ele>79.0</ele><time>2026-03-29T09:09:53.351Z</time></trkpt><trkpt lat="45.0136231" lon="9.0745064"><ele>79.0</ele><time>2026-03-29T09:09:55.34Z</time></trkpt><trkpt lat="45.0133947" lon="9.0744418"><ele>79.0</ele><time>2026-03-29T09:09:56.345Z</time></trkpt><trkpt lat="45.0131666" lon="9.0743771"><ele>80.0</ele><time>2026-03-29T09:09:57.346Z</time></trkpt><trkpt lat="45.0127071" lon="9.0742429"><ele>79.5</ele><time>2026-03-29T09:09:59.346Z</time></trkpt><trkpt lat="45.0124749" lon="9.0741776"><ele>79.0</ele><time>2026-03-29T09:10:00.347Z</time></trkpt><trkpt lat="45.0120101" lon="9.0740494"><ele>80.0</ele><time>2026-03-29T09:10:02.34Z</time></trkpt><trkpt lat="45.0117784" lon="9.0739841"><ele>81.0</ele><time>2026-03-29T09:10:03.341Z</time></trkpt><trkpt lat="45.0113304" lon="9.0738493"><ele>81.0</ele><time>2026-03-29T09:10:05.34Z</time></trkpt><trkpt lat="45.0111221" lon="9.0737803"><ele>81.0</ele><time>2026-03-29T09:10:06.343Z</time></trkpt><trkpt lat="45.0107097" lon="9.0736454"><ele>81.0</ele><time>2026-03-29T09:10:08.338Z</time></trkpt><trkpt lat="45.0105026" lon="9.0735849"><ele>81.0</ele><time>2026-03-29T09:10:09.344Z</time></trkpt><trkpt lat="45.0100892" lon="9.0734458"><ele>81.0</ele><time>2026-03-29T09:10:11.338Z</time></trkpt><trkpt lat="45.0098849" lon="9.0733541"><ele>81.0</ele><time>2026-03-29T09:10:12.34Z</time></trkpt><trkpt lat="45.0096822" lon="9.0732493"><ele>81.0</ele><time>2026-03-29T09:10:13.345Z</time></trkpt><trkpt lat="45.0092794" lon="9.0730221"><ele>81.0</ele><time>2026-03-29T09:10:15.335Z</time></trkpt><trkpt lat="45.0090847" lon="9.0729104"><ele>81.0</ele><time>2026-03-29T09:10:16.349Z</time></trkpt><trkpt lat="45.0087239" lon="9.0726509"><ele>81.0</ele><time>2026-03-29T09:10:18.339Z</time></trkpt><trkpt lat="45.0085611" lon="9.0724868"><ele>81.0</ele><time>2026-03-29T09:10:19.343Z</time></trkpt><trkpt lat="45.0084066" lon="9.0723008"><ele>81.0</ele><time>2026-03-29T09:10:20.353Z</time></trkpt><trkpt lat="45.0081099" lon="9.0718924"><ele>81.5</ele><time>2026-03-29T09:10:22.342Z</time></trkpt><trkpt lat="45.0079612" lon="9.0716873"><ele>82.0</ele><time>2026-03-29T09:10:23.351Z</time></trkpt><trkpt lat="45.0076654" lon="9.0712829"><ele>82.0</ele><time>2026-03-29T09:10:25.335Z</time></trkpt><trkpt lat="45.0075202" lon="9.0710824"><ele>82.0</ele><time>2026-03-29T09:10:26.341Z</time></trkpt><trkpt lat="45.0073769" lon="9.0708859"><ele>82.0</ele><time>2026-03-29T09:10:27.344Z</time></trkpt><trkpt lat="45.0072322" lon="9.0706968"><ele>81.5</ele><time>2026-03-29T09:10:28.347Z</time></trkpt><trkpt lat="45.0069229" lon="9.0703664"><ele>81.0</ele><time>2026-03-29T09:10:30.344Z</time></trkpt><trkpt lat="45.0065812" lon="9.0701153"><ele>82.0</ele><time>2026-03-29T09:10:32.342Z</time></trkpt><trkpt lat="45.0062089" lon="9.0699378"><ele>83.0</ele><time>2026-03-29T09:10:34.338Z</time></trkpt><trkpt lat="45.0060132" lon="9.0698798"><ele>83.5</ele><time>2026-03-29T09:10:35.356Z</time></trkpt><trkpt lat="45.0056157" lon="9.0698068"><ele>84.0</ele><time>2026-03-29T09:10:37.34Z</time></trkpt><trkpt lat="45.0052252" lon="9.0697496"><ele>83.5</ele><time>2026-03-29T09:10:39.34Z</time></trkpt><trkpt lat="45.0048396" lon="9.0696881"><ele>83.0</ele><time>2026-03-29T09:10:41.334Z</time></trkpt><trkpt lat="45.0046517" lon="9.0696584"><ele>83.0</ele><time>2026-03-29T09:10:42.342Z</time></trkpt><trkpt lat="45.0042931" lon="9.0696028"><ele>83.0</ele><time>2026-03-29T09:10:44.346Z</time></trkpt><trkpt lat="45.0041216" lon="9.0695768"><ele>82.5</ele><time>2026-03-29T09:10:45.352Z</time></trkpt><trkpt lat="45.0037916" lon="9.0695293"><ele>82.0</ele><time>2026-03-29T09:10:47.342Z</time></trkpt><trkpt lat="45.0036319" lon="9.0695034"><ele>82.0</ele><time>2026-03-29T09:10:48.347Z</time></trkpt><trkpt lat="45.0033232" lon="9.0694558"><ele>82.0</ele><time>2026-03-29T09:10:50.343Z</time></trkpt><trkpt lat="45.0030349" lon="9.0694098"><ele>82.0</ele><time>2026-03-29T09:10:52.35Z</time></trkpt><trkpt lat="45.0029002" lon="9.0693869"><ele>82.0</ele><time>2026-03-29T09:10:53.358Z</time></trkpt><trkpt lat="45.0026619" lon="9.0693476"><ele>82.0</ele><time>2026-03-29T09:10:55.345Z</time></trkpt><trkpt lat="45.0025582" lon="9.0693138"><ele>82.66666666666666</ele><time>2026-03-29T09:10:56.35Z</time></trkpt><trkpt lat="45.0023919" lon="9.0691574"><ele>83.33333333333333</ele><time>2026-03-29T09:10:58.344Z</time></trkpt><trkpt lat="45.0023082" lon="9.0690791"><ele>84.0</ele><time>2026-03-29T09:10:59.349Z</time></trkpt><trkpt lat="45.0021196" lon="9.0690674"><ele>84.0</ele><time>2026-03-29T09:11:01.344Z</time></trkpt><trkpt lat="45.0019359" lon="9.0691823"><ele>84.0</ele><time>2026-03-29T09:11:03.356Z</time></trkpt><trkpt lat="45.0017214" lon="9.0692134"><ele>84.0</ele><time>2026-03-29T09:11:05.345Z</time></trkpt><trkpt lat="45.0014891" lon="9.0691716"><ele>83.66666666666667</ele><time>2026-03-29T09:11:07.344Z</time></trkpt><trkpt lat="45.0013652" lon="9.0691506"><ele>83.33333333333334</ele><time>2026-03-29T09:11:08.355Z</time></trkpt><trkpt lat="45.0012367" lon="9.0691323"><ele>83.0</ele><time>2026-03-29T09:11:09.354Z</time></trkpt><trkpt lat="45.0009642" lon="9.0690961"><ele>82.0</ele><time>2026-03-29T09:11:11.354Z</time></trkpt><trkpt lat="45.0008192" lon="9.0690754"><ele>81.0</ele><time>2026-03-29T09:11:12.363Z</time></trkpt><trkpt lat="45.0005137" lon="9.0690299"><ele>81.0</ele><time>2026-03-29T09:11:14.358Z</time></trkpt><trkpt lat="45.0001901" lon="9.0689811"><ele>81.0</ele><time>2026-03-29T09:11:16.345Z</time></trkpt><trkpt lat="45.0000241" lon="9.0689589"><ele>81.0</ele><time>2026-03-29T09:11:17.357Z</time></trkpt><trkpt lat="44.999706" lon="9.0689114"><ele>81.0</ele><time>2026-03-29T09:11:19.36Z</time></trkpt><trkpt lat="44.9994211" lon="9.0688704"><ele>81.0</ele><time>2026-03-29T09:11:21.355Z</time></trkpt><trkpt lat="44.9992887" lon="9.0688471"><ele>81.0</ele><time>2026-03-29T09:11:22.362Z</time></trkpt><trkpt lat="44.9990366" lon="9.0688136"><ele>81.0</ele><time>2026-03-29T09:11:24.352Z</time></trkpt><trkpt lat="44.9988027" lon="9.0687854"><ele>82.0</ele><time>2026-03-29T09:11:26.353Z</time></trkpt><trkpt lat="44.9985794" lon="9.0687556"><ele>83.0</ele><time>2026-03-29T09:11:28.355Z</time></trkpt><trkpt lat="44.9984682" lon="9.0687386"><ele>84.0</ele><time>2026-03-29T09:11:29.358Z</time></trkpt><trkpt lat="44.9982524" lon="9.0687043"><ele>85.0</ele><time>2026-03-29T09:11:31.358Z</time></trkpt><trkpt lat="44.9981489" lon="9.0686809"><ele>86.0</ele><time>2026-03-29T09:11:32.366Z</time></trkpt><trkpt lat="44.9980482" lon="9.0686543"><ele>87.0</ele><time>2026-03-29T09:11:33.374Z</time></trkpt><trkpt lat="44.9978609" lon="9.0686063"><ele>88.0</ele><time>2026-03-29T09:11:35.367Z</time></trkpt><trkpt lat="44.9977777" lon="9.0685854"><ele>88.0</ele><time>2026-03-29T09:11:36.37Z</time></trkpt><trkpt lat="44.9976416" lon="9.0685588"><ele>88.0</ele><time>2026-03-29T09:11:38.359Z</time></trkpt><trkpt lat="44.9975177" lon="9.0685291"><ele>88.0</ele><time>2026-03-29T09:11:41.362Z</time></trkpt><trkpt lat="44.9974407" lon="9.0684733"><ele>88.0</ele><time>2026-03-29T09:11:43.366Z</time></trkpt><trkpt lat="44.9973154" lon="9.0683481"><ele>88.25</ele><time>2026-03-29T09:11:46.409Z</time></trkpt><trkpt lat="44.9972172" lon="9.0683036"><ele>88.5</ele><time>2026-03-29T09:11:48.379Z</time></trkpt><trkpt lat="44.9970595" lon="9.0683619"><ele>88.75</ele><time>2026-03-29T09:11:51.372Z</time></trkpt><trkpt lat="44.9969326" lon="9.0684043"><ele>89.0</ele><time>2026-03-29T09:11:53.338Z</time></trkpt><trkpt lat="44.996858" lon="9.0683973"><ele>89.0</ele><time>2026-03-29T09:11:54.34Z</time></trkpt><trkpt lat="44.9967826" lon="9.0683763"><ele>89.0</ele><time>2026-03-29T09:11:55.346Z</time></trkpt><trkpt lat="44.9967052" lon="9.0683438"><ele>89.0</ele><time>2026-03-29T09:11:56.346Z</time></trkpt><trkpt lat="44.9966219" lon="9.0683034"><ele>89.0</ele><time>2026-03-29T09:11:57.35Z</time></trkpt><trkpt lat="44.9965319" lon="9.0682586"><ele>89.0</ele><time>2026-03-29T09:11:58.365Z</time></trkpt><trkpt lat="44.9963269" lon="9.0681549"><ele>89.0</ele><time>2026-03-29T09:12:00.352Z</time></trkpt><trkpt lat="44.9960974" lon="9.0680488"><ele>89.0</ele><time>2026-03-29T09:12:02.349Z</time></trkpt><trkpt lat="44.9959799" lon="9.0679948"><ele>89.0</ele><time>2026-03-29T09:12:03.351Z</time></trkpt><trkpt lat="44.9957455" lon="9.0678848"><ele>89.66666666666667</ele><time>2026-03-29T09:12:05.338Z</time></trkpt><trkpt lat="44.995627" lon="9.0678284"><ele>90.33333333333333</ele><time>2026-03-29T09:12:06.351Z</time></trkpt><trkpt lat="44.9953809" lon="9.0677103"><ele>91.0</ele><time>2026-03-29T09:12:08.339Z</time></trkpt><trkpt lat="44.9951201" lon="9.0675884"><ele>92.0</ele><time>2026-03-29T09:12:10.337Z</time></trkpt><trkpt lat="44.9948769" lon="9.0674746"><ele>93.0</ele><time>2026-03-29T09:12:12.326Z</time></trkpt><trkpt lat="44.9946296" lon="9.0673596"><ele>93.0</ele><time>2026-03-29T09:12:14.329Z</time></trkpt><trkpt lat="44.9945004" lon="9.0672948"><ele>93.0</ele><time>2026-03-29T09:12:15.33Z</time></trkpt><trkpt lat="44.9943744" lon="9.0672326"><ele>93.0</ele><time>2026-03-29T09:12:16.344Z</time></trkpt><trkpt lat="44.9941466" lon="9.0671228"><ele>93.4</ele><time>2026-03-29T09:12:18.33Z</time></trkpt><trkpt lat="44.9940422" lon="9.0670724"><ele>93.80000000000001</ele><time>2026-03-29T09:12:19.334Z</time></trkpt><trkpt lat="44.9939442" lon="9.0670203"><ele>94.2</ele><time>2026-03-29T09:12:20.334Z</time></trkpt><trkpt lat="44.9938567" lon="9.0669664"><ele>94.6</ele><time>2026-03-29T09:12:21.339Z</time></trkpt><trkpt lat="44.9937324" lon="9.0668794"><ele>95.0</ele><time>2026-03-29T09:12:23.339Z</time></trkpt><trkpt lat="44.9936347" lon="9.0667796"><ele>95.0</ele><time>2026-03-29T09:12:25.335Z</time></trkpt><trkpt lat="44.9935444" lon="9.0666729"><ele>95.0</ele><time>2026-03-29T09:12:27.34Z</time></trkpt><trkpt lat="44.9934132" lon="9.0666661"><ele>95.0</ele><time>2026-03-29T09:12:29.332Z</time></trkpt><trkpt lat="44.9932254" lon="9.0666731"><ele>95.0</ele><time>2026-03-29T09:12:31.336Z</time></trkpt><trkpt lat="44.9929709" lon="9.0665679"><ele>95.0</ele><time>2026-03-29T09:12:33.322Z</time></trkpt><trkpt lat="44.9928147" lon="9.0664996"><ele>95.0</ele><time>2026-03-29T09:12:34.327Z</time></trkpt><trkpt lat="44.9924586" lon="9.0663531"><ele>95.0</ele><time>2026-03-29T09:12:36.325Z</time></trkpt><trkpt lat="44.9922734" lon="9.0662779"><ele>95.0</ele><time>2026-03-29T09:12:37.327Z</time></trkpt><trkpt lat="44.9920872" lon="9.0662023"><ele>95.0</ele><time>2026-03-29T09:12:38.335Z</time></trkpt><trkpt lat="44.9919005" lon="9.0661264"><ele>96.5</ele><time>2026-03-29T09:12:39.336Z</time></trkpt><trkpt lat="44.9915229" lon="9.0659673"><ele>98.0</ele><time>2026-03-29T09:12:41.332Z</time></trkpt><trkpt lat="44.9911437" lon="9.0658093"><ele>98.0</ele><time>2026-03-29T09:12:43.327Z</time></trkpt><trkpt lat="44.9909545" lon="9.0657328"><ele>98.0</ele><time>2026-03-29T09:12:44.33Z</time></trkpt><trkpt lat="44.990578" lon="9.0655783"><ele>98.0</ele><time>2026-03-29T09:12:46.336Z</time></trkpt><trkpt lat="44.990203" lon="9.0654261"><ele>98.0</ele><time>2026-03-29T09:12:48.325Z</time></trkpt><trkpt lat="44.9898321" lon="9.0652683"><ele>99.0</ele><time>2026-03-29T09:12:50.328Z</time></trkpt><trkpt lat="44.9894604" lon="9.0651083"><ele>100.0</ele><time>2026-03-29T09:12:52.328Z</time></trkpt><trkpt lat="44.989273" lon="9.0650311"><ele>98.5</ele><time>2026-03-29T09:12:53.33Z</time></trkpt><trkpt lat="44.9888957" lon="9.0648743"><ele>97.0</ele><time>2026-03-29T09:12:55.323Z</time></trkpt><trkpt lat="44.9887037" lon="9.0647918"><ele>97.0</ele><time>2026-03-29T09:12:56.326Z</time></trkpt><trkpt lat="44.9885077" lon="9.0647091"><ele>97.0</ele><time>2026-03-29T09:12:57.344Z</time></trkpt><trkpt lat="44.9880982" lon="9.0645424"><ele>98.0</ele><time>2026-03-29T09:12:59.324Z</time></trkpt><trkpt lat="44.9876791" lon="9.0643756"><ele>99.0</ele><time>2026-03-29T09:13:01.329Z</time></trkpt><trkpt lat="44.9874626" lon="9.0642973"><ele>100.5</ele><time>2026-03-29T09:13:02.338Z</time></trkpt><trkpt lat="44.9870294" lon="9.0641666"><ele>102.0</ele><time>2026-03-29T09:13:04.333Z</time></trkpt><trkpt lat="44.9868252" lon="9.0641183"><ele>101.5</ele><time>2026-03-29T09:13:05.34Z</time></trkpt><trkpt lat="44.9864309" lon="9.0640359"><ele>101.0</ele><time>2026-03-29T09:13:07.34Z</time></trkpt><trkpt lat="44.9860397" lon="9.0639609"><ele>102.0</ele><time>2026-03-29T09:13:09.337Z</time></trkpt><trkpt lat="44.9856559" lon="9.0639078"><ele>103.0</ele><time>2026-03-29T09:13:11.344Z</time></trkpt><trkpt lat="44.9852767" lon="9.0638719"><ele>103.0</ele><time>2026-03-29T09:13:13.332Z</time></trkpt><trkpt lat="44.9850892" lon="9.0638568"><ele>103.0</ele><time>2026-03-29T09:13:14.336Z</time></trkpt><trkpt lat="44.9847129" lon="9.0638186"><ele>103.33333333333334</ele><time>2026-03-29T09:13:16.334Z</time></trkpt><trkpt lat="44.9845229" lon="9.0637976"><ele>103.66666666666666</ele><time>2026-03-29T09:13:17.338Z</time></trkpt><trkpt lat="44.9843342" lon="9.0637716"><ele>104.0</ele><time>2026-03-29T09:13:18.345Z</time></trkpt><trkpt lat="44.9839621" lon="9.0637006"><ele>104.0</ele><time>2026-03-29T09:13:20.338Z</time></trkpt><trkpt lat="44.9837795" lon="9.0636586"><ele>104.0</ele><time>2026-03-29T09:13:21.342Z</time></trkpt><trkpt lat="44.9836031" lon="9.0636163"><ele>104.0</ele><time>2026-03-29T09:13:22.342Z</time></trkpt><trkpt lat="44.9832657" lon="9.0635326"><ele>104.5</ele><time>2026-03-29T09:13:24.338Z</time></trkpt><trkpt lat="44.9829249" lon="9.0634448"><ele>105.0</ele><time>2026-03-29T09:13:26.336Z</time></trkpt><trkpt lat="44.9825884" lon="9.0633593"><ele>106.0</ele><time>2026-03-29T09:13:28.336Z</time></trkpt><trkpt lat="44.9824214" lon="9.0633151"><ele>107.0</ele><time>2026-03-29T09:13:29.345Z</time></trkpt><trkpt lat="44.9822597" lon="9.0632678"><ele>108.0</ele><time>2026-03-29T09:13:30.344Z</time></trkpt><trkpt lat="44.9819597" lon="9.0631801"><ele>108.0</ele><time>2026-03-29T09:13:32.339Z</time></trkpt><trkpt lat="44.9818206" lon="9.0631368"><ele>108.0</ele><time>2026-03-29T09:13:33.349Z</time></trkpt><trkpt lat="44.9815584" lon="9.0630558"><ele>108.0</ele><time>2026-03-29T09:13:35.345Z</time></trkpt><trkpt lat="44.9813197" lon="9.0630069"><ele>108.0</ele><time>2026-03-29T09:13:37.342Z</time></trkpt><trkpt lat="44.981215" lon="9.0629888"><ele>108.00000000000001</ele><time>2026-03-29T09:13:38.351Z</time></trkpt><trkpt lat="44.9810547" lon="9.0629528"><ele>108.00000000000001</ele><time>2026-03-29T09:13:40.344Z</time></trkpt><trkpt lat="44.9809629" lon="9.0629189"><ele>108.0</ele><time>2026-03-29T09:13:42.347Z</time></trkpt><trkpt lat="44.9809022" lon="9.0628863"><ele>108.0</ele><time>2026-03-29T09:13:45.349Z</time></trkpt><trkpt lat="44.9808182" lon="9.0628113"><ele>108.0</ele><time>2026-03-29T09:13:53.35Z</time></trkpt><trkpt lat="44.9806617" lon="9.0627499"><ele>108.0</ele><time>2026-03-29T09:13:55.336Z</time></trkpt><trkpt lat="44.980561" lon="9.0627709"><ele>108.0</ele><time>2026-03-29T09:13:56.347Z</time></trkpt><trkpt lat="44.9804457" lon="9.0627793"><ele>108.0</ele><time>2026-03-29T09:13:57.376Z</time></trkpt><trkpt lat="44.9801755" lon="9.0627223"><ele>108.5</ele><time>2026-03-29T09:13:59.342Z</time></trkpt><trkpt lat="44.9798659" lon="9.0626518"><ele>109.0</ele><time>2026-03-29T09:14:01.34Z</time></trkpt><trkpt lat="44.979523" lon="9.0625733"><ele>109.0</ele><time>2026-03-29T09:14:03.332Z</time></trkpt><trkpt lat="44.9793434" lon="9.0625291"><ele>109.0</ele><time>2026-03-29T09:14:04.338Z</time></trkpt><trkpt lat="44.9791597" lon="9.0624858"><ele>109.0</ele><time>2026-03-29T09:14:05.337Z</time></trkpt><trkpt lat="44.9787877" lon="9.0623961"><ele>109.66666666666667</ele><time>2026-03-29T09:14:07.336Z</time></trkpt><trkpt lat="44.9785994" lon="9.0623526"><ele>110.33333333333334</ele><time>2026-03-29T09:14:08.34Z</time></trkpt><trkpt lat="44.9784112" lon="9.0623088"><ele>111.0</ele><time>2026-03-29T09:14:09.343Z</time></trkpt><trkpt lat="44.9780402" lon="9.0622203"><ele>112.0</ele><time>2026-03-29T09:14:11.333Z</time></trkpt><trkpt lat="44.9778672" lon="9.0621809"><ele>113.0</ele><time>2026-03-29T09:14:12.345Z</time></trkpt><trkpt lat="44.9775474" lon="9.0621098"><ele>112.66666666666666</ele><time>2026-03-29T09:14:14.322Z</time></trkpt><trkpt lat="44.9773937" lon="9.0620718"><ele>112.33333333333334</ele><time>2026-03-29T09:14:15.33Z</time></trkpt><trkpt lat="44.9771069" lon="9.0620044"><ele>112.0</ele><time>2026-03-29T09:14:17.325Z</time></trkpt><trkpt lat="44.9769642" lon="9.0619728"><ele>112.0</ele><time>2026-03-29T09:14:18.325Z</time></trkpt><trkpt lat="44.9768152" lon="9.0619413"><ele>112.0</ele><time>2026-03-29T09:14:19.336Z</time></trkpt><trkpt lat="44.9765087" lon="9.0618846"><ele>112.0</ele><time>2026-03-29T09:14:21.333Z</time></trkpt><trkpt lat="44.9761866" lon="9.0618276"><ele>112.0</ele><time>2026-03-29T09:14:23.328Z</time></trkpt><trkpt lat="44.9760096" lon="9.0617988"><ele>113.5</ele><time>2026-03-29T09:14:24.33Z</time></trkpt><trkpt lat="44.9758185" lon="9.0617678"><ele>115.0</ele><time>2026-03-29T09:14:25.333Z</time></trkpt><trkpt lat="44.9754077" lon="9.0616954"><ele>115.0</ele><time>2026-03-29T09:14:27.338Z</time></trkpt><trkpt lat="44.975197" lon="9.0616604"><ele>115.0</ele><time>2026-03-29T09:14:28.343Z</time></trkpt><trkpt lat="44.9747677" lon="9.0615858"><ele>115.0</ele><time>2026-03-29T09:14:30.351Z</time></trkpt><trkpt lat="44.9743302" lon="9.0615139"><ele>115.0</ele><time>2026-03-29T09:14:32.35Z</time></trkpt><trkpt lat="44.9738835" lon="9.0614369"><ele>115.0</ele><time>2026-03-29T09:14:34.343Z</time></trkpt><trkpt lat="44.973659" lon="9.0613999"><ele>115.0</ele><time>2026-03-29T09:14:35.344Z</time></trkpt><trkpt lat="44.9732076" lon="9.0613214"><ele>116.5</ele><time>2026-03-29T09:14:37.329Z</time></trkpt><trkpt lat="44.9729819" lon="9.0612851"><ele>118.0</ele><time>2026-03-29T09:14:38.331Z</time></trkpt><trkpt lat="44.97276" lon="9.0612484"><ele>118.0</ele><time>2026-03-29T09:14:39.341Z</time></trkpt><trkpt lat="44.9725385" lon="9.0612111"><ele>118.0</ele><time>2026-03-29T09:14:40.346Z</time></trkpt><trkpt lat="44.9721032" lon="9.0611391"><ele>118.5</ele><time>2026-03-29T09:14:42.351Z</time></trkpt><trkpt lat="44.9716894" lon="9.0610681"><ele>119.0</ele><time>2026-03-29T09:14:44.35Z</time></trkpt><trkpt lat="44.9713017" lon="9.0610036"><ele>119.0</ele><time>2026-03-29T09:14:46.337Z</time></trkpt><trkpt lat="44.9711135" lon="9.0609688"><ele>119.0</ele><time>2026-03-29T09:14:47.337Z</time></trkpt><trkpt lat="44.9707449" lon="9.0609079"><ele>120.5</ele><time>2026-03-29T09:14:49.34Z</time></trkpt><trkpt lat="44.9704015" lon="9.0608473"><ele>122.0</ele><time>2026-03-29T09:14:51.344Z</time></trkpt><trkpt lat="44.9700729" lon="9.0607911"><ele>123.5</ele><time>2026-03-29T09:14:53.338Z</time></trkpt><trkpt lat="44.9697596" lon="9.0607404"><ele>125.0</ele><time>2026-03-29T09:14:55.348Z</time></trkpt><trkpt lat="44.9694827" lon="9.0606948"><ele>125.0</ele><time>2026-03-29T09:14:57.334Z</time></trkpt><trkpt lat="44.969362" lon="9.0606739"><ele>125.0</ele><time>2026-03-29T09:14:58.342Z</time></trkpt><trkpt lat="44.9692527" lon="9.0606441"><ele>125.0</ele><time>2026-03-29T09:14:59.344Z</time></trkpt><trkpt lat="44.9691547" lon="9.0605948"><ele>125.0</ele><time>2026-03-29T09:15:00.347Z</time></trkpt><trkpt lat="44.9689927" lon="9.0604374"><ele>124.25</ele><time>2026-03-29T09:15:02.344Z</time></trkpt><trkpt lat="44.9688847" lon="9.0602069"><ele>123.5</ele><time>2026-03-29T09:15:04.337Z</time></trkpt><trkpt lat="44.9688257" lon="9.0601074"><ele>122.75</ele><time>2026-03-29T09:15:05.34Z</time></trkpt><trkpt lat="44.9687497" lon="9.0600366"><ele>122.0</ele><time>2026-03-29T09:15:06.342Z</time></trkpt><trkpt lat="44.9686617" lon="9.0599726"><ele>123.0</ele><time>2026-03-29T09:15:07.344Z</time></trkpt><trkpt lat="44.9685747" lon="9.0598859"><ele>124.0</ele><time>2026-03-29T09:15:08.35Z</time></trkpt><trkpt lat="44.9684982" lon="9.0597664"><ele>125.0</ele><time>2026-03-29T09:15:09.352Z</time></trkpt><trkpt lat="44.9683759" lon="9.0594593"><ele>125.5</ele><time>2026-03-29T09:15:11.337Z</time></trkpt><trkpt lat="44.9683262" lon="9.0592813"><ele>126.0</ele><time>2026-03-29T09:15:12.34Z</time></trkpt><trkpt lat="44.9682766" lon="9.0590969"><ele>126.5</ele><time>2026-03-29T09:15:13.345Z</time></trkpt><trkpt lat="44.9682267" lon="9.0589116"><ele>127.0</ele><time>2026-03-29T09:15:14.345Z</time></trkpt><trkpt lat="44.9681762" lon="9.0587236"><ele>127.0</ele><time>2026-03-29T09:15:15.348Z</time></trkpt><trkpt lat="44.9680779" lon="9.0583633"><ele>127.0</ele><time>2026-03-29T09:15:17.347Z</time></trkpt><trkpt lat="44.9679762" lon="9.0579881"><ele>127.0</ele><time>2026-03-29T09:15:19.335Z</time></trkpt><trkpt lat="44.9679229" lon="9.0577911"><ele>127.0</ele><time>2026-03-29T09:15:20.338Z</time></trkpt><trkpt lat="44.967866" lon="9.0575808"><ele>127.0</ele><time>2026-03-29T09:15:21.34Z</time></trkpt><trkpt lat="44.9677222" lon="9.0570888"><ele>127.0</ele><time>2026-03-29T09:15:23.342Z</time></trkpt><trkpt lat="44.9676422" lon="9.0568101"><ele>127.0</ele><time>2026-03-29T09:15:24.342Z</time></trkpt><trkpt lat="44.9675652" lon="9.0565176"><ele>127.0</ele><time>2026-03-29T09:15:25.346Z</time></trkpt><trkpt lat="44.9674112" lon="9.0559153"><ele>130.0</ele><time>2026-03-29T09:15:27.345Z</time></trkpt><trkpt lat="44.9672497" lon="9.0552944"><ele>130.0</ele><time>2026-03-29T09:15:29.338Z</time></trkpt><trkpt lat="44.9671647" lon="9.0549798"><ele>130.0</ele><time>2026-03-29T09:15:30.344Z</time></trkpt><trkpt lat="44.9669962" lon="9.0543531"><ele>128.0</ele><time>2026-03-29T09:15:32.346Z</time></trkpt><trkpt lat="44.9668289" lon="9.0537366"><ele>127.0</ele><time>2026-03-29T09:15:34.336Z</time></trkpt><trkpt lat="44.9666606" lon="9.0531278"><ele>127.0</ele><time>2026-03-29T09:15:36.337Z</time></trkpt><trkpt lat="44.9664964" lon="9.0525271"><ele>127.0</ele><time>2026-03-29T09:15:38.339Z</time></trkpt><trkpt lat="44.9663359" lon="9.0519324"><ele>127.0</ele><time>2026-03-29T09:15:40.337Z</time></trkpt><trkpt lat="44.966252" lon="9.0516389"><ele>127.0</ele><time>2026-03-29T09:15:41.338Z</time></trkpt><trkpt lat="44.9661642" lon="9.0513509"><ele>127.0</ele><time>2026-03-29T09:15:42.339Z</time></trkpt><trkpt lat="44.9659559" lon="9.0508036"><ele>128.0</ele><time>2026-03-29T09:15:44.338Z</time></trkpt><trkpt lat="44.9658394" lon="9.0505509"><ele>129.0</ele><time>2026-03-29T09:15:45.346Z</time></trkpt><trkpt lat="44.9656094" lon="9.0500908"><ele>129.0</ele><time>2026-03-29T09:15:47.342Z</time></trkpt><trkpt lat="44.9654912" lon="9.0498684"><ele>129.0</ele><time>2026-03-29T09:15:48.342Z</time></trkpt><trkpt lat="44.9652472" lon="9.0494189"><ele>129.0</ele><time>2026-03-29T09:15:50.34Z</time></trkpt><trkpt lat="44.9651219" lon="9.0491874"><ele>129.0</ele><time>2026-03-29T09:15:51.342Z</time></trkpt><trkpt lat="44.9649957" lon="9.0489521"><ele>129.0</ele><time>2026-03-29T09:15:52.343Z</time></trkpt><trkpt lat="44.9647406" lon="9.0484683"><ele>128.5</ele><time>2026-03-29T09:15:54.338Z</time></trkpt><trkpt lat="44.9646057" lon="9.0482198"><ele>128.0</ele><time>2026-03-29T09:15:55.344Z</time></trkpt><trkpt lat="44.9643386" lon="9.0477251"><ele>127.5</ele><time>2026-03-29T09:15:57.349Z</time></trkpt><trkpt lat="44.9640785" lon="9.0472394"><ele>127.0</ele><time>2026-03-29T09:15:59.33Z</time></trkpt><trkpt lat="44.9639509" lon="9.0469978"><ele>127.5</ele><time>2026-03-29T09:16:00.331Z</time></trkpt><trkpt lat="44.9636926" lon="9.0465101"><ele>128.0</ele><time>2026-03-29T09:16:02.332Z</time></trkpt><trkpt lat="44.9634334" lon="9.0460188"><ele>128.0</ele><time>2026-03-29T09:16:04.334Z</time></trkpt><trkpt lat="44.9633019" lon="9.0457723"><ele>128.0</ele><time>2026-03-29T09:16:05.335Z</time></trkpt><trkpt lat="44.9630394" lon="9.0452791"><ele>128.0</ele><time>2026-03-29T09:16:07.334Z</time></trkpt><trkpt lat="44.9629055" lon="9.0450398"><ele>128.0</ele><time>2026-03-29T09:16:08.347Z</time></trkpt><trkpt lat="44.9626092" lon="9.0446001"><ele>128.33333333333331</ele><time>2026-03-29T09:16:10.342Z</time></trkpt><trkpt lat="44.9624397" lon="9.0444093"><ele>128.66666666666666</ele><time>2026-03-29T09:16:11.342Z</time></trkpt><trkpt lat="44.9622592" lon="9.0442304"><ele>129.0</ele><time>2026-03-29T09:16:12.354Z</time></trkpt><trkpt lat="44.9620679" lon="9.0440581"><ele>130.0</ele><time>2026-03-29T09:16:13.371Z</time></trkpt><trkpt lat="44.9616766" lon="9.0437089"><ele>130.0</ele><time>2026-03-29T09:16:15.345Z</time></trkpt><trkpt lat="44.9612817" lon="9.0433483"><ele>130.0</ele><time>2026-03-29T09:16:17.339Z</time></trkpt><trkpt lat="44.9610797" lon="9.0431626"><ele>130.0</ele><time>2026-03-29T09:16:18.338Z</time></trkpt><trkpt lat="44.9606679" lon="9.0427863"><ele>130.0</ele><time>2026-03-29T09:16:20.336Z</time></trkpt><trkpt lat="44.9604621" lon="9.0425991"><ele>130.0</ele><time>2026-03-29T09:16:21.341Z</time></trkpt><trkpt lat="44.9600484" lon="9.0422246"><ele>131.5</ele><time>2026-03-29T09:16:23.332Z</time></trkpt><trkpt lat="44.9598397" lon="9.0420344"><ele>133.0</ele><time>2026-03-29T09:16:24.334Z</time></trkpt><trkpt lat="44.9596294" lon="9.0418433"><ele>134.0</ele><time>2026-03-29T09:16:25.338Z</time></trkpt><trkpt lat="44.9592047" lon="9.0414529"><ele>135.0</ele><time>2026-03-29T09:16:27.33Z</time></trkpt><trkpt lat="44.9587811" lon="9.0410651"><ele>135.0</ele><time>2026-03-29T09:16:29.326Z</time></trkpt><trkpt lat="44.958569" lon="9.0408739"><ele>135.0</ele><time>2026-03-29T09:16:30.33Z</time></trkpt><trkpt lat="44.9583576" lon="9.0406846"><ele>136.0</ele><time>2026-03-29T09:16:31.331Z</time></trkpt><trkpt lat="44.9581471" lon="9.0404923"><ele>137.0</ele><time>2026-03-29T09:16:32.339Z</time></trkpt><trkpt lat="44.9579422" lon="9.0402904"><ele>136.0</ele><time>2026-03-29T09:16:33.339Z</time></trkpt><trkpt lat="44.9575787" lon="9.0398311"><ele>136.5</ele><time>2026-03-29T09:16:35.323Z</time></trkpt><trkpt lat="44.9574239" lon="9.0395694"><ele>137.0</ele><time>2026-03-29T09:16:36.325Z</time></trkpt><trkpt lat="44.9572849" lon="9.0392929"><ele>138.0</ele><time>2026-03-29T09:16:37.328Z</time></trkpt><trkpt lat="44.9571559" lon="9.0390058"><ele>139.0</ele><time>2026-03-29T09:16:38.341Z</time></trkpt><trkpt lat="44.9569114" lon="9.0384211"><ele>141.0</ele><time>2026-03-29T09:16:40.334Z</time></trkpt><trkpt lat="44.9566675" lon="9.0378781"><ele>141.5</ele><time>2026-03-29T09:16:42.336Z</time></trkpt><trkpt lat="44.956369" lon="9.0374088"><ele>142.0</ele><time>2026-03-29T09:16:44.341Z</time></trkpt><trkpt lat="44.9562012" lon="9.0371899"><ele>142.0</ele><time>2026-03-29T09:16:45.344Z</time></trkpt><trkpt lat="44.9560356" lon="9.0369793"><ele>142.0</ele><time>2026-03-29T09:16:46.346Z</time></trkpt><trkpt lat="44.9558747" lon="9.0367768"><ele>142.0</ele><time>2026-03-29T09:16:47.35Z</time></trkpt><trkpt lat="44.9557172" lon="9.0365781"><ele>143.0</ele><time>2026-03-29T09:16:48.355Z</time></trkpt><trkpt lat="44.9554102" lon="9.0361893"><ele>144.0</ele><time>2026-03-29T09:16:50.346Z</time></trkpt><trkpt lat="44.955112" lon="9.0358094"><ele>144.5</ele><time>2026-03-29T09:16:52.347Z</time></trkpt><trkpt lat="44.9548182" lon="9.0354356"><ele>145.0</ele><time>2026-03-29T09:16:54.346Z</time></trkpt><trkpt lat="44.9545387" lon="9.0350848"><ele>144.5</ele><time>2026-03-29T09:16:56.335Z</time></trkpt><trkpt lat="44.9544129" lon="9.0349244"><ele>144.0</ele><time>2026-03-29T09:16:57.343Z</time></trkpt><trkpt lat="44.9541819" lon="9.0346348"><ele>144.33333333333334</ele><time>2026-03-29T09:16:59.324Z</time></trkpt><trkpt lat="44.9540767" lon="9.0345023"><ele>144.66666666666669</ele><time>2026-03-29T09:17:00.334Z</time></trkpt><trkpt lat="44.9539827" lon="9.0343764"><ele>145.0</ele><time>2026-03-29T09:17:01.355Z</time></trkpt><trkpt lat="44.9538242" lon="9.0341276"><ele>145.0</ele><time>2026-03-29T09:17:03.325Z</time></trkpt><trkpt lat="44.9537651" lon="9.0339958"><ele>145.0</ele><time>2026-03-29T09:17:04.334Z</time></trkpt><trkpt lat="44.95365" lon="9.0337631"><ele>145.0</ele><time>2026-03-29T09:17:06.339Z</time></trkpt><trkpt lat="44.9534547" lon="9.0336113"><ele>144.5</ele><time>2026-03-29T09:17:08.342Z</time></trkpt><trkpt lat="44.9532397" lon="9.0334154"><ele>144.0</ele><time>2026-03-29T09:17:10.335Z</time></trkpt><trkpt lat="44.9530239" lon="9.0331548"><ele>143.0</ele><time>2026-03-29T09:17:12.319Z</time></trkpt><trkpt lat="44.9529136" lon="9.0330131"><ele>142.0</ele><time>2026-03-29T09:17:13.335Z</time></trkpt><trkpt lat="44.9528017" lon="9.0328684"><ele>141.0</ele><time>2026-03-29T09:17:14.337Z</time></trkpt><trkpt lat="44.9526889" lon="9.0327221"><ele>143.0</ele><time>2026-03-29T09:17:15.344Z</time></trkpt><trkpt lat="44.9524566" lon="9.0324268"><ele>145.0</ele><time>2026-03-29T09:17:17.329Z</time></trkpt><trkpt lat="44.9523357" lon="9.0322786"><ele>145.0</ele><time>2026-03-29T09:17:18.334Z</time></trkpt><trkpt lat="44.9522146" lon="9.0321276"><ele>145.0</ele><time>2026-03-29T09:17:19.334Z</time></trkpt><trkpt lat="44.9519704" lon="9.0318179"><ele>145.0</ele><time>2026-03-29T09:17:21.336Z</time></trkpt><trkpt lat="44.9517212" lon="9.0315008"><ele>145.0</ele><time>2026-03-29T09:17:23.329Z</time></trkpt><trkpt lat="44.9515942" lon="9.0313338"><ele>145.0</ele><time>2026-03-29T09:17:24.334Z</time></trkpt><trkpt lat="44.9513297" lon="9.0309944"><ele>145.0</ele><time>2026-03-29T09:17:26.336Z</time></trkpt><trkpt lat="44.9510517" lon="9.0306369"><ele>145.0</ele><time>2026-03-29T09:17:28.33Z</time></trkpt><trkpt lat="44.9509034" lon="9.0304489"><ele>145.0</ele><time>2026-03-29T09:17:29.336Z</time></trkpt><trkpt lat="44.9507489" lon="9.0302544"><ele>145.0</ele><time>2026-03-29T09:17:30.345Z</time></trkpt><trkpt lat="44.9504302" lon="9.0298571"><ele>144.0</ele><time>2026-03-29T09:17:32.339Z</time></trkpt><trkpt lat="44.950263" lon="9.0296639"><ele>143.0</ele><time>2026-03-29T09:17:33.35Z</time></trkpt><trkpt lat="44.9498926" lon="9.0293419"><ele>143.0</ele><time>2026-03-29T09:17:35.324Z</time></trkpt><trkpt lat="44.9496902" lon="9.0292191"><ele>143.0</ele><time>2026-03-29T09:17:36.326Z</time></trkpt><trkpt lat="44.9494807" lon="9.0291166"><ele>143.0</ele><time>2026-03-29T09:17:37.332Z</time></trkpt><trkpt lat="44.9490476" lon="9.0289351"><ele>144.0</ele><time>2026-03-29T09:17:39.342Z</time></trkpt><trkpt lat="44.9486089" lon="9.0287479"><ele>144.0</ele><time>2026-03-29T09:17:41.328Z</time></trkpt><trkpt lat="44.9481774" lon="9.0285614"><ele>144.0</ele><time>2026-03-29T09:17:43.324Z</time></trkpt><trkpt lat="44.9479634" lon="9.0284683"><ele>144.0</ele><time>2026-03-29T09:17:44.328Z</time></trkpt><trkpt lat="44.9475339" lon="9.0282811"><ele>142.5</ele><time>2026-03-29T09:17:46.325Z</time></trkpt><trkpt lat="44.9473177" lon="9.0281861"><ele>141.0</ele><time>2026-03-29T09:17:47.326Z</time></trkpt><trkpt lat="44.9471005" lon="9.0280908"><ele>141.0</ele><time>2026-03-29T09:17:48.332Z</time></trkpt><trkpt lat="44.9468829" lon="9.0279976"><ele>141.0</ele><time>2026-03-29T09:17:49.333Z</time></trkpt><trkpt lat="44.946665" lon="9.0279051"><ele>142.0</ele><time>2026-03-29T09:17:50.338Z</time></trkpt><trkpt lat="44.9464469" lon="9.0278124"><ele>143.0</ele><time>2026-03-29T09:17:51.338Z</time></trkpt><trkpt lat="44.9460116" lon="9.0276253"><ele>143.0</ele><time>2026-03-29T09:17:53.332Z</time></trkpt><trkpt lat="44.9455754" lon="9.0274314"><ele>143.0</ele><time>2026-03-29T09:17:55.341Z</time></trkpt><trkpt lat="44.9451346" lon="9.0272393"><ele>141.0</ele><time>2026-03-29T09:17:57.343Z</time></trkpt><trkpt lat="44.9446825" lon="9.0270746"><ele>141.0</ele><time>2026-03-29T09:17:59.336Z</time></trkpt><trkpt lat="44.9442192" lon="9.0269489"><ele>144.0</ele><time>2026-03-29T09:18:01.342Z</time></trkpt><trkpt lat="44.943754" lon="9.0268341"><ele>147.0</ele><time>2026-03-29T09:18:03.332Z</time></trkpt><trkpt lat="44.9432931" lon="9.0267148"><ele>147.0</ele><time>2026-03-29T09:18:05.331Z</time></trkpt><trkpt lat="44.9430634" lon="9.0266529"><ele>147.0</ele><time>2026-03-29T09:18:06.333Z</time></trkpt><trkpt lat="44.9428342" lon="9.0265904"><ele>140.0</ele><time>2026-03-29T09:18:07.338Z</time></trkpt><trkpt lat="44.9423747" lon="9.0264728"><ele>140.0</ele><time>2026-03-29T09:18:09.331Z</time></trkpt><trkpt lat="44.9421466" lon="9.0264173"><ele>140.0</ele><time>2026-03-29T09:18:10.346Z</time></trkpt><trkpt lat="44.9417036" lon="9.0263041"><ele>141.0</ele><time>2026-03-29T09:18:12.334Z</time></trkpt><trkpt lat="44.9412785" lon="9.0261294"><ele>142.0</ele><time>2026-03-29T09:18:14.335Z</time></trkpt><trkpt lat="44.9408739" lon="9.0258653"><ele>141.0</ele><time>2026-03-29T09:18:16.32Z</time></trkpt><trkpt lat="44.940671" lon="9.0257244"><ele>140.0</ele><time>2026-03-29T09:18:17.329Z</time></trkpt><trkpt lat="44.940463" lon="9.0255788"><ele>142.0</ele><time>2026-03-29T09:18:18.339Z</time></trkpt><trkpt lat="44.9400465" lon="9.0252771"><ele>142.0</ele><time>2026-03-29T09:18:20.329Z</time></trkpt><trkpt lat="44.9398455" lon="9.0251204"><ele>142.0</ele><time>2026-03-29T09:18:21.334Z</time></trkpt><trkpt lat="44.9396549" lon="9.0249454"><ele>139.0</ele><time>2026-03-29T09:18:22.346Z</time></trkpt><trkpt lat="44.9392979" lon="9.0245399"><ele>140.0</ele><time>2026-03-29T09:18:24.355Z</time></trkpt><trkpt lat="44.9389449" lon="9.0241194"><ele>140.0</ele><time>2026-03-29T09:18:26.334Z</time></trkpt><trkpt lat="44.938768" lon="9.0239113"><ele>140.0</ele><time>2026-03-29T09:18:27.34Z</time></trkpt><trkpt lat="44.938414" lon="9.0235196"><ele>140.0</ele><time>2026-03-29T09:18:29.378Z</time></trkpt><trkpt lat="44.9380314" lon="9.0231918"><ele>140.0</ele><time>2026-03-29T09:18:31.338Z</time></trkpt><trkpt lat="44.9376352" lon="9.0228878"><ele>141.5</ele><time>2026-03-29T09:18:33.33Z</time></trkpt><trkpt lat="44.937434" lon="9.0227453"><ele>143.0</ele><time>2026-03-29T09:18:34.333Z</time></trkpt><trkpt lat="44.9372261" lon="9.0226243"><ele>143.0</ele><time>2026-03-29T09:18:35.34Z</time></trkpt><trkpt lat="44.9370114" lon="9.0225379"><ele>143.0</ele><time>2026-03-29T09:18:36.342Z</time></trkpt><trkpt lat="44.9365792" lon="9.0224374"><ele>141.0</ele><time>2026-03-29T09:18:38.35Z</time></trkpt><trkpt lat="44.9361796" lon="9.0223529"><ele>139.0</ele><time>2026-03-29T09:18:40.346Z</time></trkpt><trkpt lat="44.9359939" lon="9.0223144"><ele>142.0</ele><time>2026-03-29T09:18:41.355Z</time></trkpt><trkpt lat="44.935643" lon="9.0222381"><ele>145.0</ele><time>2026-03-29T09:18:43.345Z</time></trkpt><trkpt lat="44.935293" lon="9.0221619"><ele>145.0</ele><time>2026-03-29T09:18:45.346Z</time></trkpt><trkpt lat="44.9351111" lon="9.0221231"><ele>145.0</ele><time>2026-03-29T09:18:46.352Z</time></trkpt><trkpt lat="44.9347421" lon="9.0220418"><ele>146.0</ele><time>2026-03-29T09:18:48.35Z</time></trkpt><trkpt lat="44.9345562" lon="9.0220003"><ele>147.0</ele><time>2026-03-29T09:18:49.358Z</time></trkpt><trkpt lat="44.934196" lon="9.0218986"><ele>148.5</ele><time>2026-03-29T09:18:51.357Z</time></trkpt><trkpt lat="44.9338506" lon="9.0217934"><ele>150.0</ele><time>2026-03-29T09:18:53.349Z</time></trkpt><trkpt lat="44.9335112" lon="9.0216568"><ele>148.0</ele><time>2026-03-29T09:18:55.344Z</time></trkpt><trkpt lat="44.9331744" lon="9.0215178"><ele>146.0</ele><time>2026-03-29T09:18:57.353Z</time></trkpt><trkpt lat="44.9328782" lon="9.0214038"><ele>146.0</ele><time>2026-03-29T09:18:59.341Z</time></trkpt><trkpt lat="44.9327512" lon="9.0213531"><ele>146.0</ele><time>2026-03-29T09:19:00.343Z</time></trkpt><trkpt lat="44.9324994" lon="9.0212546"><ele>146.0</ele><time>2026-03-29T09:19:02.342Z</time></trkpt><trkpt lat="44.9323661" lon="9.0212001"><ele>146.66666666666666</ele><time>2026-03-29T09:19:03.346Z</time></trkpt><trkpt lat="44.9320845" lon="9.0210919"><ele>147.33333333333334</ele><time>2026-03-29T09:19:05.341Z</time></trkpt><trkpt lat="44.931941" lon="9.0210394"><ele>148.0</ele><time>2026-03-29T09:19:06.347Z</time></trkpt><trkpt lat="44.9316466" lon="9.0209303"><ele>148.0</ele><time>2026-03-29T09:19:08.339Z</time></trkpt><trkpt lat="44.9315012" lon="9.0208749"><ele>148.0</ele><time>2026-03-29T09:19:09.342Z</time></trkpt><trkpt lat="44.9313589" lon="9.0208196"><ele>148.0</ele><time>2026-03-29T09:19:10.35Z</time></trkpt><trkpt lat="44.9310827" lon="9.0207106"><ele>147.66666666666669</ele><time>2026-03-29T09:19:12.335Z</time></trkpt><trkpt lat="44.9309492" lon="9.0206571"><ele>147.33333333333334</ele><time>2026-03-29T09:19:13.344Z</time></trkpt><trkpt lat="44.9307064" lon="9.0205551"><ele>147.0</ele><time>2026-03-29T09:19:15.342Z</time></trkpt><trkpt lat="44.9306044" lon="9.0204984"><ele>147.6</ele><time>2026-03-29T09:19:16.342Z</time></trkpt><trkpt lat="44.9305145" lon="9.0204376"><ele>148.2</ele><time>2026-03-29T09:19:17.342Z</time></trkpt><trkpt lat="44.9303665" lon="9.0203256"><ele>148.8</ele><time>2026-03-29T09:19:19.319Z</time></trkpt><trkpt lat="44.9303045" lon="9.0202768"><ele>149.4</ele><time>2026-03-29T09:19:20.321Z</time></trkpt><trkpt lat="44.930216" lon="9.0202073"><ele>150.0</ele><time>2026-03-29T09:19:22.333Z</time></trkpt><trkpt lat="44.930157" lon="9.0201328"><ele>150.0</ele><time>2026-03-29T09:19:26.336Z</time></trkpt><trkpt lat="44.9300759" lon="9.0200326"><ele>150.0</ele><time>2026-03-29T09:19:29.324Z</time></trkpt><trkpt lat="44.9299862" lon="9.0200323"><ele>150.0</ele><time>2026-03-29T09:19:31.345Z</time></trkpt><trkpt lat="44.9298832" lon="9.0201779"><ele>150.0</ele><time>2026-03-29T09:19:34.334Z</time></trkpt><trkpt lat="44.9298049" lon="9.0202814"><ele>150.5</ele><time>2026-03-29T09:19:36.351Z</time></trkpt><trkpt lat="44.9297102" lon="9.0203858"><ele>151.0</ele><time>2026-03-29T09:19:38.339Z</time></trkpt><trkpt lat="44.9295997" lon="9.0205134"><ele>151.5</ele><time>2026-03-29T09:19:40.332Z</time></trkpt><trkpt lat="44.9295407" lon="9.0205858"><ele>152.0</ele><time>2026-03-29T09:19:41.346Z</time></trkpt><trkpt lat="44.9294179" lon="9.0207438"><ele>152.25</ele><time>2026-03-29T09:19:43.322Z</time></trkpt><trkpt lat="44.9293521" lon="9.0208224"><ele>152.5</ele><time>2026-03-29T09:19:44.331Z</time></trkpt><trkpt lat="44.9292151" lon="9.0209874"><ele>152.75</ele><time>2026-03-29T09:19:46.333Z</time></trkpt><trkpt lat="44.9291454" lon="9.0210716"><ele>153.0</ele><time>2026-03-29T09:19:47.339Z</time></trkpt><trkpt lat="44.9290007" lon="9.0212424"><ele>153.33333333333334</ele><time>2026-03-29T09:19:49.33Z</time></trkpt><trkpt lat="44.9288539" lon="9.0214209"><ele>153.66666666666669</ele><time>2026-03-29T09:19:51.331Z</time></trkpt><trkpt lat="44.9287019" lon="9.0216108"><ele>154.0</ele><time>2026-03-29T09:19:53.329Z</time></trkpt><trkpt lat="44.9286146" lon="9.0217198"><ele>154.33333333333334</ele><time>2026-03-29T09:19:54.333Z</time></trkpt><trkpt lat="44.9285154" lon="9.0218438"><ele>154.66666666666666</ele><time>2026-03-29T09:19:55.338Z</time></trkpt><trkpt lat="44.9282937" lon="9.0221126"><ele>155.0</ele><time>2026-03-29T09:19:57.327Z</time></trkpt><trkpt lat="44.9280514" lon="9.0224051"><ele>155.0</ele><time>2026-03-29T09:19:59.328Z</time></trkpt><trkpt lat="44.9279291" lon="9.0225564"><ele>155.0</ele><time>2026-03-29T09:20:00.328Z</time></trkpt><trkpt lat="44.9278079" lon="9.0227066"><ele>155.0</ele><time>2026-03-29T09:20:01.328Z</time></trkpt><trkpt lat="44.927565" lon="9.0230084"><ele>155.0</ele><time>2026-03-29T09:20:03.313Z</time></trkpt><trkpt lat="44.9274444" lon="9.0231569"><ele>155.0</ele><time>2026-03-29T09:20:04.313Z</time></trkpt><trkpt lat="44.9272061" lon="9.0234531"><ele>155.5</ele><time>2026-03-29T09:20:06.323Z</time></trkpt><trkpt lat="44.9270852" lon="9.0236026"><ele>156.0</ele><time>2026-03-29T09:20:07.328Z</time></trkpt><trkpt lat="44.9268412" lon="9.0239041"><ele>156.0</ele><time>2026-03-29T09:20:09.324Z</time></trkpt><trkpt lat="44.9267201" lon="9.0240564"><ele>156.0</ele><time>2026-03-29T09:20:10.332Z</time></trkpt><trkpt lat="44.9265975" lon="9.0242076"><ele>156.0</ele><time>2026-03-29T09:20:11.337Z</time></trkpt><trkpt lat="44.92635" lon="9.0245089"><ele>156.5</ele><time>2026-03-29T09:20:13.328Z</time></trkpt><trkpt lat="44.9261064" lon="9.0248109"><ele>157.0</ele><time>2026-03-29T09:20:15.327Z</time></trkpt><trkpt lat="44.9259844" lon="9.0249603"><ele>157.0</ele><time>2026-03-29T09:20:16.331Z</time></trkpt><trkpt lat="44.9258624" lon="9.0251111"><ele>157.0</ele><time>2026-03-29T09:20:17.341Z</time></trkpt><trkpt lat="44.9256177" lon="9.0254103"><ele>157.0</ele><time>2026-03-29T09:20:19.33Z</time></trkpt><trkpt lat="44.9254945" lon="9.0255609"><ele>157.0</ele><time>2026-03-29T09:20:20.345Z</time></trkpt><trkpt lat="44.9253712" lon="9.0257131"><ele>157.0</ele><time>2026-03-29T09:20:21.346Z</time></trkpt><trkpt lat="44.9251237" lon="9.0260213"><ele>157.0</ele><time>2026-03-29T09:20:23.341Z</time></trkpt><trkpt lat="44.9248711" lon="9.0263256"><ele>157.0</ele><time>2026-03-29T09:20:25.337Z</time></trkpt><trkpt lat="44.9247469" lon="9.0264773"><ele>157.0</ele><time>2026-03-29T09:20:26.345Z</time></trkpt><trkpt lat="44.9246316" lon="9.0266218"><ele>157.0</ele><time>2026-03-29T09:20:27.346Z</time></trkpt><trkpt lat="44.9244492" lon="9.0268603"><ele>157.0</ele><time>2026-03-29T09:20:29.356Z</time></trkpt><trkpt lat="44.9243154" lon="9.0270334"><ele>157.2</ele><time>2026-03-29T09:20:31.322Z</time></trkpt><trkpt lat="44.9242554" lon="9.0271086"><ele>157.39999999999998</ele><time>2026-03-29T09:20:32.336Z</time></trkpt><trkpt lat="44.9241471" lon="9.0272406"><ele>157.60000000000002</ele><time>2026-03-29T09:20:34.322Z</time></trkpt><trkpt lat="44.9240957" lon="9.0272961"><ele>157.8</ele><time>2026-03-29T09:20:35.332Z</time></trkpt><trkpt lat="44.924003" lon="9.0274096"><ele>158.0</ele><time>2026-03-29T09:20:37.328Z</time></trkpt><trkpt lat="44.9239072" lon="9.0275323"><ele>158.25</ele><time>2026-03-29T09:20:39.331Z</time></trkpt><trkpt lat="44.9238554" lon="9.0275943"><ele>158.5</ele><time>2026-03-29T09:20:40.339Z</time></trkpt><trkpt lat="44.9237435" lon="9.0277228"><ele>158.75</ele><time>2026-03-29T09:20:42.325Z</time></trkpt><trkpt lat="44.923686" lon="9.0277944"><ele>159.0</ele><time>2026-03-29T09:20:43.333Z</time></trkpt><trkpt lat="44.923561" lon="9.0279463"><ele>159.0</ele><time>2026-03-29T09:20:45.36Z</time></trkpt><trkpt lat="44.9234212" lon="9.0281088"><ele>159.0</ele><time>2026-03-29T09:20:47.331Z</time></trkpt><trkpt lat="44.9233487" lon="9.0281979"><ele>159.0</ele><time>2026-03-29T09:20:48.348Z</time></trkpt><trkpt lat="44.9232017" lon="9.0283803"><ele>160.0</ele><time>2026-03-29T09:20:50.336Z</time></trkpt><trkpt lat="44.9230529" lon="9.0285723"><ele>161.0</ele><time>2026-03-29T09:20:52.337Z</time></trkpt><trkpt lat="44.9229779" lon="9.0286691"><ele>162.0</ele><time>2026-03-29T09:20:53.341Z</time></trkpt><trkpt lat="44.9228249" lon="9.0288583"><ele>162.0</ele><time>2026-03-29T09:20:55.323Z</time></trkpt><trkpt lat="44.9227477" lon="9.0289509"><ele>162.0</ele><time>2026-03-29T09:20:56.345Z</time></trkpt><trkpt lat="44.9225962" lon="9.0291301"><ele>162.0</ele><time>2026-03-29T09:20:58.324Z</time></trkpt><trkpt lat="44.9224461" lon="9.0293151"><ele>162.25</ele><time>2026-03-29T09:21:00.319Z</time></trkpt><trkpt lat="44.9223716" lon="9.0294066"><ele>162.5</ele><time>2026-03-29T09:21:01.323Z</time></trkpt><trkpt lat="44.9222239" lon="9.0295903"><ele>162.75</ele><time>2026-03-29T09:21:03.316Z</time></trkpt><trkpt lat="44.9221497" lon="9.0296814"><ele>163.0</ele><time>2026-03-29T09:21:04.32Z</time></trkpt><trkpt lat="44.9219999" lon="9.0298664"><ele>163.0</ele><time>2026-03-29T09:21:06.322Z</time></trkpt><trkpt lat="44.92185" lon="9.0300514"><ele>163.0</ele><time>2026-03-29T09:21:08.318Z</time></trkpt><trkpt lat="44.9217752" lon="9.0301406"><ele>163.0</ele><time>2026-03-29T09:21:09.322Z</time></trkpt><trkpt lat="44.9216242" lon="9.0303174"><ele>163.0</ele><time>2026-03-29T09:21:11.316Z</time></trkpt><trkpt lat="44.921548" lon="9.0304033"><ele>163.0</ele><time>2026-03-29T09:21:12.319Z</time></trkpt><trkpt lat="44.9214704" lon="9.0304878"><ele>163.0</ele><time>2026-03-29T09:21:13.325Z</time></trkpt><trkpt lat="44.9213159" lon="9.0306541"><ele>163.0</ele><time>2026-03-29T09:21:15.315Z</time></trkpt><trkpt lat="44.921239" lon="9.0307361"><ele>163.60000000000002</ele><time>2026-03-29T09:21:16.329Z</time></trkpt><trkpt lat="44.9210892" lon="9.0308936"><ele>164.20000000000002</ele><time>2026-03-29T09:21:18.315Z</time></trkpt><trkpt lat="44.9210221" lon="9.0309643"><ele>164.8</ele><time>2026-03-29T09:21:19.316Z</time></trkpt><trkpt lat="44.9209572" lon="9.0310298"><ele>165.4</ele><time>2026-03-29T09:21:20.315Z</time></trkpt><trkpt lat="44.9208934" lon="9.0310824"><ele>166.0</ele><time>2026-03-29T09:21:21.328Z</time></trkpt><trkpt lat="44.9207642" lon="9.0311433"><ele>166.25</ele><time>2026-03-29T09:21:23.319Z</time></trkpt><trkpt lat="44.9206977" lon="9.0311516"><ele>166.5</ele><time>2026-03-29T09:21:24.326Z</time></trkpt><trkpt lat="44.9205694" lon="9.0312056"><ele>166.75</ele><time>2026-03-29T09:21:26.322Z</time></trkpt><trkpt lat="44.9205207" lon="9.0313778"><ele>167.0</ele><time>2026-03-29T09:21:28.326Z</time></trkpt><trkpt lat="44.9204921" lon="9.0315886"><ele>167.66666666666666</ele><time>2026-03-29T09:21:30.317Z</time></trkpt><trkpt lat="44.920449" lon="9.0316881"><ele>168.33333333333334</ele><time>2026-03-29T09:21:31.325Z</time></trkpt><trkpt lat="44.9203254" lon="9.0318811"><ele>169.0</ele><time>2026-03-29T09:21:33.32Z</time></trkpt><trkpt lat="44.9201875" lon="9.0321053"><ele>168.66666666666669</ele><time>2026-03-29T09:21:35.327Z</time></trkpt><trkpt lat="44.9200502" lon="9.0323706"><ele>168.33333333333334</ele><time>2026-03-29T09:21:37.316Z</time></trkpt><trkpt lat="44.9199819" lon="9.0325196"><ele>168.0</ele><time>2026-03-29T09:21:38.317Z</time></trkpt><trkpt lat="44.9198417" lon="9.0328299"><ele>168.66666666666666</ele><time>2026-03-29T09:21:40.317Z</time></trkpt><trkpt lat="44.9197689" lon="9.0329921"><ele>169.33333333333331</ele><time>2026-03-29T09:21:41.329Z</time></trkpt><trkpt lat="44.919614" lon="9.0333349"><ele>170.0</ele><time>2026-03-29T09:21:43.327Z</time></trkpt><trkpt lat="44.9195339" lon="9.0335146"><ele>171.5</ele><time>2026-03-29T09:21:44.326Z</time></trkpt><trkpt lat="44.9193694" lon="9.0338821"><ele>173.0</ele><time>2026-03-29T09:21:46.314Z</time></trkpt><trkpt lat="44.9192857" lon="9.0340693"><ele>173.0</ele><time>2026-03-29T09:21:47.324Z</time></trkpt><trkpt lat="44.9191167" lon="9.0344516"><ele>173.0</ele><time>2026-03-29T09:21:49.319Z</time></trkpt><trkpt lat="44.9190314" lon="9.0346444"><ele>173.0</ele><time>2026-03-29T09:21:50.32Z</time></trkpt><trkpt lat="44.9189462" lon="9.0348391"><ele>173.0</ele><time>2026-03-29T09:21:51.326Z</time></trkpt><trkpt lat="44.9187759" lon="9.0352246"><ele>176.0</ele><time>2026-03-29T09:21:53.317Z</time></trkpt><trkpt lat="44.9186915" lon="9.0354133"><ele>179.0</ele><time>2026-03-29T09:21:54.321Z</time></trkpt><trkpt lat="44.918523" lon="9.0357886"><ele>179.0</ele><time>2026-03-29T09:21:56.319Z</time></trkpt><trkpt lat="44.9183574" lon="9.0361564"><ele>179.0</ele><time>2026-03-29T09:21:58.309Z</time></trkpt><trkpt lat="44.9182757" lon="9.0363403"><ele>179.0</ele><time>2026-03-29T09:21:59.311Z</time></trkpt><trkpt lat="44.9181947" lon="9.0365211"><ele>179.0</ele><time>2026-03-29T09:22:00.313Z</time></trkpt><trkpt lat="44.9181122" lon="9.0367041"><ele>179.0</ele><time>2026-03-29T09:22:01.316Z</time></trkpt><trkpt lat="44.9180279" lon="9.0368918"><ele>181.0</ele><time>2026-03-29T09:22:02.322Z</time></trkpt><trkpt lat="44.9179432" lon="9.0370838"><ele>183.0</ele><time>2026-03-29T09:22:03.326Z</time></trkpt><trkpt lat="44.9177679" lon="9.0374811"><ele>183.0</ele><time>2026-03-29T09:22:05.315Z</time></trkpt><trkpt lat="44.9175827" lon="9.0378696"><ele>183.0</ele><time>2026-03-29T09:22:07.311Z</time></trkpt><trkpt lat="44.9174729" lon="9.0380474"><ele>183.0</ele><time>2026-03-29T09:22:08.32Z</time></trkpt><trkpt lat="44.9173446" lon="9.0382069"><ele>183.0</ele><time>2026-03-29T09:22:09.328Z</time></trkpt><trkpt lat="44.9170552" lon="9.0384978"><ele>183.66666666666666</ele><time>2026-03-29T09:22:11.317Z</time></trkpt><trkpt lat="44.9169061" lon="9.0386433"><ele>184.33333333333331</ele><time>2026-03-29T09:22:12.316Z</time></trkpt><trkpt lat="44.9167565" lon="9.0387908"><ele>185.0</ele><time>2026-03-29T09:22:13.325Z</time></trkpt><trkpt lat="44.916606" lon="9.0389394"><ele>184.5</ele><time>2026-03-29T09:22:14.333Z</time></trkpt><trkpt lat="44.9163016" lon="9.0392426"><ele>184.0</ele><time>2026-03-29T09:22:16.315Z</time></trkpt><trkpt lat="44.9161479" lon="9.0393964"><ele>184.0</ele><time>2026-03-29T09:22:17.321Z</time></trkpt><trkpt lat="44.9159919" lon="9.0395518"><ele>184.0</ele><time>2026-03-29T09:22:18.322Z</time></trkpt><trkpt lat="44.9158354" lon="9.0397103"><ele>184.0</ele><time>2026-03-29T09:22:19.326Z</time></trkpt><trkpt lat="44.9155177" lon="9.0400266"><ele>183.0</ele><time>2026-03-29T09:22:21.321Z</time></trkpt><trkpt lat="44.9153556" lon="9.0401843"><ele>182.0</ele><time>2026-03-29T09:22:22.327Z</time></trkpt><trkpt lat="44.9150332" lon="9.0405004"><ele>182.0</ele><time>2026-03-29T09:22:24.327Z</time></trkpt><trkpt lat="44.9147111" lon="9.0408146"><ele>182.0</ele><time>2026-03-29T09:22:26.322Z</time></trkpt><trkpt lat="44.9143902" lon="9.0411238"><ele>183.5</ele><time>2026-03-29T09:22:28.319Z</time></trkpt><trkpt lat="44.9142321" lon="9.0412759"><ele>185.0</ele><time>2026-03-29T09:22:29.322Z</time></trkpt><trkpt lat="44.9139257" lon="9.0415749"><ele>186.0</ele><time>2026-03-29T09:22:31.319Z</time></trkpt><trkpt lat="44.9136344" lon="9.0418596"><ele>187.0</ele><time>2026-03-29T09:22:33.315Z</time></trkpt><trkpt lat="44.9134912" lon="9.0420001"><ele>185.66666666666669</ele><time>2026-03-29T09:22:34.316Z</time></trkpt><trkpt lat="44.9133471" lon="9.0421396"><ele>184.33333333333334</ele><time>2026-03-29T09:22:35.316Z</time></trkpt><trkpt lat="44.9132045" lon="9.0422813"><ele>183.0</ele><time>2026-03-29T09:22:36.316Z</time></trkpt><trkpt lat="44.9130626" lon="9.0424201"><ele>184.5</ele><time>2026-03-29T09:22:37.316Z</time></trkpt><trkpt lat="44.9127801" lon="9.0426946"><ele>186.0</ele><time>2026-03-29T09:22:39.318Z</time></trkpt><trkpt lat="44.9126417" lon="9.0428296"><ele>186.0</ele><time>2026-03-29T09:22:40.322Z</time></trkpt><trkpt lat="44.9125077" lon="9.0429581"><ele>186.0</ele><time>2026-03-29T09:22:41.323Z</time></trkpt><trkpt lat="44.9122442" lon="9.0432163"><ele>187.0</ele><time>2026-03-29T09:22:43.316Z</time></trkpt><trkpt lat="44.9121135" lon="9.0433471"><ele>188.0</ele><time>2026-03-29T09:22:44.317Z</time></trkpt><trkpt lat="44.911982" lon="9.0434759"><ele>189.0</ele><time>2026-03-29T09:22:45.318Z</time></trkpt><trkpt lat="44.9118485" lon="9.0436051"><ele>188.5</ele><time>2026-03-29T09:22:46.322Z</time></trkpt><trkpt lat="44.9115779" lon="9.0438641"><ele>188.0</ele><time>2026-03-29T09:22:48.32Z</time></trkpt><trkpt lat="44.9113021" lon="9.0441299"><ele>190.0</ele><time>2026-03-29T09:22:50.321Z</time></trkpt><trkpt lat="44.911163" lon="9.0442658"><ele>192.0</ele><time>2026-03-29T09:22:51.323Z</time></trkpt><trkpt lat="44.9108857" lon="9.0445436"><ele>192.0</ele><time>2026-03-29T09:22:53.325Z</time></trkpt><trkpt lat="44.9107477" lon="9.0446823"><ele>192.0</ele><time>2026-03-29T09:22:54.325Z</time></trkpt><trkpt lat="44.9104724" lon="9.0449593"><ele>193.5</ele><time>2026-03-29T09:22:56.313Z</time></trkpt><trkpt lat="44.9103279" lon="9.0451041"><ele>195.0</ele><time>2026-03-29T09:22:57.316Z</time></trkpt><trkpt lat="44.9100117" lon="9.0454319"><ele>193.33333333333334</ele><time>2026-03-29T09:22:59.309Z</time></trkpt><trkpt lat="44.9098344" lon="9.0456054"><ele>191.66666666666669</ele><time>2026-03-29T09:23:00.31Z</time></trkpt><trkpt lat="44.9096499" lon="9.0457801"><ele>190.0</ele><time>2026-03-29T09:23:01.333Z</time></trkpt><trkpt lat="44.9092774" lon="9.0461306"><ele>190.0</ele><time>2026-03-29T09:23:03.316Z</time></trkpt><trkpt lat="44.9089241" lon="9.0464766"><ele>190.0</ele><time>2026-03-29T09:23:05.313Z</time></trkpt><trkpt lat="44.9087514" lon="9.0466444"><ele>190.0</ele><time>2026-03-29T09:23:06.315Z</time></trkpt><trkpt lat="44.9085791" lon="9.0468138"><ele>190.0</ele><time>2026-03-29T09:23:07.316Z</time></trkpt><trkpt lat="44.9084064" lon="9.0469868"><ele>190.0</ele><time>2026-03-29T09:23:08.318Z</time></trkpt><trkpt lat="44.9082321" lon="9.0471611"><ele>191.0</ele><time>2026-03-29T09:23:09.322Z</time></trkpt><trkpt lat="44.907879" lon="9.0475098"><ele>192.0</ele><time>2026-03-29T09:23:11.314Z</time></trkpt><trkpt lat="44.9076997" lon="9.0476861"><ele>191.0</ele><time>2026-03-29T09:23:12.315Z</time></trkpt><trkpt lat="44.9075211" lon="9.0478631"><ele>190.0</ele><time>2026-03-29T09:23:13.315Z</time></trkpt><trkpt lat="44.9073417" lon="9.0480396"><ele>189.0</ele><time>2026-03-29T09:23:14.315Z</time></trkpt><trkpt lat="44.907161" lon="9.0482149"><ele>189.66666666666666</ele><time>2026-03-29T09:23:15.316Z</time></trkpt><trkpt lat="44.906981" lon="9.0483889"><ele>190.33333333333331</ele><time>2026-03-29T09:23:16.317Z</time></trkpt><trkpt lat="44.9068009" lon="9.0485589"><ele>191.0</ele><time>2026-03-29T09:23:17.317Z</time></trkpt><trkpt lat="44.9064459" lon="9.0488973"><ele>189.5</ele><time>2026-03-29T09:23:19.317Z</time></trkpt><trkpt lat="44.9061166" lon="9.0492139"><ele>188.0</ele><time>2026-03-29T09:23:21.309Z</time></trkpt><trkpt lat="44.9059582" lon="9.0493588"><ele>187.0</ele><time>2026-03-29T09:23:22.31Z</time></trkpt><trkpt lat="44.905798" lon="9.0494889"><ele>186.0</ele><time>2026-03-29T09:23:23.315Z</time></trkpt><trkpt lat="44.9054629" lon="9.0497061"><ele>186.0</ele><time>2026-03-29T09:23:25.307Z</time></trkpt><trkpt lat="44.9052929" lon="9.0498094"><ele>186.0</ele><time>2026-03-29T09:23:26.308Z</time></trkpt><trkpt lat="44.9051232" lon="9.0499144"><ele>186.0</ele><time>2026-03-29T09:23:27.317Z</time></trkpt><trkpt lat="44.9047842" lon="9.0501144"><ele>188.0</ele><time>2026-03-29T09:23:29.316Z</time></trkpt><trkpt lat="44.9044501" lon="9.0503138"><ele>190.0</ele><time>2026-03-29T09:23:31.309Z</time></trkpt><trkpt lat="44.9042856" lon="9.0504149"><ele>188.5</ele><time>2026-03-29T09:23:32.313Z</time></trkpt><trkpt lat="44.9041209" lon="9.0505144"><ele>187.0</ele><time>2026-03-29T09:23:33.322Z</time></trkpt><trkpt lat="44.9037904" lon="9.0507163"><ele>188.0</ele><time>2026-03-29T09:23:35.322Z</time></trkpt><trkpt lat="44.903624" lon="9.0508159"><ele>189.0</ele><time>2026-03-29T09:23:36.331Z</time></trkpt><trkpt lat="44.9032837" lon="9.0510113"><ele>189.0</ele><time>2026-03-29T09:23:38.324Z</time></trkpt><trkpt lat="44.9029314" lon="9.0512151"><ele>189.0</ele><time>2026-03-29T09:23:40.336Z</time></trkpt><trkpt lat="44.9025644" lon="9.0514319"><ele>190.0</ele><time>2026-03-29T09:23:42.319Z</time></trkpt><trkpt lat="44.902378" lon="9.0515434"><ele>191.0</ele><time>2026-03-29T09:23:43.319Z</time></trkpt><trkpt lat="44.9020027" lon="9.0517693"><ele>189.5</ele><time>2026-03-29T09:23:45.319Z</time></trkpt><trkpt lat="44.9016297" lon="9.0519984"><ele>188.0</ele><time>2026-03-29T09:23:47.315Z</time></trkpt><trkpt lat="44.9014462" lon="9.0521099"><ele>188.0</ele><time>2026-03-29T09:23:48.314Z</time></trkpt><trkpt lat="44.9012644" lon="9.0522224"><ele>188.0</ele><time>2026-03-29T09:23:49.33Z</time></trkpt><trkpt lat="44.9009114" lon="9.0524423"><ele>187.5</ele><time>2026-03-29T09:23:51.326Z</time></trkpt><trkpt lat="44.9007494" lon="9.0525419"><ele>187.0</ele><time>2026-03-29T09:23:52.33Z</time></trkpt><trkpt lat="44.9004632" lon="9.0527186"><ele>187.0</ele><time>2026-03-29T09:23:54.318Z</time></trkpt><trkpt lat="44.9003344" lon="9.0527944"><ele>187.0</ele><time>2026-03-29T09:23:55.33Z</time></trkpt><trkpt lat="44.9000837" lon="9.0529214"><ele>187.0</ele><time>2026-03-29T09:23:57.318Z</time></trkpt><trkpt lat="44.8998409" lon="9.0529928"><ele>187.0</ele><time>2026-03-29T09:23:59.322Z</time></trkpt><trkpt lat="44.8997269" lon="9.0529986"><ele>187.0</ele><time>2026-03-29T09:24:00.328Z</time></trkpt><trkpt lat="44.8995119" lon="9.0529731"><ele>187.0</ele><time>2026-03-29T09:24:02.327Z</time></trkpt><trkpt lat="44.8994251" lon="9.0530089"><ele>187.0</ele><time>2026-03-29T09:24:03.336Z</time></trkpt><trkpt lat="44.8993619" lon="9.0530834"><ele>187.0</ele><time>2026-03-29T09:24:04.342Z</time></trkpt><trkpt lat="44.8992617" lon="9.0532873"><ele>187.0</ele><time>2026-03-29T09:24:06.327Z</time></trkpt><trkpt lat="44.8991947" lon="9.0533801"><ele>187.0</ele><time>2026-03-29T09:24:07.329Z</time></trkpt><trkpt lat="44.8990297" lon="9.0535401"><ele>187.66666666666669</ele><time>2026-03-29T09:24:09.325Z</time></trkpt><trkpt lat="44.8988382" lon="9.0536769"><ele>188.33333333333334</ele><time>2026-03-29T09:24:11.327Z</time></trkpt><trkpt lat="44.8987361" lon="9.0537449"><ele>189.0</ele><time>2026-03-29T09:24:12.334Z</time></trkpt><trkpt lat="44.8985165" lon="9.0538846"><ele>188.5</ele><time>2026-03-29T09:24:14.339Z</time></trkpt><trkpt lat="44.8982832" lon="9.0540274"><ele>188.0</ele><time>2026-03-29T09:24:16.332Z</time></trkpt><trkpt lat="44.898041" lon="9.0541711"><ele>188.66666666666666</ele><time>2026-03-29T09:24:18.328Z</time></trkpt><trkpt lat="44.8978037" lon="9.0543148"><ele>189.33333333333334</ele><time>2026-03-29T09:24:20.329Z</time></trkpt><trkpt lat="44.8976949" lon="9.0543846"><ele>190.0</ele><time>2026-03-29T09:24:21.347Z</time></trkpt><trkpt lat="44.8974905" lon="9.0545034"><ele>190.0</ele><time>2026-03-29T09:24:23.341Z</time></trkpt><trkpt lat="44.8972989" lon="9.0546288"><ele>190.0</ele><time>2026-03-29T09:24:25.323Z</time></trkpt><trkpt lat="44.8972057" lon="9.0546979"><ele>190.0</ele><time>2026-03-29T09:24:26.331Z</time></trkpt><trkpt lat="44.8971142" lon="9.0547818"><ele>190.0</ele><time>2026-03-29T09:24:27.335Z</time></trkpt><trkpt lat="44.8969377" lon="9.0549738"><ele>191.33333333333334</ele><time>2026-03-29T09:24:29.323Z</time></trkpt><trkpt lat="44.8968534" lon="9.0550759"><ele>192.66666666666669</ele><time>2026-03-29T09:24:30.331Z</time></trkpt><trkpt lat="44.8966879" lon="9.0552874"><ele>194.0</ele><time>2026-03-29T09:24:32.332Z</time></trkpt><trkpt lat="44.8965259" lon="9.0555098"><ele>194.66666666666669</ele><time>2026-03-29T09:24:34.326Z</time></trkpt><trkpt lat="44.8964447" lon="9.0556231"><ele>195.33333333333331</ele><time>2026-03-29T09:24:35.327Z</time></trkpt><trkpt lat="44.8962811" lon="9.0558531"><ele>196.0</ele><time>2026-03-29T09:24:37.326Z</time></trkpt><trkpt lat="44.8961179" lon="9.0560814"><ele>196.5</ele><time>2026-03-29T09:24:39.319Z</time></trkpt><trkpt lat="44.8960421" lon="9.0561849"><ele>197.0</ele><time>2026-03-29T09:24:40.321Z</time></trkpt><trkpt lat="44.8959717" lon="9.0562886"><ele>197.5</ele><time>2026-03-29T09:24:41.331Z</time></trkpt><trkpt lat="44.8958585" lon="9.0564958"><ele>198.0</ele><time>2026-03-29T09:24:43.317Z</time></trkpt><trkpt lat="44.8957747" lon="9.0567221"><ele>198.33333333333331</ele><time>2026-03-29T09:24:45.321Z</time></trkpt><trkpt lat="44.8956994" lon="9.0569893"><ele>198.66666666666666</ele><time>2026-03-29T09:24:47.316Z</time></trkpt><trkpt lat="44.8956586" lon="9.0571346"><ele>199.0</ele><time>2026-03-29T09:24:48.322Z</time></trkpt><trkpt lat="44.8955619" lon="9.0574394"><ele>199.33333333333331</ele><time>2026-03-29T09:24:50.319Z</time></trkpt><trkpt lat="44.8955106" lon="9.0575973"><ele>199.66666666666669</ele><time>2026-03-29T09:24:51.326Z</time></trkpt><trkpt lat="44.8954099" lon="9.0579198"><ele>200.0</ele><time>2026-03-29T09:24:53.316Z</time></trkpt><trkpt lat="44.8953589" lon="9.0580813"><ele>200.66666666666669</ele><time>2026-03-29T09:24:54.318Z</time></trkpt><trkpt lat="44.8952542" lon="9.0583974"><ele>201.33333333333331</ele><time>2026-03-29T09:24:56.316Z</time></trkpt><trkpt lat="44.8952" lon="9.0585529"><ele>202.0</ele><time>2026-03-29T09:24:57.32Z</time></trkpt><trkpt lat="44.8951434" lon="9.0587073"><ele>201.33333333333331</ele><time>2026-03-29T09:24:58.321Z</time></trkpt><trkpt lat="44.8950854" lon="9.0588621"><ele>200.66666666666669</ele><time>2026-03-29T09:24:59.322Z</time></trkpt><trkpt lat="44.8949862" lon="9.0591924"><ele>200.0</ele><time>2026-03-29T09:25:01.316Z</time></trkpt><trkpt lat="44.8949375" lon="9.0593589"><ele>200.0</ele><time>2026-03-29T09:25:02.315Z</time></trkpt><trkpt lat="44.8948157" lon="9.0596496"><ele>200.0</ele><time>2026-03-29T09:25:04.332Z</time></trkpt><trkpt lat="44.8946192" lon="9.0598254"><ele>200.0</ele><time>2026-03-29T09:25:06.312Z</time></trkpt><trkpt lat="44.8945002" lon="9.0598763"><ele>200.0</ele><time>2026-03-29T09:25:07.312Z</time></trkpt><trkpt lat="44.8943716" lon="9.0599143"><ele>200.0</ele><time>2026-03-29T09:25:08.318Z</time></trkpt><trkpt lat="44.8942432" lon="9.0599474"><ele>200.0</ele><time>2026-03-29T09:25:09.32Z</time></trkpt><trkpt lat="44.8940076" lon="9.0600071"><ele>199.0</ele><time>2026-03-29T09:25:11.319Z</time></trkpt><trkpt lat="44.8937665" lon="9.0600649"><ele>198.0</ele><time>2026-03-29T09:25:13.313Z</time></trkpt><trkpt lat="44.893511" lon="9.0601286"><ele>197.33333333333331</ele><time>2026-03-29T09:25:15.318Z</time></trkpt><trkpt lat="44.893376" lon="9.0601581"><ele>196.66666666666666</ele><time>2026-03-29T09:25:16.321Z</time></trkpt><trkpt lat="44.8932369" lon="9.0601856"><ele>196.0</ele><time>2026-03-29T09:25:17.343Z</time></trkpt><trkpt lat="44.8929579" lon="9.0602574"><ele>196.0</ele><time>2026-03-29T09:25:19.324Z</time></trkpt><trkpt lat="44.8926752" lon="9.0603294"><ele>196.0</ele><time>2026-03-29T09:25:21.324Z</time></trkpt><trkpt lat="44.8923866" lon="9.0604029"><ele>194.0</ele><time>2026-03-29T09:25:23.326Z</time></trkpt><trkpt lat="44.8922389" lon="9.0604416"><ele>192.0</ele><time>2026-03-29T09:25:24.328Z</time></trkpt><trkpt lat="44.8919172" lon="9.0605249"><ele>193.0</ele><time>2026-03-29T09:25:26.326Z</time></trkpt><trkpt lat="44.8915515" lon="9.0605903"><ele>194.0</ele><time>2026-03-29T09:25:28.325Z</time></trkpt><trkpt lat="44.8913564" lon="9.0606038"><ele>194.0</ele><time>2026-03-29T09:25:29.327Z</time></trkpt><trkpt lat="44.8909529" lon="9.0605774"><ele>194.0</ele><time>2026-03-29T09:25:31.309Z</time></trkpt><trkpt lat="44.890744" lon="9.0605496"><ele>195.33333333333334</ele><time>2026-03-29T09:25:32.324Z</time></trkpt><trkpt lat="44.8905284" lon="9.0605163"><ele>196.66666666666669</ele><time>2026-03-29T09:25:33.332Z</time></trkpt><trkpt lat="44.8903094" lon="9.0604834"><ele>198.0</ele><time>2026-03-29T09:25:34.337Z</time></trkpt><trkpt lat="44.8898716" lon="9.0604216"><ele>198.0</ele><time>2026-03-29T09:25:36.332Z</time></trkpt><trkpt lat="44.8896551" lon="9.0604038"><ele>198.0</ele><time>2026-03-29T09:25:37.339Z</time></trkpt><trkpt lat="44.8894395" lon="9.0604006"><ele>198.0</ele><time>2026-03-29T09:25:38.337Z</time></trkpt><trkpt lat="44.8890181" lon="9.0604223"><ele>199.5</ele><time>2026-03-29T09:25:40.333Z</time></trkpt><trkpt lat="44.8888135" lon="9.0604269"><ele>201.0</ele><time>2026-03-29T09:25:41.333Z</time></trkpt><trkpt lat="44.888403" lon="9.0603501"><ele>201.0</ele><time>2026-03-29T09:25:43.313Z</time></trkpt><trkpt lat="44.8881957" lon="9.0602794"><ele>201.0</ele><time>2026-03-29T09:25:44.325Z</time></trkpt><trkpt lat="44.8877705" lon="9.0601099"><ele>200.0</ele><time>2026-03-29T09:25:46.324Z</time></trkpt><trkpt lat="44.8875466" lon="9.0600136"><ele>199.0</ele><time>2026-03-29T09:25:47.325Z</time></trkpt><trkpt lat="44.887317" lon="9.0599188"><ele>199.0</ele><time>2026-03-29T09:25:48.329Z</time></trkpt><trkpt lat="44.8868534" lon="9.0597306"><ele>204.0</ele><time>2026-03-29T09:25:50.33Z</time></trkpt><trkpt lat="44.886391" lon="9.0595436"><ele>204.0</ele><time>2026-03-29T09:25:52.327Z</time></trkpt><trkpt lat="44.8861607" lon="9.0594479"><ele>204.0</ele><time>2026-03-29T09:25:53.332Z</time></trkpt><trkpt lat="44.8856967" lon="9.0592593"><ele>205.0</ele><time>2026-03-29T09:25:55.34Z</time></trkpt><trkpt lat="44.8854646" lon="9.0591646"><ele>206.0</ele><time>2026-03-29T09:25:56.342Z</time></trkpt><trkpt lat="44.8852394" lon="9.0590686"><ele>207.5</ele><time>2026-03-29T09:25:57.344Z</time></trkpt><trkpt lat="44.8848187" lon="9.0588896"><ele>209.0</ele><time>2026-03-29T09:25:59.338Z</time></trkpt><trkpt lat="44.8846224" lon="9.0588294"><ele>210.0</ele><time>2026-03-29T09:26:00.344Z</time></trkpt><trkpt lat="44.8842465" lon="9.0588639"><ele>211.0</ele><time>2026-03-29T09:26:02.33Z</time></trkpt><trkpt lat="44.8840637" lon="9.0589514"><ele>211.0</ele><time>2026-03-29T09:26:03.34Z</time></trkpt><trkpt lat="44.8838812" lon="9.0590593"><ele>211.0</ele><time>2026-03-29T09:26:04.341Z</time></trkpt><trkpt lat="44.8835076" lon="9.0592958"><ele>210.0</ele><time>2026-03-29T09:26:06.334Z</time></trkpt><trkpt lat="44.883134" lon="9.0595344"><ele>209.0</ele><time>2026-03-29T09:26:08.33Z</time></trkpt><trkpt lat="44.8827709" lon="9.0597728"><ele>211.5</ele><time>2026-03-29T09:26:10.319Z</time></trkpt><trkpt lat="44.8824166" lon="9.0600041"><ele>214.0</ele><time>2026-03-29T09:26:12.312Z</time></trkpt><trkpt lat="44.8822462" lon="9.0601074"><ele>214.0</ele><time>2026-03-29T09:26:13.321Z</time></trkpt><trkpt lat="44.8819299" lon="9.0602976"><ele>214.0</ele><time>2026-03-29T09:26:15.313Z</time></trkpt><trkpt lat="44.8816415" lon="9.0604954"><ele>212.66666666666666</ele><time>2026-03-29T09:26:17.318Z</time></trkpt><trkpt lat="44.8815072" lon="9.0606159"><ele>211.33333333333331</ele><time>2026-03-29T09:26:18.321Z</time></trkpt><trkpt lat="44.8813852" lon="9.0607559"><ele>210.0</ele><time>2026-03-29T09:26:19.323Z</time></trkpt><trkpt lat="44.881162" lon="9.0610738"><ele>212.0</ele><time>2026-03-29T09:26:21.319Z</time></trkpt><trkpt lat="44.8810514" lon="9.0612418"><ele>214.0</ele><time>2026-03-29T09:26:22.32Z</time></trkpt><trkpt lat="44.8809419" lon="9.0614118"><ele>216.0</ele><time>2026-03-29T09:26:23.328Z</time></trkpt><trkpt lat="44.8807259" lon="9.0617473"><ele>216.0</ele><time>2026-03-29T09:26:25.327Z</time></trkpt><trkpt lat="44.8806232" lon="9.0619091"><ele>216.0</ele><time>2026-03-29T09:26:26.327Z</time></trkpt><trkpt lat="44.8804277" lon="9.0622091"><ele>216.0</ele><time>2026-03-29T09:26:28.316Z</time></trkpt><trkpt lat="44.8803319" lon="9.0623589"><ele>216.5</ele><time>2026-03-29T09:26:29.318Z</time></trkpt><trkpt lat="44.8801385" lon="9.0626616"><ele>217.0</ele><time>2026-03-29T09:26:31.322Z</time></trkpt><trkpt lat="44.8799374" lon="9.0629663"><ele>216.0</ele><time>2026-03-29T09:26:33.332Z</time></trkpt><trkpt lat="44.879707" lon="9.0632294"><ele>215.0</ele><time>2026-03-29T09:26:35.323Z</time></trkpt><trkpt lat="44.8794409" lon="9.0633941"><ele>216.0</ele><time>2026-03-29T09:26:37.317Z</time></trkpt><trkpt lat="44.8792989" lon="9.0634521"><ele>217.0</ele><time>2026-03-29T09:26:38.318Z</time></trkpt><trkpt lat="44.8790135" lon="9.0635561"><ele>218.0</ele><time>2026-03-29T09:26:40.307Z</time></trkpt><trkpt lat="44.8788714" lon="9.0636054"><ele>218.0</ele><time>2026-03-29T09:26:41.322Z</time></trkpt><trkpt lat="44.8787295" lon="9.0636541"><ele>218.0</ele><time>2026-03-29T09:26:42.327Z</time></trkpt><trkpt lat="44.8784441" lon="9.0637449"><ele>218.0</ele><time>2026-03-29T09:26:44.327Z</time></trkpt><trkpt lat="44.8783016" lon="9.0637974"><ele>216.0</ele><time>2026-03-29T09:26:45.328Z</time></trkpt><trkpt lat="44.8780114" lon="9.0639063"><ele>214.0</ele><time>2026-03-29T09:26:47.323Z</time></trkpt><trkpt lat="44.8777119" lon="9.0640183"><ele>218.5</ele><time>2026-03-29T09:26:49.322Z</time></trkpt><trkpt lat="44.8773997" lon="9.0641323"><ele>223.0</ele><time>2026-03-29T09:26:51.314Z</time></trkpt><trkpt lat="44.8772387" lon="9.0641931"><ele>223.0</ele><time>2026-03-29T09:26:52.315Z</time></trkpt><trkpt lat="44.877075" lon="9.0642543"><ele>223.0</ele><time>2026-03-29T09:26:53.315Z</time></trkpt><trkpt lat="44.8769076" lon="9.0643124"><ele>223.0</ele><time>2026-03-29T09:26:54.329Z</time></trkpt><trkpt lat="44.8765675" lon="9.0644284"><ele>221.33333333333331</ele><time>2026-03-29T09:26:56.311Z</time></trkpt><trkpt lat="44.8763922" lon="9.0644898"><ele>219.66666666666669</ele><time>2026-03-29T09:26:57.32Z</time></trkpt><trkpt lat="44.8762104" lon="9.0645554"><ele>218.0</ele><time>2026-03-29T09:26:58.323Z</time></trkpt><trkpt lat="44.8758279" lon="9.0646906"><ele>216.5</ele><time>2026-03-29T09:27:00.311Z</time></trkpt><trkpt lat="44.8754424" lon="9.0648289"><ele>215.0</ele><time>2026-03-29T09:27:02.311Z</time></trkpt><trkpt lat="44.8752491" lon="9.0648966"><ele>219.0</ele><time>2026-03-29T09:27:03.318Z</time></trkpt><trkpt lat="44.874869" lon="9.0650509"><ele>223.0</ele><time>2026-03-29T09:27:05.31Z</time></trkpt><trkpt lat="44.8746906" lon="9.0651643"><ele>223.0</ele><time>2026-03-29T09:27:06.312Z</time></trkpt><trkpt lat="44.874522" lon="9.0653028"><ele>223.0</ele><time>2026-03-29T09:27:07.318Z</time></trkpt><trkpt lat="44.8743647" lon="9.0654676"><ele>223.0</ele><time>2026-03-29T09:27:08.329Z</time></trkpt><trkpt lat="44.8740704" lon="9.0658458"><ele>225.5</ele><time>2026-03-29T09:27:10.331Z</time></trkpt><trkpt lat="44.8737761" lon="9.0662388"><ele>228.0</ele><time>2026-03-29T09:27:12.322Z</time></trkpt><trkpt lat="44.8736265" lon="9.0664364"><ele>228.0</ele><time>2026-03-29T09:27:13.323Z</time></trkpt><trkpt lat="44.8734795" lon="9.0666338"><ele>228.0</ele><time>2026-03-29T09:27:14.322Z</time></trkpt><trkpt lat="44.8731775" lon="9.0669846"><ele>228.0</ele><time>2026-03-29T09:27:16.321Z</time></trkpt><trkpt lat="44.8728629" lon="9.0672914"><ele>228.0</ele><time>2026-03-29T09:27:18.319Z</time></trkpt><trkpt lat="44.8725359" lon="9.0675336"><ele>228.5</ele><time>2026-03-29T09:27:20.318Z</time></trkpt><trkpt lat="44.8723612" lon="9.0676038"><ele>229.0</ele><time>2026-03-29T09:27:21.324Z</time></trkpt><trkpt lat="44.8719916" lon="9.0676754"><ele>229.0</ele><time>2026-03-29T09:27:23.311Z</time></trkpt><trkpt lat="44.8718051" lon="9.0677031"><ele>229.0</ele><time>2026-03-29T09:27:24.318Z</time></trkpt><trkpt lat="44.8714452" lon="9.0677769"><ele>228.5</ele><time>2026-03-29T09:27:26.324Z</time></trkpt><trkpt lat="44.8711112" lon="9.0679013"><ele>228.0</ele><time>2026-03-29T09:27:28.326Z</time></trkpt><trkpt lat="44.8709599" lon="9.0680026"><ele>232.5</ele><time>2026-03-29T09:27:29.338Z</time></trkpt><trkpt lat="44.8706914" lon="9.0682968"><ele>237.0</ele><time>2026-03-29T09:27:31.326Z</time></trkpt><trkpt lat="44.8704512" lon="9.0686739"><ele>237.0</ele><time>2026-03-29T09:27:33.326Z</time></trkpt><trkpt lat="44.8702494" lon="9.0690916"><ele>237.0</ele><time>2026-03-29T09:27:35.32Z</time></trkpt><trkpt lat="44.8701372" lon="9.0695663"><ele>237.0</ele><time>2026-03-29T09:27:37.315Z</time></trkpt><trkpt lat="44.8700927" lon="9.0698136"><ele>237.0</ele><time>2026-03-29T09:27:38.343Z</time></trkpt><trkpt lat="44.8699377" lon="9.0702748"><ele>237.0</ele><time>2026-03-29T09:27:40.311Z</time></trkpt><trkpt lat="44.8698164" lon="9.0704733"><ele>237.0</ele><time>2026-03-29T09:27:41.31Z</time></trkpt><trkpt lat="44.8696652" lon="9.0706363"><ele>237.0</ele><time>2026-03-29T09:27:42.312Z</time></trkpt><trkpt lat="44.8694977" lon="9.0707534"><ele>236.0</ele><time>2026-03-29T09:27:43.319Z</time></trkpt><trkpt lat="44.8691259" lon="9.0708839"><ele>235.0</ele><time>2026-03-29T09:27:45.316Z</time></trkpt><trkpt lat="44.8689364" lon="9.0709221"><ele>235.0</ele><time>2026-03-29T09:27:46.325Z</time></trkpt><trkpt lat="44.868751" lon="9.0709559"><ele>235.0</ele><time>2026-03-29T09:27:47.328Z</time></trkpt><trkpt lat="44.86839" lon="9.0710129"><ele>233.0</ele><time>2026-03-29T09:27:49.33Z</time></trkpt><trkpt lat="44.8680474" lon="9.0710693"><ele>231.0</ele><time>2026-03-29T09:27:51.323Z</time></trkpt><trkpt lat="44.867716" lon="9.0711268"><ele>230.33333333333331</ele><time>2026-03-29T09:27:53.312Z</time></trkpt><trkpt lat="44.8675524" lon="9.0711521"><ele>229.66666666666666</ele><time>2026-03-29T09:27:54.315Z</time></trkpt><trkpt lat="44.8673926" lon="9.0711776"><ele>229.0</ele><time>2026-03-29T09:27:55.317Z</time></trkpt><trkpt lat="44.8670767" lon="9.0712314"><ele>230.5</ele><time>2026-03-29T09:27:57.314Z</time></trkpt><trkpt lat="44.8667672" lon="9.0712843"><ele>232.0</ele><time>2026-03-29T09:27:59.316Z</time></trkpt><trkpt lat="44.8666134" lon="9.0713088"><ele>232.0</ele><time>2026-03-29T09:28:00.318Z</time></trkpt><trkpt lat="44.866459" lon="9.0713343"><ele>232.0</ele><time>2026-03-29T09:28:01.32Z</time></trkpt><trkpt lat="44.866146" lon="9.0713838"><ele>232.0</ele><time>2026-03-29T09:28:03.318Z</time></trkpt><trkpt lat="44.8659879" lon="9.0714083"><ele>232.0</ele><time>2026-03-29T09:28:04.321Z</time></trkpt><trkpt lat="44.8658274" lon="9.0714313"><ele>232.0</ele><time>2026-03-29T09:28:05.323Z</time></trkpt><trkpt lat="44.8655037" lon="9.0714803"><ele>232.0</ele><time>2026-03-29T09:28:07.312Z</time></trkpt><trkpt lat="44.8653357" lon="9.0715103"><ele>232.0</ele><time>2026-03-29T09:28:08.321Z</time></trkpt><trkpt lat="44.865161" lon="9.0715408"><ele>232.0</ele><time>2026-03-29T09:28:09.32Z</time></trkpt><trkpt lat="44.8649819" lon="9.0715739"><ele>232.0</ele><time>2026-03-29T09:28:10.328Z</time></trkpt><trkpt lat="44.8646154" lon="9.0716386"><ele>232.0</ele><time>2026-03-29T09:28:12.335Z</time></trkpt><trkpt lat="44.8642402" lon="9.0717041"><ele>231.66666666666666</ele><time>2026-03-29T09:28:14.325Z</time></trkpt><trkpt lat="44.8640495" lon="9.0717356"><ele>231.33333333333331</ele><time>2026-03-29T09:28:15.327Z</time></trkpt><trkpt lat="44.8638579" lon="9.0717671"><ele>231.0</ele><time>2026-03-29T09:28:16.332Z</time></trkpt><trkpt lat="44.8634876" lon="9.0718839"><ele>231.0</ele><time>2026-03-29T09:28:18.324Z</time></trkpt><trkpt lat="44.8631446" lon="9.0721151"><ele>231.0</ele><time>2026-03-29T09:28:20.32Z</time></trkpt><trkpt lat="44.8628334" lon="9.0724356"><ele>232.66666666666669</ele><time>2026-03-29T09:28:22.315Z</time></trkpt><trkpt lat="44.8627044" lon="9.0726341"><ele>234.33333333333334</ele><time>2026-03-29T09:28:23.318Z</time></trkpt><trkpt lat="44.862593" lon="9.0728553"><ele>236.0</ele><time>2026-03-29T09:28:24.329Z</time></trkpt><trkpt lat="44.8624094" lon="9.0733376"><ele>239.0</ele><time>2026-03-29T09:28:26.321Z</time></trkpt><trkpt lat="44.8622725" lon="9.0738644"><ele>242.0</ele><time>2026-03-29T09:28:28.306Z</time></trkpt><trkpt lat="44.8622179" lon="9.0741321"><ele>246.5</ele><time>2026-03-29T09:28:29.308Z</time></trkpt><trkpt lat="44.8621242" lon="9.0746786"><ele>251.0</ele><time>2026-03-29T09:28:31.303Z</time></trkpt><trkpt lat="44.8620509" lon="9.0752303"><ele>256.5</ele><time>2026-03-29T09:28:33.303Z</time></trkpt><trkpt lat="44.8619791" lon="9.0757864"><ele>262.0</ele><time>2026-03-29T09:28:35.305Z</time></trkpt><trkpt lat="44.8619412" lon="9.0760648"><ele>263.5</ele><time>2026-03-29T09:28:36.307Z</time></trkpt><trkpt lat="44.8618459" lon="9.0766098"><ele>265.0</ele><time>2026-03-29T09:28:38.306Z</time></trkpt><trkpt lat="44.8617747" lon="9.0768704"><ele>255.5</ele><time>2026-03-29T09:28:39.309Z</time></trkpt><trkpt lat="44.8616891" lon="9.0771191"><ele>246.0</ele><time>2026-03-29T09:28:40.308Z</time></trkpt><trkpt lat="44.8614847" lon="9.0776001"><ele>246.0</ele><time>2026-03-29T09:28:42.306Z</time></trkpt><trkpt lat="44.8613634" lon="9.0778236"><ele>246.0</ele><time>2026-03-29T09:28:43.312Z</time></trkpt><trkpt lat="44.8610872" lon="9.0782221"><ele>244.5</ele><time>2026-03-29T09:28:45.312Z</time></trkpt><trkpt lat="44.8607996" lon="9.0786019"><ele>243.0</ele><time>2026-03-29T09:28:47.312Z</time></trkpt><trkpt lat="44.8605246" lon="9.0789809"><ele>247.5</ele><time>2026-03-29T09:28:49.311Z</time></trkpt><trkpt lat="44.8602795" lon="9.0793729"><ele>252.0</ele><time>2026-03-29T09:28:51.309Z</time></trkpt><trkpt lat="44.8601696" lon="9.0795838"><ele>250.5</ele><time>2026-03-29T09:28:52.309Z</time></trkpt><trkpt lat="44.8599907" lon="9.0800333"><ele>249.0</ele><time>2026-03-29T09:28:54.312Z</time></trkpt><trkpt lat="44.859933" lon="9.0802776"><ele>251.5</ele><time>2026-03-29T09:28:55.316Z</time></trkpt><trkpt lat="44.8598252" lon="9.0807831"><ele>254.0</ele><time>2026-03-29T09:28:57.312Z</time></trkpt><trkpt lat="44.859744" lon="9.0810184"><ele>254.0</ele><time>2026-03-29T09:28:58.318Z</time></trkpt><trkpt lat="44.859641" lon="9.0812283"><ele>254.0</ele><time>2026-03-29T09:28:59.321Z</time></trkpt><trkpt lat="44.8595202" lon="9.0814139"><ele>254.0</ele><time>2026-03-29T09:29:00.325Z</time></trkpt><trkpt lat="44.8592449" lon="9.0817279"><ele>252.0</ele><time>2026-03-29T09:29:02.311Z</time></trkpt><trkpt lat="44.8589466" lon="9.0820189"><ele>250.0</ele><time>2026-03-29T09:29:04.318Z</time></trkpt><trkpt lat="44.8586512" lon="9.0823158"><ele>252.0</ele><time>2026-03-29T09:29:06.315Z</time></trkpt><trkpt lat="44.8583627" lon="9.0826078"><ele>254.0</ele><time>2026-03-29T09:29:08.313Z</time></trkpt><trkpt lat="44.8582219" lon="9.0827493"><ele>254.0</ele><time>2026-03-29T09:29:09.323Z</time></trkpt><trkpt lat="44.858087" lon="9.0828834"><ele>254.0</ele><time>2026-03-29T09:29:10.324Z</time></trkpt><trkpt lat="44.8578277" lon="9.0831211"><ele>254.0</ele><time>2026-03-29T09:29:12.32Z</time></trkpt><trkpt lat="44.8577064" lon="9.0832343"><ele>254.0</ele><time>2026-03-29T09:29:13.32Z</time></trkpt><trkpt lat="44.8574834" lon="9.0834439"><ele>254.0</ele><time>2026-03-29T09:29:15.311Z</time></trkpt><trkpt lat="44.8573726" lon="9.0835483"><ele>255.25</ele><time>2026-03-29T09:29:16.311Z</time></trkpt><trkpt lat="44.8572596" lon="9.0836558"><ele>256.5</ele><time>2026-03-29T09:29:17.311Z</time></trkpt><trkpt lat="44.8571441" lon="9.0837644"><ele>257.75</ele><time>2026-03-29T09:29:18.313Z</time></trkpt><trkpt lat="44.8570274" lon="9.0838748"><ele>259.0</ele><time>2026-03-29T09:29:19.315Z</time></trkpt><trkpt lat="44.8568027" lon="9.0841204"><ele>257.0</ele><time>2026-03-29T09:29:21.32Z</time></trkpt><trkpt lat="44.8566146" lon="9.0844198"><ele>255.0</ele><time>2026-03-29T09:29:23.318Z</time></trkpt><trkpt lat="44.8564869" lon="9.0847749"><ele>256.0</ele><time>2026-03-29T09:29:25.318Z</time></trkpt><trkpt lat="44.856447" lon="9.0849701"><ele>257.0</ele><time>2026-03-29T09:29:26.334Z</time></trkpt><trkpt lat="44.8563979" lon="9.0853849"><ele>258.0</ele><time>2026-03-29T09:29:28.329Z</time></trkpt><trkpt lat="44.8563627" lon="9.0858221"><ele>259.0</ele><time>2026-03-29T09:29:30.326Z</time></trkpt><trkpt lat="44.8563439" lon="9.0860481"><ele>260.0</ele><time>2026-03-29T09:29:31.33Z</time></trkpt><trkpt lat="44.8563247" lon="9.0862751"><ele>261.0</ele><time>2026-03-29T09:29:32.329Z</time></trkpt><trkpt lat="44.8563069" lon="9.0865026"><ele>262.5</ele><time>2026-03-29T09:29:33.331Z</time></trkpt><trkpt lat="44.8562706" lon="9.0869393"><ele>264.0</ele><time>2026-03-29T09:29:35.321Z</time></trkpt><trkpt lat="44.8562517" lon="9.0871484"><ele>264.0</ele><time>2026-03-29T09:29:36.334Z</time></trkpt><trkpt lat="44.8562347" lon="9.0873458"><ele>264.0</ele><time>2026-03-29T09:29:37.335Z</time></trkpt><trkpt lat="44.8562011" lon="9.0877138"><ele>264.0</ele><time>2026-03-29T09:29:39.322Z</time></trkpt><trkpt lat="44.8561684" lon="9.0880479"><ele>265.0</ele><time>2026-03-29T09:29:41.322Z</time></trkpt><trkpt lat="44.8561399" lon="9.0883656"><ele>266.0</ele><time>2026-03-29T09:29:43.318Z</time></trkpt><trkpt lat="44.8561084" lon="9.0887116"><ele>266.0</ele><time>2026-03-29T09:29:45.319Z</time></trkpt><trkpt lat="44.8560927" lon="9.0888943"><ele>266.0</ele><time>2026-03-29T09:29:46.32Z</time></trkpt><trkpt lat="44.8560757" lon="9.0890728"><ele>266.0</ele><time>2026-03-29T09:29:47.321Z</time></trkpt><trkpt lat="44.8560122" lon="9.0894198"><ele>265.33333333333337</ele><time>2026-03-29T09:29:49.316Z</time></trkpt><trkpt lat="44.8559602" lon="9.0895829"><ele>264.6666666666667</ele><time>2026-03-29T09:29:50.323Z</time></trkpt><trkpt lat="44.855827" lon="9.0898993"><ele>264.0</ele><time>2026-03-29T09:29:52.31Z</time></trkpt><trkpt lat="44.8557437" lon="9.0900523"><ele>264.0</ele><time>2026-03-29T09:29:53.32Z</time></trkpt><trkpt lat="44.8555515" lon="9.0903444"><ele>264.0</ele><time>2026-03-29T09:29:55.318Z</time></trkpt><trkpt lat="44.8554529" lon="9.0904916"><ele>264.0</ele><time>2026-03-29T09:29:56.32Z</time></trkpt><trkpt lat="44.8553529" lon="9.0906369"><ele>264.0</ele><time>2026-03-29T09:29:57.327Z</time></trkpt><trkpt lat="44.8551569" lon="9.0909296"><ele>264.0</ele><time>2026-03-29T09:29:59.335Z</time></trkpt><trkpt lat="44.8550739" lon="9.0911018"><ele>264.0</ele><time>2026-03-29T09:30:00.334Z</time></trkpt><trkpt lat="44.8549734" lon="9.0914998"><ele>263.3333333333333</ele><time>2026-03-29T09:30:02.322Z</time></trkpt><trkpt lat="44.8549544" lon="9.0917126"><ele>262.66666666666663</ele><time>2026-03-29T09:30:03.332Z</time></trkpt><trkpt lat="44.8549447" lon="9.0919291"><ele>262.0</ele><time>2026-03-29T09:30:04.349Z</time></trkpt><trkpt lat="44.8549299" lon="9.0923668"><ele>263.0</ele><time>2026-03-29T09:30:06.321Z</time></trkpt><trkpt lat="44.8549207" lon="9.0928131"><ele>264.0</ele><time>2026-03-29T09:30:08.321Z</time></trkpt><trkpt lat="44.8549125" lon="9.0932791"><ele>264.5</ele><time>2026-03-29T09:30:10.315Z</time></trkpt><trkpt lat="44.8549052" lon="9.0935399"><ele>265.0</ele><time>2026-03-29T09:30:11.322Z</time></trkpt><trkpt lat="44.8548765" lon="9.0941014"><ele>265.0</ele><time>2026-03-29T09:30:13.326Z</time></trkpt><trkpt lat="44.8548277" lon="9.0943571"><ele>265.0</ele><time>2026-03-29T09:30:14.328Z</time></trkpt><trkpt lat="44.8546579" lon="9.0947808"><ele>265.66666666666663</ele><time>2026-03-29T09:30:16.314Z</time></trkpt><trkpt lat="44.854544" lon="9.0949336"><ele>266.3333333333333</ele><time>2026-03-29T09:30:17.326Z</time></trkpt><trkpt lat="44.8542969" lon="9.0951464"><ele>267.0</ele><time>2026-03-29T09:30:19.318Z</time></trkpt><trkpt lat="44.8540792" lon="9.0953186"><ele>266.0</ele><time>2026-03-29T09:30:21.312Z</time></trkpt><trkpt lat="44.8539815" lon="9.0953879"><ele>265.0</ele><time>2026-03-29T09:30:22.318Z</time></trkpt><trkpt lat="44.8538027" lon="9.0955248"><ele>264.0</ele><time>2026-03-29T09:30:24.315Z</time></trkpt><trkpt lat="44.8537129" lon="9.0955913"><ele>263.0</ele><time>2026-03-29T09:30:25.32Z</time></trkpt><trkpt lat="44.8536242" lon="9.0956543"><ele>264.0</ele><time>2026-03-29T09:30:26.336Z</time></trkpt><trkpt lat="44.8534526" lon="9.0957798"><ele>265.0</ele><time>2026-03-29T09:30:28.327Z</time></trkpt><trkpt lat="44.8532786" lon="9.0959116"><ele>266.0</ele><time>2026-03-29T09:30:30.313Z</time></trkpt><trkpt lat="44.8531907" lon="9.0959761"><ele>266.0</ele><time>2026-03-29T09:30:31.321Z</time></trkpt><trkpt lat="44.8530149" lon="9.0961106"><ele>266.0</ele><time>2026-03-29T09:30:33.323Z</time></trkpt><trkpt lat="44.8529259" lon="9.0961771"><ele>266.0</ele><time>2026-03-29T09:30:34.333Z</time></trkpt><trkpt lat="44.8527492" lon="9.0963106"><ele>265.6666666666667</ele><time>2026-03-29T09:30:36.322Z</time></trkpt><trkpt lat="44.8525734" lon="9.0964384"><ele>265.3333333333333</ele><time>2026-03-29T09:30:38.325Z</time></trkpt><trkpt lat="44.8524854" lon="9.0965049"><ele>265.0</ele><time>2026-03-29T09:30:39.326Z</time></trkpt><trkpt lat="44.8523136" lon="9.0966269"><ele>265.0</ele><time>2026-03-29T09:30:41.33Z</time></trkpt><trkpt lat="44.8521492" lon="9.0967454"><ele>265.0</ele><time>2026-03-29T09:30:43.319Z</time></trkpt><trkpt lat="44.8520679" lon="9.0968058"><ele>265.0</ele><time>2026-03-29T09:30:44.324Z</time></trkpt><trkpt lat="44.8519905" lon="9.0968641"><ele>265.0</ele><time>2026-03-29T09:30:45.324Z</time></trkpt><trkpt lat="44.8518426" lon="9.0969751"><ele>265.0</ele><time>2026-03-29T09:30:47.319Z</time></trkpt><trkpt lat="44.8517687" lon="9.0970301"><ele>265.0</ele><time>2026-03-29T09:30:48.32Z</time></trkpt><trkpt lat="44.8516197" lon="9.0971403"><ele>265.0</ele><time>2026-03-29T09:30:50.318Z</time></trkpt><trkpt lat="44.8515452" lon="9.0971959"><ele>265.0</ele><time>2026-03-29T09:30:51.318Z</time></trkpt><trkpt lat="44.8514704" lon="9.0972499"><ele>265.0</ele><time>2026-03-29T09:30:52.323Z</time></trkpt><trkpt lat="44.8513951" lon="9.0973046"><ele>265.0</ele><time>2026-03-29T09:30:53.33Z</time></trkpt><trkpt lat="44.8512432" lon="9.0974173"><ele>265.0</ele><time>2026-03-29T09:30:55.327Z</time></trkpt><trkpt lat="44.8510835" lon="9.0975354"><ele>265.0</ele><time>2026-03-29T09:30:57.311Z</time></trkpt><trkpt lat="44.8509189" lon="9.0976563"><ele>265.2</ele><time>2026-03-29T09:30:59.309Z</time></trkpt><trkpt lat="44.8508362" lon="9.0977169"><ele>265.4</ele><time>2026-03-29T09:31:00.315Z</time></trkpt><trkpt lat="44.850752" lon="9.0977816"><ele>265.6</ele><time>2026-03-29T09:31:01.317Z</time></trkpt><trkpt lat="44.8506684" lon="9.0978498"><ele>265.8</ele><time>2026-03-29T09:31:02.318Z</time></trkpt><trkpt lat="44.8505849" lon="9.0979181"><ele>266.0</ele><time>2026-03-29T09:31:03.32Z</time></trkpt><trkpt lat="44.8504149" lon="9.0980448"><ele>266.0</ele><time>2026-03-29T09:31:05.328Z</time></trkpt><trkpt lat="44.8502405" lon="9.0981691"><ele>266.0</ele><time>2026-03-29T09:31:07.324Z</time></trkpt><trkpt lat="44.8500705" lon="9.0982919"><ele>266.0</ele><time>2026-03-29T09:31:09.323Z</time></trkpt><trkpt lat="44.8498931" lon="9.0984211"><ele>266.6666666666667</ele><time>2026-03-29T09:31:11.319Z</time></trkpt><trkpt lat="44.8497944" lon="9.0984936"><ele>267.3333333333333</ele><time>2026-03-29T09:31:12.322Z</time></trkpt><trkpt lat="44.8496884" lon="9.0985726"><ele>268.0</ele><time>2026-03-29T09:31:13.33Z</time></trkpt><trkpt lat="44.8494576" lon="9.0987564"><ele>268.0</ele><time>2026-03-29T09:31:15.334Z</time></trkpt><trkpt lat="44.8493372" lon="9.0988678"><ele>268.0</ele><time>2026-03-29T09:31:16.338Z</time></trkpt><trkpt lat="44.849095" lon="9.0991356"><ele>270.0</ele><time>2026-03-29T09:31:18.327Z</time></trkpt><trkpt lat="44.8488536" lon="9.0994393"><ele>272.0</ele><time>2026-03-29T09:31:20.333Z</time></trkpt><trkpt lat="44.8486127" lon="9.0997566"><ele>271.0</ele><time>2026-03-29T09:31:22.329Z</time></trkpt><trkpt lat="44.8483682" lon="9.1000888"><ele>270.0</ele><time>2026-03-29T09:31:24.33Z</time></trkpt><trkpt lat="44.8481157" lon="9.1004246"><ele>273.0</ele><time>2026-03-29T09:31:26.338Z</time></trkpt><trkpt lat="44.8478599" lon="9.1007668"><ele>276.0</ele><time>2026-03-29T09:31:28.324Z</time></trkpt><trkpt lat="44.8477297" lon="9.1009384"><ele>273.5</ele><time>2026-03-29T09:31:29.324Z</time></trkpt><trkpt lat="44.8474695" lon="9.1012809"><ele>271.0</ele><time>2026-03-29T09:31:31.321Z</time></trkpt><trkpt lat="44.8473402" lon="9.1014574"><ele>274.0</ele><time>2026-03-29T09:31:32.323Z</time></trkpt><trkpt lat="44.8472091" lon="9.1016306"><ele>277.0</ele><time>2026-03-29T09:31:33.324Z</time></trkpt><trkpt lat="44.8469424" lon="9.1019806"><ele>277.0</ele><time>2026-03-29T09:31:35.317Z</time></trkpt><trkpt lat="44.8468095" lon="9.1021578"><ele>277.0</ele><time>2026-03-29T09:31:36.318Z</time></trkpt><trkpt lat="44.8465407" lon="9.1025199"><ele>277.5</ele><time>2026-03-29T09:31:38.316Z</time></trkpt><trkpt lat="44.8462667" lon="9.1028819"><ele>278.0</ele><time>2026-03-29T09:31:40.335Z</time></trkpt><trkpt lat="44.8459909" lon="9.1032474"><ele>277.33333333333337</ele><time>2026-03-29T09:31:42.311Z</time></trkpt><trkpt lat="44.8458515" lon="9.1034318"><ele>276.6666666666667</ele><time>2026-03-29T09:31:43.312Z</time></trkpt><trkpt lat="44.8457134" lon="9.1036159"><ele>276.0</ele><time>2026-03-29T09:31:44.321Z</time></trkpt><trkpt lat="44.8455754" lon="9.1038013"><ele>276.0</ele><time>2026-03-29T09:31:45.321Z</time></trkpt><trkpt lat="44.8454406" lon="9.1039811"><ele>276.0</ele><time>2026-03-29T09:31:46.342Z</time></trkpt><trkpt lat="44.8451802" lon="9.1043304"><ele>277.5</ele><time>2026-03-29T09:31:48.308Z</time></trkpt><trkpt lat="44.8450506" lon="9.1045049"><ele>279.0</ele><time>2026-03-29T09:31:49.311Z</time></trkpt><trkpt lat="44.8447877" lon="9.1048483"><ele>281.5</ele><time>2026-03-29T09:31:51.314Z</time></trkpt><trkpt lat="44.8446539" lon="9.1050203"><ele>284.0</ele><time>2026-03-29T09:31:52.33Z</time></trkpt><trkpt lat="44.8443876" lon="9.1053678"><ele>283.6666666666667</ele><time>2026-03-29T09:31:54.311Z</time></trkpt><trkpt lat="44.8442534" lon="9.1055418"><ele>283.3333333333333</ele><time>2026-03-29T09:31:55.315Z</time></trkpt><trkpt lat="44.8441194" lon="9.1057164"><ele>283.0</ele><time>2026-03-29T09:31:56.314Z</time></trkpt><trkpt lat="44.843854" lon="9.1060691"><ele>283.0</ele><time>2026-03-29T09:31:58.311Z</time></trkpt><trkpt lat="44.8437196" lon="9.1062498"><ele>283.0</ele><time>2026-03-29T09:31:59.311Z</time></trkpt><trkpt lat="44.843585" lon="9.1064321"><ele>283.0</ele><time>2026-03-29T09:32:00.311Z</time></trkpt><trkpt lat="44.8434494" lon="9.1066141"><ele>283.3333333333333</ele><time>2026-03-29T09:32:01.314Z</time></trkpt><trkpt lat="44.8433122" lon="9.1067948"><ele>283.6666666666667</ele><time>2026-03-29T09:32:02.316Z</time></trkpt><trkpt lat="44.8431752" lon="9.1069731"><ele>284.0</ele><time>2026-03-29T09:32:03.319Z</time></trkpt><trkpt lat="44.8429227" lon="9.1073076"><ele>283.5</ele><time>2026-03-29T09:32:05.32Z</time></trkpt><trkpt lat="44.8426919" lon="9.1076028"><ele>283.0</ele><time>2026-03-29T09:32:07.318Z</time></trkpt><trkpt lat="44.8425889" lon="9.1077366"><ele>283.0</ele><time>2026-03-29T09:32:08.318Z</time></trkpt><trkpt lat="44.8423936" lon="9.1079931"><ele>283.0</ele><time>2026-03-29T09:32:10.324Z</time></trkpt><trkpt lat="44.8422981" lon="9.1081178"><ele>283.0</ele><time>2026-03-29T09:32:11.329Z</time></trkpt><trkpt lat="44.8422051" lon="9.1082413"><ele>283.66666666666663</ele><time>2026-03-29T09:32:12.33Z</time></trkpt><trkpt lat="44.8421145" lon="9.1083629"><ele>284.3333333333333</ele><time>2026-03-29T09:32:13.329Z</time></trkpt><trkpt lat="44.8419334" lon="9.1086024"><ele>285.0</ele><time>2026-03-29T09:32:15.319Z</time></trkpt><trkpt lat="44.8417497" lon="9.1088481"><ele>285.0</ele><time>2026-03-29T09:32:17.315Z</time></trkpt><trkpt lat="44.8416514" lon="9.1089726"><ele>285.0</ele><time>2026-03-29T09:32:18.317Z</time></trkpt><trkpt lat="44.8414171" lon="9.1092143"><ele>285.0</ele><time>2026-03-29T09:32:20.325Z</time></trkpt><trkpt lat="44.8412715" lon="9.1093294"><ele>286.0</ele><time>2026-03-29T09:32:21.326Z</time></trkpt><trkpt lat="44.8409409" lon="9.1095406"><ele>287.0</ele><time>2026-03-29T09:32:23.321Z</time></trkpt><trkpt lat="44.8405696" lon="9.1097644"><ele>287.0</ele><time>2026-03-29T09:32:25.326Z</time></trkpt><trkpt lat="44.8401689" lon="9.1100073"><ele>287.0</ele><time>2026-03-29T09:32:27.318Z</time></trkpt><trkpt lat="44.8399669" lon="9.1101308"><ele>287.0</ele><time>2026-03-29T09:32:28.318Z</time></trkpt><trkpt lat="44.8397709" lon="9.1102503"><ele>287.0</ele><time>2026-03-29T09:32:29.32Z</time></trkpt><trkpt lat="44.8395879" lon="9.1103664"><ele>287.0</ele><time>2026-03-29T09:32:30.361Z</time></trkpt><trkpt lat="44.839245" lon="9.1105759"><ele>287.0</ele><time>2026-03-29T09:32:32.326Z</time></trkpt><trkpt lat="44.8389332" lon="9.1107673"><ele>287.0</ele><time>2026-03-29T09:32:34.326Z</time></trkpt><trkpt lat="44.8387875" lon="9.1108564"><ele>287.0</ele><time>2026-03-29T09:32:35.332Z</time></trkpt><trkpt lat="44.838492" lon="9.1110358"><ele>287.0</ele><time>2026-03-29T09:32:37.322Z</time></trkpt><trkpt lat="44.8381835" lon="9.1112231"><ele>287.0</ele><time>2026-03-29T09:32:39.323Z</time></trkpt><trkpt lat="44.8378702" lon="9.1114124"><ele>287.0</ele><time>2026-03-29T09:32:41.322Z</time></trkpt><trkpt lat="44.8375607" lon="9.1115963"><ele>289.0</ele><time>2026-03-29T09:32:43.315Z</time></trkpt><trkpt lat="44.8372539" lon="9.1117829"><ele>291.0</ele><time>2026-03-29T09:32:45.324Z</time></trkpt><trkpt lat="44.8369544" lon="9.1119631"><ele>291.0</ele><time>2026-03-29T09:32:47.314Z</time></trkpt><trkpt lat="44.8368039" lon="9.1120596"><ele>291.0</ele><time>2026-03-29T09:32:48.32Z</time></trkpt><trkpt lat="44.8365157" lon="9.1123233"><ele>291.6666666666667</ele><time>2026-03-29T09:32:50.318Z</time></trkpt><trkpt lat="44.8363869" lon="9.1125169"><ele>292.33333333333337</ele><time>2026-03-29T09:32:51.32Z</time></trkpt><trkpt lat="44.8362756" lon="9.1127509"><ele>293.0</ele><time>2026-03-29T09:32:52.34Z</time></trkpt><trkpt lat="44.8360767" lon="9.1133181"><ele>291.0</ele><time>2026-03-29T09:32:54.315Z</time></trkpt><trkpt lat="44.8358491" lon="9.1139566"><ele>291.0</ele><time>2026-03-29T09:32:56.314Z</time></trkpt><trkpt lat="44.8356086" lon="9.1146289"><ele>292.0</ele><time>2026-03-29T09:32:58.317Z</time></trkpt><trkpt lat="44.835323" lon="9.1152236"><ele>292.0</ele><time>2026-03-29T09:33:00.32Z</time></trkpt><trkpt lat="44.8351572" lon="9.1154938"><ele>292.0</ele><time>2026-03-29T09:33:01.325Z</time></trkpt><trkpt lat="44.8349939" lon="9.1157509"><ele>299.0</ele><time>2026-03-29T09:33:02.327Z</time></trkpt><trkpt lat="44.8346787" lon="9.1162518"><ele>306.0</ele><time>2026-03-29T09:33:04.334Z</time></trkpt><trkpt lat="44.8343521" lon="9.1167229"><ele>303.0</ele><time>2026-03-29T09:33:06.324Z</time></trkpt><trkpt lat="44.8341722" lon="9.1169044"><ele>300.0</ele><time>2026-03-29T09:33:07.323Z</time></trkpt><trkpt lat="44.8339757" lon="9.1170519"><ele>297.0</ele><time>2026-03-29T09:33:08.328Z</time></trkpt><trkpt lat="44.8335711" lon="9.1173149"><ele>299.5</ele><time>2026-03-29T09:33:10.313Z</time></trkpt><trkpt lat="44.8331999" lon="9.1175603"><ele>302.0</ele><time>2026-03-29T09:33:12.325Z</time></trkpt><trkpt lat="44.8328444" lon="9.1177911"><ele>302.0</ele><time>2026-03-29T09:33:14.315Z</time></trkpt><trkpt lat="44.8326689" lon="9.1179058"><ele>302.0</ele><time>2026-03-29T09:33:15.321Z</time></trkpt><trkpt lat="44.832501" lon="9.1180171"><ele>302.0</ele><time>2026-03-29T09:33:16.328Z</time></trkpt><trkpt lat="44.8321722" lon="9.1181994"><ele>302.5</ele><time>2026-03-29T09:33:18.322Z</time></trkpt><trkpt lat="44.8318346" lon="9.1182726"><ele>303.0</ele><time>2026-03-29T09:33:20.324Z</time></trkpt><trkpt lat="44.8316644" lon="9.1182758"><ele>300.5</ele><time>2026-03-29T09:33:21.324Z</time></trkpt><trkpt lat="44.8314969" lon="9.1182728"><ele>298.0</ele><time>2026-03-29T09:33:22.332Z</time></trkpt><trkpt lat="44.8311695" lon="9.1183146"><ele>299.66666666666663</ele><time>2026-03-29T09:33:24.326Z</time></trkpt><trkpt lat="44.8308807" lon="9.1184589"><ele>301.3333333333333</ele><time>2026-03-29T09:33:26.321Z</time></trkpt><trkpt lat="44.8307599" lon="9.1185633"><ele>303.0</ele><time>2026-03-29T09:33:27.322Z</time></trkpt><trkpt lat="44.8306574" lon="9.1186899"><ele>303.0</ele><time>2026-03-29T09:33:28.326Z</time></trkpt><trkpt lat="44.8304929" lon="9.1190004"><ele>303.0</ele><time>2026-03-29T09:33:30.314Z</time></trkpt><trkpt lat="44.8303402" lon="9.1193438"><ele>304.5</ele><time>2026-03-29T09:33:32.313Z</time></trkpt><trkpt lat="44.8301852" lon="9.1197081"><ele>306.0</ele><time>2026-03-29T09:33:34.314Z</time></trkpt><trkpt lat="44.8299886" lon="9.1200436"><ele>306.0</ele><time>2026-03-29T09:33:36.318Z</time></trkpt><trkpt lat="44.8298657" lon="9.1201754"><ele>306.0</ele><time>2026-03-29T09:33:37.32Z</time></trkpt><trkpt lat="44.8295895" lon="9.1203806"><ele>304.5</ele><time>2026-03-29T09:33:39.325Z</time></trkpt><trkpt lat="44.8293022" lon="9.1205126"><ele>303.0</ele><time>2026-03-29T09:33:41.338Z</time></trkpt><trkpt lat="44.8290529" lon="9.1206146"><ele>303.0</ele><time>2026-03-29T09:33:43.317Z</time></trkpt><trkpt lat="44.8288506" lon="9.1206963"><ele>303.0</ele><time>2026-03-29T09:33:45.305Z</time></trkpt><trkpt lat="44.8287512" lon="9.1207346"><ele>303.0</ele><time>2026-03-29T09:33:46.306Z</time></trkpt><trkpt lat="44.8286477" lon="9.1207738"><ele>303.0</ele><time>2026-03-29T09:33:47.308Z</time></trkpt><trkpt lat="44.8285389" lon="9.1208134"><ele>304.25</ele><time>2026-03-29T09:33:48.309Z</time></trkpt><trkpt lat="44.8284271" lon="9.1208559"><ele>305.5</ele><time>2026-03-29T09:33:49.309Z</time></trkpt><trkpt lat="44.8283151" lon="9.1208981"><ele>306.75</ele><time>2026-03-29T09:33:50.311Z</time></trkpt><trkpt lat="44.8281992" lon="9.1209419"><ele>308.0</ele><time>2026-03-29T09:33:51.31Z</time></trkpt><trkpt lat="44.827953" lon="9.1210259"><ele>308.0</ele><time>2026-03-29T09:33:53.306Z</time></trkpt><trkpt lat="44.8278307" lon="9.1210743"><ele>308.0</ele><time>2026-03-29T09:33:54.307Z</time></trkpt><trkpt lat="44.8277119" lon="9.1211369"><ele>308.0</ele><time>2026-03-29T09:33:55.31Z</time></trkpt><trkpt lat="44.8275962" lon="9.1212034"><ele>308.0</ele><time>2026-03-29T09:33:56.322Z</time></trkpt><trkpt lat="44.8273792" lon="9.1213531"><ele>306.0</ele><time>2026-03-29T09:33:58.315Z</time></trkpt><trkpt lat="44.8272742" lon="9.1214433"><ele>304.0</ele><time>2026-03-29T09:33:59.32Z</time></trkpt><trkpt lat="44.8270717" lon="9.1216319"><ele>302.0</ele><time>2026-03-29T09:34:01.312Z</time></trkpt><trkpt lat="44.8269739" lon="9.1217284"><ele>304.5</ele><time>2026-03-29T09:34:02.312Z</time></trkpt><trkpt lat="44.8267784" lon="9.1219171"><ele>307.0</ele><time>2026-03-29T09:34:04.311Z</time></trkpt><trkpt lat="44.826589" lon="9.1221086"><ele>307.0</ele><time>2026-03-29T09:34:06.309Z</time></trkpt><trkpt lat="44.8264961" lon="9.1222113"><ele>307.0</ele><time>2026-03-29T09:34:07.316Z</time></trkpt><trkpt lat="44.8264059" lon="9.1223236"><ele>307.0</ele><time>2026-03-29T09:34:08.323Z</time></trkpt><trkpt lat="44.8262285" lon="9.1225769"><ele>306.3333333333333</ele><time>2026-03-29T09:34:10.328Z</time></trkpt><trkpt lat="44.8260592" lon="9.1228546"><ele>305.6666666666667</ele><time>2026-03-29T09:34:12.315Z</time></trkpt><trkpt lat="44.8259832" lon="9.1229786"><ele>305.0</ele><time>2026-03-29T09:34:13.315Z</time></trkpt><trkpt lat="44.8259122" lon="9.1231011"><ele>306.0</ele><time>2026-03-29T09:34:14.316Z</time></trkpt><trkpt lat="44.8258426" lon="9.1232326"><ele>307.0</ele><time>2026-03-29T09:34:15.317Z</time></trkpt><trkpt lat="44.8256967" lon="9.1235088"><ele>308.0</ele><time>2026-03-29T09:34:17.32Z</time></trkpt><trkpt lat="44.8255395" lon="9.1237943"><ele>308.0</ele><time>2026-03-29T09:34:19.313Z</time></trkpt><trkpt lat="44.8254574" lon="9.1239431"><ele>308.0</ele><time>2026-03-29T09:34:20.316Z</time></trkpt><trkpt lat="44.8253734" lon="9.1240936"><ele>308.0</ele><time>2026-03-29T09:34:21.321Z</time></trkpt><trkpt lat="44.8252879" lon="9.1242476"><ele>308.0</ele><time>2026-03-29T09:34:22.323Z</time></trkpt><trkpt lat="44.8251147" lon="9.1245669"><ele>308.5</ele><time>2026-03-29T09:34:24.316Z</time></trkpt><trkpt lat="44.8250251" lon="9.1247353"><ele>309.0</ele><time>2026-03-29T09:34:25.315Z</time></trkpt><trkpt lat="44.8248341" lon="9.1250821"><ele>309.5</ele><time>2026-03-29T09:34:27.322Z</time></trkpt><trkpt lat="44.8246365" lon="9.1254356"><ele>310.0</ele><time>2026-03-29T09:34:29.315Z</time></trkpt><trkpt lat="44.8245374" lon="9.1256159"><ele>310.0</ele><time>2026-03-29T09:34:30.322Z</time></trkpt><trkpt lat="44.8243382" lon="9.1259741"><ele>310.0</ele><time>2026-03-29T09:34:32.327Z</time></trkpt><trkpt lat="44.8241564" lon="9.1262993"><ele>310.0</ele><time>2026-03-29T09:34:34.319Z</time></trkpt><trkpt lat="44.8240722" lon="9.1264501"><ele>310.0</ele><time>2026-03-29T09:34:35.331Z</time></trkpt><trkpt lat="44.8239154" lon="9.1267374"><ele>310.0</ele><time>2026-03-29T09:34:37.316Z</time></trkpt><trkpt lat="44.8238349" lon="9.1268796"><ele>310.3333333333333</ele><time>2026-03-29T09:34:38.318Z</time></trkpt><trkpt lat="44.8236712" lon="9.1271719"><ele>310.6666666666667</ele><time>2026-03-29T09:34:40.32Z</time></trkpt><trkpt lat="44.8235871" lon="9.1273199"><ele>311.0</ele><time>2026-03-29T09:34:41.323Z</time></trkpt><trkpt lat="44.8235009" lon="9.1274691"><ele>311.5</ele><time>2026-03-29T09:34:42.328Z</time></trkpt><trkpt lat="44.8233212" lon="9.1277806"><ele>312.0</ele><time>2026-03-29T09:34:44.318Z</time></trkpt><trkpt lat="44.8231419" lon="9.1281234"><ele>312.5</ele><time>2026-03-29T09:34:46.318Z</time></trkpt><trkpt lat="44.8229777" lon="9.1284981"><ele>313.0</ele><time>2026-03-29T09:34:48.313Z</time></trkpt><trkpt lat="44.8229045" lon="9.1286984"><ele>316.0</ele><time>2026-03-29T09:34:49.315Z</time></trkpt><trkpt lat="44.8227814" lon="9.1291228"><ele>319.0</ele><time>2026-03-29T09:34:51.321Z</time></trkpt><trkpt lat="44.8227317" lon="9.1293451"><ele>319.0</ele><time>2026-03-29T09:34:52.32Z</time></trkpt><trkpt lat="44.8226931" lon="9.1295743"><ele>319.0</ele><time>2026-03-29T09:34:53.326Z</time></trkpt><trkpt lat="44.8226647" lon="9.1298086"><ele>319.0</ele><time>2026-03-29T09:34:54.326Z</time></trkpt><trkpt lat="44.8226409" lon="9.1302886"><ele>318.5</ele><time>2026-03-29T09:34:56.367Z</time></trkpt><trkpt lat="44.8226474" lon="9.1308099"><ele>318.0</ele><time>2026-03-29T09:34:58.332Z</time></trkpt><trkpt lat="44.822672" lon="9.1314326"><ele>323.0</ele><time>2026-03-29T09:35:00.323Z</time></trkpt><trkpt lat="44.822687" lon="9.1317969"><ele>328.0</ele><time>2026-03-29T09:35:01.326Z</time></trkpt><trkpt lat="44.8227152" lon="9.1325688"><ele>328.0</ele><time>2026-03-29T09:35:03.323Z</time></trkpt><trkpt lat="44.8227304" lon="9.1329146"><ele>328.0</ele><time>2026-03-29T09:35:04.33Z</time></trkpt><trkpt lat="44.8227874" lon="9.1335549"><ele>328.0</ele><time>2026-03-29T09:35:06.328Z</time></trkpt><trkpt lat="44.8228394" lon="9.1338634"><ele>328.0</ele><time>2026-03-29T09:35:07.332Z</time></trkpt><trkpt lat="44.8229056" lon="9.1341628"><ele>328.0</ele><time>2026-03-29T09:35:08.333Z</time></trkpt><trkpt lat="44.8230745" lon="9.1347381"><ele>328.0</ele><time>2026-03-29T09:35:10.333Z</time></trkpt><trkpt lat="44.823272" lon="9.1352661"><ele>328.0</ele><time>2026-03-29T09:35:12.339Z</time></trkpt><trkpt lat="44.82346" lon="9.1357731"><ele>331.0</ele><time>2026-03-29T09:35:14.32Z</time></trkpt><trkpt lat="44.8235362" lon="9.1360271"><ele>334.0</ele><time>2026-03-29T09:35:15.325Z</time></trkpt><trkpt lat="44.8235967" lon="9.1362824"><ele>337.0</ele><time>2026-03-29T09:35:16.333Z</time></trkpt><trkpt lat="44.8236675" lon="9.1367784"><ele>337.0</ele><time>2026-03-29T09:35:18.315Z</time></trkpt><trkpt lat="44.8236814" lon="9.1370178"><ele>337.0</ele><time>2026-03-29T09:35:19.317Z</time></trkpt><trkpt lat="44.8236849" lon="9.1372613"><ele>337.0</ele><time>2026-03-29T09:35:20.324Z</time></trkpt><trkpt lat="44.8236801" lon="9.1375096"><ele>336.5</ele><time>2026-03-29T09:35:21.329Z</time></trkpt><trkpt lat="44.8236494" lon="9.1380116"><ele>336.0</ele><time>2026-03-29T09:35:23.319Z</time></trkpt><trkpt lat="44.8236312" lon="9.1382588"><ele>336.0</ele><time>2026-03-29T09:35:24.32Z</time></trkpt><trkpt lat="44.8236141" lon="9.1384999"><ele>336.0</ele><time>2026-03-29T09:35:25.321Z</time></trkpt><trkpt lat="44.8235972" lon="9.1387369"><ele>336.0</ele><time>2026-03-29T09:35:26.323Z</time></trkpt><trkpt lat="44.8235614" lon="9.1392123"><ele>338.5</ele><time>2026-03-29T09:35:28.324Z</time></trkpt><trkpt lat="44.8235324" lon="9.1396969"><ele>341.0</ele><time>2026-03-29T09:35:30.319Z</time></trkpt><trkpt lat="44.8235274" lon="9.1399436"><ele>341.0</ele><time>2026-03-29T09:35:31.328Z</time></trkpt><trkpt lat="44.8235417" lon="9.1404323"><ele>341.0</ele><time>2026-03-29T09:35:33.338Z</time></trkpt><trkpt lat="44.8235747" lon="9.1408959"><ele>341.0</ele><time>2026-03-29T09:35:35.313Z</time></trkpt><trkpt lat="44.8235949" lon="9.1411239"><ele>341.0</ele><time>2026-03-29T09:35:36.319Z</time></trkpt><trkpt lat="44.8236185" lon="9.1413524"><ele>341.0</ele><time>2026-03-29T09:35:37.321Z</time></trkpt><trkpt lat="44.8236722" lon="9.1418161"><ele>341.0</ele><time>2026-03-29T09:35:39.32Z</time></trkpt><trkpt lat="44.8237257" lon="9.1422774"><ele>341.0</ele><time>2026-03-29T09:35:41.314Z</time></trkpt><trkpt lat="44.8237512" lon="9.1425088"><ele>339.5</ele><time>2026-03-29T09:35:42.315Z</time></trkpt><trkpt lat="44.8238016" lon="9.1429784"><ele>338.0</ele><time>2026-03-29T09:35:44.318Z</time></trkpt><trkpt lat="44.823825" lon="9.1432139"><ele>337.0</ele><time>2026-03-29T09:35:45.325Z</time></trkpt><trkpt lat="44.8238657" lon="9.1436899"><ele>336.0</ele><time>2026-03-29T09:35:47.32Z</time></trkpt><trkpt lat="44.8238839" lon="9.1439311"><ele>335.5</ele><time>2026-03-29T09:35:48.322Z</time></trkpt><trkpt lat="44.8239087" lon="9.1444169"><ele>335.0</ele><time>2026-03-29T09:35:50.319Z</time></trkpt><trkpt lat="44.8239134" lon="9.1446606"><ele>336.0</ele><time>2026-03-29T09:35:51.332Z</time></trkpt><trkpt lat="44.8239152" lon="9.1451438"><ele>337.0</ele><time>2026-03-29T09:35:53.323Z</time></trkpt><trkpt lat="44.8239007" lon="9.1456153"><ele>340.0</ele><time>2026-03-29T09:35:55.323Z</time></trkpt><trkpt lat="44.8238767" lon="9.1460366"><ele>343.0</ele><time>2026-03-29T09:35:57.322Z</time></trkpt><trkpt lat="44.8238427" lon="9.1464356"><ele>343.66666666666663</ele><time>2026-03-29T09:35:59.319Z</time></trkpt><trkpt lat="44.8238224" lon="9.1466364"><ele>344.3333333333333</ele><time>2026-03-29T09:36:00.319Z</time></trkpt><trkpt lat="44.8237849" lon="9.1470559"><ele>345.0</ele><time>2026-03-29T09:36:02.322Z</time></trkpt><trkpt lat="44.8237627" lon="9.1472834"><ele>344.0</ele><time>2026-03-29T09:36:03.323Z</time></trkpt><trkpt lat="44.8237155" lon="9.1477569"><ele>343.0</ele><time>2026-03-29T09:36:05.321Z</time></trkpt><trkpt lat="44.8236895" lon="9.1480039"><ele>342.5</ele><time>2026-03-29T09:36:06.329Z</time></trkpt><trkpt lat="44.8236654" lon="9.1482596"><ele>342.0</ele><time>2026-03-29T09:36:07.331Z</time></trkpt><trkpt lat="44.8236139" lon="9.1487903"><ele>342.6666666666667</ele><time>2026-03-29T09:36:09.318Z</time></trkpt><trkpt lat="44.8235929" lon="9.1490611"><ele>343.33333333333337</ele><time>2026-03-29T09:36:10.322Z</time></trkpt><trkpt lat="44.8235737" lon="9.1493301"><ele>344.0</ele><time>2026-03-29T09:36:11.325Z</time></trkpt><trkpt lat="44.8235401" lon="9.1498338"><ele>345.0</ele><time>2026-03-29T09:36:13.317Z</time></trkpt><trkpt lat="44.8235252" lon="9.1500814"><ele>346.0</ele><time>2026-03-29T09:36:14.325Z</time></trkpt><trkpt lat="44.8235104" lon="9.1503206"><ele>347.0</ele><time>2026-03-29T09:36:15.325Z</time></trkpt><trkpt lat="44.8234855" lon="9.1507788"><ele>343.5</ele><time>2026-03-29T09:36:17.322Z</time></trkpt><trkpt lat="44.8234749" lon="9.1510064"><ele>340.0</ele><time>2026-03-29T09:36:18.322Z</time></trkpt><trkpt lat="44.8234551" lon="9.1514453"><ele>340.5</ele><time>2026-03-29T09:36:20.352Z</time></trkpt><trkpt lat="44.8234406" lon="9.1518681"><ele>341.0</ele><time>2026-03-29T09:36:22.324Z</time></trkpt><trkpt lat="44.823431" lon="9.1522801"><ele>342.33333333333337</ele><time>2026-03-29T09:36:24.329Z</time></trkpt><trkpt lat="44.8234197" lon="9.1526678"><ele>343.6666666666667</ele><time>2026-03-29T09:36:26.322Z</time></trkpt><trkpt lat="44.8234147" lon="9.1528619"><ele>345.0</ele><time>2026-03-29T09:36:27.328Z</time></trkpt><trkpt lat="44.8234111" lon="9.1530588"><ele>345.0</ele><time>2026-03-29T09:36:28.343Z</time></trkpt><trkpt lat="44.8234062" lon="9.1534648"><ele>345.0</ele><time>2026-03-29T09:36:30.322Z</time></trkpt><trkpt lat="44.8234059" lon="9.1536658"><ele>345.0</ele><time>2026-03-29T09:36:31.331Z</time></trkpt><trkpt lat="44.8233977" lon="9.1540408"><ele>346.6666666666667</ele><time>2026-03-29T09:36:33.327Z</time></trkpt><trkpt lat="44.8233852" lon="9.1543969"><ele>348.33333333333337</ele><time>2026-03-29T09:36:35.322Z</time></trkpt><trkpt lat="44.8233816" lon="9.1545738"><ele>350.0</ele><time>2026-03-29T09:36:36.324Z</time></trkpt><trkpt lat="44.8233764" lon="9.1547461"><ele>350.75</ele><time>2026-03-29T09:36:37.34Z</time></trkpt><trkpt lat="44.8233677" lon="9.1550621"><ele>351.5</ele><time>2026-03-29T09:36:39.322Z</time></trkpt><trkpt lat="44.8233676" lon="9.1551961"><ele>352.25</ele><time>2026-03-29T09:36:40.336Z</time></trkpt><trkpt lat="44.8233639" lon="9.1553243"><ele>353.0</ele><time>2026-03-29T09:36:41.339Z</time></trkpt><trkpt lat="44.8233542" lon="9.1556149"><ele>353.5</ele><time>2026-03-29T09:36:43.329Z</time></trkpt><trkpt lat="44.8233494" lon="9.1557741"><ele>354.0</ele><time>2026-03-29T09:36:44.335Z</time></trkpt><trkpt lat="44.8233384" lon="9.1560808"><ele>354.5</ele><time>2026-03-29T09:36:46.322Z</time></trkpt><trkpt lat="44.8233366" lon="9.1562431"><ele>355.0</ele><time>2026-03-29T09:36:47.323Z</time></trkpt><trkpt lat="44.8233494" lon="9.1564083"><ele>355.0</ele><time>2026-03-29T09:36:48.335Z</time></trkpt><trkpt lat="44.8234556" lon="9.1567183"><ele>355.0</ele><time>2026-03-29T09:36:50.326Z</time></trkpt><trkpt lat="44.8236439" lon="9.1569544"><ele>355.0</ele><time>2026-03-29T09:36:52.317Z</time></trkpt><trkpt lat="44.8237525" lon="9.1570559"><ele>355.0</ele><time>2026-03-29T09:36:53.327Z</time></trkpt><trkpt lat="44.8239692" lon="9.1572551"><ele>355.0</ele><time>2026-03-29T09:36:55.335Z</time></trkpt><trkpt lat="44.8241919" lon="9.1574609"><ele>355.66666666666663</ele><time>2026-03-29T09:36:57.324Z</time></trkpt><trkpt lat="44.8244097" lon="9.1576938"><ele>356.3333333333333</ele><time>2026-03-29T09:36:59.325Z</time></trkpt><trkpt lat="44.8245065" lon="9.1578323"><ele>357.0</ele><time>2026-03-29T09:37:00.34Z</time></trkpt><trkpt lat="44.8246438" lon="9.1581801"><ele>356.3333333333333</ele><time>2026-03-29T09:37:02.321Z</time></trkpt><trkpt lat="44.8246862" lon="9.1583813"><ele>355.66666666666663</ele><time>2026-03-29T09:37:03.322Z</time></trkpt><trkpt lat="44.8247226" lon="9.1585909"><ele>355.0</ele><time>2026-03-29T09:37:04.328Z</time></trkpt><trkpt lat="44.8247982" lon="9.1590318"><ele>354.5</ele><time>2026-03-29T09:37:06.325Z</time></trkpt><trkpt lat="44.824842" lon="9.1592766"><ele>354.0</ele><time>2026-03-29T09:37:07.326Z</time></trkpt><trkpt lat="44.8249379" lon="9.1598351"><ele>354.0</ele><time>2026-03-29T09:37:09.321Z</time></trkpt><trkpt lat="44.8250185" lon="9.1604203"><ele>354.0</ele><time>2026-03-29T09:37:11.321Z</time></trkpt><trkpt lat="44.825041" lon="9.1607116"><ele>354.5</ele><time>2026-03-29T09:37:12.323Z</time></trkpt><trkpt lat="44.8250656" lon="9.1612818"><ele>355.0</ele><time>2026-03-29T09:37:14.325Z</time></trkpt><trkpt lat="44.8250775" lon="9.1618251"><ele>356.5</ele><time>2026-03-29T09:37:16.319Z</time></trkpt><trkpt lat="44.8250844" lon="9.1620948"><ele>358.0</ele><time>2026-03-29T09:37:17.327Z</time></trkpt><trkpt lat="44.8251009" lon="9.1626323"><ele>358.0</ele><time>2026-03-29T09:37:19.319Z</time></trkpt><trkpt lat="44.8251092" lon="9.1628978"><ele>358.0</ele><time>2026-03-29T09:37:20.322Z</time></trkpt><trkpt lat="44.8250969" lon="9.1634169"><ele>358.0</ele><time>2026-03-29T09:37:22.349Z</time></trkpt><trkpt lat="44.8250249" lon="9.1639171"><ele>358.0</ele><time>2026-03-29T09:37:24.327Z</time></trkpt><trkpt lat="44.8249152" lon="9.1643926"><ele>358.0</ele><time>2026-03-29T09:37:26.319Z</time></trkpt><trkpt lat="44.8248575" lon="9.1646258"><ele>358.0</ele><time>2026-03-29T09:37:27.325Z</time></trkpt><trkpt lat="44.8247564" lon="9.1650754"><ele>359.5</ele><time>2026-03-29T09:37:29.318Z</time></trkpt><trkpt lat="44.8247175" lon="9.1653014"><ele>361.0</ele><time>2026-03-29T09:37:30.323Z</time></trkpt><trkpt lat="44.8246694" lon="9.1657539"><ele>363.0</ele><time>2026-03-29T09:37:32.319Z</time></trkpt><trkpt lat="44.8246297" lon="9.1661933"><ele>365.0</ele><time>2026-03-29T09:37:34.323Z</time></trkpt><trkpt lat="44.8246127" lon="9.1664134"><ele>366.5</ele><time>2026-03-29T09:37:35.327Z</time></trkpt><trkpt lat="44.824596" lon="9.1668583"><ele>368.0</ele><time>2026-03-29T09:37:37.321Z</time></trkpt><trkpt lat="44.8246134" lon="9.1673203"><ele>367.33333333333337</ele><time>2026-03-29T09:37:39.325Z</time></trkpt><trkpt lat="44.8246327" lon="9.1675539"><ele>366.6666666666667</ele><time>2026-03-29T09:37:40.333Z</time></trkpt><trkpt lat="44.8246559" lon="9.1677841"><ele>366.0</ele><time>2026-03-29T09:37:41.334Z</time></trkpt><trkpt lat="44.8247064" lon="9.1682428"><ele>366.0</ele><time>2026-03-29T09:37:43.333Z</time></trkpt><trkpt lat="44.8247371" lon="9.1687244"><ele>366.0</ele><time>2026-03-29T09:37:45.327Z</time></trkpt><trkpt lat="44.8247442" lon="9.1692574"><ele>368.5</ele><time>2026-03-29T09:37:47.326Z</time></trkpt><trkpt lat="44.8247469" lon="9.1698186"><ele>371.0</ele><time>2026-03-29T09:37:49.322Z</time></trkpt><trkpt lat="44.8247447" lon="9.1701056"><ele>371.0</ele><time>2026-03-29T09:37:50.322Z</time></trkpt><trkpt lat="44.8247355" lon="9.1706779"><ele>371.0</ele><time>2026-03-29T09:37:52.319Z</time></trkpt><trkpt lat="44.8247364" lon="9.1712498"><ele>372.0</ele><time>2026-03-29T09:37:54.32Z</time></trkpt><trkpt lat="44.8247389" lon="9.1718319"><ele>373.0</ele><time>2026-03-29T09:37:56.324Z</time></trkpt><trkpt lat="44.8247394" lon="9.1721258"><ele>374.0</ele><time>2026-03-29T09:37:57.323Z</time></trkpt><trkpt lat="44.8247429" lon="9.1724221"><ele>375.0</ele><time>2026-03-29T09:37:58.328Z</time></trkpt><trkpt lat="44.824746" lon="9.1730131"><ele>376.0</ele><time>2026-03-29T09:38:00.323Z</time></trkpt><trkpt lat="44.8247451" lon="9.1733119"><ele>377.0</ele><time>2026-03-29T09:38:01.326Z</time></trkpt><trkpt lat="44.8247457" lon="9.1739156"><ele>378.0</ele><time>2026-03-29T09:38:03.326Z</time></trkpt><trkpt lat="44.8247469" lon="9.1745153"><ele>379.0</ele><time>2026-03-29T09:38:05.32Z</time></trkpt><trkpt lat="44.8247474" lon="9.1748148"><ele>379.5</ele><time>2026-03-29T09:38:06.322Z</time></trkpt><trkpt lat="44.8247507" lon="9.1754063"><ele>380.0</ele><time>2026-03-29T09:38:08.327Z</time></trkpt><trkpt lat="44.8247527" lon="9.1759911"><ele>381.0</ele><time>2026-03-29T09:38:10.331Z</time></trkpt><trkpt lat="44.8247542" lon="9.1765724"><ele>382.0</ele><time>2026-03-29T09:38:12.318Z</time></trkpt><trkpt lat="44.8247572" lon="9.1768608"><ele>382.0</ele><time>2026-03-29T09:38:13.318Z</time></trkpt><trkpt lat="44.8247612" lon="9.1771489"><ele>382.0</ele><time>2026-03-29T09:38:14.324Z</time></trkpt><trkpt lat="44.8247632" lon="9.1774371"><ele>382.0</ele><time>2026-03-29T09:38:15.322Z</time></trkpt><trkpt lat="44.8247676" lon="9.1779899"><ele>381.0</ele><time>2026-03-29T09:38:17.326Z</time></trkpt><trkpt lat="44.8247702" lon="9.1782566"><ele>380.0</ele><time>2026-03-29T09:38:18.327Z</time></trkpt><trkpt lat="44.8247739" lon="9.1787149"><ele>380.5</ele><time>2026-03-29T09:38:20.333Z</time></trkpt><trkpt lat="44.8247834" lon="9.1790881"><ele>381.0</ele><time>2026-03-29T09:38:22.332Z</time></trkpt><trkpt lat="44.8247899" lon="9.1794514"><ele>381.0</ele><time>2026-03-29T09:38:24.325Z</time></trkpt><trkpt lat="44.8247931" lon="9.1796334"><ele>381.0</ele><time>2026-03-29T09:38:25.327Z</time></trkpt><trkpt lat="44.8247959" lon="9.1798146"><ele>381.0</ele><time>2026-03-29T09:38:26.325Z</time></trkpt><trkpt lat="44.8248034" lon="9.1801824"><ele>381.6666666666667</ele><time>2026-03-29T09:38:28.323Z</time></trkpt><trkpt lat="44.8248064" lon="9.1803703"><ele>382.33333333333337</ele><time>2026-03-29T09:38:29.334Z</time></trkpt><trkpt lat="44.8248152" lon="9.1807483"><ele>383.0</ele><time>2026-03-29T09:38:31.323Z</time></trkpt><trkpt lat="44.8248237" lon="9.1809343"><ele>384.0</ele><time>2026-03-29T09:38:32.328Z</time></trkpt><trkpt lat="44.8248442" lon="9.1813079"><ele>385.0</ele><time>2026-03-29T09:38:34.329Z</time></trkpt><trkpt lat="44.8248642" lon="9.1816804"><ele>386.0</ele><time>2026-03-29T09:38:36.333Z</time></trkpt><trkpt lat="44.8248757" lon="9.1818671"><ele>387.0</ele><time>2026-03-29T09:38:37.334Z</time></trkpt><trkpt lat="44.8248874" lon="9.1820504"><ele>388.0</ele><time>2026-03-29T09:38:38.335Z</time></trkpt><trkpt lat="44.8249067" lon="9.1824136"><ele>388.0</ele><time>2026-03-29T09:38:40.327Z</time></trkpt><trkpt lat="44.824912" lon="9.1825973"><ele>388.0</ele><time>2026-03-29T09:38:41.328Z</time></trkpt><trkpt lat="44.8249135" lon="9.1827811"><ele>388.0</ele><time>2026-03-29T09:38:42.329Z</time></trkpt><trkpt lat="44.8249082" lon="9.1829671"><ele>388.0</ele><time>2026-03-29T09:38:43.33Z</time></trkpt><trkpt lat="44.8248967" lon="9.1831538"><ele>387.5</ele><time>2026-03-29T09:38:44.331Z</time></trkpt><trkpt lat="44.8248659" lon="9.1835041"><ele>387.0</ele><time>2026-03-29T09:38:46.326Z</time></trkpt><trkpt lat="44.8248407" lon="9.1838573"><ele>388.0</ele><time>2026-03-29T09:38:48.331Z</time></trkpt><trkpt lat="44.8248307" lon="9.1842253"><ele>389.0</ele><time>2026-03-29T09:38:50.33Z</time></trkpt><trkpt lat="44.8248315" lon="9.1844156"><ele>390.0</ele><time>2026-03-29T09:38:51.335Z</time></trkpt><trkpt lat="44.824827" lon="9.1846083"><ele>391.0</ele><time>2026-03-29T09:38:52.336Z</time></trkpt><trkpt lat="44.8248169" lon="9.1850106"><ele>392.0</ele><time>2026-03-29T09:38:54.322Z</time></trkpt><trkpt lat="44.8247979" lon="9.1852164"><ele>393.0</ele><time>2026-03-29T09:38:55.338Z</time></trkpt><trkpt lat="44.8247666" lon="9.1856198"><ele>393.0</ele><time>2026-03-29T09:38:57.328Z</time></trkpt><trkpt lat="44.8247296" lon="9.1860146"><ele>393.0</ele><time>2026-03-29T09:38:59.323Z</time></trkpt><trkpt lat="44.8246957" lon="9.1864238"><ele>394.0</ele><time>2026-03-29T09:39:01.32Z</time></trkpt><trkpt lat="44.8246721" lon="9.1866374"><ele>395.0</ele><time>2026-03-29T09:39:02.322Z</time></trkpt><trkpt lat="44.824651" lon="9.1868509"><ele>396.0</ele><time>2026-03-29T09:39:03.325Z</time></trkpt><trkpt lat="44.824611" lon="9.1872633"><ele>396.66666666666663</ele><time>2026-03-29T09:39:05.322Z</time></trkpt><trkpt lat="44.8245925" lon="9.1874668"><ele>397.3333333333333</ele><time>2026-03-29T09:39:06.325Z</time></trkpt><trkpt lat="44.8245629" lon="9.1878693"><ele>398.0</ele><time>2026-03-29T09:39:08.322Z</time></trkpt><trkpt lat="44.8245509" lon="9.1880679"><ele>399.0</ele><time>2026-03-29T09:39:09.322Z</time></trkpt><trkpt lat="44.82454" lon="9.1882661"><ele>400.0</ele><time>2026-03-29T09:39:10.323Z</time></trkpt><trkpt lat="44.8245295" lon="9.1884571"><ele>401.0</ele><time>2026-03-29T09:39:11.336Z</time></trkpt><trkpt lat="44.8245154" lon="9.1886393"><ele>402.0</ele><time>2026-03-29T09:39:12.337Z</time></trkpt><trkpt lat="44.8244624" lon="9.1889691"><ele>402.25</ele><time>2026-03-29T09:39:14.321Z</time></trkpt><trkpt lat="44.8244224" lon="9.1891163"><ele>402.5</ele><time>2026-03-29T09:39:15.325Z</time></trkpt><trkpt lat="44.8243755" lon="9.1892556"><ele>402.75</ele><time>2026-03-29T09:39:16.331Z</time></trkpt><trkpt lat="44.8243232" lon="9.1893873"><ele>403.0</ele><time>2026-03-29T09:39:17.334Z</time></trkpt><trkpt lat="44.8242039" lon="9.1896313"><ele>402.0</ele><time>2026-03-29T09:39:19.327Z</time></trkpt><trkpt lat="44.8241394" lon="9.1897413"><ele>401.0</ele><time>2026-03-29T09:39:20.328Z</time></trkpt><trkpt lat="44.8240087" lon="9.1899244"><ele>400.0</ele><time>2026-03-29T09:39:22.326Z</time></trkpt><trkpt lat="44.8239359" lon="9.1901553"><ele>400.0</ele><time>2026-03-29T09:39:24.336Z</time></trkpt><trkpt lat="44.8239072" lon="9.1902841"><ele>400.0</ele><time>2026-03-29T09:39:25.337Z</time></trkpt><trkpt lat="44.8238389" lon="9.1905603"><ele>400.0</ele><time>2026-03-29T09:39:27.327Z</time></trkpt><trkpt lat="44.8238059" lon="9.1907113"><ele>400.0</ele><time>2026-03-29T09:39:28.327Z</time></trkpt><trkpt lat="44.8237692" lon="9.1908668"><ele>401.5</ele><time>2026-03-29T09:39:29.335Z</time></trkpt><trkpt lat="44.8236967" lon="9.1911818"><ele>403.0</ele><time>2026-03-29T09:39:31.337Z</time></trkpt><trkpt lat="44.8236292" lon="9.1915028"><ele>403.6666666666667</ele><time>2026-03-29T09:39:33.32Z</time></trkpt><trkpt lat="44.8235675" lon="9.1918303"><ele>404.33333333333337</ele><time>2026-03-29T09:39:35.322Z</time></trkpt><trkpt lat="44.8235394" lon="9.1919981"><ele>405.0</ele><time>2026-03-29T09:39:36.333Z</time></trkpt><trkpt lat="44.823482" lon="9.1923458"><ele>404.66666666666663</ele><time>2026-03-29T09:39:38.334Z</time></trkpt><trkpt lat="44.8234512" lon="9.1925136"><ele>404.3333333333333</ele><time>2026-03-29T09:39:39.338Z</time></trkpt><trkpt lat="44.8233921" lon="9.1928174"><ele>404.0</ele><time>2026-03-29T09:39:41.338Z</time></trkpt><trkpt lat="44.8233347" lon="9.1930931"><ele>404.5</ele><time>2026-03-29T09:39:43.347Z</time></trkpt><trkpt lat="44.8232816" lon="9.1933409"><ele>405.0</ele><time>2026-03-29T09:39:45.331Z</time></trkpt><trkpt lat="44.8232599" lon="9.1934491"><ele>405.5</ele><time>2026-03-29T09:39:46.334Z</time></trkpt><trkpt lat="44.8232324" lon="9.1936406"><ele>406.0</ele><time>2026-03-29T09:39:48.337Z</time></trkpt><trkpt lat="44.8231981" lon="9.1938123"><ele>406.0</ele><time>2026-03-29T09:39:50.324Z</time></trkpt><trkpt lat="44.8231529" lon="9.1938766"><ele>406.0</ele><time>2026-03-29T09:39:51.332Z</time></trkpt><trkpt lat="44.8230889" lon="9.1939001"><ele>406.0</ele><time>2026-03-29T09:39:52.338Z</time></trkpt><trkpt lat="44.8229399" lon="9.1938503"><ele>406.0</ele><time>2026-03-29T09:39:54.321Z</time></trkpt><trkpt lat="44.8227719" lon="9.1937778"><ele>406.0</ele><time>2026-03-29T09:39:56.319Z</time></trkpt><trkpt lat="44.8226802" lon="9.1937451"><ele>406.0</ele><time>2026-03-29T09:39:57.33Z</time></trkpt><trkpt lat="44.8224924" lon="9.1937364"><ele>406.0</ele><time>2026-03-29T09:39:59.321Z</time></trkpt><trkpt lat="44.8224056" lon="9.1937983"><ele>406.0</ele><time>2026-03-29T09:40:00.329Z</time></trkpt><trkpt lat="44.8223065" lon="9.1940459"><ele>405.0</ele><time>2026-03-29T09:40:02.323Z</time></trkpt><trkpt lat="44.8222785" lon="9.1942228"><ele>404.0</ele><time>2026-03-29T09:40:03.329Z</time></trkpt><trkpt lat="44.8222276" lon="9.1945933"><ele>403.0</ele><time>2026-03-29T09:40:05.338Z</time></trkpt><trkpt lat="44.8221854" lon="9.1948918"><ele>403.0</ele><time>2026-03-29T09:40:07.344Z</time></trkpt><trkpt lat="44.8221647" lon="9.1950328"><ele>403.0</ele><time>2026-03-29T09:40:08.348Z</time></trkpt><trkpt lat="44.8221277" lon="9.1953406"><ele>403.0</ele><time>2026-03-29T09:40:10.324Z</time></trkpt><trkpt lat="44.8221079" lon="9.1955024"><ele>403.0</ele><time>2026-03-29T09:40:11.326Z</time></trkpt><trkpt lat="44.8220699" lon="9.1958159"><ele>404.0</ele><time>2026-03-29T09:40:13.33Z</time></trkpt><trkpt lat="44.8220495" lon="9.1959723"><ele>405.0</ele><time>2026-03-29T09:40:14.338Z</time></trkpt><trkpt lat="44.82203" lon="9.1961344"><ele>406.0</ele><time>2026-03-29T09:40:15.338Z</time></trkpt><trkpt lat="44.8219895" lon="9.1964721"><ele>406.33333333333337</ele><time>2026-03-29T09:40:17.33Z</time></trkpt><trkpt lat="44.8219697" lon="9.1966476"><ele>406.66666666666663</ele><time>2026-03-29T09:40:18.335Z</time></trkpt><trkpt lat="44.8219326" lon="9.1970079"><ele>407.0</ele><time>2026-03-29T09:40:20.329Z</time></trkpt><trkpt lat="44.8219132" lon="9.1971863"><ele>407.3333333333333</ele><time>2026-03-29T09:40:21.333Z</time></trkpt><trkpt lat="44.8218772" lon="9.1975241"><ele>407.66666666666663</ele><time>2026-03-29T09:40:23.322Z</time></trkpt><trkpt lat="44.8218597" lon="9.1976786"><ele>408.0</ele><time>2026-03-29T09:40:24.332Z</time></trkpt><trkpt lat="44.8218269" lon="9.1979683"><ele>406.66666666666663</ele><time>2026-03-29T09:40:26.322Z</time></trkpt><trkpt lat="44.8217957" lon="9.1982264"><ele>405.3333333333333</ele><time>2026-03-29T09:40:28.329Z</time></trkpt><trkpt lat="44.8217694" lon="9.1984489"><ele>404.0</ele><time>2026-03-29T09:40:30.333Z</time></trkpt><trkpt lat="44.8217456" lon="9.1986726"><ele>404.0</ele><time>2026-03-29T09:40:32.324Z</time></trkpt><trkpt lat="44.8217314" lon="9.1987948"><ele>404.0</ele><time>2026-03-29T09:40:33.325Z</time></trkpt><trkpt lat="44.8217152" lon="9.1989239"><ele>404.0</ele><time>2026-03-29T09:40:34.331Z</time></trkpt><trkpt lat="44.8216852" lon="9.1991889"><ele>404.0</ele><time>2026-03-29T09:40:36.332Z</time></trkpt><trkpt lat="44.8216702" lon="9.1993116"><ele>404.5</ele><time>2026-03-29T09:40:37.335Z</time></trkpt><trkpt lat="44.8216554" lon="9.1994183"><ele>405.0</ele><time>2026-03-29T09:40:38.338Z</time></trkpt><trkpt lat="44.8216382" lon="9.1996248"><ele>405.5</ele><time>2026-03-29T09:40:40.329Z</time></trkpt><trkpt lat="44.8216559" lon="9.1997353"><ele>406.0</ele><time>2026-03-29T09:40:41.331Z</time></trkpt><trkpt lat="44.8217629" lon="9.1999189"><ele>407.6</ele><time>2026-03-29T09:40:43.331Z</time></trkpt><trkpt lat="44.8218395" lon="9.1999841"><ele>409.20000000000005</ele><time>2026-03-29T09:40:44.331Z</time></trkpt><trkpt lat="44.8219151" lon="9.2000363"><ele>410.79999999999995</ele><time>2026-03-29T09:40:45.346Z</time></trkpt><trkpt lat="44.8220584" lon="9.2001313"><ele>412.4</ele><time>2026-03-29T09:40:47.328Z</time></trkpt><trkpt lat="44.8221316" lon="9.2001786"><ele>414.0</ele><time>2026-03-29T09:40:48.344Z</time></trkpt><trkpt lat="44.8222904" lon="9.2002801"><ele>414.0</ele><time>2026-03-29T09:40:50.33Z</time></trkpt><trkpt lat="44.8223805" lon="9.2003376"><ele>414.0</ele><time>2026-03-29T09:40:51.334Z</time></trkpt><trkpt lat="44.8224897" lon="9.2004078"><ele>414.0</ele><time>2026-03-29T09:40:52.334Z</time></trkpt><trkpt lat="44.8226879" lon="9.2005468"><ele>414.0</ele><time>2026-03-29T09:40:54.344Z</time></trkpt><trkpt lat="44.8227959" lon="9.2006729"><ele>415.25</ele><time>2026-03-29T09:40:56.332Z</time></trkpt><trkpt lat="44.8227724" lon="9.2009316"><ele>416.5</ele><time>2026-03-29T09:40:59.334Z</time></trkpt><trkpt lat="44.8227401" lon="9.2010306"><ele>417.75</ele><time>2026-03-29T09:41:00.341Z</time></trkpt><trkpt lat="44.8226737" lon="9.2012559"><ele>419.0</ele><time>2026-03-29T09:41:02.331Z</time></trkpt><trkpt lat="44.8226055" lon="9.2015126"><ele>419.3333333333333</ele><time>2026-03-29T09:41:04.305Z</time></trkpt><trkpt lat="44.8225327" lon="9.2017931"><ele>419.66666666666663</ele><time>2026-03-29T09:41:06.331Z</time></trkpt><trkpt lat="44.822454" lon="9.2020938"><ele>420.0</ele><time>2026-03-29T09:41:08.326Z</time></trkpt><trkpt lat="44.8223689" lon="9.2024038"><ele>421.5</ele><time>2026-03-29T09:41:10.323Z</time></trkpt><trkpt lat="44.8222817" lon="9.2027339"><ele>423.0</ele><time>2026-03-29T09:41:12.318Z</time></trkpt><trkpt lat="44.8221919" lon="9.2030806"><ele>423.0</ele><time>2026-03-29T09:41:14.314Z</time></trkpt><trkpt lat="44.8221472" lon="9.2032574"><ele>423.0</ele><time>2026-03-29T09:41:15.314Z</time></trkpt><trkpt lat="44.8221014" lon="9.2034351"><ele>423.0</ele><time>2026-03-29T09:41:16.327Z</time></trkpt><trkpt lat="44.822057" lon="9.2036163"><ele>423.0</ele><time>2026-03-29T09:41:17.336Z</time></trkpt><trkpt lat="44.8219672" lon="9.2039841"><ele>423.0</ele><time>2026-03-29T09:41:19.332Z</time></trkpt><trkpt lat="44.8218764" lon="9.2043504"><ele>423.0</ele><time>2026-03-29T09:41:21.318Z</time></trkpt><trkpt lat="44.8217822" lon="9.2047181"><ele>424.66666666666663</ele><time>2026-03-29T09:41:23.319Z</time></trkpt><trkpt lat="44.8216687" lon="9.2050719"><ele>426.3333333333333</ele><time>2026-03-29T09:41:25.311Z</time></trkpt><trkpt lat="44.8215987" lon="9.2052389"><ele>428.0</ele><time>2026-03-29T09:41:26.323Z</time></trkpt><trkpt lat="44.8214351" lon="9.2055509"><ele>429.3333333333333</ele><time>2026-03-29T09:41:28.33Z</time></trkpt><trkpt lat="44.8213415" lon="9.2057006"><ele>430.66666666666663</ele><time>2026-03-29T09:41:29.331Z</time></trkpt><trkpt lat="44.8212402" lon="9.2058469"><ele>432.0</ele><time>2026-03-29T09:41:30.332Z</time></trkpt><trkpt lat="44.8210227" lon="9.2061391"><ele>432.0</ele><time>2026-03-29T09:41:32.322Z</time></trkpt><trkpt lat="44.8209167" lon="9.2062903"><ele>432.0</ele><time>2026-03-29T09:41:33.327Z</time></trkpt><trkpt lat="44.8208134" lon="9.2064421"><ele>432.0</ele><time>2026-03-29T09:41:34.338Z</time></trkpt><trkpt lat="44.8206233" lon="9.2067244"><ele>432.0</ele><time>2026-03-29T09:41:36.336Z</time></trkpt><trkpt lat="44.820457" lon="9.2069663"><ele>432.0</ele><time>2026-03-29T09:41:38.344Z</time></trkpt><trkpt lat="44.8203164" lon="9.2071731"><ele>432.0</ele><time>2026-03-29T09:41:40.341Z</time></trkpt><trkpt lat="44.8201927" lon="9.2073506"><ele>432.75</ele><time>2026-03-29T09:41:42.324Z</time></trkpt><trkpt lat="44.8201322" lon="9.2074384"><ele>433.5</ele><time>2026-03-29T09:41:43.329Z</time></trkpt><trkpt lat="44.8200097" lon="9.2076238"><ele>434.25</ele><time>2026-03-29T09:41:45.327Z</time></trkpt><trkpt lat="44.8198822" lon="9.2078049"><ele>435.0</ele><time>2026-03-29T09:41:47.325Z</time></trkpt><trkpt lat="44.8198197" lon="9.2078983"><ele>435.0</ele><time>2026-03-29T09:41:48.331Z</time></trkpt><trkpt lat="44.8196961" lon="9.2080849"><ele>435.0</ele><time>2026-03-29T09:41:50.318Z</time></trkpt><trkpt lat="44.8196339" lon="9.2081756"><ele>435.0</ele><time>2026-03-29T09:41:51.33Z</time></trkpt><trkpt lat="44.8195707" lon="9.2082686"><ele>435.0</ele><time>2026-03-29T09:41:52.333Z</time></trkpt><trkpt lat="44.8194359" lon="9.2084713"><ele>434.33333333333337</ele><time>2026-03-29T09:41:54.334Z</time></trkpt><trkpt lat="44.8193629" lon="9.2085854"><ele>433.6666666666667</ele><time>2026-03-29T09:41:55.336Z</time></trkpt><trkpt lat="44.8192069" lon="9.2088336"><ele>433.0</ele><time>2026-03-29T09:41:57.334Z</time></trkpt><trkpt lat="44.8190624" lon="9.2091081"><ele>436.0</ele><time>2026-03-29T09:41:59.341Z</time></trkpt><trkpt lat="44.8190014" lon="9.2094458"><ele>439.0</ele><time>2026-03-29T09:42:01.346Z</time></trkpt><trkpt lat="44.8190299" lon="9.2098456"><ele>440.33333333333337</ele><time>2026-03-29T09:42:03.333Z</time></trkpt><trkpt lat="44.8190729" lon="9.2100623"><ele>441.66666666666663</ele><time>2026-03-29T09:42:04.335Z</time></trkpt><trkpt lat="44.8191244" lon="9.2102916"><ele>443.0</ele><time>2026-03-29T09:42:05.334Z</time></trkpt><trkpt lat="44.819179" lon="9.2105289"><ele>441.5</ele><time>2026-03-29T09:42:06.342Z</time></trkpt><trkpt lat="44.8192893" lon="9.2110113"><ele>440.0</ele><time>2026-03-29T09:42:08.328Z</time></trkpt><trkpt lat="44.8193461" lon="9.2112541"><ele>452.0</ele><time>2026-03-29T09:42:09.331Z</time></trkpt><trkpt lat="44.8194035" lon="9.2114983"><ele>464.0</ele><time>2026-03-29T09:42:10.353Z</time></trkpt><trkpt lat="44.8195257" lon="9.2120044"><ele>461.0</ele><time>2026-03-29T09:42:12.334Z</time></trkpt><trkpt lat="44.8196359" lon="9.2124981"><ele>458.0</ele><time>2026-03-29T09:42:14.326Z</time></trkpt><trkpt lat="44.8196514" lon="9.2127143"><ele>458.0</ele><time>2026-03-29T09:42:15.334Z</time></trkpt><trkpt lat="44.8196231" lon="9.2129104"><ele>458.0</ele><time>2026-03-29T09:42:16.356Z</time></trkpt><trkpt lat="44.8194432" lon="9.2132071"><ele>458.0</ele><time>2026-03-29T09:42:18.332Z</time></trkpt><trkpt lat="44.8191792" lon="9.2134311"><ele>456.3333333333333</ele><time>2026-03-29T09:42:20.338Z</time></trkpt><trkpt lat="44.8189599" lon="9.2136499"><ele>454.66666666666663</ele><time>2026-03-29T09:42:22.333Z</time></trkpt><trkpt lat="44.8188865" lon="9.2137943"><ele>453.0</ele><time>2026-03-29T09:42:23.333Z</time></trkpt><trkpt lat="44.8188552" lon="9.2141643"><ele>453.0</ele><time>2026-03-29T09:42:25.333Z</time></trkpt><trkpt lat="44.8188517" lon="9.2145218"><ele>453.0</ele><time>2026-03-29T09:42:27.32Z</time></trkpt><trkpt lat="44.8187897" lon="9.2146713"><ele>453.0</ele><time>2026-03-29T09:42:28.333Z</time></trkpt><trkpt lat="44.8186844" lon="9.2147904"><ele>455.5</ele><time>2026-03-29T09:42:29.338Z</time></trkpt><trkpt lat="44.8184107" lon="9.2149004"><ele>458.0</ele><time>2026-03-29T09:42:31.326Z</time></trkpt><trkpt lat="44.8181346" lon="9.2147679"><ele>458.0</ele><time>2026-03-29T09:42:33.331Z</time></trkpt><trkpt lat="44.8178357" lon="9.2145309"><ele>458.0</ele><time>2026-03-29T09:42:35.338Z</time></trkpt><trkpt lat="44.817554" lon="9.2144228"><ele>459.66666666666663</ele><time>2026-03-29T09:42:37.333Z</time></trkpt><trkpt lat="44.8174135" lon="9.2144424"><ele>461.33333333333337</ele><time>2026-03-29T09:42:38.342Z</time></trkpt><trkpt lat="44.8171392" lon="9.2145903"><ele>463.0</ele><time>2026-03-29T09:42:40.337Z</time></trkpt><trkpt lat="44.8170159" lon="9.2146541"><ele>463.0</ele><time>2026-03-29T09:42:41.348Z</time></trkpt><trkpt lat="44.816915" lon="9.2147153"><ele>463.0</ele><time>2026-03-29T09:42:42.353Z</time></trkpt><trkpt lat="44.8168497" lon="9.2149384"><ele>463.0</ele><time>2026-03-29T09:42:44.317Z</time></trkpt><trkpt lat="44.8168881" lon="9.2150556"><ele>463.0</ele><time>2026-03-29T09:42:45.317Z</time></trkpt><trkpt lat="44.8169635" lon="9.2151256"><ele>467.0</ele><time>2026-03-29T09:42:46.332Z</time></trkpt><trkpt lat="44.8171662" lon="9.2151069"><ele>471.0</ele><time>2026-03-29T09:42:48.326Z</time></trkpt><trkpt lat="44.8173792" lon="9.2151591"><ele>475.0</ele><time>2026-03-29T09:42:50.33Z</time></trkpt><trkpt lat="44.8174747" lon="9.2152609"><ele>476.5</ele><time>2026-03-29T09:42:51.362Z</time></trkpt><trkpt lat="44.817671" lon="9.2155771"><ele>478.0</ele><time>2026-03-29T09:42:53.331Z</time></trkpt><trkpt lat="44.8177662" lon="9.2157474"><ele>478.0</ele><time>2026-03-29T09:42:54.348Z</time></trkpt><trkpt lat="44.8178897" lon="9.2160836"><ele>478.0</ele><time>2026-03-29T09:42:56.333Z</time></trkpt><trkpt lat="44.8178962" lon="9.2162583"><ele>478.0</ele><time>2026-03-29T09:42:57.362Z</time></trkpt><trkpt lat="44.8179242" lon="9.2166263"><ele>483.5</ele><time>2026-03-29T09:42:59.356Z</time></trkpt><trkpt lat="44.8179867" lon="9.2168363"><ele>489.0</ele><time>2026-03-29T09:43:00.416Z</time></trkpt><trkpt lat="44.8181566" lon="9.2171839"><ele>493.0</ele><time>2026-03-29T09:43:02.345Z</time></trkpt><trkpt lat="44.8183822" lon="9.2173984"><ele>497.0</ele><time>2026-03-29T09:43:04.36Z</time></trkpt><trkpt lat="44.8184449" lon="9.2175194"><ele>501.0</ele><time>2026-03-29T09:43:05.401Z</time></trkpt><trkpt lat="44.8184204" lon="9.2177786"><ele>501.0</ele><time>2026-03-29T09:43:07.335Z</time></trkpt><trkpt lat="44.8183431" lon="9.2178669"><ele>501.0</ele><time>2026-03-29T09:43:08.335Z</time></trkpt><trkpt lat="44.8181327" lon="9.2178611"><ele>501.0</ele><time>2026-03-29T09:43:10.335Z</time></trkpt><trkpt lat="44.8180341" lon="9.2177451"><ele>501.0</ele><time>2026-03-29T09:43:11.345Z</time></trkpt><trkpt lat="44.8178129" lon="9.2174124"><ele>499.33333333333337</ele><time>2026-03-29T09:43:13.33Z</time></trkpt><trkpt lat="44.8177021" lon="9.2172809"><ele>497.6666666666667</ele><time>2026-03-29T09:43:14.33Z</time></trkpt><trkpt lat="44.8175935" lon="9.2172141"><ele>496.0</ele><time>2026-03-29T09:43:15.345Z</time></trkpt><trkpt lat="44.8173327" lon="9.2172699"><ele>501.5</ele><time>2026-03-29T09:43:17.325Z</time></trkpt><trkpt lat="44.8171866" lon="9.2173433"><ele>507.0</ele><time>2026-03-29T09:43:18.348Z</time></trkpt><trkpt lat="44.8169286" lon="9.2175778"><ele>505.0</ele><time>2026-03-29T09:43:20.364Z</time></trkpt><trkpt lat="44.8167001" lon="9.2179139"><ele>503.0</ele><time>2026-03-29T09:43:22.342Z</time></trkpt><trkpt lat="44.8164914" lon="9.2182814"><ele>507.66666666666663</ele><time>2026-03-29T09:43:24.329Z</time></trkpt><trkpt lat="44.8163964" lon="9.2184608"><ele>512.3333333333334</ele><time>2026-03-29T09:43:25.34Z</time></trkpt><trkpt lat="44.8162684" lon="9.2187773"><ele>517.0</ele><time>2026-03-29T09:43:27.332Z</time></trkpt><trkpt lat="44.8162677" lon="9.2189194"><ele>517.0</ele><time>2026-03-29T09:43:28.362Z</time></trkpt><trkpt lat="44.8164035" lon="9.2190829"><ele>517.0</ele><time>2026-03-29T09:43:30.338Z</time></trkpt><trkpt lat="44.8165082" lon="9.2190633"><ele>517.0</ele><time>2026-03-29T09:43:31.353Z</time></trkpt><trkpt lat="44.8167626" lon="9.2189061"><ele>518.0</ele><time>2026-03-29T09:43:33.349Z</time></trkpt><trkpt lat="44.8170064" lon="9.2187403"><ele>519.0</ele><time>2026-03-29T09:43:35.352Z</time></trkpt><trkpt lat="44.8172079" lon="9.2187268"><ele>519.0</ele><time>2026-03-29T09:43:37.337Z</time></trkpt><trkpt lat="44.8172777" lon="9.2188158"><ele>519.0</ele><time>2026-03-29T09:43:38.344Z</time></trkpt><trkpt lat="44.8172746" lon="9.2190684"><ele>519.0</ele><time>2026-03-29T09:43:40.338Z</time></trkpt><trkpt lat="44.8171461" lon="9.2192993"><ele>521.3333333333334</ele><time>2026-03-29T09:43:42.319Z</time></trkpt><trkpt lat="44.8170682" lon="9.2194161"><ele>523.6666666666667</ele><time>2026-03-29T09:43:43.449Z</time></trkpt><trkpt lat="44.8168914" lon="9.2196433"><ele>526.0</ele><time>2026-03-29T09:43:45.348Z</time></trkpt><trkpt lat="44.8166817" lon="9.2198283"><ele>530.3333333333334</ele><time>2026-03-29T09:43:47.33Z</time></trkpt><trkpt lat="44.8165842" lon="9.2199343"><ele>534.6666666666666</ele><time>2026-03-29T09:43:48.333Z</time></trkpt><trkpt lat="44.8164979" lon="9.2200868"><ele>539.0</ele><time>2026-03-29T09:43:49.354Z</time></trkpt><trkpt lat="44.816301" lon="9.2204143"><ele>541.0</ele><time>2026-03-29T09:43:51.336Z</time></trkpt><trkpt lat="44.8160909" lon="9.2206818"><ele>543.0</ele><time>2026-03-29T09:43:53.331Z</time></trkpt><trkpt lat="44.8159914" lon="9.2207933"><ele>545.0</ele><time>2026-03-29T09:43:54.346Z</time></trkpt><trkpt lat="44.8159052" lon="9.2209001"><ele>545.0</ele><time>2026-03-29T09:43:55.347Z</time></trkpt><trkpt lat="44.8157739" lon="9.2211416"><ele>545.0</ele><time>2026-03-29T09:43:57.333Z</time></trkpt><trkpt lat="44.8157234" lon="9.2212649"><ele>545.0</ele><time>2026-03-29T09:43:58.338Z</time></trkpt><trkpt lat="44.81563" lon="9.2214969"><ele>547.2</ele><time>2026-03-29T09:44:00.331Z</time></trkpt><trkpt lat="44.8155436" lon="9.2217003"><ele>549.4</ele><time>2026-03-29T09:44:02.312Z</time></trkpt><trkpt lat="44.8155069" lon="9.2217993"><ele>551.6</ele><time>2026-03-29T09:44:03.31Z</time></trkpt><trkpt lat="44.8154797" lon="9.2219053"><ele>553.8</ele><time>2026-03-29T09:44:04.311Z</time></trkpt><trkpt lat="44.8154607" lon="9.2220179"><ele>556.0</ele><time>2026-03-29T09:44:05.319Z</time></trkpt><trkpt lat="44.8154217" lon="9.2222541"><ele>556.25</ele><time>2026-03-29T09:44:07.318Z</time></trkpt><trkpt lat="44.815391" lon="9.2223743"><ele>556.5</ele><time>2026-03-29T09:44:08.335Z</time></trkpt><trkpt lat="44.8152816" lon="9.2225736"><ele>556.75</ele><time>2026-03-29T09:44:10.329Z</time></trkpt><trkpt lat="44.8152046" lon="9.2226408"><ele>557.0</ele><time>2026-03-29T09:44:11.332Z</time></trkpt><trkpt lat="44.8150467" lon="9.2227934"><ele>557.0</ele><time>2026-03-29T09:44:13.318Z</time></trkpt><trkpt lat="44.8149909" lon="9.2229374"><ele>557.0</ele><time>2026-03-29T09:44:14.336Z</time></trkpt><trkpt lat="44.8149357" lon="9.2231069"><ele>557.0</ele><time>2026-03-29T09:44:15.341Z</time></trkpt><trkpt lat="44.8147587" lon="9.2233436"><ele>563.5</ele><time>2026-03-29T09:44:17.319Z</time></trkpt><trkpt lat="44.8146514" lon="9.2234536"><ele>570.0</ele><time>2026-03-29T09:44:18.336Z</time></trkpt><trkpt lat="44.8144844" lon="9.2238441"><ele>569.0</ele><time>2026-03-29T09:44:20.334Z</time></trkpt><trkpt lat="44.8143194" lon="9.2243306"><ele>568.0</ele><time>2026-03-29T09:44:22.338Z</time></trkpt><trkpt lat="44.8142632" lon="9.2245484"><ele>568.0</ele><time>2026-03-29T09:44:23.342Z</time></trkpt><trkpt lat="44.8142262" lon="9.2247481"><ele>568.0</ele><time>2026-03-29T09:44:24.342Z</time></trkpt><trkpt lat="44.8141227" lon="9.2250883"><ele>568.0</ele><time>2026-03-29T09:44:26.337Z</time></trkpt><trkpt lat="44.8139726" lon="9.2253868"><ele>574.0</ele><time>2026-03-29T09:44:28.321Z</time></trkpt><trkpt lat="44.813776" lon="9.2256053"><ele>580.0</ele><time>2026-03-29T09:44:30.359Z</time></trkpt><trkpt lat="44.8135555" lon="9.2257568"><ele>582.0</ele><time>2026-03-29T09:44:32.329Z</time></trkpt><trkpt lat="44.8133372" lon="9.2259096"><ele>584.0</ele><time>2026-03-29T09:44:34.332Z</time></trkpt><trkpt lat="44.8131219" lon="9.2260639"><ele>584.0</ele><time>2026-03-29T09:44:36.329Z</time></trkpt><trkpt lat="44.8130389" lon="9.2261961"><ele>584.0</ele><time>2026-03-29T09:44:37.338Z</time></trkpt><trkpt lat="44.8128945" lon="9.2265453"><ele>584.0</ele><time>2026-03-29T09:44:39.322Z</time></trkpt><trkpt lat="44.8128126" lon="9.2267114"><ele>583.3333333333333</ele><time>2026-03-29T09:44:40.332Z</time></trkpt><trkpt lat="44.812725" lon="9.2268659"><ele>582.6666666666666</ele><time>2026-03-29T09:44:41.338Z</time></trkpt><trkpt lat="44.8125507" lon="9.2271594"><ele>582.0</ele><time>2026-03-29T09:44:43.339Z</time></trkpt><trkpt lat="44.8123741" lon="9.2274449"><ele>586.3333333333334</ele><time>2026-03-29T09:44:45.325Z</time></trkpt><trkpt lat="44.8122856" lon="9.2275833"><ele>590.6666666666667</ele><time>2026-03-29T09:44:46.38Z</time></trkpt><trkpt lat="44.8121389" lon="9.2278858"><ele>595.0</ele><time>2026-03-29T09:44:48.323Z</time></trkpt><trkpt lat="44.812084" lon="9.2282498"><ele>596.6666666666667</ele><time>2026-03-29T09:44:50.322Z</time></trkpt><trkpt lat="44.8120864" lon="9.2284384"><ele>598.3333333333334</ele><time>2026-03-29T09:44:51.331Z</time></trkpt><trkpt lat="44.8121324" lon="9.2288148"><ele>600.0</ele><time>2026-03-29T09:44:53.341Z</time></trkpt><trkpt lat="44.8121502" lon="9.2291589"><ele>602.0</ele><time>2026-03-29T09:44:55.319Z</time></trkpt><trkpt lat="44.812136" lon="9.2293329"><ele>604.0</ele><time>2026-03-29T09:44:56.325Z</time></trkpt><trkpt lat="44.8121084" lon="9.2295064"><ele>606.0</ele><time>2026-03-29T09:44:57.328Z</time></trkpt><trkpt lat="44.8120189" lon="9.2298408"><ele>604.5</ele><time>2026-03-29T09:44:59.342Z</time></trkpt><trkpt lat="44.8119082" lon="9.2301633"><ele>603.0</ele><time>2026-03-29T09:45:01.317Z</time></trkpt><trkpt lat="44.8118082" lon="9.2304938"><ele>604.0</ele><time>2026-03-29T09:45:03.314Z</time></trkpt><trkpt lat="44.8117741" lon="9.2306729"><ele>605.0</ele><time>2026-03-29T09:45:04.331Z</time></trkpt><trkpt lat="44.8117546" lon="9.2310453"><ele>606.0</ele><time>2026-03-29T09:45:06.35Z</time></trkpt><trkpt lat="44.8118047" lon="9.2313769"><ele>607.5</ele><time>2026-03-29T09:45:08.329Z</time></trkpt><trkpt lat="44.811822" lon="9.2315316"><ele>609.0</ele><time>2026-03-29T09:45:09.33Z</time></trkpt><trkpt lat="44.8117664" lon="9.2318174"><ele>610.5</ele><time>2026-03-29T09:45:11.334Z</time></trkpt><trkpt lat="44.8116952" lon="9.2319226"><ele>612.0</ele><time>2026-03-29T09:45:12.346Z</time></trkpt><trkpt lat="44.8115605" lon="9.2321416"><ele>612.0</ele><time>2026-03-29T09:45:14.323Z</time></trkpt><trkpt lat="44.8115369" lon="9.2322836"><ele>612.0</ele><time>2026-03-29T09:45:15.325Z</time></trkpt><trkpt lat="44.8115389" lon="9.2324341"><ele>612.0</ele><time>2026-03-29T09:45:16.332Z</time></trkpt><trkpt lat="44.8115575" lon="9.2327444"><ele>612.0</ele><time>2026-03-29T09:45:18.328Z</time></trkpt><trkpt lat="44.8115359" lon="9.2328974"><ele>613.6666666666666</ele><time>2026-03-29T09:45:19.334Z</time></trkpt><trkpt lat="44.8114861" lon="9.2330394"><ele>615.3333333333333</ele><time>2026-03-29T09:45:20.348Z</time></trkpt><trkpt lat="44.8113084" lon="9.2332453"><ele>617.0</ele><time>2026-03-29T09:45:22.342Z</time></trkpt><trkpt lat="44.8110942" lon="9.2334264"><ele>616.3333333333333</ele><time>2026-03-29T09:45:24.335Z</time></trkpt><trkpt lat="44.8109934" lon="9.2335336"><ele>615.6666666666666</ele><time>2026-03-29T09:45:25.343Z</time></trkpt><trkpt lat="44.8108974" lon="9.2336458"><ele>615.0</ele><time>2026-03-29T09:45:26.343Z</time></trkpt><trkpt lat="44.8107099" lon="9.2338746"><ele>621.5</ele><time>2026-03-29T09:45:28.348Z</time></trkpt><trkpt lat="44.8105287" lon="9.2340946"><ele>628.0</ele><time>2026-03-29T09:45:30.331Z</time></trkpt><trkpt lat="44.8103689" lon="9.2343313"><ele>628.0</ele><time>2026-03-29T09:45:32.338Z</time></trkpt><trkpt lat="44.8102439" lon="9.2345906"><ele>628.0</ele><time>2026-03-29T09:45:34.326Z</time></trkpt><trkpt lat="44.8101474" lon="9.2348636"><ele>628.0</ele><time>2026-03-29T09:45:36.313Z</time></trkpt><trkpt lat="44.8100882" lon="9.2349929"><ele>628.0</ele><time>2026-03-29T09:45:37.316Z</time></trkpt><trkpt lat="44.8100138" lon="9.2351006"><ele>628.0</ele><time>2026-03-29T09:45:38.352Z</time></trkpt><trkpt lat="44.8098297" lon="9.2352421"><ele>628.0</ele><time>2026-03-29T09:45:40.328Z</time></trkpt><trkpt lat="44.8096841" lon="9.2354563"><ele>628.0</ele><time>2026-03-29T09:45:42.326Z</time></trkpt><trkpt lat="44.8096532" lon="9.2356084"><ele>628.0</ele><time>2026-03-29T09:45:43.336Z</time></trkpt><trkpt lat="44.8096581" lon="9.2359389"><ele>628.0</ele><time>2026-03-29T09:45:45.315Z</time></trkpt><trkpt lat="44.8096684" lon="9.2361129"><ele>637.0</ele><time>2026-03-29T09:45:46.319Z</time></trkpt><trkpt lat="44.8096555" lon="9.2364778"><ele>646.0</ele><time>2026-03-29T09:45:48.322Z</time></trkpt><trkpt lat="44.8096305" lon="9.2368453"><ele>646.0</ele><time>2026-03-29T09:45:50.325Z</time></trkpt><trkpt lat="44.8096409" lon="9.2370269"><ele>646.0</ele><time>2026-03-29T09:45:51.324Z</time></trkpt><trkpt lat="44.8096806" lon="9.2373854"><ele>646.0</ele><time>2026-03-29T09:45:53.318Z</time></trkpt><trkpt lat="44.8097059" lon="9.2375648"><ele>646.0</ele><time>2026-03-29T09:45:54.322Z</time></trkpt><trkpt lat="44.8097307" lon="9.2377418"><ele>646.0</ele><time>2026-03-29T09:45:55.347Z</time></trkpt><trkpt lat="44.8097705" lon="9.2380909"><ele>646.0</ele><time>2026-03-29T09:45:57.326Z</time></trkpt><trkpt lat="44.8097769" lon="9.2382646"><ele>646.0</ele><time>2026-03-29T09:45:58.343Z</time></trkpt><trkpt lat="44.8097419" lon="9.2385999"><ele>646.0</ele><time>2026-03-29T09:46:00.349Z</time></trkpt><trkpt lat="44.8097761" lon="9.2388816"><ele>646.0</ele><time>2026-03-29T09:46:02.336Z</time></trkpt><trkpt lat="44.8098445" lon="9.2389854"><ele>647.5</ele><time>2026-03-29T09:46:03.338Z</time></trkpt><trkpt lat="44.8100151" lon="9.2391951"><ele>649.0</ele><time>2026-03-29T09:46:05.33Z</time></trkpt><trkpt lat="44.8101414" lon="9.2394766"><ele>649.0</ele><time>2026-03-29T09:46:07.328Z</time></trkpt><trkpt lat="44.8101626" lon="9.2396416"><ele>649.0</ele><time>2026-03-29T09:46:08.345Z</time></trkpt><trkpt lat="44.8101464" lon="9.2399988"><ele>649.0</ele><time>2026-03-29T09:46:10.349Z</time></trkpt><trkpt lat="44.8100907" lon="9.2403971"><ele>648.5</ele><time>2026-03-29T09:46:12.339Z</time></trkpt><trkpt lat="44.8100475" lon="9.2408206"><ele>648.0</ele><time>2026-03-29T09:46:14.334Z</time></trkpt><trkpt lat="44.8100522" lon="9.2410274"><ele>652.0</ele><time>2026-03-29T09:46:15.359Z</time></trkpt><trkpt lat="44.8101594" lon="9.2414024"><ele>656.0</ele><time>2026-03-29T09:46:17.332Z</time></trkpt><trkpt lat="44.8103385" lon="9.2417398"><ele>656.0</ele><time>2026-03-29T09:46:19.334Z</time></trkpt><trkpt lat="44.8104579" lon="9.2420778"><ele>656.0</ele><time>2026-03-29T09:46:21.33Z</time></trkpt><trkpt lat="44.8105499" lon="9.2422139"><ele>656.0</ele><time>2026-03-29T09:46:22.346Z</time></trkpt><trkpt lat="44.8107805" lon="9.2425011"><ele>655.0</ele><time>2026-03-29T09:46:24.336Z</time></trkpt><trkpt lat="44.810953" lon="9.2428908"><ele>654.0</ele><time>2026-03-29T09:46:26.337Z</time></trkpt><trkpt lat="44.8110225" lon="9.2433593"><ele>663.0</ele><time>2026-03-29T09:46:28.327Z</time></trkpt><trkpt lat="44.8110379" lon="9.2436004"><ele>672.0</ele><time>2026-03-29T09:46:29.346Z</time></trkpt><trkpt lat="44.811068" lon="9.2440479"><ele>672.0</ele><time>2026-03-29T09:46:31.349Z</time></trkpt><trkpt lat="44.8110961" lon="9.2444776"><ele>672.0</ele><time>2026-03-29T09:46:33.352Z</time></trkpt><trkpt lat="44.8111724" lon="9.2448696"><ele>670.3333333333334</ele><time>2026-03-29T09:46:35.33Z</time></trkpt><trkpt lat="44.8112479" lon="9.2450416"><ele>668.6666666666667</ele><time>2026-03-29T09:46:36.353Z</time></trkpt><trkpt lat="44.8114219" lon="9.2453861"><ele>667.0</ele><time>2026-03-29T09:46:38.329Z</time></trkpt><trkpt lat="44.8114945" lon="9.2455794"><ele>664.6666666666667</ele><time>2026-03-29T09:46:39.327Z</time></trkpt><trkpt lat="44.8115609" lon="9.2457768"><ele>662.3333333333334</ele><time>2026-03-29T09:46:40.351Z</time></trkpt><trkpt lat="44.8116834" lon="9.2461456"><ele>660.0</ele><time>2026-03-29T09:46:42.334Z</time></trkpt><trkpt lat="44.8118565" lon="9.2464376"><ele>663.0</ele><time>2026-03-29T09:46:44.319Z</time></trkpt><trkpt lat="44.8119649" lon="9.2465469"><ele>666.0</ele><time>2026-03-29T09:46:45.355Z</time></trkpt><trkpt lat="44.8121444" lon="9.2467099"><ele>669.0</ele><time>2026-03-29T09:46:47.339Z</time></trkpt><trkpt lat="44.8121902" lon="9.2468016"><ele>672.0</ele><time>2026-03-29T09:46:48.339Z</time></trkpt><trkpt lat="44.8121812" lon="9.2470123"><ele>672.0</ele><time>2026-03-29T09:46:50.322Z</time></trkpt><trkpt lat="44.8121342" lon="9.2472263"><ele>672.0</ele><time>2026-03-29T09:46:52.317Z</time></trkpt><trkpt lat="44.8120985" lon="9.2474739"><ele>672.0</ele><time>2026-03-29T09:46:54.322Z</time></trkpt><trkpt lat="44.8120924" lon="9.2476104"><ele>672.0</ele><time>2026-03-29T09:46:55.326Z</time></trkpt><trkpt lat="44.8121149" lon="9.2479198"><ele>674.0</ele><time>2026-03-29T09:46:57.313Z</time></trkpt><trkpt lat="44.8121624" lon="9.2482784"><ele>676.0</ele><time>2026-03-29T09:46:59.319Z</time></trkpt><trkpt lat="44.8122161" lon="9.2486773"><ele>676.0</ele><time>2026-03-29T09:47:01.308Z</time></trkpt><trkpt lat="44.8122612" lon="9.2491054"><ele>676.0</ele><time>2026-03-29T09:47:03.31Z</time></trkpt><trkpt lat="44.8122954" lon="9.2493278"><ele>676.0</ele><time>2026-03-29T09:47:04.328Z</time></trkpt><trkpt lat="44.8123891" lon="9.2497529"><ele>676.0</ele><time>2026-03-29T09:47:06.332Z</time></trkpt><trkpt lat="44.8124689" lon="9.2501063"><ele>675.4</ele><time>2026-03-29T09:47:08.303Z</time></trkpt><trkpt lat="44.8124656" lon="9.2502424"><ele>674.8</ele><time>2026-03-29T09:47:09.312Z</time></trkpt><trkpt lat="44.8124244" lon="9.2503399"><ele>674.1999999999999</ele><time>2026-03-29T09:47:10.313Z</time></trkpt><trkpt lat="44.8123552" lon="9.2503794"><ele>673.5999999999999</ele><time>2026-03-29T09:47:11.333Z</time></trkpt><trkpt lat="44.8121767" lon="9.2503023"><ele>673.0</ele><time>2026-03-29T09:47:13.31Z</time></trkpt><trkpt lat="44.8120625" lon="9.2502419"><ele>673.0</ele><time>2026-03-29T09:47:14.309Z</time></trkpt><trkpt lat="44.8119314" lon="9.2501994"><ele>673.0</ele><time>2026-03-29T09:47:15.331Z</time></trkpt><trkpt lat="44.8116444" lon="9.2502471"><ele>673.0</ele><time>2026-03-29T09:47:17.327Z</time></trkpt><trkpt lat="44.8114816" lon="9.2503431"><ele>668.0</ele><time>2026-03-29T09:47:18.422Z</time></trkpt><trkpt lat="44.8111614" lon="9.2505693"><ele>663.0</ele><time>2026-03-29T09:47:20.303Z</time></trkpt><trkpt lat="44.8110192" lon="9.2507368"><ele>665.5</ele><time>2026-03-29T09:47:21.311Z</time></trkpt><trkpt lat="44.8107636" lon="9.2511771"><ele>668.0</ele><time>2026-03-29T09:47:23.327Z</time></trkpt><trkpt lat="44.8105989" lon="9.2515456"><ele>671.0</ele><time>2026-03-29T09:47:25.35Z</time></trkpt><trkpt lat="44.8106229" lon="9.2519623"><ele>674.0</ele><time>2026-03-29T09:47:27.344Z</time></trkpt><trkpt lat="44.8107359" lon="9.2524921"><ele>674.0</ele><time>2026-03-29T09:47:29.324Z</time></trkpt><trkpt lat="44.8108535" lon="9.2529728"><ele>674.0</ele><time>2026-03-29T09:47:31.334Z</time></trkpt><trkpt lat="44.8109424" lon="9.2531991"><ele>675.5</ele><time>2026-03-29T09:47:32.356Z</time></trkpt><trkpt lat="44.8111732" lon="9.2536429"><ele>677.0</ele><time>2026-03-29T09:47:34.35Z</time></trkpt><trkpt lat="44.8113925" lon="9.2540553"><ele>677.0</ele><time>2026-03-29T09:47:36.327Z</time></trkpt><trkpt lat="44.8115427" lon="9.2544561"><ele>677.0</ele><time>2026-03-29T09:47:38.325Z</time></trkpt><trkpt lat="44.8116449" lon="9.2548601"><ele>675.3333333333333</ele><time>2026-03-29T09:47:40.314Z</time></trkpt><trkpt lat="44.811697" lon="9.2550641"><ele>673.6666666666666</ele><time>2026-03-29T09:47:41.319Z</time></trkpt><trkpt lat="44.8117485" lon="9.2552736"><ele>672.0</ele><time>2026-03-29T09:47:42.344Z</time></trkpt><trkpt lat="44.811816" lon="9.2557204"><ele>671.0</ele><time>2026-03-29T09:47:44.326Z</time></trkpt><trkpt lat="44.8118287" lon="9.2561893"><ele>670.0</ele><time>2026-03-29T09:47:46.316Z</time></trkpt><trkpt lat="44.8118232" lon="9.2564193"><ele>673.5</ele><time>2026-03-29T09:47:47.329Z</time></trkpt><trkpt lat="44.8117662" lon="9.2568291"><ele>677.0</ele><time>2026-03-29T09:47:49.333Z</time></trkpt><trkpt lat="44.8115992" lon="9.2570983"><ele>677.0</ele><time>2026-03-29T09:47:51.31Z</time></trkpt><trkpt lat="44.8114882" lon="9.2571776"><ele>677.0</ele><time>2026-03-29T09:47:52.325Z</time></trkpt><trkpt lat="44.8113249" lon="9.2574264"><ele>677.0</ele><time>2026-03-29T09:47:54.311Z</time></trkpt><trkpt lat="44.8112964" lon="9.2576143"><ele>679.5</ele><time>2026-03-29T09:47:55.325Z</time></trkpt><trkpt lat="44.8112679" lon="9.2580379"><ele>682.0</ele><time>2026-03-29T09:47:57.303Z</time></trkpt><trkpt lat="44.8112502" lon="9.2582506"><ele>683.5</ele><time>2026-03-29T09:47:58.363Z</time></trkpt><trkpt lat="44.811237" lon="9.2586801"><ele>685.0</ele><time>2026-03-29T09:48:00.322Z</time></trkpt><trkpt lat="44.8112361" lon="9.2588928"><ele>688.0</ele><time>2026-03-29T09:48:01.331Z</time></trkpt><trkpt lat="44.811134" lon="9.2592558"><ele>691.0</ele><time>2026-03-29T09:48:03.326Z</time></trkpt><trkpt lat="44.81102" lon="9.2593918"><ele>694.0</ele><time>2026-03-29T09:48:04.33Z</time></trkpt><trkpt lat="44.8107122" lon="9.2595416"><ele>684.0</ele><time>2026-03-29T09:48:06.311Z</time></trkpt><trkpt lat="44.8104024" lon="9.2596733"><ele>674.0</ele><time>2026-03-29T09:48:08.308Z</time></trkpt><trkpt lat="44.8102557" lon="9.2597796"><ele>676.5</ele><time>2026-03-29T09:48:09.316Z</time></trkpt><trkpt lat="44.810105" lon="9.2598969"><ele>679.0</ele><time>2026-03-29T09:48:10.339Z</time></trkpt><trkpt lat="44.8098016" lon="9.2601338"><ele>679.0</ele><time>2026-03-29T09:48:12.317Z</time></trkpt><trkpt lat="44.8096582" lon="9.2602408"><ele>679.0</ele><time>2026-03-29T09:48:13.325Z</time></trkpt><trkpt lat="44.8095092" lon="9.2603143"><ele>679.0</ele><time>2026-03-29T09:48:14.332Z</time></trkpt><trkpt lat="44.809358" lon="9.2603331"><ele>676.6666666666667</ele><time>2026-03-29T09:48:15.333Z</time></trkpt><trkpt lat="44.8090837" lon="9.2602501"><ele>674.3333333333334</ele><time>2026-03-29T09:48:17.31Z</time></trkpt><trkpt lat="44.808956" lon="9.2602646"><ele>672.0</ele><time>2026-03-29T09:48:18.328Z</time></trkpt><trkpt lat="44.8087754" lon="9.2604924"><ele>676.0</ele><time>2026-03-29T09:48:20.354Z</time></trkpt><trkpt lat="44.8087785" lon="9.2608208"><ele>680.0</ele><time>2026-03-29T09:48:22.302Z</time></trkpt><trkpt lat="44.8088141" lon="9.2610109"><ele>684.0</ele><time>2026-03-29T09:48:23.31Z</time></trkpt><trkpt lat="44.8088457" lon="9.2612046"><ele>683.6666666666666</ele><time>2026-03-29T09:48:24.311Z</time></trkpt><trkpt lat="44.8089124" lon="9.2615954"><ele>683.3333333333333</ele><time>2026-03-29T09:48:26.311Z</time></trkpt><trkpt lat="44.8089565" lon="9.2617899"><ele>683.0</ele><time>2026-03-29T09:48:27.322Z</time></trkpt><trkpt lat="44.8090104" lon="9.2619824"><ele>678.5</ele><time>2026-03-29T09:48:28.341Z</time></trkpt><trkpt lat="44.8091482" lon="9.2623576"><ele>674.0</ele><time>2026-03-29T09:48:30.331Z</time></trkpt><trkpt lat="44.8092307" lon="9.2625353"><ele>685.5</ele><time>2026-03-29T09:48:31.331Z</time></trkpt><trkpt lat="44.8094269" lon="9.2628663"><ele>697.0</ele><time>2026-03-29T09:48:33.329Z</time></trkpt><trkpt lat="44.8095419" lon="9.2630119"><ele>692.5</ele><time>2026-03-29T09:48:34.354Z</time></trkpt><trkpt lat="44.8097917" lon="9.2632626"><ele>688.0</ele><time>2026-03-29T09:48:36.324Z</time></trkpt><trkpt lat="44.8099177" lon="9.2633823"><ele>688.0</ele><time>2026-03-29T09:48:37.324Z</time></trkpt><trkpt lat="44.8100329" lon="9.2635024"><ele>688.0</ele><time>2026-03-29T09:48:38.334Z</time></trkpt><trkpt lat="44.8101809" lon="9.2638004"><ele>688.0</ele><time>2026-03-29T09:48:40.327Z</time></trkpt><trkpt lat="44.8102179" lon="9.2639664"><ele>691.3333333333334</ele><time>2026-03-29T09:48:41.331Z</time></trkpt><trkpt lat="44.8103337" lon="9.2642763"><ele>694.6666666666666</ele><time>2026-03-29T09:48:43.311Z</time></trkpt><trkpt lat="44.8104224" lon="9.2644138"><ele>698.0</ele><time>2026-03-29T09:48:44.323Z</time></trkpt><trkpt lat="44.8106234" lon="9.2646899"><ele>695.5</ele><time>2026-03-29T09:48:46.304Z</time></trkpt><trkpt lat="44.8107317" lon="9.2648306"><ele>693.0</ele><time>2026-03-29T09:48:47.304Z</time></trkpt><trkpt lat="44.810842" lon="9.2649709"><ele>690.5</ele><time>2026-03-29T09:48:48.318Z</time></trkpt><trkpt lat="44.8109517" lon="9.2651051"><ele>688.0</ele><time>2026-03-29T09:48:49.331Z</time></trkpt><trkpt lat="44.8111642" lon="9.2653211"><ele>691.0</ele><time>2026-03-29T09:48:51.335Z</time></trkpt><trkpt lat="44.8112709" lon="9.2655516"><ele>694.0</ele><time>2026-03-29T09:48:53.335Z</time></trkpt><trkpt lat="44.8112314" lon="9.2658309"><ele>697.0</ele><time>2026-03-29T09:48:55.343Z</time></trkpt><trkpt lat="44.8110947" lon="9.2661428"><ele>694.5</ele><time>2026-03-29T09:48:57.324Z</time></trkpt><trkpt lat="44.8109286" lon="9.2665134"><ele>692.0</ele><time>2026-03-29T09:48:59.308Z</time></trkpt><trkpt lat="44.810843" lon="9.2667073"><ele>692.0</ele><time>2026-03-29T09:49:00.327Z</time></trkpt><trkpt lat="44.8106637" lon="9.2670664"><ele>692.0</ele><time>2026-03-29T09:49:02.303Z</time></trkpt><trkpt lat="44.8105635" lon="9.2672259"><ele>691.0</ele><time>2026-03-29T09:49:03.307Z</time></trkpt><trkpt lat="44.8104544" lon="9.2673668"><ele>690.0</ele><time>2026-03-29T09:49:04.315Z</time></trkpt><trkpt lat="44.8103462" lon="9.2674976"><ele>689.0</ele><time>2026-03-29T09:49:05.318Z</time></trkpt><trkpt lat="44.810157" lon="9.2677688"><ele>689.0</ele><time>2026-03-29T09:49:07.309Z</time></trkpt><trkpt lat="44.8100782" lon="9.2679173"><ele>689.0</ele><time>2026-03-29T09:49:08.31Z</time></trkpt><trkpt lat="44.810007" lon="9.2680713"><ele>689.0</ele><time>2026-03-29T09:49:09.316Z</time></trkpt><trkpt lat="44.8098544" lon="9.2683674"><ele>692.3333333333333</ele><time>2026-03-29T09:49:11.325Z</time></trkpt><trkpt lat="44.8096819" lon="9.2686416"><ele>695.6666666666666</ele><time>2026-03-29T09:49:13.322Z</time></trkpt><trkpt lat="44.8096014" lon="9.2687833"><ele>699.0</ele><time>2026-03-29T09:49:14.329Z</time></trkpt><trkpt lat="44.809531" lon="9.2689449"><ele>707.0</ele><time>2026-03-29T09:49:15.333Z</time></trkpt><trkpt lat="44.8094715" lon="9.2691338"><ele>715.0</ele><time>2026-03-29T09:49:16.335Z</time></trkpt><trkpt lat="44.8093711" lon="9.2695563"><ele>711.5</ele><time>2026-03-29T09:49:18.311Z</time></trkpt><trkpt lat="44.8092645" lon="9.2700368"><ele>708.0</ele><time>2026-03-29T09:49:20.334Z</time></trkpt><trkpt lat="44.8091127" lon="9.2704888"><ele>713.0</ele><time>2026-03-29T09:49:22.373Z</time></trkpt><trkpt lat="44.8089644" lon="9.2708298"><ele>718.0</ele><time>2026-03-29T09:49:24.335Z</time></trkpt><trkpt lat="44.8088889" lon="9.2711086"><ele>718.0</ele><time>2026-03-29T09:49:26.325Z</time></trkpt><trkpt lat="44.8089697" lon="9.2713203"><ele>718.0</ele><time>2026-03-29T09:49:28.337Z</time></trkpt><trkpt lat="44.8091522" lon="9.2713181"><ele>718.0</ele><time>2026-03-29T09:49:30.34Z</time></trkpt><trkpt lat="44.8093644" lon="9.2710631"><ele>720.6666666666667</ele><time>2026-03-29T09:49:32.319Z</time></trkpt><trkpt lat="44.8095022" lon="9.2708736"><ele>723.3333333333334</ele><time>2026-03-29T09:49:33.322Z</time></trkpt><trkpt lat="44.8096502" lon="9.2706586"><ele>726.0</ele><time>2026-03-29T09:49:34.333Z</time></trkpt><trkpt lat="44.809774" lon="9.2704553"><ele>726.0</ele><time>2026-03-29T09:49:35.347Z</time></trkpt><trkpt lat="44.8098639" lon="9.2702939"><ele>726.0</ele><time>2026-03-29T09:49:36.355Z</time></trkpt><trkpt lat="44.8100229" lon="9.2701499"><ele>726.0</ele><time>2026-03-29T09:49:38.331Z</time></trkpt><trkpt lat="44.8100869" lon="9.2701801"><ele>726.0</ele><time>2026-03-29T09:49:39.338Z</time></trkpt><trkpt lat="44.8101216" lon="9.2703686"><ele>726.0</ele><time>2026-03-29T09:49:41.34Z</time></trkpt><trkpt lat="44.8100749" lon="9.2704809"><ele>726.0</ele><time>2026-03-29T09:49:42.343Z</time></trkpt><trkpt lat="44.8099944" lon="9.2706008"><ele>726.0</ele><time>2026-03-29T09:49:43.351Z</time></trkpt><trkpt lat="44.8098472" lon="9.2709293"><ele>731.0</ele><time>2026-03-29T09:49:45.344Z</time></trkpt><trkpt lat="44.8097949" lon="9.2713905"><ele>736.0</ele><time>2026-03-29T09:49:47.323Z</time></trkpt><trkpt lat="44.8098092" lon="9.2716466"><ele>739.5</ele><time>2026-03-29T09:49:48.327Z</time></trkpt><trkpt lat="44.8098779" lon="9.2721828"><ele>743.0</ele><time>2026-03-29T09:49:50.319Z</time></trkpt><trkpt lat="44.8099069" lon="9.2724298"><ele>743.0</ele><time>2026-03-29T09:49:51.328Z</time></trkpt><trkpt lat="44.8099292" lon="9.2726583"><ele>743.0</ele><time>2026-03-29T09:49:52.335Z</time></trkpt><trkpt lat="44.8099646" lon="9.2730886"><ele>743.4</ele><time>2026-03-29T09:49:54.318Z</time></trkpt><trkpt lat="44.8099787" lon="9.2732734"><ele>743.8</ele><time>2026-03-29T09:49:55.322Z</time></trkpt><trkpt lat="44.8100041" lon="9.273421"><ele>744.2</ele><time>2026-03-29T09:49:56.336Z</time></trkpt><trkpt lat="44.810058" lon="9.2735173"><ele>744.6</ele><time>2026-03-29T09:49:57.357Z</time></trkpt><trkpt lat="44.8101209" lon="9.2735393"><ele>745.0</ele><time>2026-03-29T09:49:58.36Z</time></trkpt><trkpt lat="44.8102257" lon="9.2733825"><ele>751.3333333333334</ele><time>2026-03-29T09:50:00.341Z</time></trkpt><trkpt lat="44.8102835" lon="9.2730716"><ele>757.6666666666666</ele><time>2026-03-29T09:50:02.318Z</time></trkpt><trkpt lat="44.8103457" lon="9.2729258"><ele>764.0</ele><time>2026-03-29T09:50:03.322Z</time></trkpt><trkpt lat="44.8104502" lon="9.2727941"><ele>764.0</ele><time>2026-03-29T09:50:04.343Z</time></trkpt><trkpt lat="44.8105692" lon="9.2726449"><ele>764.0</ele><time>2026-03-29T09:50:05.343Z</time></trkpt><trkpt lat="44.8106709" lon="9.2724521"><ele>764.0</ele><time>2026-03-29T09:50:06.355Z</time></trkpt><trkpt lat="44.810832" lon="9.2719561"><ele>765.5</ele><time>2026-03-29T09:50:08.324Z</time></trkpt><trkpt lat="44.8110246" lon="9.2715338"><ele>767.0</ele><time>2026-03-29T09:50:10.315Z</time></trkpt><trkpt lat="44.8111504" lon="9.2713476"><ele>767.0</ele><time>2026-03-29T09:50:11.342Z</time></trkpt><trkpt lat="44.8114322" lon="9.2709931"><ele>767.0</ele><time>2026-03-29T09:50:13.337Z</time></trkpt><trkpt lat="44.8115597" lon="9.2708473"><ele>767.0</ele><time>2026-03-29T09:50:14.339Z</time></trkpt><trkpt lat="44.8116615" lon="9.2707431"><ele>767.0</ele><time>2026-03-29T09:50:15.345Z</time></trkpt><trkpt lat="44.8118167" lon="9.2707251"><ele>767.0</ele><time>2026-03-29T09:50:17.339Z</time></trkpt><trkpt lat="44.8118587" lon="9.2708019"><ele>767.0</ele><time>2026-03-29T09:50:18.348Z</time></trkpt><trkpt lat="44.8118176" lon="9.2710638"><ele>771.0</ele><time>2026-03-29T09:50:20.35Z</time></trkpt><trkpt lat="44.8117092" lon="9.2714519"><ele>775.0</ele><time>2026-03-29T09:50:22.319Z</time></trkpt><trkpt lat="44.8116809" lon="9.2717091"><ele>775.0</ele><time>2026-03-29T09:50:23.322Z</time></trkpt><trkpt lat="44.8116609" lon="9.2719978"><ele>775.0</ele><time>2026-03-29T09:50:24.321Z</time></trkpt><trkpt lat="44.8116392" lon="9.2723068"><ele>775.0</ele><time>2026-03-29T09:50:25.325Z</time></trkpt><trkpt lat="44.811617" lon="9.272629"><ele>777.0</ele><time>2026-03-29T09:50:26.332Z</time></trkpt><trkpt lat="44.8115959" lon="9.2729414"><ele>779.0</ele><time>2026-03-29T09:50:27.332Z</time></trkpt><trkpt lat="44.8115822" lon="9.2732291"><ele>781.0</ele><time>2026-03-29T09:50:28.333Z</time></trkpt><trkpt lat="44.8115737" lon="9.2734981"><ele>786.5</ele><time>2026-03-29T09:50:29.343Z</time></trkpt><trkpt lat="44.8115755" lon="9.2740015"><ele>792.0</ele><time>2026-03-29T09:50:31.336Z</time></trkpt><trkpt lat="44.8115754" lon="9.2744316"><ele>794.5</ele><time>2026-03-29T09:50:33.338Z</time></trkpt><trkpt lat="44.8116069" lon="9.2747833"><ele>797.0</ele><time>2026-03-29T09:50:35.32Z</time></trkpt><trkpt lat="44.8117291" lon="9.2750496"><ele>797.0</ele><time>2026-03-29T09:50:37.313Z</time></trkpt><trkpt lat="44.8118005" lon="9.2751798"><ele>797.0</ele><time>2026-03-29T09:50:38.322Z</time></trkpt><trkpt lat="44.8118369" lon="9.2753348"><ele>797.0</ele><time>2026-03-29T09:50:39.328Z</time></trkpt><trkpt lat="44.8117974" lon="9.2757024"><ele>797.3333333333334</ele><time>2026-03-29T09:50:41.306Z</time></trkpt><trkpt lat="44.8117504" lon="9.2758889"><ele>797.6666666666667</ele><time>2026-03-29T09:50:42.316Z</time></trkpt><trkpt lat="44.8117119" lon="9.2760743"><ele>798.0</ele><time>2026-03-29T09:50:43.34Z</time></trkpt><trkpt lat="44.8117572" lon="9.2764256"><ele>799.3333333333333</ele><time>2026-03-29T09:50:45.312Z</time></trkpt><trkpt lat="44.8118082" lon="9.2765961"><ele>800.6666666666666</ele><time>2026-03-29T09:50:46.315Z</time></trkpt><trkpt lat="44.8118514" lon="9.2767686"><ele>802.0</ele><time>2026-03-29T09:50:47.318Z</time></trkpt><trkpt lat="44.8119075" lon="9.2771281"><ele>816.5</ele><time>2026-03-29T09:50:49.312Z</time></trkpt><trkpt lat="44.8119317" lon="9.2775101"><ele>831.0</ele><time>2026-03-29T09:50:51.312Z</time></trkpt><trkpt lat="44.8119474" lon="9.2778999"><ele>834.0</ele><time>2026-03-29T09:50:53.334Z</time></trkpt><trkpt lat="44.8119977" lon="9.2782656"><ele>837.0</ele><time>2026-03-29T09:50:55.314Z</time></trkpt><trkpt lat="44.8121121" lon="9.2786078"><ele>837.0</ele><time>2026-03-29T09:50:57.312Z</time></trkpt><trkpt lat="44.8121716" lon="9.2787753"><ele>837.0</ele><time>2026-03-29T09:50:58.325Z</time></trkpt><trkpt lat="44.8122047" lon="9.2791108"><ele>837.0</ele><time>2026-03-29T09:51:00.317Z</time></trkpt><trkpt lat="44.8121597" lon="9.2792684"><ele>839.0</ele><time>2026-03-29T09:51:01.339Z</time></trkpt><trkpt lat="44.8120972" lon="9.2796316"><ele>841.0</ele><time>2026-03-29T09:51:03.316Z</time></trkpt><trkpt lat="44.8121572" lon="9.2801225"><ele>843.0</ele><time>2026-03-29T09:51:05.313Z</time></trkpt><trkpt lat="44.8123074" lon="9.2806998"><ele>845.0</ele><time>2026-03-29T09:51:07.304Z</time></trkpt><trkpt lat="44.8123957" lon="9.2810046"><ele>840.5</ele><time>2026-03-29T09:51:08.324Z</time></trkpt><trkpt lat="44.8125219" lon="9.2815163"><ele>836.0</ele><time>2026-03-29T09:51:10.305Z</time></trkpt><trkpt lat="44.8125547" lon="9.2817249"><ele>836.0</ele><time>2026-03-29T09:51:11.309Z</time></trkpt><trkpt lat="44.812585" lon="9.2818941"><ele>836.0</ele><time>2026-03-29T09:51:12.326Z</time></trkpt><trkpt lat="44.8127177" lon="9.2821123"><ele>836.0</ele><time>2026-03-29T09:51:14.33Z</time></trkpt><trkpt lat="44.8130077" lon="9.2822679"><ele>847.5</ele><time>2026-03-29T09:51:16.35Z</time></trkpt><trkpt lat="44.8132982" lon="9.2823918"><ele>859.0</ele><time>2026-03-29T09:51:18.331Z</time></trkpt><trkpt lat="44.8135536" lon="9.2823466"><ele>862.6666666666666</ele><time>2026-03-29T09:51:20.302Z</time></trkpt><trkpt lat="44.813858" lon="9.2823456"><ele>866.3333333333333</ele><time>2026-03-29T09:51:22.305Z</time></trkpt><trkpt lat="44.8139814" lon="9.2823711"><ele>870.0</ele><time>2026-03-29T09:51:23.319Z</time></trkpt><trkpt lat="44.8140975" lon="9.2824968"><ele>870.0</ele><time>2026-03-29T09:51:25.293Z</time></trkpt><trkpt lat="44.8140904" lon="9.2825908"><ele>870.0</ele><time>2026-03-29T09:51:26.304Z</time></trkpt><trkpt lat="44.8140354" lon="9.2826593"><ele>870.0</ele><time>2026-03-29T09:51:27.313Z</time></trkpt><trkpt lat="44.8138372" lon="9.282717"><ele>870.0</ele><time>2026-03-29T09:51:29.3Z</time></trkpt><trkpt lat="44.8137051" lon="9.2827595"><ele>864.5</ele><time>2026-03-29T09:51:30.305Z</time></trkpt><trkpt lat="44.8133857" lon="9.2829001"><ele>859.0</ele><time>2026-03-29T09:51:32.299Z</time></trkpt><trkpt lat="44.813242" lon="9.282962"><ele>872.0</ele><time>2026-03-29T09:51:33.3Z</time></trkpt><trkpt lat="44.8130267" lon="9.2832399"><ele>885.0</ele><time>2026-03-29T09:51:35.295Z</time></trkpt><trkpt lat="44.8129234" lon="9.2834229"><ele>885.0</ele><time>2026-03-29T09:51:36.3Z</time></trkpt><trkpt lat="44.8127396" lon="9.2837578"><ele>885.0</ele><time>2026-03-29T09:51:38.301Z</time></trkpt><trkpt lat="44.8126047" lon="9.284119"><ele>881.6666666666667</ele><time>2026-03-29T09:51:40.298Z</time></trkpt><trkpt lat="44.8125277" lon="9.2843013"><ele>878.3333333333334</ele><time>2026-03-29T09:51:41.314Z</time></trkpt><trkpt lat="44.8124439" lon="9.2844741"><ele>875.0</ele><time>2026-03-29T09:51:42.323Z</time></trkpt><trkpt lat="44.8123014" lon="9.2848214"><ele>881.6666666666667</ele><time>2026-03-29T09:51:44.292Z</time></trkpt><trkpt lat="44.8122309" lon="9.2849795"><ele>888.3333333333333</ele><time>2026-03-29T09:51:45.31Z</time></trkpt><trkpt lat="44.8120421" lon="9.2851634"><ele>895.0</ele><time>2026-03-29T09:51:47.315Z</time></trkpt><trkpt lat="44.8119442" lon="9.2852169"><ele>895.0</ele><time>2026-03-29T09:51:48.314Z</time></trkpt><trkpt lat="44.8118721" lon="9.2853143"><ele>895.0</ele><time>2026-03-29T09:51:49.327Z</time></trkpt><trkpt lat="44.8118392" lon="9.2856121"><ele>895.0</ele><time>2026-03-29T09:51:51.307Z</time></trkpt><trkpt lat="44.8118565" lon="9.2860074"><ele>901.6666666666666</ele><time>2026-03-29T09:51:53.299Z</time></trkpt><trkpt lat="44.811848" lon="9.2862056"><ele>908.3333333333333</ele><time>2026-03-29T09:51:54.315Z</time></trkpt><trkpt lat="44.8119087" lon="9.2865361"><ele>915.0</ele><time>2026-03-29T09:51:56.303Z</time></trkpt><trkpt lat="44.8119822" lon="9.2866939"><ele>917.3333333333333</ele><time>2026-03-29T09:51:57.306Z</time></trkpt><trkpt lat="44.8120522" lon="9.2868681"><ele>919.6666666666666</ele><time>2026-03-29T09:51:58.309Z</time></trkpt><trkpt lat="44.8121129" lon="9.2870635"><ele>922.0</ele><time>2026-03-29T09:51:59.321Z</time></trkpt><trkpt lat="44.8122421" lon="9.2873983"><ele>922.0</ele><time>2026-03-29T09:52:01.305Z</time></trkpt><trkpt lat="44.8123279" lon="9.2875185"><ele>922.0</ele><time>2026-03-29T09:52:02.34Z</time></trkpt><trkpt lat="44.8124112" lon="9.2877486"><ele>922.0</ele><time>2026-03-29T09:52:04.322Z</time></trkpt><trkpt lat="44.8123102" lon="9.2879"><ele>922.0</ele><time>2026-03-29T09:52:06.317Z</time></trkpt><trkpt lat="44.8121787" lon="9.28781"><ele>922.0</ele><time>2026-03-29T09:52:08.305Z</time></trkpt><trkpt lat="44.8121137" lon="9.2876826"><ele>922.0</ele><time>2026-03-29T09:52:09.305Z</time></trkpt><trkpt lat="44.8119035" lon="9.2873594"><ele>915.3333333333333</ele><time>2026-03-29T09:52:11.295Z</time></trkpt><trkpt lat="44.8118102" lon="9.2871766"><ele>908.6666666666667</ele><time>2026-03-29T09:52:12.297Z</time></trkpt><trkpt lat="44.811716" lon="9.286999"><ele>902.0</ele><time>2026-03-29T09:52:13.317Z</time></trkpt><trkpt lat="44.8114389" lon="9.2867009"><ele>902.0</ele><time>2026-03-29T09:52:15.31Z</time></trkpt><trkpt lat="44.811153" lon="9.2866183"><ele>902.0</ele><time>2026-03-29T09:52:17.318Z</time></trkpt><trkpt lat="44.8109142" lon="9.2868238"><ele>903.0</ele><time>2026-03-29T09:52:19.313Z</time></trkpt><trkpt lat="44.8108105" lon="9.2869953"><ele>904.0</ele><time>2026-03-29T09:52:20.326Z</time></trkpt><trkpt lat="44.8105265" lon="9.287318"><ele>910.0</ele><time>2026-03-29T09:52:22.321Z</time></trkpt><trkpt lat="44.8101432" lon="9.2876554"><ele>910.0</ele><time>2026-03-29T09:52:24.324Z</time></trkpt><trkpt lat="44.8097712" lon="9.2880125"><ele>911.6666666666666</ele><time>2026-03-29T09:52:26.305Z</time></trkpt><trkpt lat="44.8096247" lon="9.2881933"><ele>913.3333333333333</ele><time>2026-03-29T09:52:27.307Z</time></trkpt><trkpt lat="44.8095001" lon="9.2883711"><ele>915.0</ele><time>2026-03-29T09:52:28.315Z</time></trkpt><trkpt lat="44.8093011" lon="9.2887086"><ele>918.6666666666667</ele><time>2026-03-29T09:52:30.324Z</time></trkpt><trkpt lat="44.8091899" lon="9.2890761"><ele>922.3333333333334</ele><time>2026-03-29T09:52:32.312Z</time></trkpt><trkpt lat="44.8091589" lon="9.2892833"><ele>926.0</ele><time>2026-03-29T09:52:33.325Z</time></trkpt><trkpt lat="44.8091271" lon="9.2896428"><ele>928.0</ele><time>2026-03-29T09:52:35.324Z</time></trkpt><trkpt lat="44.8091461" lon="9.2897766"><ele>930.0</ele><time>2026-03-29T09:52:36.324Z</time></trkpt><trkpt lat="44.809272" lon="9.2899201"><ele>932.0</ele><time>2026-03-29T09:52:38.363Z</time></trkpt><trkpt lat="44.8094174" lon="9.2898053"><ele>934.0</ele><time>2026-03-29T09:52:40.333Z</time></trkpt><trkpt lat="44.8094411" lon="9.2894833"><ele>934.6666666666666</ele><time>2026-03-29T09:52:42.318Z</time></trkpt><trkpt lat="44.8094559" lon="9.2893133"><ele>935.3333333333333</ele><time>2026-03-29T09:52:43.329Z</time></trkpt><trkpt lat="44.8096115" lon="9.2890354"><ele>936.0</ele><time>2026-03-29T09:52:45.343Z</time></trkpt><trkpt lat="44.8098879" lon="9.2887381"><ele>936.0</ele><time>2026-03-29T09:52:47.323Z</time></trkpt><trkpt lat="44.8100297" lon="9.2885939"><ele>936.0</ele><time>2026-03-29T09:52:48.344Z</time></trkpt><trkpt lat="44.810279" lon="9.2883758"><ele>939.5</ele><time>2026-03-29T09:52:50.321Z</time></trkpt><trkpt lat="44.8103881" lon="9.2883009"><ele>943.0</ele><time>2026-03-29T09:52:51.324Z</time></trkpt><trkpt lat="44.8104941" lon="9.288239"><ele>946.5</ele><time>2026-03-29T09:52:52.34Z</time></trkpt><trkpt lat="44.8106781" lon="9.2882251"><ele>950.0</ele><time>2026-03-29T09:52:54.32Z</time></trkpt><trkpt lat="44.8107496" lon="9.2882945"><ele>950.0</ele><time>2026-03-29T09:52:55.322Z</time></trkpt><trkpt lat="44.8108149" lon="9.2883845"><ele>950.0</ele><time>2026-03-29T09:52:56.324Z</time></trkpt><trkpt lat="44.8109366" lon="9.2885818"><ele>950.0</ele><time>2026-03-29T09:52:58.327Z</time></trkpt><trkpt lat="44.8109274" lon="9.2887758"><ele>950.0</ele><time>2026-03-29T09:53:00.321Z</time></trkpt><trkpt lat="44.8108662" lon="9.2888298"><ele>950.0</ele><time>2026-03-29T09:53:01.323Z</time></trkpt><trkpt lat="44.8106994" lon="9.2888038"><ele>950.0</ele><time>2026-03-29T09:53:03.35Z</time></trkpt><trkpt lat="44.8105386" lon="9.2887441"><ele>950.0</ele><time>2026-03-29T09:53:05.33Z</time></trkpt><trkpt lat="44.8103806" lon="9.2887968"><ele>950.0</ele><time>2026-03-29T09:53:07.308Z</time></trkpt><trkpt lat="44.8103134" lon="9.2888771"><ele>950.0</ele><time>2026-03-29T09:53:08.344Z</time></trkpt><trkpt lat="44.8101994" lon="9.2890908"><ele>950.0</ele><time>2026-03-29T09:53:10.323Z</time></trkpt><trkpt lat="44.8101082" lon="9.2893433"><ele>950.5</ele><time>2026-03-29T09:53:12.314Z</time></trkpt><trkpt lat="44.810066" lon="9.2894726"><ele>951.0</ele><time>2026-03-29T09:53:13.314Z</time></trkpt><trkpt lat="44.8100325" lon="9.28961"><ele>951.5</ele><time>2026-03-29T09:53:14.34Z</time></trkpt><trkpt lat="44.8099984" lon="9.2899063"><ele>952.0</ele><time>2026-03-29T09:53:16.322Z</time></trkpt><trkpt lat="44.8099557" lon="9.2900561"><ele>954.5</ele><time>2026-03-29T09:53:17.328Z</time></trkpt><trkpt lat="44.8098522" lon="9.2903569"><ele>957.0</ele><time>2026-03-29T09:53:19.31Z</time></trkpt><trkpt lat="44.809845" lon="9.2905138"><ele>959.5</ele><time>2026-03-29T09:53:20.312Z</time></trkpt><trkpt lat="44.8098829" lon="9.2906433"><ele>962.0</ele><time>2026-03-29T09:53:21.323Z</time></trkpt><trkpt lat="44.8100384" lon="9.2908064"><ele>964.0</ele><time>2026-03-29T09:53:23.312Z</time></trkpt><trkpt lat="44.8101122" lon="9.2910258"><ele>966.0</ele><time>2026-03-29T09:53:25.299Z</time></trkpt><trkpt lat="44.8100792" lon="9.2911346"><ele>968.0</ele><time>2026-03-29T09:53:26.31Z</time></trkpt><trkpt lat="44.8100111" lon="9.2912143"><ele>970.0</ele><time>2026-03-29T09:53:27.321Z</time></trkpt><trkpt lat="44.8099292" lon="9.2912894"><ele>972.0</ele><time>2026-03-29T09:53:28.324Z</time></trkpt><trkpt lat="44.8098571" lon="9.2913939"><ele>974.0</ele><time>2026-03-29T09:53:29.326Z</time></trkpt><trkpt lat="44.8098005" lon="9.2915324"><ele>976.0</ele><time>2026-03-29T09:53:30.327Z</time></trkpt><trkpt lat="44.8097461" lon="9.2918776"><ele>978.0</ele><time>2026-03-29T09:53:32.329Z</time></trkpt><trkpt lat="44.8097367" lon="9.2920686"><ele>983.5</ele><time>2026-03-29T09:53:33.333Z</time></trkpt><trkpt lat="44.8097177" lon="9.2924591"><ele>989.0</ele><time>2026-03-29T09:53:35.334Z</time></trkpt><trkpt lat="44.8096911" lon="9.2928605"><ele>989.0</ele><time>2026-03-29T09:53:37.326Z</time></trkpt><trkpt lat="44.8096766" lon="9.2930811"><ele>989.0</ele><time>2026-03-29T09:53:38.339Z</time></trkpt><trkpt lat="44.8096607" lon="9.2933231"><ele>989.0</ele><time>2026-03-29T09:53:39.354Z</time></trkpt><trkpt lat="44.8096565" lon="9.2937931"><ele>988.3333333333334</ele><time>2026-03-29T09:53:41.358Z</time></trkpt><trkpt lat="44.8096686" lon="9.2939844"><ele>987.6666666666667</ele><time>2026-03-29T09:53:42.359Z</time></trkpt><trkpt lat="44.8095659" lon="9.2942896"><ele>987.0</ele><time>2026-03-29T09:53:44.359Z</time></trkpt><trkpt lat="44.8093219" lon="9.2944396"><ele>987.0</ele><time>2026-03-29T09:53:46.351Z</time></trkpt><trkpt lat="44.8090483" lon="9.2946978"><ele>987.0</ele><time>2026-03-29T09:53:48.327Z</time></trkpt><trkpt lat="44.8087621" lon="9.294839"><ele>989.3333333333333</ele><time>2026-03-29T09:53:50.323Z</time></trkpt><trkpt lat="44.8086179" lon="9.294865"><ele>991.6666666666666</ele><time>2026-03-29T09:53:51.342Z</time></trkpt><trkpt lat="44.808411" lon="9.2950428"><ele>994.0</ele><time>2026-03-29T09:53:53.314Z</time></trkpt><trkpt lat="44.8083831" lon="9.295416"><ele>1000.0</ele><time>2026-03-29T09:53:55.343Z</time></trkpt><trkpt lat="44.8084571" lon="9.2959416"><ele>1006.0</ele><time>2026-03-29T09:53:57.309Z</time></trkpt><trkpt lat="44.8085204" lon="9.2962018"><ele>1020.0</ele><time>2026-03-29T09:53:58.312Z</time></trkpt><trkpt lat="44.8085854" lon="9.2964251"><ele>1034.0</ele><time>2026-03-29T09:53:59.316Z</time></trkpt><trkpt lat="44.8086187" lon="9.2968846"><ele>1034.0</ele><time>2026-03-29T09:54:01.322Z</time></trkpt><trkpt lat="44.808605" lon="9.2971033"><ele>1034.0</ele><time>2026-03-29T09:54:02.328Z</time></trkpt><trkpt lat="44.8085275" lon="9.2974199"><ele>1034.0</ele><time>2026-03-29T09:54:04.327Z</time></trkpt><trkpt lat="44.808326" lon="9.2975613"><ele>1028.0</ele><time>2026-03-29T09:54:06.317Z</time></trkpt><trkpt lat="44.8081331" lon="9.2976926"><ele>1022.0</ele><time>2026-03-29T09:54:08.326Z</time></trkpt><trkpt lat="44.8080372" lon="9.2980506"><ele>1027.3333333333335</ele><time>2026-03-29T09:54:10.323Z</time></trkpt><trkpt lat="44.8079734" lon="9.2982941"><ele>1032.6666666666667</ele><time>2026-03-29T09:54:11.324Z</time></trkpt><trkpt lat="44.8078957" lon="9.2985543"><ele>1038.0</ele><time>2026-03-29T09:54:12.374Z</time></trkpt><trkpt lat="44.8077496" lon="9.2989901"><ele>1033.3333333333333</ele><time>2026-03-29T09:54:14.312Z</time></trkpt><trkpt lat="44.8076669" lon="9.2991573"><ele>1028.6666666666665</ele><time>2026-03-29T09:54:15.319Z</time></trkpt><trkpt lat="44.8075197" lon="9.2994498"><ele>1024.0</ele><time>2026-03-29T09:54:17.32Z</time></trkpt><trkpt lat="44.8074796" lon="9.2996089"><ele>1029.0</ele><time>2026-03-29T09:54:18.337Z</time></trkpt><trkpt lat="44.8074682" lon="9.2999214"><ele>1034.0</ele><time>2026-03-29T09:54:20.325Z</time></trkpt><trkpt lat="44.8074785" lon="9.3000639"><ele>1039.0</ele><time>2026-03-29T09:54:21.345Z</time></trkpt><trkpt lat="44.8074019" lon="9.3002743"><ele>1039.0</ele><time>2026-03-29T09:54:23.325Z</time></trkpt><trkpt lat="44.8073202" lon="9.3003603"><ele>1039.0</ele><time>2026-03-29T09:54:24.33Z</time></trkpt><trkpt lat="44.8071997" lon="9.3006149"><ele>1039.0</ele><time>2026-03-29T09:54:26.332Z</time></trkpt><trkpt lat="44.8071922" lon="9.3009726"><ele>1044.6666666666665</ele><time>2026-03-29T09:54:28.34Z</time></trkpt><trkpt lat="44.8071537" lon="9.3013374"><ele>1050.3333333333333</ele><time>2026-03-29T09:54:30.33Z</time></trkpt><trkpt lat="44.8071207" lon="9.301522"><ele>1056.0</ele><time>2026-03-29T09:54:31.332Z</time></trkpt><trkpt lat="44.8070442" lon="9.3018898"><ele>1054.3333333333333</ele><time>2026-03-29T09:54:33.318Z</time></trkpt><trkpt lat="44.8069809" lon="9.302053"><ele>1052.6666666666665</ele><time>2026-03-29T09:54:34.323Z</time></trkpt><trkpt lat="44.8069042" lon="9.3022075"><ele>1051.0</ele><time>2026-03-29T09:54:35.331Z</time></trkpt><trkpt lat="44.8067577" lon="9.3025426"><ele>1051.0</ele><time>2026-03-29T09:54:37.327Z</time></trkpt><trkpt lat="44.8066389" lon="9.3029099"><ele>1051.0</ele><time>2026-03-29T09:54:39.349Z</time></trkpt><trkpt lat="44.8065371" lon="9.3032788"><ele>1056.0</ele><time>2026-03-29T09:54:41.334Z</time></trkpt><trkpt lat="44.8064661" lon="9.3034416"><ele>1061.0</ele><time>2026-03-29T09:54:42.345Z</time></trkpt><trkpt lat="44.8062971" lon="9.3037599"><ele>1066.0</ele><time>2026-03-29T09:54:44.345Z</time></trkpt><trkpt lat="44.8061679" lon="9.3041841"><ele>1066.0</ele><time>2026-03-29T09:54:46.345Z</time></trkpt><trkpt lat="44.806029" lon="9.3046545"><ele>1066.0</ele><time>2026-03-29T09:54:48.321Z</time></trkpt><trkpt lat="44.805953" lon="9.3048929"><ele>1066.0</ele><time>2026-03-29T09:54:49.323Z</time></trkpt><trkpt lat="44.8057854" lon="9.3053593"><ele>1066.0</ele><time>2026-03-29T09:54:51.329Z</time></trkpt><trkpt lat="44.8056996" lon="9.3055698"><ele>1075.0</ele><time>2026-03-29T09:54:52.341Z</time></trkpt><trkpt lat="44.8055789" lon="9.3060033"><ele>1084.0</ele><time>2026-03-29T09:54:54.365Z</time></trkpt><trkpt lat="44.8054522" lon="9.3064206"><ele>1087.0</ele><time>2026-03-29T09:54:56.316Z</time></trkpt><trkpt lat="44.8053414" lon="9.3066009"><ele>1090.0</ele><time>2026-03-29T09:54:57.318Z</time></trkpt><trkpt lat="44.8052304" lon="9.3067735"><ele>1093.0</ele><time>2026-03-29T09:54:58.324Z</time></trkpt><trkpt lat="44.805039" lon="9.3070854"><ele>1089.0</ele><time>2026-03-29T09:55:00.326Z</time></trkpt><trkpt lat="44.8049589" lon="9.3072256"><ele>1085.0</ele><time>2026-03-29T09:55:01.336Z</time></trkpt><trkpt lat="44.8048091" lon="9.3074741"><ele>1081.0</ele><time>2026-03-29T09:55:03.32Z</time></trkpt><trkpt lat="44.8047442" lon="9.3075924"><ele>1081.0</ele><time>2026-03-29T09:55:04.322Z</time></trkpt><trkpt lat="44.8046824" lon="9.3077041"><ele>1081.0</ele><time>2026-03-29T09:55:05.322Z</time></trkpt><trkpt lat="44.8045679" lon="9.3079071"><ele>1081.0</ele><time>2026-03-29T09:55:07.312Z</time></trkpt><trkpt lat="44.8044654" lon="9.3080911"><ele>1078.75</ele><time>2026-03-29T09:55:09.31Z</time></trkpt><trkpt lat="44.8044137" lon="9.3081784"><ele>1076.5</ele><time>2026-03-29T09:55:10.322Z</time></trkpt><trkpt lat="44.8043014" lon="9.3083456"><ele>1074.25</ele><time>2026-03-29T09:55:12.322Z</time></trkpt><trkpt lat="44.8041872" lon="9.3085013"><ele>1072.0</ele><time>2026-03-29T09:55:14.321Z</time></trkpt><trkpt lat="44.8041274" lon="9.3085763"><ele>1072.0</ele><time>2026-03-29T09:55:15.336Z</time></trkpt><trkpt lat="44.8040709" lon="9.3086576"><ele>1072.0</ele><time>2026-03-29T09:55:16.337Z</time></trkpt><trkpt lat="44.8039612" lon="9.3088473"><ele>1072.0</ele><time>2026-03-29T09:55:18.313Z</time></trkpt><trkpt lat="44.8039109" lon="9.3089603"><ele>1072.0</ele><time>2026-03-29T09:55:19.332Z</time></trkpt><trkpt lat="44.8038639" lon="9.3090868"><ele>1075.6666666666665</ele><time>2026-03-29T09:55:20.348Z</time></trkpt><trkpt lat="44.803779" lon="9.309377"><ele>1079.3333333333333</ele><time>2026-03-29T09:55:22.323Z</time></trkpt><trkpt lat="44.8037394" lon="9.3095353"><ele>1083.0</ele><time>2026-03-29T09:55:23.338Z</time></trkpt><trkpt lat="44.8036359" lon="9.3099191"><ele>1082.5</ele><time>2026-03-29T09:55:25.328Z</time></trkpt><trkpt lat="44.8034794" lon="9.3103394"><ele>1082.0</ele><time>2026-03-29T09:55:27.33Z</time></trkpt><trkpt lat="44.8033037" lon="9.3107224"><ele>1087.5</ele><time>2026-03-29T09:55:29.328Z</time></trkpt><trkpt lat="44.8031" lon="9.3110538"><ele>1093.0</ele><time>2026-03-29T09:55:31.346Z</time></trkpt><trkpt lat="44.8029804" lon="9.3111771"><ele>1093.0</ele><time>2026-03-29T09:55:32.36Z</time></trkpt><trkpt lat="44.8027645" lon="9.3113561"><ele>1093.0</ele><time>2026-03-29T09:55:34.329Z</time></trkpt><trkpt lat="44.8026809" lon="9.3114708"><ele>1093.0</ele><time>2026-03-29T09:55:35.334Z</time></trkpt><trkpt lat="44.8025397" lon="9.3117615"><ele>1092.6666666666665</ele><time>2026-03-29T09:55:37.341Z</time></trkpt><trkpt lat="44.8024767" lon="9.3119303"><ele>1092.3333333333333</ele><time>2026-03-29T09:55:38.344Z</time></trkpt><trkpt lat="44.8024187" lon="9.312104"><ele>1092.0</ele><time>2026-03-29T09:55:39.343Z</time></trkpt><trkpt lat="44.8023254" lon="9.3124168"><ele>1092.6666666666667</ele><time>2026-03-29T09:55:41.364Z</time></trkpt><trkpt lat="44.8022429" lon="9.3126834"><ele>1093.3333333333335</ele><time>2026-03-29T09:55:43.345Z</time></trkpt><trkpt lat="44.8021584" lon="9.3129478"><ele>1094.0</ele><time>2026-03-29T09:55:45.343Z</time></trkpt><trkpt lat="44.8020559" lon="9.3131785"><ele>1094.0</ele><time>2026-03-29T09:55:47.362Z</time></trkpt><trkpt lat="44.8019311" lon="9.3133341"><ele>1094.0</ele><time>2026-03-29T09:55:49.325Z</time></trkpt><trkpt lat="44.8018625" lon="9.3133949"><ele>1094.0</ele><time>2026-03-29T09:55:50.331Z</time></trkpt><trkpt lat="44.8017896" lon="9.3134568"><ele>1094.0</ele><time>2026-03-29T09:55:51.355Z</time></trkpt><trkpt lat="44.801638" lon="9.3135883"><ele>1095.75</ele><time>2026-03-29T09:55:53.349Z</time></trkpt><trkpt lat="44.8015611" lon="9.3136561"><ele>1097.5</ele><time>2026-03-29T09:55:54.353Z</time></trkpt><trkpt lat="44.801471" lon="9.3136986"><ele>1099.25</ele><time>2026-03-29T09:55:55.369Z</time></trkpt><trkpt lat="44.8012786" lon="9.3136674"><ele>1101.0</ele><time>2026-03-29T09:55:57.343Z</time></trkpt><trkpt lat="44.8010989" lon="9.3135519"><ele>1101.0</ele><time>2026-03-29T09:55:59.346Z</time></trkpt><trkpt lat="44.8010129" lon="9.3135149"><ele>1101.0</ele><time>2026-03-29T09:56:00.354Z</time></trkpt><trkpt lat="44.8009382" lon="9.3134916"><ele>1101.0</ele><time>2026-03-29T09:56:01.362Z</time></trkpt><trkpt lat="44.8008035" lon="9.3135048"><ele>1101.0</ele><time>2026-03-29T09:56:03.343Z</time></trkpt><trkpt lat="44.8006966" lon="9.3135456"><ele>1101.0</ele><time>2026-03-29T09:56:05.386Z</time></trkpt><trkpt lat="44.8006259" lon="9.3135766"><ele>1102.3333333333333</ele><time>2026-03-29T09:56:09.332Z</time></trkpt><trkpt lat="44.8005631" lon="9.3136451"><ele>1103.6666666666665</ele><time>2026-03-29T09:56:28.328Z</time></trkpt><trkpt lat="44.8003976" lon="9.3138326"><ele>1105.0</ele><time>2026-03-29T09:56:31.376Z</time></trkpt><trkpt lat="44.8003027" lon="9.3140273"><ele>1105.0</ele><time>2026-03-29T09:56:33.346Z</time></trkpt><trkpt lat="44.8002609" lon="9.3142765"><ele>1105.0</ele><time>2026-03-29T09:56:35.336Z</time></trkpt><trkpt lat="44.8002362" lon="9.3145585"><ele>1105.0</ele><time>2026-03-29T09:56:37.369Z</time></trkpt><trkpt lat="44.8001377" lon="9.3147854"><ele>1110.0</ele><time>2026-03-29T09:56:39.328Z</time></trkpt><trkpt lat="44.8000734" lon="9.3148744"><ele>1115.0</ele><time>2026-03-29T09:56:40.329Z</time></trkpt><trkpt lat="44.8000055" lon="9.3149765"><ele>1120.0</ele><time>2026-03-29T09:56:41.329Z</time></trkpt><trkpt lat="44.7999516" lon="9.3150996"><ele>1125.0</ele><time>2026-03-29T09:56:42.333Z</time></trkpt><trkpt lat="44.7999054" lon="9.3154074"><ele>1122.0</ele><time>2026-03-29T09:56:44.343Z</time></trkpt><trkpt lat="44.799891" lon="9.3157343"><ele>1119.0</ele><time>2026-03-29T09:56:46.327Z</time></trkpt><trkpt lat="44.7998574" lon="9.3158976"><ele>1116.0</ele><time>2026-03-29T09:56:47.334Z</time></trkpt><trkpt lat="44.7998047" lon="9.3160716"><ele>1114.3333333333333</ele><time>2026-03-29T09:56:48.342Z</time></trkpt><trkpt lat="44.79967" lon="9.3164228"><ele>1112.6666666666665</ele><time>2026-03-29T09:56:50.329Z</time></trkpt><trkpt lat="44.7996276" lon="9.3165843"><ele>1111.0</ele><time>2026-03-29T09:56:51.328Z</time></trkpt><trkpt lat="44.7996494" lon="9.3169331"><ele>1111.3333333333333</ele><time>2026-03-29T09:56:53.311Z</time></trkpt><trkpt lat="44.7997456" lon="9.3173263"><ele>1111.6666666666667</ele><time>2026-03-29T09:56:55.316Z</time></trkpt><trkpt lat="44.7997641" lon="9.3175299"><ele>1112.0</ele><time>2026-03-29T09:56:56.326Z</time></trkpt><trkpt lat="44.7997622" lon="9.3177429"><ele>1111.5</ele><time>2026-03-29T09:56:57.336Z</time></trkpt><trkpt lat="44.7997245" lon="9.3181453"><ele>1111.0</ele><time>2026-03-29T09:56:59.326Z</time></trkpt><trkpt lat="44.7995997" lon="9.3184571"><ele>1111.0</ele><time>2026-03-29T09:57:01.327Z</time></trkpt><trkpt lat="44.7993691" lon="9.3186988"><ele>1111.0</ele><time>2026-03-29T09:57:03.315Z</time></trkpt><trkpt lat="44.7992604" lon="9.3188218"><ele>1111.0</ele><time>2026-03-29T09:57:04.316Z</time></trkpt><trkpt lat="44.7991599" lon="9.3189543"><ele>1116.3333333333333</ele><time>2026-03-29T09:57:05.387Z</time></trkpt><trkpt lat="44.7989765" lon="9.3192051"><ele>1121.6666666666667</ele><time>2026-03-29T09:57:07.324Z</time></trkpt><trkpt lat="44.7988659" lon="9.3192944"><ele>1127.0</ele><time>2026-03-29T09:57:08.328Z</time></trkpt><trkpt lat="44.7987335" lon="9.319364"><ele>1134.0</ele><time>2026-03-29T09:57:09.355Z</time></trkpt><trkpt lat="44.7984677" lon="9.3194818"><ele>1141.0</ele><time>2026-03-29T09:57:11.335Z</time></trkpt><trkpt lat="44.7983747" lon="9.3195729"><ele>1148.0</ele><time>2026-03-29T09:57:12.425Z</time></trkpt><trkpt lat="44.7983374" lon="9.3197884"><ele>1148.0</ele><time>2026-03-29T09:57:14.329Z</time></trkpt><trkpt lat="44.7983972" lon="9.3198683"><ele>1148.0</ele><time>2026-03-29T09:57:15.343Z</time></trkpt><trkpt lat="44.7986281" lon="9.3200238"><ele>1148.0</ele><time>2026-03-29T09:57:17.329Z</time></trkpt><trkpt lat="44.7987799" lon="9.3201269"><ele>1140.3333333333335</ele><time>2026-03-29T09:57:18.333Z</time></trkpt><trkpt lat="44.7989156" lon="9.3202178"><ele>1132.6666666666667</ele><time>2026-03-29T09:57:19.353Z</time></trkpt><trkpt lat="44.7990634" lon="9.3204601"><ele>1125.0</ele><time>2026-03-29T09:57:21.344Z</time></trkpt><trkpt lat="44.7990942" lon="9.3206553"><ele>1125.0</ele><time>2026-03-29T09:57:22.404Z</time></trkpt><trkpt lat="44.799088" lon="9.3209878"><ele>1125.0</ele><time>2026-03-29T09:57:24.342Z</time></trkpt><trkpt lat="44.7989526" lon="9.3211365"><ele>1125.0</ele><time>2026-03-29T09:57:26.327Z</time></trkpt><trkpt lat="44.7988485" lon="9.3211919"><ele>1121.5</ele><time>2026-03-29T09:57:27.337Z</time></trkpt><trkpt lat="44.7985617" lon="9.3214596"><ele>1118.0</ele><time>2026-03-29T09:57:29.337Z</time></trkpt><trkpt lat="44.7984234" lon="9.321654"><ele>1130.0</ele><time>2026-03-29T09:57:30.345Z</time></trkpt><trkpt lat="44.7981915" lon="9.3219638"><ele>1142.0</ele><time>2026-03-29T09:57:32.3Z</time></trkpt><trkpt lat="44.7979485" lon="9.3222023"><ele>1142.6666666666667</ele><time>2026-03-29T09:57:34.301Z</time></trkpt><trkpt lat="44.797823" lon="9.322297"><ele>1143.3333333333333</ele><time>2026-03-29T09:57:35.331Z</time></trkpt><trkpt lat="44.7975821" lon="9.3223714"><ele>1144.0</ele><time>2026-03-29T09:57:37.305Z</time></trkpt><trkpt lat="44.7973977" lon="9.3224646"><ele>1144.0</ele><time>2026-03-29T09:57:39.305Z</time></trkpt><trkpt lat="44.7973504" lon="9.3225973"><ele>1144.0</ele><time>2026-03-29T09:57:40.322Z</time></trkpt><trkpt lat="44.7973225" lon="9.322907"><ele>1144.0</ele><time>2026-03-29T09:57:42.322Z</time></trkpt><trkpt lat="44.797296" lon="9.3232899"><ele>1140.3333333333333</ele><time>2026-03-29T09:57:44.319Z</time></trkpt><trkpt lat="44.7972807" lon="9.3235084"><ele>1136.6666666666667</ele><time>2026-03-29T09:57:45.322Z</time></trkpt><trkpt lat="44.7972571" lon="9.3237193"><ele>1133.0</ele><time>2026-03-29T09:57:46.331Z</time></trkpt><trkpt lat="44.7971565" lon="9.3241218"><ele>1130.0</ele><time>2026-03-29T09:57:48.328Z</time></trkpt><trkpt lat="44.7970186" lon="9.3244948"><ele>1127.0</ele><time>2026-03-29T09:57:50.345Z</time></trkpt><trkpt lat="44.7970136" lon="9.3248446"><ele>1125.6666666666667</ele><time>2026-03-29T09:57:52.323Z</time></trkpt><trkpt lat="44.7970789" lon="9.3252233"><ele>1124.3333333333333</ele><time>2026-03-29T09:57:54.322Z</time></trkpt><trkpt lat="44.7970551" lon="9.3254051"><ele>1123.0</ele><time>2026-03-29T09:57:55.324Z</time></trkpt><trkpt lat="44.7969932" lon="9.3255741"><ele>1139.5</ele><time>2026-03-29T09:57:56.339Z</time></trkpt><trkpt lat="44.7968187" lon="9.3258418"><ele>1156.0</ele><time>2026-03-29T09:57:58.321Z</time></trkpt><trkpt lat="44.7967869" lon="9.3261665"><ele>1138.5</ele><time>2026-03-29T09:58:00.313Z</time></trkpt><trkpt lat="44.7968984" lon="9.3265026"><ele>1121.0</ele><time>2026-03-29T09:58:02.312Z</time></trkpt><trkpt lat="44.7968647" lon="9.3267946"><ele>1121.0</ele><time>2026-03-29T09:58:04.317Z</time></trkpt><trkpt lat="44.796825" lon="9.3269301"><ele>1121.0</ele><time>2026-03-29T09:58:05.319Z</time></trkpt><trkpt lat="44.7968891" lon="9.3272005"><ele>1121.0</ele><time>2026-03-29T09:58:07.309Z</time></trkpt><trkpt lat="44.7969781" lon="9.3273718"><ele>1126.5</ele><time>2026-03-29T09:58:08.325Z</time></trkpt><trkpt lat="44.7971392" lon="9.3277091"><ele>1132.0</ele><time>2026-03-29T09:58:10.384Z</time></trkpt><trkpt lat="44.7972532" lon="9.3279364"><ele>1132.0</ele><time>2026-03-29T09:58:12.333Z</time></trkpt><trkpt lat="44.7972937" lon="9.3280191"><ele>1132.0</ele><time>2026-03-29T09:58:13.342Z</time></trkpt><trkpt lat="44.7973319" lon="9.3281779"><ele>1132.0</ele><time>2026-03-29T09:58:15.354Z</time></trkpt><trkpt lat="44.7973167" lon="9.3283071"><ele>1132.0</ele><time>2026-03-29T09:58:17.349Z</time></trkpt><trkpt lat="44.7973229" lon="9.3284129"><ele>1132.0</ele><time>2026-03-29T09:58:19.334Z</time></trkpt><trkpt lat="44.7973484" lon="9.3285026"><ele>1132.0</ele><time>2026-03-29T09:58:21.41Z</time></trkpt><trkpt lat="44.7973904" lon="9.3285796"><ele>1132.0</ele><time>2026-03-29T09:58:23.341Z</time></trkpt><trkpt lat="44.7974394" lon="9.3286413"><ele>1132.0</ele><time>2026-03-29T09:58:25.35Z</time></trkpt><trkpt lat="44.7975177" lon="9.328711"><ele>1132.0</ele><time>2026-03-29T09:58:28.33Z</time></trkpt><trkpt lat="44.7975744" lon="9.3288015"><ele>1132.0</ele><time>2026-03-29T09:58:31.325Z</time></trkpt><trkpt lat="44.7976261" lon="9.3289061"><ele>1132.0</ele><time>2026-03-29T09:58:34.336Z</time></trkpt><trkpt lat="44.7976847" lon="9.3289789"><ele>1132.0</ele><time>2026-03-29T09:58:37.338Z</time></trkpt><trkpt lat="44.7977666" lon="9.3289983"><ele>1132.0</ele><time>2026-03-29T09:58:42.352Z</time></trkpt><trkpt lat="44.7977911" lon="9.3289078"><ele>1132.0</ele><time>2026-03-29T09:58:48.342Z</time></trkpt><trkpt lat="44.7977349" lon="9.3287828"><ele>1132.0</ele><time>2026-03-29T09:58:51.345Z</time></trkpt><trkpt lat="44.7976589" lon="9.3287374"><ele>1132.0</ele><time>2026-03-29T09:59:27.343Z</time></trkpt><trkpt lat="44.7975929" lon="9.3286924"><ele>1132.0</ele><time>2026-03-29T09:59:30.341Z</time></trkpt><trkpt lat="44.7975269" lon="9.3286566"><ele>1132.0</ele><time>2026-03-29T09:59:34.329Z</time></trkpt><trkpt lat="44.7973925" lon="9.3285455"><ele>1133.6</ele><time>2026-03-29T09:59:57.259Z</time></trkpt><trkpt lat="44.7975223" lon="9.3286548"><ele>1135.2</ele><time>2026-03-29T10:00:03.167Z</time></trkpt><trkpt lat="44.7974908" lon="9.3285665"><ele>1136.8</ele><time>2026-03-29T10:36:48.17Z</time></trkpt><trkpt lat="44.7974685" lon="9.3284671"><ele>1138.4</ele><time>2026-03-29T10:36:51.17Z</time></trkpt><trkpt lat="44.7974081" lon="9.3283153"><ele>1140.0</ele><time>2026-03-29T10:37:32.323Z</time></trkpt><trkpt lat="44.7973609" lon="9.3281953"><ele>1140.0</ele><time>2026-03-29T10:37:34.311Z</time></trkpt><trkpt lat="44.797299" lon="9.3280613"><ele>1140.0</ele><time>2026-03-29T10:37:36.295Z</time></trkpt><trkpt lat="44.797252" lon="9.3279838"><ele>1140.0</ele><time>2026-03-29T10:37:37.298Z</time></trkpt><trkpt lat="44.7971974" lon="9.3279023"><ele>1140.0</ele><time>2026-03-29T10:37:38.317Z</time></trkpt><trkpt lat="44.7971477" lon="9.3278111"><ele>1140.0</ele><time>2026-03-29T10:37:39.322Z</time></trkpt><trkpt lat="44.7971026" lon="9.3277203"><ele>1140.0</ele><time>2026-03-29T10:37:40.357Z</time></trkpt><trkpt lat="44.7970115" lon="9.3275444"><ele>1138.4</ele><time>2026-03-29T10:37:42.316Z</time></trkpt><trkpt lat="44.7969671" lon="9.32746"><ele>1136.8</ele><time>2026-03-29T10:37:43.323Z</time></trkpt><trkpt lat="44.7969244" lon="9.3273793"><ele>1135.2</ele><time>2026-03-29T10:37:44.328Z</time></trkpt><trkpt lat="44.7968404" lon="9.3272194"><ele>1133.6</ele><time>2026-03-29T10:37:46.321Z</time></trkpt><trkpt lat="44.7967999" lon="9.3270219"><ele>1132.0</ele><time>2026-03-29T10:37:48.335Z</time></trkpt><trkpt lat="44.7968424" lon="9.3267986"><ele>1129.25</ele><time>2026-03-29T10:37:50.321Z</time></trkpt><trkpt lat="44.7968612" lon="9.3266829"><ele>1126.5</ele><time>2026-03-29T10:37:51.326Z</time></trkpt><trkpt lat="44.7968172" lon="9.3264543"><ele>1123.75</ele><time>2026-03-29T10:37:53.325Z</time></trkpt><trkpt lat="44.7967632" lon="9.3263446"><ele>1121.0</ele><time>2026-03-29T10:37:54.342Z</time></trkpt><trkpt lat="44.7967029" lon="9.3261049"><ele>1120.3333333333335</ele><time>2026-03-29T10:37:56.397Z</time></trkpt><trkpt lat="44.7967777" lon="9.3258691"><ele>1119.6666666666667</ele><time>2026-03-29T10:37:58.318Z</time></trkpt><trkpt lat="44.7968544" lon="9.3257705"><ele>1119.0</ele><time>2026-03-29T10:37:59.321Z</time></trkpt><trkpt lat="44.7970152" lon="9.3255473"><ele>1120.3333333333333</ele><time>2026-03-29T10:38:01.319Z</time></trkpt><trkpt lat="44.7970599" lon="9.3254026"><ele>1121.6666666666665</ele><time>2026-03-29T10:38:02.325Z</time></trkpt><trkpt lat="44.7970441" lon="9.3251035"><ele>1123.0</ele><time>2026-03-29T10:38:04.302Z</time></trkpt><trkpt lat="44.7969859" lon="9.3248328"><ele>1124.3333333333333</ele><time>2026-03-29T10:38:06.328Z</time></trkpt><trkpt lat="44.7970319" lon="9.3245448"><ele>1125.6666666666667</ele><time>2026-03-29T10:38:08.306Z</time></trkpt><trkpt lat="44.7970897" lon="9.3243879"><ele>1127.0</ele><time>2026-03-29T10:38:09.32Z</time></trkpt><trkpt lat="44.797156" lon="9.3242128"><ele>1129.0</ele><time>2026-03-29T10:38:10.34Z</time></trkpt><trkpt lat="44.7972576" lon="9.3238556"><ele>1131.0</ele><time>2026-03-29T10:38:12.305Z</time></trkpt><trkpt lat="44.7972812" lon="9.3236816"><ele>1133.0</ele><time>2026-03-29T10:38:13.308Z</time></trkpt><trkpt lat="44.79731" lon="9.3233333"><ele>1136.6666666666667</ele><time>2026-03-29T10:38:15.314Z</time></trkpt><trkpt lat="44.7973271" lon="9.3230151"><ele>1140.3333333333333</ele><time>2026-03-29T10:38:17.311Z</time></trkpt><trkpt lat="44.7973264" lon="9.3228721"><ele>1144.0</ele><time>2026-03-29T10:38:18.342Z</time></trkpt><trkpt lat="44.7973365" lon="9.3226213"><ele>1144.0</ele><time>2026-03-29T10:38:20.325Z</time></trkpt><trkpt lat="44.7973804" lon="9.3225224"><ele>1144.0</ele><time>2026-03-29T10:38:21.334Z</time></trkpt><trkpt lat="44.7975327" lon="9.3224386"><ele>1144.0</ele><time>2026-03-29T10:38:23.314Z</time></trkpt><trkpt lat="44.7976242" lon="9.3224349"><ele>1144.0</ele><time>2026-03-29T10:38:24.353Z</time></trkpt><trkpt lat="44.797826" lon="9.3223464"><ele>1143.3333333333333</ele><time>2026-03-29T10:38:26.311Z</time></trkpt><trkpt lat="44.7979286" lon="9.3222668"><ele>1142.6666666666667</ele><time>2026-03-29T10:38:27.326Z</time></trkpt><trkpt lat="44.7981207" lon="9.3220878"><ele>1142.0</ele><time>2026-03-29T10:38:29.31Z</time></trkpt><trkpt lat="44.7981977" lon="9.3219603"><ele>1142.0</ele><time>2026-03-29T10:38:30.323Z</time></trkpt><trkpt lat="44.7983954" lon="9.3217008"><ele>1142.0</ele><time>2026-03-29T10:38:32.298Z</time></trkpt><trkpt lat="44.7984969" lon="9.3215754"><ele>1142.0</ele><time>2026-03-29T10:38:33.344Z</time></trkpt><trkpt lat="44.7986995" lon="9.3213575"><ele>1137.75</ele><time>2026-03-29T10:38:35.316Z</time></trkpt><trkpt lat="44.7988084" lon="9.3212938"><ele>1133.5</ele><time>2026-03-29T10:38:36.323Z</time></trkpt><trkpt lat="44.7989161" lon="9.3212336"><ele>1129.25</ele><time>2026-03-29T10:38:37.326Z</time></trkpt><trkpt lat="44.7989997" lon="9.3211499"><ele>1125.0</ele><time>2026-03-29T10:38:38.329Z</time></trkpt><trkpt lat="44.7990317" lon="9.3208759"><ele>1125.0</ele><time>2026-03-29T10:38:40.315Z</time></trkpt><trkpt lat="44.7990245" lon="9.320709"><ele>1125.0</ele><time>2026-03-29T10:38:41.324Z</time></trkpt><trkpt lat="44.7990019" lon="9.3205494"><ele>1125.0</ele><time>2026-03-29T10:38:42.33Z</time></trkpt><trkpt lat="44.7988404" lon="9.3203185"><ele>1124.6666666666667</ele><time>2026-03-29T10:38:44.327Z</time></trkpt><trkpt lat="44.7987211" lon="9.3202335"><ele>1124.3333333333335</ele><time>2026-03-29T10:38:45.327Z</time></trkpt><trkpt lat="44.7984932" lon="9.3200988"><ele>1124.0</ele><time>2026-03-29T10:38:47.306Z</time></trkpt><trkpt lat="44.7984059" lon="9.3200464"><ele>1124.75</ele><time>2026-03-29T10:38:48.315Z</time></trkpt><trkpt lat="44.7983024" lon="9.3198804"><ele>1125.5</ele><time>2026-03-29T10:38:50.327Z</time></trkpt><trkpt lat="44.7983419" lon="9.3196884"><ele>1126.25</ele><time>2026-03-29T10:38:52.312Z</time></trkpt><trkpt lat="44.7984045" lon="9.3196159"><ele>1127.0</ele><time>2026-03-29T10:38:53.36Z</time></trkpt><trkpt lat="44.7986032" lon="9.3195458"><ele>1127.0</ele><time>2026-03-29T10:38:55.312Z</time></trkpt><trkpt lat="44.7987195" lon="9.3195228"><ele>1127.0</ele><time>2026-03-29T10:38:56.35Z</time></trkpt><trkpt lat="44.7989647" lon="9.3194124"><ele>1127.0</ele><time>2026-03-29T10:38:58.315Z</time></trkpt><trkpt lat="44.7990685" lon="9.3192823"><ele>1127.0</ele><time>2026-03-29T10:38:59.317Z</time></trkpt><trkpt lat="44.7991739" lon="9.3191373"><ele>1127.0</ele><time>2026-03-29T10:39:00.32Z</time></trkpt><trkpt lat="44.799297" lon="9.319008"><ele>1127.0</ele><time>2026-03-29T10:39:01.345Z</time></trkpt><trkpt lat="44.7995449" lon="9.3187809"><ele>1119.0</ele><time>2026-03-29T10:39:03.32Z</time></trkpt><trkpt lat="44.7997207" lon="9.318531"><ele>1111.0</ele><time>2026-03-29T10:39:05.332Z</time></trkpt><trkpt lat="44.7997509" lon="9.3181531"><ele>1111.3333333333333</ele><time>2026-03-29T10:39:07.31Z</time></trkpt><trkpt lat="44.7997584" lon="9.3179536"><ele>1111.6666666666667</ele><time>2026-03-29T10:39:08.344Z</time></trkpt><trkpt lat="44.7997459" lon="9.3175896"><ele>1112.0</ele><time>2026-03-29T10:39:10.318Z</time></trkpt><trkpt lat="44.7997099" lon="9.3174114"><ele>1111.6666666666667</ele><time>2026-03-29T10:39:11.32Z</time></trkpt><trkpt lat="44.7996307" lon="9.3170605"><ele>1111.3333333333333</ele><time>2026-03-29T10:39:13.302Z</time></trkpt><trkpt lat="44.7996166" lon="9.3168803"><ele>1111.0</ele><time>2026-03-29T10:39:14.312Z</time></trkpt><trkpt lat="44.7996434" lon="9.3166979"><ele>1113.5</ele><time>2026-03-29T10:39:15.33Z</time></trkpt><trkpt lat="44.7997531" lon="9.3163273"><ele>1116.0</ele><time>2026-03-29T10:39:17.32Z</time></trkpt><trkpt lat="44.7998389" lon="9.3159126"><ele>1116.0</ele><time>2026-03-29T10:39:19.32Z</time></trkpt><trkpt lat="44.7998509" lon="9.3156991"><ele>1116.0</ele><time>2026-03-29T10:39:20.341Z</time></trkpt><trkpt lat="44.799883" lon="9.3153561"><ele>1116.0</ele><time>2026-03-29T10:39:22.357Z</time></trkpt><trkpt lat="44.7999884" lon="9.3150601"><ele>1119.0</ele><time>2026-03-29T10:39:24.304Z</time></trkpt><trkpt lat="44.8000664" lon="9.3149416"><ele>1122.0</ele><time>2026-03-29T10:39:25.328Z</time></trkpt><trkpt lat="44.8001772" lon="9.3146694"><ele>1125.0</ele><time>2026-03-29T10:39:27.316Z</time></trkpt><trkpt lat="44.8001927" lon="9.3145033"><ele>1120.5</ele><time>2026-03-29T10:39:28.317Z</time></trkpt><trkpt lat="44.8002094" lon="9.3143344"><ele>1116.0</ele><time>2026-03-29T10:39:29.318Z</time></trkpt><trkpt lat="44.8002484" lon="9.3141684"><ele>1111.5</ele><time>2026-03-29T10:39:30.32Z</time></trkpt><trkpt lat="44.8003057" lon="9.3140156"><ele>1107.0</ele><time>2026-03-29T10:39:31.318Z</time></trkpt><trkpt lat="44.8003732" lon="9.3138919"><ele>1107.0</ele><time>2026-03-29T10:39:32.325Z</time></trkpt><trkpt lat="44.8004942" lon="9.313755"><ele>1107.0</ele><time>2026-03-29T10:39:34.326Z</time></trkpt><trkpt lat="44.8005632" lon="9.3137018"><ele>1107.0</ele><time>2026-03-29T10:39:36.299Z</time></trkpt><trkpt lat="44.8006384" lon="9.3136383"><ele>1107.0</ele><time>2026-03-29T10:39:39.315Z</time></trkpt><trkpt lat="44.8006876" lon="9.3135599"><ele>1107.0</ele><time>2026-03-29T10:39:41.322Z</time></trkpt><trkpt lat="44.8007007" lon="9.3134539"><ele>1107.0</ele><time>2026-03-29T10:39:43.332Z</time></trkpt><trkpt lat="44.8006322" lon="9.3132916"><ele>1107.0</ele><time>2026-03-29T10:39:45.33Z</time></trkpt><trkpt lat="44.8004844" lon="9.3129633"><ele>1107.0</ele><time>2026-03-29T10:39:47.342Z</time></trkpt><trkpt lat="44.8003829" lon="9.3127633"><ele>1104.5</ele><time>2026-03-29T10:39:48.353Z</time></trkpt><trkpt lat="44.8001775" lon="9.3123933"><ele>1102.0</ele><time>2026-03-29T10:39:50.327Z</time></trkpt><trkpt lat="44.799964" lon="9.3121506"><ele>1105.6666666666665</ele><time>2026-03-29T10:39:52.323Z</time></trkpt><trkpt lat="44.7998706" lon="9.3120446"><ele>1109.3333333333333</ele><time>2026-03-29T10:39:53.323Z</time></trkpt><trkpt lat="44.7997419" lon="9.3117771"><ele>1113.0</ele><time>2026-03-29T10:39:55.321Z</time></trkpt><trkpt lat="44.7996955" lon="9.3116103"><ele>1109.0</ele><time>2026-03-29T10:39:56.327Z</time></trkpt><trkpt lat="44.7996014" lon="9.3112679"><ele>1105.0</ele><time>2026-03-29T10:39:58.324Z</time></trkpt><trkpt lat="44.7995324" lon="9.3111203"><ele>1101.0</ele><time>2026-03-29T10:39:59.331Z</time></trkpt><trkpt lat="44.7994436" lon="9.3109996"><ele>1108.0</ele><time>2026-03-29T10:40:00.339Z</time></trkpt><trkpt lat="44.7992225" lon="9.3108814"><ele>1115.0</ele><time>2026-03-29T10:40:02.314Z</time></trkpt><trkpt lat="44.7990956" lon="9.3108809"><ele>1122.0</ele><time>2026-03-29T10:40:03.323Z</time></trkpt><trkpt lat="44.798948" lon="9.3108703"><ele>1122.0</ele><time>2026-03-29T10:40:04.332Z</time></trkpt><trkpt lat="44.7986714" lon="9.3107436"><ele>1122.0</ele><time>2026-03-29T10:40:06.335Z</time></trkpt><trkpt lat="44.7984031" lon="9.3106201"><ele>1118.0</ele><time>2026-03-29T10:40:08.319Z</time></trkpt><trkpt lat="44.7981494" lon="9.3105409"><ele>1114.0</ele><time>2026-03-29T10:40:10.318Z</time></trkpt><trkpt lat="44.7980292" lon="9.3104748"><ele>1110.0</ele><time>2026-03-29T10:40:11.329Z</time></trkpt><trkpt lat="44.7979087" lon="9.3103893"><ele>1117.5</ele><time>2026-03-29T10:40:12.333Z</time></trkpt><trkpt lat="44.7976627" lon="9.3102111"><ele>1125.0</ele><time>2026-03-29T10:40:14.326Z</time></trkpt><trkpt lat="44.7974317" lon="9.3100733"><ele>1125.0</ele><time>2026-03-29T10:40:16.337Z</time></trkpt><trkpt lat="44.7972005" lon="9.31"><ele>1125.0</ele><time>2026-03-29T10:40:18.309Z</time></trkpt><trkpt lat="44.7970789" lon="9.3099826"><ele>1125.0</ele><time>2026-03-29T10:40:19.309Z</time></trkpt><trkpt lat="44.7969559" lon="9.3099771"><ele>1127.3333333333333</ele><time>2026-03-29T10:40:20.308Z</time></trkpt><trkpt lat="44.7968272" lon="9.3099731"><ele>1129.6666666666665</ele><time>2026-03-29T10:40:21.316Z</time></trkpt><trkpt lat="44.7966929" lon="9.3099631"><ele>1132.0</ele><time>2026-03-29T10:40:22.317Z</time></trkpt><trkpt lat="44.7964202" lon="9.3099476"><ele>1132.0</ele><time>2026-03-29T10:40:24.319Z</time></trkpt><trkpt lat="44.7962916" lon="9.3099536"><ele>1132.0</ele><time>2026-03-29T10:40:25.319Z</time></trkpt><trkpt lat="44.7960374" lon="9.3100026"><ele>1132.0</ele><time>2026-03-29T10:40:27.32Z</time></trkpt><trkpt lat="44.795914" lon="9.3100426"><ele>1130.6666666666665</ele><time>2026-03-29T10:40:28.323Z</time></trkpt><trkpt lat="44.7958002" lon="9.310092"><ele>1129.3333333333333</ele><time>2026-03-29T10:40:29.323Z</time></trkpt><trkpt lat="44.7955986" lon="9.3102424"><ele>1128.0</ele><time>2026-03-29T10:40:31.324Z</time></trkpt><trkpt lat="44.7954017" lon="9.3104385"><ele>1131.0</ele><time>2026-03-29T10:40:33.32Z</time></trkpt><trkpt lat="44.7951879" lon="9.3106246"><ele>1134.0</ele><time>2026-03-29T10:40:35.308Z</time></trkpt><trkpt lat="44.7950841" lon="9.3107278"><ele>1137.0</ele><time>2026-03-29T10:40:36.321Z</time></trkpt><trkpt lat="44.7949014" lon="9.3109518"><ele>1137.0</ele><time>2026-03-29T10:40:38.322Z</time></trkpt><trkpt lat="44.7947514" lon="9.3111203"><ele>1137.0</ele><time>2026-03-29T10:40:40.34Z</time></trkpt><trkpt lat="44.7946199" lon="9.3112539"><ele>1137.0</ele><time>2026-03-29T10:40:42.312Z</time></trkpt><trkpt lat="44.7944866" lon="9.3113493"><ele>1137.0</ele><time>2026-03-29T10:40:44.327Z</time></trkpt><trkpt lat="44.7943602" lon="9.3112836"><ele>1137.0</ele><time>2026-03-29T10:40:46.319Z</time></trkpt><trkpt lat="44.7943424" lon="9.3111226"><ele>1137.0</ele><time>2026-03-29T10:40:48.321Z</time></trkpt><trkpt lat="44.7943531" lon="9.3110284"><ele>1137.0</ele><time>2026-03-29T10:40:49.342Z</time></trkpt><trkpt lat="44.7943217" lon="9.3107839"><ele>1135.5</ele><time>2026-03-29T10:40:51.345Z</time></trkpt><trkpt lat="44.7941565" lon="9.3105168"><ele>1134.0</ele><time>2026-03-29T10:40:53.341Z</time></trkpt><trkpt lat="44.7939394" lon="9.3102123"><ele>1134.0</ele><time>2026-03-29T10:40:55.337Z</time></trkpt><trkpt lat="44.7937721" lon="9.3098766"><ele>1134.0</ele><time>2026-03-29T10:40:57.323Z</time></trkpt><trkpt lat="44.7937264" lon="9.3096858"><ele>1134.0</ele><time>2026-03-29T10:40:58.332Z</time></trkpt><trkpt lat="44.7937126" lon="9.3093239"><ele>1134.0</ele><time>2026-03-29T10:41:00.328Z</time></trkpt><trkpt lat="44.7936912" lon="9.3091743"><ele>1134.0</ele><time>2026-03-29T10:41:01.346Z</time></trkpt><trkpt lat="44.7936346" lon="9.3090659"><ele>1134.0</ele><time>2026-03-29T10:41:02.348Z</time></trkpt><trkpt lat="44.7934557" lon="9.3090166"><ele>1134.0</ele><time>2026-03-29T10:41:04.323Z</time></trkpt><trkpt lat="44.7932847" lon="9.3088841"><ele>1134.0</ele><time>2026-03-29T10:41:06.329Z</time></trkpt><trkpt lat="44.7931139" lon="9.3086406"><ele>1134.0</ele><time>2026-03-29T10:41:08.329Z</time></trkpt><trkpt lat="44.7929317" lon="9.3083411"><ele>1134.0</ele><time>2026-03-29T10:41:10.312Z</time></trkpt><trkpt lat="44.7928624" lon="9.30817"><ele>1134.0</ele><time>2026-03-29T10:41:11.33Z</time></trkpt><trkpt lat="44.7928057" lon="9.3080153"><ele>1134.0</ele><time>2026-03-29T10:41:12.331Z</time></trkpt><trkpt lat="44.7927565" lon="9.3078798"><ele>1134.0</ele><time>2026-03-29T10:41:13.341Z</time></trkpt><trkpt lat="44.7927032" lon="9.3076448"><ele>1131.5</ele><time>2026-03-29T10:41:15.326Z</time></trkpt><trkpt lat="44.7927479" lon="9.3074368"><ele>1129.0</ele><time>2026-03-29T10:41:17.326Z</time></trkpt><trkpt lat="44.7927987" lon="9.3073486"><ele>1126.5</ele><time>2026-03-29T10:41:18.332Z</time></trkpt><trkpt lat="44.7928859" lon="9.3071473"><ele>1124.0</ele><time>2026-03-29T10:41:20.334Z</time></trkpt><trkpt lat="44.7928977" lon="9.3069186"><ele>1123.25</ele><time>2026-03-29T10:41:22.342Z</time></trkpt><trkpt lat="44.7928087" lon="9.3067599"><ele>1122.5</ele><time>2026-03-29T10:41:24.328Z</time></trkpt><trkpt lat="44.7926722" lon="9.3067526"><ele>1121.75</ele><time>2026-03-29T10:41:26.333Z</time></trkpt><trkpt lat="44.7925154" lon="9.3068089"><ele>1121.0</ele><time>2026-03-29T10:41:28.319Z</time></trkpt><trkpt lat="44.7924357" lon="9.3068376"><ele>1124.8</ele><time>2026-03-29T10:41:29.326Z</time></trkpt><trkpt lat="44.7923596" lon="9.3068546"><ele>1128.6</ele><time>2026-03-29T10:41:30.33Z</time></trkpt><trkpt lat="44.7922885" lon="9.3068496"><ele>1132.4</ele><time>2026-03-29T10:41:31.34Z</time></trkpt><trkpt lat="44.7921454" lon="9.3067741"><ele>1136.2</ele><time>2026-03-29T10:41:33.332Z</time></trkpt><trkpt lat="44.7920715" lon="9.3067004"><ele>1140.0</ele><time>2026-03-29T10:41:34.331Z</time></trkpt><trkpt lat="44.7918997" lon="9.3064686"><ele>1139.3333333333333</ele><time>2026-03-29T10:41:36.328Z</time></trkpt><trkpt lat="44.7917952" lon="9.3063296"><ele>1138.6666666666665</ele><time>2026-03-29T10:41:37.335Z</time></trkpt><trkpt lat="44.7916674" lon="9.3061708"><ele>1138.0</ele><time>2026-03-29T10:41:38.355Z</time></trkpt><trkpt lat="44.7913889" lon="9.3058334"><ele>1138.0</ele><time>2026-03-29T10:41:40.317Z</time></trkpt><trkpt lat="44.7912649" lon="9.3056823"><ele>1138.0</ele><time>2026-03-29T10:41:41.321Z</time></trkpt><trkpt lat="44.7911537" lon="9.3055476"><ele>1138.0</ele><time>2026-03-29T10:41:42.329Z</time></trkpt><trkpt lat="44.7909602" lon="9.3053288"><ele>1139.5</ele><time>2026-03-29T10:41:44.32Z</time></trkpt><trkpt lat="44.7908637" lon="9.3052536"><ele>1141.0</ele><time>2026-03-29T10:41:45.325Z</time></trkpt><trkpt lat="44.7907624" lon="9.3052201"><ele>1142.5</ele><time>2026-03-29T10:41:46.345Z</time></trkpt><trkpt lat="44.7905777" lon="9.3052788"><ele>1144.0</ele><time>2026-03-29T10:41:48.328Z</time></trkpt><trkpt lat="44.7904252" lon="9.3052746"><ele>1144.0</ele><time>2026-03-29T10:41:50.325Z</time></trkpt><trkpt lat="44.7903634" lon="9.3051984"><ele>1144.0</ele><time>2026-03-29T10:41:51.329Z</time></trkpt><trkpt lat="44.7903191" lon="9.3050724"><ele>1144.0</ele><time>2026-03-29T10:41:52.334Z</time></trkpt><trkpt lat="44.7902412" lon="9.3046978"><ele>1142.6666666666665</ele><time>2026-03-29T10:41:54.318Z</time></trkpt><trkpt lat="44.7902231" lon="9.3044733"><ele>1141.3333333333333</ele><time>2026-03-29T10:41:55.328Z</time></trkpt><trkpt lat="44.79024" lon="9.3042603"><ele>1140.0</ele><time>2026-03-29T10:41:56.329Z</time></trkpt><trkpt lat="44.7903589" lon="9.3039134"><ele>1140.0</ele><time>2026-03-29T10:41:58.334Z</time></trkpt><trkpt lat="44.7905047" lon="9.3036358"><ele>1140.0</ele><time>2026-03-29T10:42:00.336Z</time></trkpt><trkpt lat="44.7906332" lon="9.3033356"><ele>1140.0</ele><time>2026-03-29T10:42:02.313Z</time></trkpt><trkpt lat="44.7906857" lon="9.3031638"><ele>1140.0</ele><time>2026-03-29T10:42:03.351Z</time></trkpt><trkpt lat="44.7907762" lon="9.3028313"><ele>1140.0</ele><time>2026-03-29T10:42:05.321Z</time></trkpt><trkpt lat="44.7908301" lon="9.3026728"><ele>1138.0</ele><time>2026-03-29T10:42:06.339Z</time></trkpt><trkpt lat="44.7909011" lon="9.3025226"><ele>1136.0</ele><time>2026-03-29T10:42:07.339Z</time></trkpt><trkpt lat="44.7909827" lon="9.3023858"><ele>1134.0</ele><time>2026-03-29T10:42:08.34Z</time></trkpt><trkpt lat="44.7910717" lon="9.3022476"><ele>1132.0</ele><time>2026-03-29T10:42:09.37Z</time></trkpt><trkpt lat="44.791205" lon="9.3019201"><ele>1132.0</ele><time>2026-03-29T10:42:11.36Z</time></trkpt><trkpt lat="44.7912514" lon="9.3015651"><ele>1132.0</ele><time>2026-03-29T10:42:13.333Z</time></trkpt><trkpt lat="44.791285" lon="9.3014068"><ele>1132.0</ele><time>2026-03-29T10:42:14.349Z</time></trkpt><trkpt lat="44.7913712" lon="9.3011549"><ele>1134.6666666666665</ele><time>2026-03-29T10:42:16.366Z</time></trkpt><trkpt lat="44.7914079" lon="9.3009086"><ele>1137.3333333333333</ele><time>2026-03-29T10:42:18.34Z</time></trkpt><trkpt lat="44.7913402" lon="9.3007098"><ele>1140.0</ele><time>2026-03-29T10:42:20.337Z</time></trkpt><trkpt lat="44.7912165" lon="9.3007124"><ele>1140.0</ele><time>2026-03-29T10:42:22.325Z</time></trkpt><trkpt lat="44.7911524" lon="9.3007749"><ele>1140.0</ele><time>2026-03-29T10:42:23.342Z</time></trkpt><trkpt lat="44.7909697" lon="9.3008399"><ele>1140.0</ele><time>2026-03-29T10:42:25.325Z</time></trkpt><trkpt lat="44.7908562" lon="9.3008168"><ele>1140.0</ele><time>2026-03-29T10:42:26.328Z</time></trkpt><trkpt lat="44.7907382" lon="9.3007771"><ele>1138.0</ele><time>2026-03-29T10:42:27.333Z</time></trkpt><trkpt lat="44.7905104" lon="9.3006759"><ele>1136.0</ele><time>2026-03-29T10:42:29.323Z</time></trkpt><trkpt lat="44.7904002" lon="9.3006016"><ele>1134.0</ele><time>2026-03-29T10:42:30.324Z</time></trkpt><trkpt lat="44.7902961" lon="9.3005201"><ele>1134.0</ele><time>2026-03-29T10:42:31.326Z</time></trkpt><trkpt lat="44.7900925" lon="9.3004159"><ele>1134.0</ele><time>2026-03-29T10:42:33.324Z</time></trkpt><trkpt lat="44.7899871" lon="9.3004083"><ele>1134.0</ele><time>2026-03-29T10:42:34.327Z</time></trkpt><trkpt lat="44.7897731" lon="9.3005145"><ele>1134.25</ele><time>2026-03-29T10:42:36.329Z</time></trkpt><trkpt lat="44.7896801" lon="9.3006128"><ele>1134.5</ele><time>2026-03-29T10:42:37.335Z</time></trkpt><trkpt lat="44.7895312" lon="9.3008123"><ele>1134.75</ele><time>2026-03-29T10:42:39.334Z</time></trkpt><trkpt lat="44.7894552" lon="9.3008804"><ele>1135.0</ele><time>2026-03-29T10:42:40.337Z</time></trkpt><trkpt lat="44.789293" lon="9.3009464"><ele>1135.0</ele><time>2026-03-29T10:42:42.329Z</time></trkpt><trkpt lat="44.7892038" lon="9.3010114"><ele>1135.0</ele><time>2026-03-29T10:42:43.33Z</time></trkpt><trkpt lat="44.7890396" lon="9.3012468"><ele>1135.0</ele><time>2026-03-29T10:42:45.335Z</time></trkpt><trkpt lat="44.7889834" lon="9.3013869"><ele>1135.0</ele><time>2026-03-29T10:42:46.336Z</time></trkpt><trkpt lat="44.7889347" lon="9.3016496"><ele>1139.75</ele><time>2026-03-29T10:42:48.328Z</time></trkpt><trkpt lat="44.7889041" lon="9.3017506"><ele>1144.5</ele><time>2026-03-29T10:42:49.353Z</time></trkpt><trkpt lat="44.7887902" lon="9.3018479"><ele>1149.25</ele><time>2026-03-29T10:42:51.336Z</time></trkpt><trkpt lat="44.7887292" lon="9.3018245"><ele>1154.0</ele><time>2026-03-29T10:42:52.338Z</time></trkpt><trkpt lat="44.7885807" lon="9.3016831"><ele>1151.5</ele><time>2026-03-29T10:42:54.333Z</time></trkpt><trkpt lat="44.788496" lon="9.3016076"><ele>1149.0</ele><time>2026-03-29T10:42:55.332Z</time></trkpt><trkpt lat="44.7883052" lon="9.301546"><ele>1146.5</ele><time>2026-03-29T10:42:57.316Z</time></trkpt><trkpt lat="44.7882064" lon="9.3015826"><ele>1144.0</ele><time>2026-03-29T10:42:58.329Z</time></trkpt><trkpt lat="44.7880307" lon="9.3016984"><ele>1144.0</ele><time>2026-03-29T10:43:00.333Z</time></trkpt><trkpt lat="44.7878695" lon="9.3017546"><ele>1144.0</ele><time>2026-03-29T10:43:02.323Z</time></trkpt><trkpt lat="44.7877936" lon="9.3017236"><ele>1144.0</ele><time>2026-03-29T10:43:03.33Z</time></trkpt><trkpt lat="44.7877405" lon="9.3016608"><ele>1144.0</ele><time>2026-03-29T10:43:04.351Z</time></trkpt><trkpt lat="44.7876982" lon="9.3014541"><ele>1145.5</ele><time>2026-03-29T10:43:06.334Z</time></trkpt><trkpt lat="44.7876797" lon="9.3011473"><ele>1147.0</ele><time>2026-03-29T10:43:08.331Z</time></trkpt><trkpt lat="44.7876621" lon="9.3007929"><ele>1147.0</ele><time>2026-03-29T10:43:10.321Z</time></trkpt><trkpt lat="44.7876542" lon="9.3006201"><ele>1147.0</ele><time>2026-03-29T10:43:11.323Z</time></trkpt><trkpt lat="44.7876239" lon="9.3003468"><ele>1147.0</ele><time>2026-03-29T10:43:13.331Z</time></trkpt><trkpt lat="44.787494" lon="9.3002698"><ele>1147.0</ele><time>2026-03-29T10:43:15.335Z</time></trkpt><trkpt lat="44.7874135" lon="9.3003246"><ele>1147.0</ele><time>2026-03-29T10:43:16.334Z</time></trkpt><trkpt lat="44.7872564" lon="9.3005421"><ele>1147.0</ele><time>2026-03-29T10:43:18.338Z</time></trkpt><trkpt lat="44.7870487" lon="9.3006299"><ele>1147.0</ele><time>2026-03-29T10:43:20.324Z</time></trkpt><trkpt lat="44.7869064" lon="9.3005949"><ele>1147.0</ele><time>2026-03-29T10:43:21.325Z</time></trkpt><trkpt lat="44.7865874" lon="9.3004736"><ele>1141.0</ele><time>2026-03-29T10:43:23.323Z</time></trkpt><trkpt lat="44.7864039" lon="9.3003873"><ele>1135.0</ele><time>2026-03-29T10:43:24.332Z</time></trkpt><trkpt lat="44.7859882" lon="9.3001241"><ele>1135.0</ele><time>2026-03-29T10:43:26.322Z</time></trkpt><trkpt lat="44.7857967" lon="9.2999931"><ele>1135.0</ele><time>2026-03-29T10:43:27.325Z</time></trkpt><trkpt lat="44.7856185" lon="9.2998768"><ele>1135.0</ele><time>2026-03-29T10:43:28.331Z</time></trkpt><trkpt lat="44.785452" lon="9.2997708"><ele>1131.5</ele><time>2026-03-29T10:43:29.361Z</time></trkpt><trkpt lat="44.7851416" lon="9.2995808"><ele>1128.0</ele><time>2026-03-29T10:43:31.327Z</time></trkpt><trkpt lat="44.7848501" lon="9.2994244"><ele>1128.0</ele><time>2026-03-29T10:43:33.332Z</time></trkpt><trkpt lat="44.784608" lon="9.2993213"><ele>1128.0</ele><time>2026-03-29T10:43:35.335Z</time></trkpt><trkpt lat="44.784394" lon="9.2993291"><ele>1127.5</ele><time>2026-03-29T10:43:37.336Z</time></trkpt><trkpt lat="44.7842969" lon="9.2993853"><ele>1127.0</ele><time>2026-03-29T10:43:38.335Z</time></trkpt><trkpt lat="44.7842151" lon="9.2994634"><ele>1126.5</ele><time>2026-03-29T10:43:39.34Z</time></trkpt><trkpt lat="44.7840571" lon="9.2995808"><ele>1126.0</ele><time>2026-03-29T10:43:41.338Z</time></trkpt><trkpt lat="44.7839252" lon="9.2994911"><ele>1126.0</ele><time>2026-03-29T10:43:43.339Z</time></trkpt><trkpt lat="44.7838637" lon="9.2994528"><ele>1126.0</ele><time>2026-03-29T10:43:44.341Z</time></trkpt><trkpt lat="44.7837261" lon="9.2995148"><ele>1126.0</ele><time>2026-03-29T10:43:46.338Z</time></trkpt><trkpt lat="44.7835517" lon="9.2996696"><ele>1126.0</ele><time>2026-03-29T10:43:48.323Z</time></trkpt><trkpt lat="44.7834382" lon="9.2997148"><ele>1123.6666666666665</ele><time>2026-03-29T10:43:49.369Z</time></trkpt><trkpt lat="44.7832127" lon="9.2996901"><ele>1121.3333333333333</ele><time>2026-03-29T10:43:51.318Z</time></trkpt><trkpt lat="44.7831149" lon="9.2996084"><ele>1119.0</ele><time>2026-03-29T10:43:52.324Z</time></trkpt><trkpt lat="44.7829214" lon="9.2993193"><ele>1119.0</ele><time>2026-03-29T10:43:54.328Z</time></trkpt><trkpt lat="44.7827317" lon="9.2989713"><ele>1119.0</ele><time>2026-03-29T10:43:56.333Z</time></trkpt><trkpt lat="44.7826229" lon="9.2986778"><ele>1118.5</ele><time>2026-03-29T10:43:58.32Z</time></trkpt><trkpt lat="44.7825602" lon="9.2985826"><ele>1118.0</ele><time>2026-03-29T10:43:59.331Z</time></trkpt><trkpt lat="44.7823762" lon="9.2985083"><ele>1117.5</ele><time>2026-03-29T10:44:01.32Z</time></trkpt><trkpt lat="44.7822599" lon="9.2985066"><ele>1117.0</ele><time>2026-03-29T10:44:02.32Z</time></trkpt><trkpt lat="44.7821307" lon="9.2985206"><ele>1117.0</ele><time>2026-03-29T10:44:03.328Z</time></trkpt><trkpt lat="44.7820077" lon="9.2985339"><ele>1117.0</ele><time>2026-03-29T10:44:04.336Z</time></trkpt><trkpt lat="44.7817941" lon="9.2984959"><ele>1117.0</ele><time>2026-03-29T10:44:06.318Z</time></trkpt><trkpt lat="44.7817075" lon="9.2984163"><ele>1117.0</ele><time>2026-03-29T10:44:07.327Z</time></trkpt><trkpt lat="44.7815672" lon="9.2981684"><ele>1117.0</ele><time>2026-03-29T10:44:09.322Z</time></trkpt><trkpt lat="44.7814856" lon="9.2980476"><ele>1117.0</ele><time>2026-03-29T10:44:10.345Z</time></trkpt><trkpt lat="44.7813809" lon="9.297968"><ele>1117.0</ele><time>2026-03-29T10:44:11.346Z</time></trkpt><trkpt lat="44.7811096" lon="9.2979308"><ele>1117.3333333333333</ele><time>2026-03-29T10:44:13.325Z</time></trkpt><trkpt lat="44.7809541" lon="9.2979423"><ele>1117.6666666666667</ele><time>2026-03-29T10:44:14.334Z</time></trkpt><trkpt lat="44.7808045" lon="9.2979574"><ele>1118.0</ele><time>2026-03-29T10:44:15.35Z</time></trkpt><trkpt lat="44.7805612" lon="9.2979861"><ele>1118.0</ele><time>2026-03-29T10:44:17.336Z</time></trkpt><trkpt lat="44.7803724" lon="9.2979259"><ele>1118.0</ele><time>2026-03-29T10:44:19.336Z</time></trkpt><trkpt lat="44.7801846" lon="9.2977334"><ele>1118.0</ele><time>2026-03-29T10:44:21.335Z</time></trkpt><trkpt lat="44.7800199" lon="9.2974956"><ele>1119.0</ele><time>2026-03-29T10:44:23.33Z</time></trkpt><trkpt lat="44.7799572" lon="9.2973536"><ele>1120.0</ele><time>2026-03-29T10:44:24.357Z</time></trkpt><trkpt lat="44.7799076" lon="9.2972043"><ele>1121.0</ele><time>2026-03-29T10:44:25.372Z</time></trkpt><trkpt lat="44.7797954" lon="9.2969184"><ele>1117.5</ele><time>2026-03-29T10:44:27.331Z</time></trkpt><trkpt lat="44.7796946" lon="9.2967781"><ele>1114.0</ele><time>2026-03-29T10:44:28.342Z</time></trkpt><trkpt lat="44.7794281" lon="9.2964771"><ele>1111.5</ele><time>2026-03-29T10:44:30.333Z</time></trkpt><trkpt lat="44.7792802" lon="9.2963111"><ele>1109.0</ele><time>2026-03-29T10:44:31.341Z</time></trkpt><trkpt lat="44.7789911" lon="9.2959866"><ele>1109.0</ele><time>2026-03-29T10:44:33.334Z</time></trkpt><trkpt lat="44.7788512" lon="9.2958556"><ele>1109.0</ele><time>2026-03-29T10:44:34.336Z</time></trkpt><trkpt lat="44.7785702" lon="9.2956813"><ele>1107.0</ele><time>2026-03-29T10:44:36.332Z</time></trkpt><trkpt lat="44.7784416" lon="9.2955924"><ele>1105.0</ele><time>2026-03-29T10:44:37.354Z</time></trkpt><trkpt lat="44.7781841" lon="9.2954366"><ele>1103.0</ele><time>2026-03-29T10:44:39.329Z</time></trkpt><trkpt lat="44.7780379" lon="9.2953814"><ele>1103.0</ele><time>2026-03-29T10:44:40.338Z</time></trkpt><trkpt lat="44.7777612" lon="9.2953039"><ele>1103.0</ele><time>2026-03-29T10:44:42.332Z</time></trkpt><trkpt lat="44.777555" lon="9.2953385"><ele>1103.5</ele><time>2026-03-29T10:44:44.336Z</time></trkpt><trkpt lat="44.7773639" lon="9.2955608"><ele>1104.0</ele><time>2026-03-29T10:44:46.337Z</time></trkpt><trkpt lat="44.7771657" lon="9.2958419"><ele>1105.5</ele><time>2026-03-29T10:44:48.345Z</time></trkpt><trkpt lat="44.7770684" lon="9.2959221"><ele>1107.0</ele><time>2026-03-29T10:44:49.347Z</time></trkpt><trkpt lat="44.776888" lon="9.2959121"><ele>1108.5</ele><time>2026-03-29T10:44:51.328Z</time></trkpt><trkpt lat="44.7768014" lon="9.2958551"><ele>1110.0</ele><time>2026-03-29T10:44:52.326Z</time></trkpt><trkpt lat="44.7767136" lon="9.2958305"><ele>1110.0</ele><time>2026-03-29T10:44:53.333Z</time></trkpt><trkpt lat="44.7765347" lon="9.2959263"><ele>1110.0</ele><time>2026-03-29T10:44:55.338Z</time></trkpt><trkpt lat="44.7763505" lon="9.2960824"><ele>1110.0</ele><time>2026-03-29T10:44:57.345Z</time></trkpt><trkpt lat="44.7761084" lon="9.2961089"><ele>1109.25</ele><time>2026-03-29T10:44:59.33Z</time></trkpt><trkpt lat="44.7759739" lon="9.2960903"><ele>1108.5</ele><time>2026-03-29T10:45:00.339Z</time></trkpt><trkpt lat="44.7758459" lon="9.2960658"><ele>1107.75</ele><time>2026-03-29T10:45:01.343Z</time></trkpt><trkpt lat="44.7757337" lon="9.2960338"><ele>1107.0</ele><time>2026-03-29T10:45:02.35Z</time></trkpt><trkpt lat="44.7755602" lon="9.2958833"><ele>1107.0</ele><time>2026-03-29T10:45:04.343Z</time></trkpt><trkpt lat="44.7754776" lon="9.2957601"><ele>1107.0</ele><time>2026-03-29T10:45:05.348Z</time></trkpt><trkpt lat="44.775325" lon="9.2955074"><ele>1107.0</ele><time>2026-03-29T10:45:07.36Z</time></trkpt><trkpt lat="44.7751454" lon="9.295298"><ele>1107.5</ele><time>2026-03-29T10:45:09.341Z</time></trkpt><trkpt lat="44.7749152" lon="9.29518"><ele>1108.0</ele><time>2026-03-29T10:45:11.334Z</time></trkpt><trkpt lat="44.7747422" lon="9.2949801"><ele>1106.0</ele><time>2026-03-29T10:45:13.342Z</time></trkpt><trkpt lat="44.77465" lon="9.2947078"><ele>1104.0</ele><time>2026-03-29T10:45:15.341Z</time></trkpt><trkpt lat="44.7746144" lon="9.2945526"><ele>1102.0</ele><time>2026-03-29T10:45:16.352Z</time></trkpt><trkpt lat="44.774507" lon="9.2942763"><ele>1102.0</ele><time>2026-03-29T10:45:18.337Z</time></trkpt><trkpt lat="44.7744405" lon="9.2941848"><ele>1102.0</ele><time>2026-03-29T10:45:19.337Z</time></trkpt><trkpt lat="44.7743774" lon="9.2941234"><ele>1102.0</ele><time>2026-03-29T10:45:20.345Z</time></trkpt><trkpt lat="44.7742471" lon="9.2940428"><ele>1102.0</ele><time>2026-03-29T10:45:23.333Z</time></trkpt><trkpt lat="44.7741415" lon="9.2939983"><ele>1102.0</ele><time>2026-03-29T10:45:27.334Z</time></trkpt><trkpt lat="44.7740924" lon="9.2940759"><ele>1107.0</ele><time>2026-03-29T10:45:52.344Z</time></trkpt><trkpt lat="44.7740714" lon="9.2941826"><ele>1107.0</ele><time>2026-03-29T10:46:30.336Z</time></trkpt><trkpt lat="44.774046" lon="9.2943266"><ele>1107.0</ele><time>2026-03-29T10:46:33.348Z</time></trkpt><trkpt lat="44.774017" lon="9.2944524"><ele>1107.0</ele><time>2026-03-29T10:46:37.346Z</time></trkpt><trkpt lat="44.7740129" lon="9.2943621"><ele>1107.0</ele><time>2026-03-29T10:50:02.171Z</time></trkpt></trkseg></trk></gpx>